<?xml version="1.0" encoding="UTF-8" standalone="no" ?>
<gpx xmlns="http://www.topografix.com/GPX/1/1" xmlns:xsi="http://www.w3.org/2001/XMLSchema-instance" xsi:schemaLocation="http://www.topografix.com/GPX/1/1 http://www.topografix.com/GPX/1/1/gpx.xsd" version="1.1" creator="VisuGPX - https://www.visugpx.com">
  <metadata>
    <name>VTT - La Fontainebelleau</name>
    <desc><![CDATA[avec Fetra, David]]></desc>
  </metadata>
  <trk>
    <name><![CDATA[VTT - La Fontainebelleau]]></name>
    <desc><![CDATA[22 mars 2015  7:57 am]]></desc>
    <trkseg>
      <trkpt lat="48.40411" lon="2.68304">
        <ele>74.824</ele>
        <time>2015-03-22T07:00:31.343Z</time>
      </trkpt>
      <trkpt lat="48.40411" lon="2.68304">
        <ele>75.725</ele>
        <time>2015-03-22T07:00:31.344Z</time>
      </trkpt>
      <trkpt lat="48.40411" lon="2.68304">
        <ele>78.105</ele>
        <time>2015-03-22T07:00:31.444Z</time>
      </trkpt>
      <trkpt lat="48.40429" lon="2.68315">
        <ele>80.551</ele>
        <time>2015-03-22T07:00:48.309Z</time>
      </trkpt>
      <trkpt lat="48.40438" lon="2.68319">
        <ele>81.749</ele>
        <time>2015-03-22T07:00:51.793Z</time>
      </trkpt>
      <trkpt lat="48.40448" lon="2.68321">
        <ele>82.438</ele>
        <time>2015-03-22T07:00:54.801Z</time>
      </trkpt>
      <trkpt lat="48.40456" lon="2.68308">
        <ele>83.428</ele>
        <time>2015-03-22T07:00:57.753Z</time>
      </trkpt>
      <trkpt lat="48.40458" lon="2.68292">
        <ele>84.255</ele>
        <time>2015-03-22T07:01:00.345Z</time>
      </trkpt>
      <trkpt lat="48.40458" lon="2.68292">
        <ele>84.335</ele>
        <time>2015-03-22T07:01:05.356Z</time>
      </trkpt>
      <trkpt lat="48.40458" lon="2.68292">
        <ele>84.083</ele>
        <time>2015-03-22T07:01:05.456Z</time>
      </trkpt>
      <trkpt lat="48.40463" lon="2.68253">
        <ele>83.988</ele>
        <time>2015-03-22T07:01:23.746Z</time>
      </trkpt>
      <trkpt lat="48.40465" lon="2.68236">
        <ele>83.638</ele>
        <time>2015-03-22T07:01:27.082Z</time>
      </trkpt>
      <trkpt lat="48.40468" lon="2.68223">
        <ele>82.612</ele>
        <time>2015-03-22T07:01:29.417Z</time>
      </trkpt>
      <trkpt lat="48.40472" lon="2.68199">
        <ele>81.439</ele>
        <time>2015-03-22T07:01:33.085Z</time>
      </trkpt>
      <trkpt lat="48.40475" lon="2.68176">
        <ele>80.751</ele>
        <time>2015-03-22T07:01:36.249Z</time>
      </trkpt>
      <trkpt lat="48.40479" lon="2.68152">
        <ele>80.662</ele>
        <time>2015-03-22T07:01:39.303Z</time>
      </trkpt>
      <trkpt lat="48.4048" lon="2.68136">
        <ele>81.159</ele>
        <time>2015-03-22T07:01:41.284Z</time>
      </trkpt>
      <trkpt lat="48.40484" lon="2.6811">
        <ele>81.909</ele>
        <time>2015-03-22T07:01:44.559Z</time>
      </trkpt>
      <trkpt lat="48.40489" lon="2.68083">
        <ele>82.419</ele>
        <time>2015-03-22T07:01:47.708Z</time>
      </trkpt>
      <trkpt lat="48.40492" lon="2.68067">
        <ele>82.462</ele>
        <time>2015-03-22T07:01:49.655Z</time>
      </trkpt>
      <trkpt lat="48.40495" lon="2.68042">
        <ele>82.156</ele>
        <time>2015-03-22T07:01:52.485Z</time>
      </trkpt>
      <trkpt lat="48.40498" lon="2.68024">
        <ele>81.818</ele>
        <time>2015-03-22T07:01:54.374Z</time>
      </trkpt>
      <trkpt lat="48.40503" lon="2.67998">
        <ele>81.684</ele>
        <time>2015-03-22T07:01:57.141Z</time>
      </trkpt>
      <trkpt lat="48.40507" lon="2.67969">
        <ele>81.722</ele>
        <time>2015-03-22T07:01:59.982Z</time>
      </trkpt>
      <trkpt lat="48.40509" lon="2.67951">
        <ele>81.528</ele>
        <time>2015-03-22T07:02:01.823Z</time>
      </trkpt>
      <trkpt lat="48.40513" lon="2.67924">
        <ele>80.872</ele>
        <time>2015-03-22T07:02:04.683Z</time>
      </trkpt>
      <trkpt lat="48.40516" lon="2.67906">
        <ele>80.209</ele>
        <time>2015-03-22T07:02:06.679Z</time>
      </trkpt>
      <trkpt lat="48.40518" lon="2.67888">
        <ele>80.023</ele>
        <time>2015-03-22T07:02:08.732Z</time>
      </trkpt>
      <trkpt lat="48.40521" lon="2.6787">
        <ele>80.386</ele>
        <time>2015-03-22T07:02:10.814Z</time>
      </trkpt>
      <trkpt lat="48.40524" lon="2.67844">
        <ele>81.111</ele>
        <time>2015-03-22T07:02:13.639Z</time>
      </trkpt>
      <trkpt lat="48.40527" lon="2.67821">
        <ele>81.708</ele>
        <time>2015-03-22T07:02:16.399Z</time>
      </trkpt>
      <trkpt lat="48.4053" lon="2.67795">
        <ele>81.884</ele>
        <time>2015-03-22T07:02:19.598Z</time>
      </trkpt>
      <trkpt lat="48.40532" lon="2.67778">
        <ele>81.917</ele>
        <time>2015-03-22T07:02:21.784Z</time>
      </trkpt>
      <trkpt lat="48.40535" lon="2.67755">
        <ele>82.174</ele>
        <time>2015-03-22T07:02:24.405Z</time>
      </trkpt>
      <trkpt lat="48.40537" lon="2.6774">
        <ele>82.675</ele>
        <time>2015-03-22T07:02:26.036Z</time>
      </trkpt>
      <trkpt lat="48.40538" lon="2.67725">
        <ele>83.333</ele>
        <time>2015-03-22T07:02:27.754Z</time>
      </trkpt>
      <trkpt lat="48.40543" lon="2.67699">
        <ele>84.085</ele>
        <time>2015-03-22T07:02:30.939Z</time>
      </trkpt>
      <trkpt lat="48.40548" lon="2.67682">
        <ele>84.75</ele>
        <time>2015-03-22T07:02:33.094Z</time>
      </trkpt>
      <trkpt lat="48.40557" lon="2.67662">
        <ele>85.177</ele>
        <time>2015-03-22T07:02:36.014Z</time>
      </trkpt>
      <trkpt lat="48.40571" lon="2.67646">
        <ele>85.361</ele>
        <time>2015-03-22T07:02:39.776Z</time>
      </trkpt>
      <trkpt lat="48.40586" lon="2.67627">
        <ele>85.09</ele>
        <time>2015-03-22T07:02:43.635Z</time>
      </trkpt>
      <trkpt lat="48.40593" lon="2.67618">
        <ele>83.516</ele>
        <time>2015-03-22T07:02:45.477Z</time>
      </trkpt>
      <trkpt lat="48.40604" lon="2.67603">
        <ele>83.067</ele>
        <time>2015-03-22T07:02:48.505Z</time>
      </trkpt>
      <trkpt lat="48.40616" lon="2.67586">
        <ele>82.815</ele>
        <time>2015-03-22T07:02:51.910Z</time>
      </trkpt>
      <trkpt lat="48.40623" lon="2.67577">
        <ele>82.811</ele>
        <time>2015-03-22T07:02:54.248Z</time>
      </trkpt>
      <trkpt lat="48.40633" lon="2.67563">
        <ele>83.195</ele>
        <time>2015-03-22T07:02:58.712Z</time>
      </trkpt>
      <trkpt lat="48.4064" lon="2.67554">
        <ele>83.745</ele>
        <time>2015-03-22T07:03:02.288Z</time>
      </trkpt>
      <trkpt lat="48.40651" lon="2.67542">
        <ele>84.055</ele>
        <time>2015-03-22T07:03:07.605Z</time>
      </trkpt>
      <trkpt lat="48.40656" lon="2.6753">
        <ele>83.867</ele>
        <time>2015-03-22T07:03:11.079Z</time>
      </trkpt>
      <trkpt lat="48.40661" lon="2.67517">
        <ele>84.171</ele>
        <time>2015-03-22T07:03:14.831Z</time>
      </trkpt>
      <trkpt lat="48.40668" lon="2.67507">
        <ele>85.097</ele>
        <time>2015-03-22T07:03:18.385Z</time>
      </trkpt>
      <trkpt lat="48.40675" lon="2.67497">
        <ele>86.04</ele>
        <time>2015-03-22T07:03:21.282Z</time>
      </trkpt>
      <trkpt lat="48.40682" lon="2.67485">
        <ele>87.024</ele>
        <time>2015-03-22T07:03:24.581Z</time>
      </trkpt>
      <trkpt lat="48.40691" lon="2.67477">
        <ele>88.716</ele>
        <time>2015-03-22T07:03:27.162Z</time>
      </trkpt>
      <trkpt lat="48.407" lon="2.67487">
        <ele>90.75</ele>
        <time>2015-03-22T07:03:29.751Z</time>
      </trkpt>
      <trkpt lat="48.40706" lon="2.67501">
        <ele>92.199</ele>
        <time>2015-03-22T07:03:32.426Z</time>
      </trkpt>
      <trkpt lat="48.40711" lon="2.67516">
        <ele>92.968</ele>
        <time>2015-03-22T07:03:35.275Z</time>
      </trkpt>
      <trkpt lat="48.40715" lon="2.67528">
        <ele>93.419</ele>
        <time>2015-03-22T07:03:37.587Z</time>
      </trkpt>
      <trkpt lat="48.40721" lon="2.67547">
        <ele>93.614</ele>
        <time>2015-03-22T07:03:40.883Z</time>
      </trkpt>
      <trkpt lat="48.40728" lon="2.67565">
        <ele>93.499</ele>
        <time>2015-03-22T07:03:44.037Z</time>
      </trkpt>
      <trkpt lat="48.40733" lon="2.67582">
        <ele>93.573</ele>
        <time>2015-03-22T07:03:46.654Z</time>
      </trkpt>
      <trkpt lat="48.4074" lon="2.676">
        <ele>94.427</ele>
        <time>2015-03-22T07:03:49.342Z</time>
      </trkpt>
      <trkpt lat="48.40747" lon="2.67622">
        <ele>95.772</ele>
        <time>2015-03-22T07:03:52.416Z</time>
      </trkpt>
      <trkpt lat="48.40751" lon="2.67634">
        <ele>96.282</ele>
        <time>2015-03-22T07:03:54.211Z</time>
      </trkpt>
      <trkpt lat="48.40757" lon="2.67655">
        <ele>95.318</ele>
        <time>2015-03-22T07:03:57.150Z</time>
      </trkpt>
      <trkpt lat="48.40764" lon="2.67674">
        <ele>93.743</ele>
        <time>2015-03-22T07:03:59.991Z</time>
      </trkpt>
      <trkpt lat="48.40768" lon="2.67689">
        <ele>92.31</ele>
        <time>2015-03-22T07:04:02.223Z</time>
      </trkpt>
      <trkpt lat="48.40775" lon="2.6771">
        <ele>90.927</ele>
        <time>2015-03-22T07:04:05.407Z</time>
      </trkpt>
      <trkpt lat="48.4078" lon="2.67724">
        <ele>89.744</ele>
        <time>2015-03-22T07:04:07.499Z</time>
      </trkpt>
      <trkpt lat="48.40784" lon="2.67739">
        <ele>89.133</ele>
        <time>2015-03-22T07:04:09.801Z</time>
      </trkpt>
      <trkpt lat="48.40788" lon="2.67752">
        <ele>89.623</ele>
        <time>2015-03-22T07:04:11.880Z</time>
      </trkpt>
      <trkpt lat="48.40792" lon="2.67765">
        <ele>91.21</ele>
        <time>2015-03-22T07:04:14.126Z</time>
      </trkpt>
      <trkpt lat="48.40799" lon="2.67784">
        <ele>93.027</ele>
        <time>2015-03-22T07:04:17.289Z</time>
      </trkpt>
      <trkpt lat="48.40804" lon="2.67801">
        <ele>94.335</ele>
        <time>2015-03-22T07:04:20.297Z</time>
      </trkpt>
      <trkpt lat="48.40809" lon="2.67818">
        <ele>94.924</ele>
        <time>2015-03-22T07:04:23.485Z</time>
      </trkpt>
      <trkpt lat="48.40814" lon="2.67832">
        <ele>94.436</ele>
        <time>2015-03-22T07:04:26.548Z</time>
      </trkpt>
      <trkpt lat="48.4082" lon="2.67848">
        <ele>93.072</ele>
        <time>2015-03-22T07:04:30.765Z</time>
      </trkpt>
      <trkpt lat="48.40825" lon="2.67863">
        <ele>91.782</ele>
        <time>2015-03-22T07:04:35.356Z</time>
      </trkpt>
      <trkpt lat="48.40829" lon="2.67876">
        <ele>91.278</ele>
        <time>2015-03-22T07:04:38.145Z</time>
      </trkpt>
      <trkpt lat="48.40835" lon="2.67887">
        <ele>91.725</ele>
        <time>2015-03-22T07:04:40.361Z</time>
      </trkpt>
      <trkpt lat="48.40843" lon="2.67871">
        <ele>92.575</ele>
        <time>2015-03-22T07:04:43.110Z</time>
      </trkpt>
      <trkpt lat="48.40849" lon="2.67854">
        <ele>93.515</ele>
        <time>2015-03-22T07:04:45.498Z</time>
      </trkpt>
      <trkpt lat="48.40856" lon="2.67834">
        <ele>94.09</ele>
        <time>2015-03-22T07:04:48.214Z</time>
      </trkpt>
      <trkpt lat="48.40865" lon="2.67814">
        <ele>94.395</ele>
        <time>2015-03-22T07:04:51.172Z</time>
      </trkpt>
      <trkpt lat="48.4087" lon="2.67801">
        <ele>94.72</ele>
        <time>2015-03-22T07:04:52.882Z</time>
      </trkpt>
      <trkpt lat="48.40879" lon="2.6778">
        <ele>94.999</ele>
        <time>2015-03-22T07:04:55.753Z</time>
      </trkpt>
      <trkpt lat="48.40884" lon="2.67766">
        <ele>94.976</ele>
        <time>2015-03-22T07:04:57.780Z</time>
      </trkpt>
      <trkpt lat="48.40891" lon="2.67747">
        <ele>94.627</ele>
        <time>2015-03-22T07:05:00.505Z</time>
      </trkpt>
      <trkpt lat="48.40898" lon="2.67726">
        <ele>94.039</ele>
        <time>2015-03-22T07:05:03.568Z</time>
      </trkpt>
      <trkpt lat="48.40905" lon="2.67706">
        <ele>93.371</ele>
        <time>2015-03-22T07:05:06.618Z</time>
      </trkpt>
      <trkpt lat="48.40909" lon="2.67693">
        <ele>93.053</ele>
        <time>2015-03-22T07:05:08.573Z</time>
      </trkpt>
      <trkpt lat="48.40915" lon="2.67676">
        <ele>93.402</ele>
        <time>2015-03-22T07:05:11.276Z</time>
      </trkpt>
      <trkpt lat="48.40922" lon="2.67656">
        <ele>94.295</ele>
        <time>2015-03-22T07:05:14.539Z</time>
      </trkpt>
      <trkpt lat="48.40927" lon="2.67642">
        <ele>95.667</ele>
        <time>2015-03-22T07:05:16.926Z</time>
      </trkpt>
      <trkpt lat="48.40932" lon="2.67629">
        <ele>97.249</ele>
        <time>2015-03-22T07:05:19.332Z</time>
      </trkpt>
      <trkpt lat="48.40939" lon="2.67613">
        <ele>98.27</ele>
        <time>2015-03-22T07:05:22.183Z</time>
      </trkpt>
      <trkpt lat="48.40944" lon="2.67598">
        <ele>98.273</ele>
        <time>2015-03-22T07:05:24.736Z</time>
      </trkpt>
      <trkpt lat="48.4095" lon="2.67581">
        <ele>97.772</ele>
        <time>2015-03-22T07:05:27.767Z</time>
      </trkpt>
      <trkpt lat="48.40957" lon="2.67562">
        <ele>97.555</ele>
        <time>2015-03-22T07:05:31.147Z</time>
      </trkpt>
      <trkpt lat="48.40962" lon="2.67544">
        <ele>98.11</ele>
        <time>2015-03-22T07:05:34.452Z</time>
      </trkpt>
      <trkpt lat="48.40968" lon="2.67525">
        <ele>99.332</ele>
        <time>2015-03-22T07:05:37.883Z</time>
      </trkpt>
      <trkpt lat="48.40973" lon="2.6751">
        <ele>101.098</ele>
        <time>2015-03-22T07:05:40.816Z</time>
      </trkpt>
      <trkpt lat="48.40978" lon="2.67492">
        <ele>103.314</ele>
        <time>2015-03-22T07:05:44.002Z</time>
      </trkpt>
      <trkpt lat="48.40984" lon="2.67475">
        <ele>105.289</ele>
        <time>2015-03-22T07:05:46.940Z</time>
      </trkpt>
      <trkpt lat="48.4099" lon="2.67456">
        <ele>106.266</ele>
        <time>2015-03-22T07:05:49.965Z</time>
      </trkpt>
      <trkpt lat="48.40995" lon="2.67438">
        <ele>106.591</ele>
        <time>2015-03-22T07:05:52.788Z</time>
      </trkpt>
      <trkpt lat="48.41" lon="2.67423">
        <ele>106.839</ele>
        <time>2015-03-22T07:05:55.170Z</time>
      </trkpt>
      <trkpt lat="48.41007" lon="2.67403">
        <ele>107.093</ele>
        <time>2015-03-22T07:05:58.446Z</time>
      </trkpt>
      <trkpt lat="48.41014" lon="2.67387">
        <ele>107.164</ele>
        <time>2015-03-22T07:06:01.349Z</time>
      </trkpt>
      <trkpt lat="48.41022" lon="2.67373">
        <ele>106.246</ele>
        <time>2015-03-22T07:06:04.535Z</time>
      </trkpt>
      <trkpt lat="48.41028" lon="2.67357">
        <ele>103.708</ele>
        <time>2015-03-22T07:06:08.053Z</time>
      </trkpt>
      <trkpt lat="48.41031" lon="2.6734">
        <ele>98.514</ele>
        <time>2015-03-22T07:06:11.512Z</time>
      </trkpt>
      <trkpt lat="48.41028" lon="2.67323">
        <ele>97.4</ele>
        <time>2015-03-22T07:06:15.203Z</time>
      </trkpt>
      <trkpt lat="48.41026" lon="2.67309">
        <ele>97.537</ele>
        <time>2015-03-22T07:06:18.240Z</time>
      </trkpt>
      <trkpt lat="48.41023" lon="2.67295">
        <ele>98.574</ele>
        <time>2015-03-22T07:06:21.033Z</time>
      </trkpt>
      <trkpt lat="48.41021" lon="2.6728">
        <ele>99.73</ele>
        <time>2015-03-22T07:06:24.132Z</time>
      </trkpt>
      <trkpt lat="48.41019" lon="2.67264">
        <ele>100.495</ele>
        <time>2015-03-22T07:06:27.363Z</time>
      </trkpt>
      <trkpt lat="48.41018" lon="2.67246">
        <ele>100.678</ele>
        <time>2015-03-22T07:06:31.103Z</time>
      </trkpt>
      <trkpt lat="48.41017" lon="2.67228">
        <ele>100.562</ele>
        <time>2015-03-22T07:06:34.803Z</time>
      </trkpt>
      <trkpt lat="48.41014" lon="2.67213">
        <ele>100.422</ele>
        <time>2015-03-22T07:06:37.908Z</time>
      </trkpt>
      <trkpt lat="48.41012" lon="2.67198">
        <ele>100.346</ele>
        <time>2015-03-22T07:06:40.936Z</time>
      </trkpt>
      <trkpt lat="48.41009" lon="2.67183">
        <ele>100.854</ele>
        <time>2015-03-22T07:06:43.834Z</time>
      </trkpt>
      <trkpt lat="48.41007" lon="2.67167">
        <ele>102.235</ele>
        <time>2015-03-22T07:06:46.816Z</time>
      </trkpt>
      <trkpt lat="48.41006" lon="2.67151">
        <ele>103.656</ele>
        <time>2015-03-22T07:06:49.657Z</time>
      </trkpt>
      <trkpt lat="48.41006" lon="2.67137">
        <ele>104.482</ele>
        <time>2015-03-22T07:06:52.281Z</time>
      </trkpt>
      <trkpt lat="48.41005" lon="2.67122">
        <ele>105.016</ele>
        <time>2015-03-22T07:06:55.225Z</time>
      </trkpt>
      <trkpt lat="48.41003" lon="2.67106">
        <ele>105.464</ele>
        <time>2015-03-22T07:06:58.418Z</time>
      </trkpt>
      <trkpt lat="48.41001" lon="2.67093">
        <ele>105.804</ele>
        <time>2015-03-22T07:07:01.448Z</time>
      </trkpt>
      <trkpt lat="48.40999" lon="2.67077">
        <ele>106.258</ele>
        <time>2015-03-22T07:07:04.880Z</time>
      </trkpt>
      <trkpt lat="48.40996" lon="2.67061">
        <ele>106.988</ele>
        <time>2015-03-22T07:07:08.526Z</time>
      </trkpt>
      <trkpt lat="48.40995" lon="2.67048">
        <ele>107.732</ele>
        <time>2015-03-22T07:07:11.591Z</time>
      </trkpt>
      <trkpt lat="48.40993" lon="2.67032">
        <ele>108.198</ele>
        <time>2015-03-22T07:07:15.574Z</time>
      </trkpt>
      <trkpt lat="48.4099" lon="2.67015">
        <ele>108.461</ele>
        <time>2015-03-22T07:07:19.863Z</time>
      </trkpt>
      <trkpt lat="48.40988" lon="2.66999">
        <ele>108.689</ele>
        <time>2015-03-22T07:07:24.310Z</time>
      </trkpt>
      <trkpt lat="48.40987" lon="2.66983">
        <ele>109.337</ele>
        <time>2015-03-22T07:07:28.772Z</time>
      </trkpt>
      <trkpt lat="48.40986" lon="2.66968">
        <ele>110.555</ele>
        <time>2015-03-22T07:07:33.216Z</time>
      </trkpt>
      <trkpt lat="48.40985" lon="2.66953">
        <ele>111.692</ele>
        <time>2015-03-22T07:07:38.266Z</time>
      </trkpt>
      <trkpt lat="48.40983" lon="2.66937">
        <ele>112.742</ele>
        <time>2015-03-22T07:07:44.127Z</time>
      </trkpt>
      <trkpt lat="48.40979" lon="2.66922">
        <ele>114.486</ele>
        <time>2015-03-22T07:07:49.429Z</time>
      </trkpt>
      <trkpt lat="48.40979" lon="2.66922">
        <ele>116.55</ele>
        <time>2015-03-22T07:07:52.434Z</time>
      </trkpt>
      <trkpt lat="48.40979" lon="2.66922">
        <ele>117.669</ele>
        <time>2015-03-22T07:07:52.534Z</time>
      </trkpt>
      <trkpt lat="48.40975" lon="2.66883">
        <ele>117.305</ele>
        <time>2015-03-22T07:08:07.833Z</time>
      </trkpt>
      <trkpt lat="48.40974" lon="2.66868">
        <ele>116.31</ele>
        <time>2015-03-22T07:08:12.078Z</time>
      </trkpt>
      <trkpt lat="48.4097" lon="2.66855">
        <ele>116.265</ele>
        <time>2015-03-22T07:08:15.901Z</time>
      </trkpt>
      <trkpt lat="48.40965" lon="2.66843">
        <ele>117.581</ele>
        <time>2015-03-22T07:08:19.401Z</time>
      </trkpt>
      <trkpt lat="48.40962" lon="2.6683">
        <ele>120.59</ele>
        <time>2015-03-22T07:08:22.862Z</time>
      </trkpt>
      <trkpt lat="48.4096" lon="2.66817">
        <ele>125.246</ele>
        <time>2015-03-22T07:08:26.036Z</time>
      </trkpt>
      <trkpt lat="48.40959" lon="2.66801">
        <ele>129.354</ele>
        <time>2015-03-22T07:08:29.759Z</time>
      </trkpt>
      <trkpt lat="48.40959" lon="2.66787">
        <ele>130.971</ele>
        <time>2015-03-22T07:08:33.077Z</time>
      </trkpt>
      <trkpt lat="48.40959" lon="2.66771">
        <ele>130.709</ele>
        <time>2015-03-22T07:08:37.027Z</time>
      </trkpt>
      <trkpt lat="48.40957" lon="2.66757">
        <ele>129.765</ele>
        <time>2015-03-22T07:08:40.853Z</time>
      </trkpt>
      <trkpt lat="48.40955" lon="2.66744">
        <ele>128.93</ele>
        <time>2015-03-22T07:08:44.444Z</time>
      </trkpt>
      <trkpt lat="48.40954" lon="2.66728">
        <ele>128.571</ele>
        <time>2015-03-22T07:08:48.513Z</time>
      </trkpt>
      <trkpt lat="48.40952" lon="2.66711">
        <ele>128.811</ele>
        <time>2015-03-22T07:08:53.122Z</time>
      </trkpt>
      <trkpt lat="48.40949" lon="2.66694">
        <ele>129.357</ele>
        <time>2015-03-22T07:08:57.411Z</time>
      </trkpt>
      <trkpt lat="48.40946" lon="2.66681">
        <ele>130.053</ele>
        <time>2015-03-22T07:09:00.452Z</time>
      </trkpt>
      <trkpt lat="48.40943" lon="2.66667">
        <ele>131.264</ele>
        <time>2015-03-22T07:09:03.348Z</time>
      </trkpt>
      <trkpt lat="48.40943" lon="2.66667">
        <ele>132.89</ele>
        <time>2015-03-22T07:09:07.571Z</time>
      </trkpt>
      <trkpt lat="48.40943" lon="2.66667">
        <ele>133.898</ele>
        <time>2015-03-22T07:09:18.349Z</time>
      </trkpt>
      <trkpt lat="48.40943" lon="2.66667">
        <ele>133.786</ele>
        <time>2015-03-22T07:09:18.449Z</time>
      </trkpt>
      <trkpt lat="48.40941" lon="2.66646">
        <ele>133.335</ele>
        <time>2015-03-22T07:10:20.167Z</time>
      </trkpt>
      <trkpt lat="48.4094" lon="2.66631">
        <ele>134.807</ele>
        <time>2015-03-22T07:10:23.725Z</time>
      </trkpt>
      <trkpt lat="48.40942" lon="2.66613">
        <ele>139.002</ele>
        <time>2015-03-22T07:10:27.043Z</time>
      </trkpt>
      <trkpt lat="48.40941" lon="2.66594">
        <ele>143.195</ele>
        <time>2015-03-22T07:10:29.932Z</time>
      </trkpt>
      <trkpt lat="48.4094" lon="2.6658">
        <ele>145.034</ele>
        <time>2015-03-22T07:10:32.206Z</time>
      </trkpt>
      <trkpt lat="48.40938" lon="2.66563">
        <ele>145.478</ele>
        <time>2015-03-22T07:10:34.870Z</time>
      </trkpt>
      <trkpt lat="48.40935" lon="2.66545">
        <ele>145.947</ele>
        <time>2015-03-22T07:10:37.856Z</time>
      </trkpt>
      <trkpt lat="48.40932" lon="2.66528">
        <ele>146.616</ele>
        <time>2015-03-22T07:10:40.730Z</time>
      </trkpt>
      <trkpt lat="48.4093" lon="2.66507">
        <ele>146.881</ele>
        <time>2015-03-22T07:10:44.026Z</time>
      </trkpt>
      <trkpt lat="48.40928" lon="2.6649">
        <ele>146.287</ele>
        <time>2015-03-22T07:10:46.638Z</time>
      </trkpt>
      <trkpt lat="48.40924" lon="2.66472">
        <ele>144.521</ele>
        <time>2015-03-22T07:10:49.531Z</time>
      </trkpt>
      <trkpt lat="48.40921" lon="2.66449">
        <ele>142.056</ele>
        <time>2015-03-22T07:10:52.819Z</time>
      </trkpt>
      <trkpt lat="48.40917" lon="2.6643">
        <ele>140.047</ele>
        <time>2015-03-22T07:10:55.495Z</time>
      </trkpt>
      <trkpt lat="48.40914" lon="2.66413">
        <ele>138.682</ele>
        <time>2015-03-22T07:10:57.968Z</time>
      </trkpt>
      <trkpt lat="48.40912" lon="2.66393">
        <ele>137.433</ele>
        <time>2015-03-22T07:11:00.788Z</time>
      </trkpt>
      <trkpt lat="48.40911" lon="2.66372">
        <ele>136.512</ele>
        <time>2015-03-22T07:11:03.828Z</time>
      </trkpt>
      <trkpt lat="48.40909" lon="2.66356">
        <ele>136.274</ele>
        <time>2015-03-22T07:11:06.152Z</time>
      </trkpt>
      <trkpt lat="48.40907" lon="2.66341">
        <ele>136.511</ele>
        <time>2015-03-22T07:11:08.447Z</time>
      </trkpt>
      <trkpt lat="48.40903" lon="2.66324">
        <ele>137.407</ele>
        <time>2015-03-22T07:11:11.275Z</time>
      </trkpt>
      <trkpt lat="48.409" lon="2.66304">
        <ele>139.141</ele>
        <time>2015-03-22T07:11:14.400Z</time>
      </trkpt>
      <trkpt lat="48.40897" lon="2.66281">
        <ele>140.818</ele>
        <time>2015-03-22T07:11:17.790Z</time>
      </trkpt>
      <trkpt lat="48.40898" lon="2.66265">
        <ele>140.566</ele>
        <time>2015-03-22T07:11:20.209Z</time>
      </trkpt>
      <trkpt lat="48.40898" lon="2.66251">
        <ele>137.671</ele>
        <time>2015-03-22T07:11:22.556Z</time>
      </trkpt>
      <trkpt lat="48.40898" lon="2.66234">
        <ele>133.901</ele>
        <time>2015-03-22T07:11:25.441Z</time>
      </trkpt>
      <trkpt lat="48.40899" lon="2.66218">
        <ele>131.73</ele>
        <time>2015-03-22T07:11:28.348Z</time>
      </trkpt>
      <trkpt lat="48.40899" lon="2.66218">
        <ele>131.568</ele>
        <time>2015-03-22T07:11:33.343Z</time>
      </trkpt>
      <trkpt lat="48.40899" lon="2.66218">
        <ele>132.085</ele>
        <time>2015-03-22T07:11:33.443Z</time>
      </trkpt>
      <trkpt lat="48.4089" lon="2.66176">
        <ele>132.158</ele>
        <time>2015-03-22T07:11:59.553Z</time>
      </trkpt>
      <trkpt lat="48.40886" lon="2.66154">
        <ele>132.199</ele>
        <time>2015-03-22T07:12:03.410Z</time>
      </trkpt>
      <trkpt lat="48.40882" lon="2.66135">
        <ele>132.82</ele>
        <time>2015-03-22T07:12:06.556Z</time>
      </trkpt>
      <trkpt lat="48.4088" lon="2.66119">
        <ele>133.702</ele>
        <time>2015-03-22T07:12:08.812Z</time>
      </trkpt>
      <trkpt lat="48.40877" lon="2.66096">
        <ele>134.554</ele>
        <time>2015-03-22T07:12:11.937Z</time>
      </trkpt>
      <trkpt lat="48.40874" lon="2.66082">
        <ele>135.427</ele>
        <time>2015-03-22T07:12:13.869Z</time>
      </trkpt>
      <trkpt lat="48.4087" lon="2.6606">
        <ele>136.106</ele>
        <time>2015-03-22T07:12:16.796Z</time>
      </trkpt>
      <trkpt lat="48.40868" lon="2.66043">
        <ele>137.229</ele>
        <time>2015-03-22T07:12:18.998Z</time>
      </trkpt>
      <trkpt lat="48.40867" lon="2.66022">
        <ele>139.599</ele>
        <time>2015-03-22T07:12:21.863Z</time>
      </trkpt>
      <trkpt lat="48.40866" lon="2.66007">
        <ele>142.494</ele>
        <time>2015-03-22T07:12:23.746Z</time>
      </trkpt>
      <trkpt lat="48.40863" lon="2.65988">
        <ele>144.651</ele>
        <time>2015-03-22T07:12:26.239Z</time>
      </trkpt>
      <trkpt lat="48.40858" lon="2.65961">
        <ele>145.721</ele>
        <time>2015-03-22T07:12:29.654Z</time>
      </trkpt>
      <trkpt lat="48.40858" lon="2.65935">
        <ele>144.954</ele>
        <time>2015-03-22T07:12:33.058Z</time>
      </trkpt>
      <trkpt lat="48.40858" lon="2.6592">
        <ele>142.113</ele>
        <time>2015-03-22T07:12:34.930Z</time>
      </trkpt>
      <trkpt lat="48.40854" lon="2.65901">
        <ele>138.961</ele>
        <time>2015-03-22T07:12:37.494Z</time>
      </trkpt>
      <trkpt lat="48.40852" lon="2.65877">
        <ele>137.462</ele>
        <time>2015-03-22T07:12:40.507Z</time>
      </trkpt>
      <trkpt lat="48.40849" lon="2.65851">
        <ele>137.933</ele>
        <time>2015-03-22T07:12:43.977Z</time>
      </trkpt>
      <trkpt lat="48.40847" lon="2.65832">
        <ele>139.537</ele>
        <time>2015-03-22T07:12:46.543Z</time>
      </trkpt>
      <trkpt lat="48.40845" lon="2.65818">
        <ele>140.318</ele>
        <time>2015-03-22T07:12:48.515Z</time>
      </trkpt>
      <trkpt lat="48.4084" lon="2.65804">
        <ele>139.282</ele>
        <time>2015-03-22T07:12:50.595Z</time>
      </trkpt>
      <trkpt lat="48.40835" lon="2.65785">
        <ele>137.651</ele>
        <time>2015-03-22T07:12:53.293Z</time>
      </trkpt>
      <trkpt lat="48.40831" lon="2.65762">
        <ele>136.737</ele>
        <time>2015-03-22T07:12:56.271Z</time>
      </trkpt>
      <trkpt lat="48.40829" lon="2.65745">
        <ele>136.507</ele>
        <time>2015-03-22T07:12:58.349Z</time>
      </trkpt>
      <trkpt lat="48.40828" lon="2.65718">
        <ele>136.542</ele>
        <time>2015-03-22T07:13:01.672Z</time>
      </trkpt>
      <trkpt lat="48.40828" lon="2.65695">
        <ele>136.598</ele>
        <time>2015-03-22T07:13:04.619Z</time>
      </trkpt>
      <trkpt lat="48.40827" lon="2.65672">
        <ele>136.62</ele>
        <time>2015-03-22T07:13:07.556Z</time>
      </trkpt>
      <trkpt lat="48.40826" lon="2.65651">
        <ele>136.588</ele>
        <time>2015-03-22T07:13:10.261Z</time>
      </trkpt>
      <trkpt lat="48.40825" lon="2.65629">
        <ele>136.522</ele>
        <time>2015-03-22T07:13:13.085Z</time>
      </trkpt>
      <trkpt lat="48.40822" lon="2.65606">
        <ele>136.538</ele>
        <time>2015-03-22T07:13:16.014Z</time>
      </trkpt>
      <trkpt lat="48.40819" lon="2.65583">
        <ele>136.759</ele>
        <time>2015-03-22T07:13:18.999Z</time>
      </trkpt>
      <trkpt lat="48.40817" lon="2.65567">
        <ele>137.092</ele>
        <time>2015-03-22T07:13:21.098Z</time>
      </trkpt>
      <trkpt lat="48.40814" lon="2.65553">
        <ele>136.997</ele>
        <time>2015-03-22T07:13:22.959Z</time>
      </trkpt>
      <trkpt lat="48.40812" lon="2.65531">
        <ele>136.208</ele>
        <time>2015-03-22T07:13:25.890Z</time>
      </trkpt>
      <trkpt lat="48.40811" lon="2.65509">
        <ele>135.564</ele>
        <time>2015-03-22T07:13:29.228Z</time>
      </trkpt>
      <trkpt lat="48.40809" lon="2.65495">
        <ele>135.842</ele>
        <time>2015-03-22T07:13:31.625Z</time>
      </trkpt>
      <trkpt lat="48.4081" lon="2.65477">
        <ele>136.679</ele>
        <time>2015-03-22T07:13:35.251Z</time>
      </trkpt>
      <trkpt lat="48.40821" lon="2.65469">
        <ele>137.569</ele>
        <time>2015-03-22T07:13:38.410Z</time>
      </trkpt>
      <trkpt lat="48.40833" lon="2.6547">
        <ele>138.34</ele>
        <time>2015-03-22T07:13:41.520Z</time>
      </trkpt>
      <trkpt lat="48.40845" lon="2.65474">
        <ele>138.495</ele>
        <time>2015-03-22T07:13:44.433Z</time>
      </trkpt>
      <trkpt lat="48.40856" lon="2.65478">
        <ele>137.805</ele>
        <time>2015-03-22T07:13:47.150Z</time>
      </trkpt>
      <trkpt lat="48.40866" lon="2.65482">
        <ele>137.279</ele>
        <time>2015-03-22T07:13:49.572Z</time>
      </trkpt>
      <trkpt lat="48.40878" lon="2.65486">
        <ele>137.735</ele>
        <time>2015-03-22T07:13:52.220Z</time>
      </trkpt>
      <trkpt lat="48.40887" lon="2.65489">
        <ele>138.58</ele>
        <time>2015-03-22T07:13:54.287Z</time>
      </trkpt>
      <trkpt lat="48.40901" lon="2.65495">
        <ele>138.845</ele>
        <time>2015-03-22T07:13:57.384Z</time>
      </trkpt>
      <trkpt lat="48.40914" lon="2.65501">
        <ele>138.354</ele>
        <time>2015-03-22T07:14:00.216Z</time>
      </trkpt>
      <trkpt lat="48.40922" lon="2.65505">
        <ele>137.661</ele>
        <time>2015-03-22T07:14:02.092Z</time>
      </trkpt>
      <trkpt lat="48.40935" lon="2.6551">
        <ele>137.203</ele>
        <time>2015-03-22T07:14:04.807Z</time>
      </trkpt>
      <trkpt lat="48.4095" lon="2.65516">
        <ele>136.958</ele>
        <time>2015-03-22T07:14:07.905Z</time>
      </trkpt>
      <trkpt lat="48.40964" lon="2.6552">
        <ele>136.86</ele>
        <time>2015-03-22T07:14:10.632Z</time>
      </trkpt>
      <trkpt lat="48.40979" lon="2.65527">
        <ele>136.819</ele>
        <time>2015-03-22T07:14:13.519Z</time>
      </trkpt>
      <trkpt lat="48.4099" lon="2.65531">
        <ele>136.591</ele>
        <time>2015-03-22T07:14:15.567Z</time>
      </trkpt>
      <trkpt lat="48.41005" lon="2.65539">
        <ele>135.737</ele>
        <time>2015-03-22T07:14:18.555Z</time>
      </trkpt>
      <trkpt lat="48.4102" lon="2.65546">
        <ele>133.959</ele>
        <time>2015-03-22T07:14:21.375Z</time>
      </trkpt>
      <trkpt lat="48.41035" lon="2.65553">
        <ele>131.836</ele>
        <time>2015-03-22T07:14:24.059Z</time>
      </trkpt>
      <trkpt lat="48.4105" lon="2.65559">
        <ele>130.26</ele>
        <time>2015-03-22T07:14:26.853Z</time>
      </trkpt>
      <trkpt lat="48.41062" lon="2.65565">
        <ele>129.381</ele>
        <time>2015-03-22T07:14:29.038Z</time>
      </trkpt>
      <trkpt lat="48.41077" lon="2.65571">
        <ele>128.905</ele>
        <time>2015-03-22T07:14:31.838Z</time>
      </trkpt>
      <trkpt lat="48.4109" lon="2.65576">
        <ele>128.706</ele>
        <time>2015-03-22T07:14:34.381Z</time>
      </trkpt>
      <trkpt lat="48.41099" lon="2.6558">
        <ele>128.672</ele>
        <time>2015-03-22T07:14:36.190Z</time>
      </trkpt>
      <trkpt lat="48.41113" lon="2.65585">
        <ele>128.558</ele>
        <time>2015-03-22T07:14:38.981Z</time>
      </trkpt>
      <trkpt lat="48.41126" lon="2.6559">
        <ele>128.174</ele>
        <time>2015-03-22T07:14:42.081Z</time>
      </trkpt>
      <trkpt lat="48.41136" lon="2.65593">
        <ele>127.673</ele>
        <time>2015-03-22T07:14:44.874Z</time>
      </trkpt>
      <trkpt lat="48.41142" lon="2.6558">
        <ele>127.898</ele>
        <time>2015-03-22T07:14:48.397Z</time>
      </trkpt>
      <trkpt lat="48.41144" lon="2.65563">
        <ele>129.231</ele>
        <time>2015-03-22T07:14:51.880Z</time>
      </trkpt>
      <trkpt lat="48.41143" lon="2.65548">
        <ele>130.935</ele>
        <time>2015-03-22T07:14:54.745Z</time>
      </trkpt>
      <trkpt lat="48.41138" lon="2.65534">
        <ele>132.408</ele>
        <time>2015-03-22T07:14:57.650Z</time>
      </trkpt>
      <trkpt lat="48.41131" lon="2.65518">
        <ele>133.567</ele>
        <time>2015-03-22T07:15:00.677Z</time>
      </trkpt>
      <trkpt lat="48.41126" lon="2.65506">
        <ele>134.059</ele>
        <time>2015-03-22T07:15:02.956Z</time>
      </trkpt>
      <trkpt lat="48.41122" lon="2.65493">
        <ele>133.418</ele>
        <time>2015-03-22T07:15:05.012Z</time>
      </trkpt>
      <trkpt lat="48.41118" lon="2.65476">
        <ele>131.859</ele>
        <time>2015-03-22T07:15:07.721Z</time>
      </trkpt>
      <trkpt lat="48.41114" lon="2.6546">
        <ele>130.723</ele>
        <time>2015-03-22T07:15:10.342Z</time>
      </trkpt>
      <trkpt lat="48.41108" lon="2.65443">
        <ele>130.846</ele>
        <time>2015-03-22T07:15:13.389Z</time>
      </trkpt>
      <trkpt lat="48.41101" lon="2.65427">
        <ele>131.296</ele>
        <time>2015-03-22T07:15:16.227Z</time>
      </trkpt>
      <trkpt lat="48.41095" lon="2.6541">
        <ele>131.131</ele>
        <time>2015-03-22T07:15:19.092Z</time>
      </trkpt>
      <trkpt lat="48.41089" lon="2.65395">
        <ele>130.722</ele>
        <time>2015-03-22T07:15:21.892Z</time>
      </trkpt>
      <trkpt lat="48.41083" lon="2.65379">
        <ele>130.766</ele>
        <time>2015-03-22T07:15:24.666Z</time>
      </trkpt>
      <trkpt lat="48.41076" lon="2.65362">
        <ele>131.295</ele>
        <time>2015-03-22T07:15:27.705Z</time>
      </trkpt>
      <trkpt lat="48.41071" lon="2.65347">
        <ele>132.111</ele>
        <time>2015-03-22T07:15:30.434Z</time>
      </trkpt>
      <trkpt lat="48.41067" lon="2.6533">
        <ele>133.024</ele>
        <time>2015-03-22T07:15:33.260Z</time>
      </trkpt>
      <trkpt lat="48.41062" lon="2.65312">
        <ele>133.77</ele>
        <time>2015-03-22T07:15:36.158Z</time>
      </trkpt>
      <trkpt lat="48.41058" lon="2.65299">
        <ele>134.053</ele>
        <time>2015-03-22T07:15:38.242Z</time>
      </trkpt>
      <trkpt lat="48.41055" lon="2.65281">
        <ele>133.842</ele>
        <time>2015-03-22T07:15:41.096Z</time>
      </trkpt>
      <trkpt lat="48.41048" lon="2.65263">
        <ele>133.135</ele>
        <time>2015-03-22T07:15:44.101Z</time>
      </trkpt>
      <trkpt lat="48.4104" lon="2.65243">
        <ele>132.084</ele>
        <time>2015-03-22T07:15:47.359Z</time>
      </trkpt>
      <trkpt lat="48.41032" lon="2.65224">
        <ele>131.35</ele>
        <time>2015-03-22T07:15:50.422Z</time>
      </trkpt>
      <trkpt lat="48.41024" lon="2.65206">
        <ele>131.477</ele>
        <time>2015-03-22T07:15:53.207Z</time>
      </trkpt>
      <trkpt lat="48.41017" lon="2.65185">
        <ele>132.078</ele>
        <time>2015-03-22T07:15:56.377Z</time>
      </trkpt>
      <trkpt lat="48.41012" lon="2.65165">
        <ele>132.578</ele>
        <time>2015-03-22T07:15:59.101Z</time>
      </trkpt>
      <trkpt lat="48.41006" lon="2.65146">
        <ele>132.713</ele>
        <time>2015-03-22T07:16:01.896Z</time>
      </trkpt>
      <trkpt lat="48.40999" lon="2.65125">
        <ele>132.452</ele>
        <time>2015-03-22T07:16:04.827Z</time>
      </trkpt>
      <trkpt lat="48.40993" lon="2.65106">
        <ele>132.029</ele>
        <time>2015-03-22T07:16:07.574Z</time>
      </trkpt>
      <trkpt lat="48.40987" lon="2.65086">
        <ele>131.9</ele>
        <time>2015-03-22T07:16:10.530Z</time>
      </trkpt>
      <trkpt lat="48.40982" lon="2.65065">
        <ele>132.222</ele>
        <time>2015-03-22T07:16:13.476Z</time>
      </trkpt>
      <trkpt lat="48.40975" lon="2.65046">
        <ele>132.513</ele>
        <time>2015-03-22T07:16:16.155Z</time>
      </trkpt>
      <trkpt lat="48.40969" lon="2.65026">
        <ele>132.334</ele>
        <time>2015-03-22T07:16:19.102Z</time>
      </trkpt>
      <trkpt lat="48.40961" lon="2.65007">
        <ele>131.902</ele>
        <time>2015-03-22T07:16:21.957Z</time>
      </trkpt>
      <trkpt lat="48.40955" lon="2.64987">
        <ele>131.577</ele>
        <time>2015-03-22T07:16:24.795Z</time>
      </trkpt>
      <trkpt lat="48.4095" lon="2.6497">
        <ele>131.681</ele>
        <time>2015-03-22T07:16:27.259Z</time>
      </trkpt>
      <trkpt lat="48.40946" lon="2.64955">
        <ele>132.339</ele>
        <time>2015-03-22T07:16:29.589Z</time>
      </trkpt>
      <trkpt lat="48.40941" lon="2.64937">
        <ele>133.318</ele>
        <time>2015-03-22T07:16:32.311Z</time>
      </trkpt>
      <trkpt lat="48.40937" lon="2.64918">
        <ele>134.265</ele>
        <time>2015-03-22T07:16:35.220Z</time>
      </trkpt>
      <trkpt lat="48.4093" lon="2.649">
        <ele>134.936</ele>
        <time>2015-03-22T07:16:38.275Z</time>
      </trkpt>
      <trkpt lat="48.40924" lon="2.64883">
        <ele>135.138</ele>
        <time>2015-03-22T07:16:41.108Z</time>
      </trkpt>
      <trkpt lat="48.40918" lon="2.64864">
        <ele>134.948</ele>
        <time>2015-03-22T07:16:44.090Z</time>
      </trkpt>
      <trkpt lat="48.4091" lon="2.64848">
        <ele>134.67</ele>
        <time>2015-03-22T07:16:46.922Z</time>
      </trkpt>
      <trkpt lat="48.40903" lon="2.64828">
        <ele>134.761</ele>
        <time>2015-03-22T07:16:50.153Z</time>
      </trkpt>
      <trkpt lat="48.40897" lon="2.64809">
        <ele>135.601</ele>
        <time>2015-03-22T07:16:53.059Z</time>
      </trkpt>
      <trkpt lat="48.4089" lon="2.64792">
        <ele>137.015</ele>
        <time>2015-03-22T07:16:55.745Z</time>
      </trkpt>
      <trkpt lat="48.40886" lon="2.64777">
        <ele>138.266</ele>
        <time>2015-03-22T07:16:58.076Z</time>
      </trkpt>
      <trkpt lat="48.40882" lon="2.64759">
        <ele>139.161</ele>
        <time>2015-03-22T07:17:00.685Z</time>
      </trkpt>
      <trkpt lat="48.40878" lon="2.64733">
        <ele>139.951</ele>
        <time>2015-03-22T07:17:04.560Z</time>
      </trkpt>
      <trkpt lat="48.40874" lon="2.6471">
        <ele>140.46</ele>
        <time>2015-03-22T07:17:07.860Z</time>
      </trkpt>
      <trkpt lat="48.40868" lon="2.64691">
        <ele>141.579</ele>
        <time>2015-03-22T07:17:10.704Z</time>
      </trkpt>
      <trkpt lat="48.40864" lon="2.64669">
        <ele>142.419</ele>
        <time>2015-03-22T07:17:13.770Z</time>
      </trkpt>
      <trkpt lat="48.4086" lon="2.64644">
        <ele>142.055</ele>
        <time>2015-03-22T07:17:17.035Z</time>
      </trkpt>
      <trkpt lat="48.40857" lon="2.64623">
        <ele>141.86</ele>
        <time>2015-03-22T07:17:19.897Z</time>
      </trkpt>
      <trkpt lat="48.40854" lon="2.64602">
        <ele>141.667</ele>
        <time>2015-03-22T07:17:22.555Z</time>
      </trkpt>
      <trkpt lat="48.4085" lon="2.64581">
        <ele>141.181</ele>
        <time>2015-03-22T07:17:25.325Z</time>
      </trkpt>
      <trkpt lat="48.40845" lon="2.64562">
        <ele>140.598</ele>
        <time>2015-03-22T07:17:28.077Z</time>
      </trkpt>
      <trkpt lat="48.40843" lon="2.64537">
        <ele>140.194</ele>
        <time>2015-03-22T07:17:31.320Z</time>
      </trkpt>
      <trkpt lat="48.40842" lon="2.64521">
        <ele>139.899</ele>
        <time>2015-03-22T07:17:33.366Z</time>
      </trkpt>
      <trkpt lat="48.40841" lon="2.64507">
        <ele>139.695</ele>
        <time>2015-03-22T07:17:35.205Z</time>
      </trkpt>
      <trkpt lat="48.40838" lon="2.64492">
        <ele>139.843</ele>
        <time>2015-03-22T07:17:37.219Z</time>
      </trkpt>
      <trkpt lat="48.40834" lon="2.64474">
        <ele>140.394</ele>
        <time>2015-03-22T07:17:39.791Z</time>
      </trkpt>
      <trkpt lat="48.4083" lon="2.64459">
        <ele>140.865</ele>
        <time>2015-03-22T07:17:41.799Z</time>
      </trkpt>
      <trkpt lat="48.40825" lon="2.64437">
        <ele>140.821</ele>
        <time>2015-03-22T07:17:44.935Z</time>
      </trkpt>
      <trkpt lat="48.40822" lon="2.64421">
        <ele>140.346</ele>
        <time>2015-03-22T07:17:47.038Z</time>
      </trkpt>
      <trkpt lat="48.40818" lon="2.64403">
        <ele>139.645</ele>
        <time>2015-03-22T07:17:49.525Z</time>
      </trkpt>
      <trkpt lat="48.40814" lon="2.64381">
        <ele>138.91</ele>
        <time>2015-03-22T07:17:52.405Z</time>
      </trkpt>
      <trkpt lat="48.40811" lon="2.64359">
        <ele>138.431</ele>
        <time>2015-03-22T07:17:55.394Z</time>
      </trkpt>
      <trkpt lat="48.40809" lon="2.64344">
        <ele>138.138</ele>
        <time>2015-03-22T07:17:57.362Z</time>
      </trkpt>
      <trkpt lat="48.40804" lon="2.64324">
        <ele>137.083</ele>
        <time>2015-03-22T07:18:00.228Z</time>
      </trkpt>
      <trkpt lat="48.408" lon="2.6431">
        <ele>136.14</ele>
        <time>2015-03-22T07:18:02.141Z</time>
      </trkpt>
      <trkpt lat="48.40796" lon="2.64293">
        <ele>136.517</ele>
        <time>2015-03-22T07:18:04.652Z</time>
      </trkpt>
      <trkpt lat="48.40792" lon="2.64311">
        <ele>136.542</ele>
        <time>2015-03-22T07:18:07.238Z</time>
      </trkpt>
      <trkpt lat="48.40791" lon="2.64327">
        <ele>135.712</ele>
        <time>2015-03-22T07:18:10.376Z</time>
      </trkpt>
      <trkpt lat="48.40787" lon="2.64344">
        <ele>133.754</ele>
        <time>2015-03-22T07:18:13.932Z</time>
      </trkpt>
      <trkpt lat="48.40781" lon="2.6437">
        <ele>131.447</ele>
        <time>2015-03-22T07:18:20.127Z</time>
      </trkpt>
      <trkpt lat="48.40776" lon="2.64397">
        <ele>129.935</ele>
        <time>2015-03-22T07:18:24.240Z</time>
      </trkpt>
      <trkpt lat="48.40772" lon="2.64414">
        <ele>129.505</ele>
        <time>2015-03-22T07:18:26.456Z</time>
      </trkpt>
      <trkpt lat="48.4077" lon="2.64432">
        <ele>129.797</ele>
        <time>2015-03-22T07:18:28.556Z</time>
      </trkpt>
      <trkpt lat="48.40765" lon="2.64464">
        <ele>130.033</ele>
        <time>2015-03-22T07:18:31.936Z</time>
      </trkpt>
      <trkpt lat="48.40761" lon="2.64499">
        <ele>129.632</ele>
        <time>2015-03-22T07:18:35.140Z</time>
      </trkpt>
      <trkpt lat="48.40757" lon="2.64534">
        <ele>128.345</ele>
        <time>2015-03-22T07:18:38.032Z</time>
      </trkpt>
      <trkpt lat="48.40754" lon="2.64559">
        <ele>126.101</ele>
        <time>2015-03-22T07:18:40.114Z</time>
      </trkpt>
      <trkpt lat="48.40751" lon="2.64584">
        <ele>123.563</ele>
        <time>2015-03-22T07:18:42.078Z</time>
      </trkpt>
      <trkpt lat="48.40748" lon="2.64619">
        <ele>121.887</ele>
        <time>2015-03-22T07:18:44.844Z</time>
      </trkpt>
      <trkpt lat="48.40745" lon="2.64641">
        <ele>121.55</ele>
        <time>2015-03-22T07:18:46.675Z</time>
      </trkpt>
      <trkpt lat="48.4074" lon="2.64679">
        <ele>122.162</ele>
        <time>2015-03-22T07:18:49.711Z</time>
      </trkpt>
      <trkpt lat="48.40736" lon="2.64715">
        <ele>123.203</ele>
        <time>2015-03-22T07:18:52.810Z</time>
      </trkpt>
      <trkpt lat="48.40733" lon="2.64746">
        <ele>124.601</ele>
        <time>2015-03-22T07:18:55.504Z</time>
      </trkpt>
      <trkpt lat="48.4073" lon="2.6477">
        <ele>127.467</ele>
        <time>2015-03-22T07:18:57.731Z</time>
      </trkpt>
      <trkpt lat="48.40724" lon="2.64806">
        <ele>128.046</ele>
        <time>2015-03-22T07:19:00.901Z</time>
      </trkpt>
      <trkpt lat="48.40714" lon="2.64828">
        <ele>127.412</ele>
        <time>2015-03-22T07:19:03.209Z</time>
      </trkpt>
      <trkpt lat="48.407" lon="2.64857">
        <ele>125.701</ele>
        <time>2015-03-22T07:19:06.363Z</time>
      </trkpt>
      <trkpt lat="48.40688" lon="2.64882">
        <ele>123.292</ele>
        <time>2015-03-22T07:19:09.195Z</time>
      </trkpt>
      <trkpt lat="48.40675" lon="2.64911">
        <ele>120.871</ele>
        <time>2015-03-22T07:19:12.506Z</time>
      </trkpt>
      <trkpt lat="48.40667" lon="2.6493">
        <ele>119.437</ele>
        <time>2015-03-22T07:19:14.642Z</time>
      </trkpt>
      <trkpt lat="48.40654" lon="2.6495">
        <ele>118.908</ele>
        <time>2015-03-22T07:19:17.764Z</time>
      </trkpt>
      <trkpt lat="48.40642" lon="2.64953">
        <ele>118.769</ele>
        <time>2015-03-22T07:19:20.473Z</time>
      </trkpt>
      <trkpt lat="48.40633" lon="2.64951">
        <ele>118.727</ele>
        <time>2015-03-22T07:19:23.812Z</time>
      </trkpt>
      <trkpt lat="48.40622" lon="2.6495">
        <ele>119.001</ele>
        <time>2015-03-22T07:19:27.509Z</time>
      </trkpt>
      <trkpt lat="48.40612" lon="2.64951">
        <ele>119.616</ele>
        <time>2015-03-22T07:19:30.229Z</time>
      </trkpt>
      <trkpt lat="48.406" lon="2.64953">
        <ele>120.199</ele>
        <time>2015-03-22T07:19:33.164Z</time>
      </trkpt>
      <trkpt lat="48.4059" lon="2.64952">
        <ele>120.052</ele>
        <time>2015-03-22T07:19:35.048Z</time>
      </trkpt>
      <trkpt lat="48.40569" lon="2.64953">
        <ele>118.666</ele>
        <time>2015-03-22T07:19:38.470Z</time>
      </trkpt>
      <trkpt lat="48.40554" lon="2.64954">
        <ele>116.083</ele>
        <time>2015-03-22T07:19:40.706Z</time>
      </trkpt>
      <trkpt lat="48.40535" lon="2.64961">
        <ele>113.121</ele>
        <time>2015-03-22T07:19:43.662Z</time>
      </trkpt>
      <trkpt lat="48.40522" lon="2.64974">
        <ele>110.465</ele>
        <time>2015-03-22T07:19:46.443Z</time>
      </trkpt>
      <trkpt lat="48.4051" lon="2.64984">
        <ele>108.118</ele>
        <time>2015-03-22T07:19:49.037Z</time>
      </trkpt>
      <trkpt lat="48.40501" lon="2.64993">
        <ele>106.14</ele>
        <time>2015-03-22T07:19:50.873Z</time>
      </trkpt>
      <trkpt lat="48.4049" lon="2.6501">
        <ele>105.197</ele>
        <time>2015-03-22T07:19:53.746Z</time>
      </trkpt>
      <trkpt lat="48.40482" lon="2.65022">
        <ele>105.589</ele>
        <time>2015-03-22T07:19:55.594Z</time>
      </trkpt>
      <trkpt lat="48.40475" lon="2.65035">
        <ele>106.594</ele>
        <time>2015-03-22T07:19:57.528Z</time>
      </trkpt>
      <trkpt lat="48.40464" lon="2.65057">
        <ele>107.354</ele>
        <time>2015-03-22T07:20:00.491Z</time>
      </trkpt>
      <trkpt lat="48.40453" lon="2.6508">
        <ele>107.624</ele>
        <time>2015-03-22T07:20:03.697Z</time>
      </trkpt>
      <trkpt lat="48.40445" lon="2.65095">
        <ele>107.583</ele>
        <time>2015-03-22T07:20:05.766Z</time>
      </trkpt>
      <trkpt lat="48.40439" lon="2.6511">
        <ele>107.236</ele>
        <time>2015-03-22T07:20:07.787Z</time>
      </trkpt>
      <trkpt lat="48.40435" lon="2.65128">
        <ele>106.55</ele>
        <time>2015-03-22T07:20:09.780Z</time>
      </trkpt>
      <trkpt lat="48.4043" lon="2.65159">
        <ele>105.724</ele>
        <time>2015-03-22T07:20:13.051Z</time>
      </trkpt>
      <trkpt lat="48.40428" lon="2.65178">
        <ele>104.678</ele>
        <time>2015-03-22T07:20:14.883Z</time>
      </trkpt>
      <trkpt lat="48.40427" lon="2.65197">
        <ele>102.892</ele>
        <time>2015-03-22T07:20:16.755Z</time>
      </trkpt>
      <trkpt lat="48.40425" lon="2.65228">
        <ele>100.425</ele>
        <time>2015-03-22T07:20:19.811Z</time>
      </trkpt>
      <trkpt lat="48.40424" lon="2.65249">
        <ele>98.036</ele>
        <time>2015-03-22T07:20:21.813Z</time>
      </trkpt>
      <trkpt lat="48.40421" lon="2.65279">
        <ele>95.655</ele>
        <time>2015-03-22T07:20:24.841Z</time>
      </trkpt>
      <trkpt lat="48.40418" lon="2.65296">
        <ele>95.543</ele>
        <time>2015-03-22T07:20:26.581Z</time>
      </trkpt>
      <trkpt lat="48.40414" lon="2.65326">
        <ele>95.695</ele>
        <time>2015-03-22T07:20:29.602Z</time>
      </trkpt>
      <trkpt lat="48.40412" lon="2.65349">
        <ele>95.803</ele>
        <time>2015-03-22T07:20:31.736Z</time>
      </trkpt>
      <trkpt lat="48.40408" lon="2.65377">
        <ele>95.79</ele>
        <time>2015-03-22T07:20:34.514Z</time>
      </trkpt>
      <trkpt lat="48.40404" lon="2.65407">
        <ele>95.696</ele>
        <time>2015-03-22T07:20:37.522Z</time>
      </trkpt>
      <trkpt lat="48.40401" lon="2.65425">
        <ele>95.513</ele>
        <time>2015-03-22T07:20:39.409Z</time>
      </trkpt>
      <trkpt lat="48.40398" lon="2.65444">
        <ele>95.242</ele>
        <time>2015-03-22T07:20:41.456Z</time>
      </trkpt>
      <trkpt lat="48.40396" lon="2.65465">
        <ele>94.929</ele>
        <time>2015-03-22T07:20:43.551Z</time>
      </trkpt>
      <trkpt lat="48.40392" lon="2.65493">
        <ele>94.578</ele>
        <time>2015-03-22T07:20:46.453Z</time>
      </trkpt>
      <trkpt lat="48.40389" lon="2.65511">
        <ele>93.828</ele>
        <time>2015-03-22T07:20:48.348Z</time>
      </trkpt>
      <trkpt lat="48.40386" lon="2.65538">
        <ele>91.437</ele>
        <time>2015-03-22T07:20:51.233Z</time>
      </trkpt>
      <trkpt lat="48.40385" lon="2.65554">
        <ele>91.118</ele>
        <time>2015-03-22T07:20:53.079Z</time>
      </trkpt>
      <trkpt lat="48.40384" lon="2.65576">
        <ele>91.509</ele>
        <time>2015-03-22T07:20:55.674Z</time>
      </trkpt>
      <trkpt lat="48.40384" lon="2.65594">
        <ele>92.112</ele>
        <time>2015-03-22T07:20:58.300Z</time>
      </trkpt>
      <trkpt lat="48.40386" lon="2.65613">
        <ele>92.869</ele>
        <time>2015-03-22T07:21:01.336Z</time>
      </trkpt>
      <trkpt lat="48.40388" lon="2.65634">
        <ele>93.938</ele>
        <time>2015-03-22T07:21:04.573Z</time>
      </trkpt>
      <trkpt lat="48.40388" lon="2.65652">
        <ele>94.962</ele>
        <time>2015-03-22T07:21:07.401Z</time>
      </trkpt>
      <trkpt lat="48.40388" lon="2.65671">
        <ele>95.607</ele>
        <time>2015-03-22T07:21:10.373Z</time>
      </trkpt>
      <trkpt lat="48.40388" lon="2.65688">
        <ele>96.272</ele>
        <time>2015-03-22T07:21:13.140Z</time>
      </trkpt>
      <trkpt lat="48.40386" lon="2.65702">
        <ele>97.284</ele>
        <time>2015-03-22T07:21:15.881Z</time>
      </trkpt>
      <trkpt lat="48.40386" lon="2.65717">
        <ele>98.221</ele>
        <time>2015-03-22T07:21:18.798Z</time>
      </trkpt>
      <trkpt lat="48.40386" lon="2.65735">
        <ele>98.747</ele>
        <time>2015-03-22T07:21:22.359Z</time>
      </trkpt>
      <trkpt lat="48.40386" lon="2.65735">
        <ele>98.991</ele>
        <time>2015-03-22T07:21:26.360Z</time>
      </trkpt>
      <trkpt lat="48.40386" lon="2.65735">
        <ele>99.003</ele>
        <time>2015-03-22T07:21:26.360Z</time>
      </trkpt>
      <trkpt lat="48.40386" lon="2.65735">
        <ele>98.905</ele>
        <time>2015-03-22T07:21:26.460Z</time>
      </trkpt>
      <trkpt lat="48.40384" lon="2.65769">
        <ele>98.863</ele>
        <time>2015-03-22T07:21:34.841Z</time>
      </trkpt>
      <trkpt lat="48.40384" lon="2.65784">
        <ele>98.695</ele>
        <time>2015-03-22T07:21:37.592Z</time>
      </trkpt>
      <trkpt lat="48.40384" lon="2.658">
        <ele>98.279</ele>
        <time>2015-03-22T07:21:40.370Z</time>
      </trkpt>
      <trkpt lat="48.40383" lon="2.65816">
        <ele>97.975</ele>
        <time>2015-03-22T07:21:43.171Z</time>
      </trkpt>
      <trkpt lat="48.40382" lon="2.65832">
        <ele>98.095</ele>
        <time>2015-03-22T07:21:46.071Z</time>
      </trkpt>
      <trkpt lat="48.40381" lon="2.65846">
        <ele>98.092</ele>
        <time>2015-03-22T07:21:48.522Z</time>
      </trkpt>
      <trkpt lat="48.40381" lon="2.65864">
        <ele>97.432</ele>
        <time>2015-03-22T07:21:51.192Z</time>
      </trkpt>
      <trkpt lat="48.40381" lon="2.65878">
        <ele>96.519</ele>
        <time>2015-03-22T07:21:53.114Z</time>
      </trkpt>
      <trkpt lat="48.40382" lon="2.65892">
        <ele>95.688</ele>
        <time>2015-03-22T07:21:54.931Z</time>
      </trkpt>
      <trkpt lat="48.40381" lon="2.65914">
        <ele>94.82</ele>
        <time>2015-03-22T07:21:57.851Z</time>
      </trkpt>
      <trkpt lat="48.4038" lon="2.65929">
        <ele>94.131</ele>
        <time>2015-03-22T07:21:59.806Z</time>
      </trkpt>
      <trkpt lat="48.40381" lon="2.6595">
        <ele>93.885</ele>
        <time>2015-03-22T07:22:02.588Z</time>
      </trkpt>
      <trkpt lat="48.40382" lon="2.65967">
        <ele>93.955</ele>
        <time>2015-03-22T07:22:04.704Z</time>
      </trkpt>
      <trkpt lat="48.40383" lon="2.65983">
        <ele>94.228</ele>
        <time>2015-03-22T07:22:06.883Z</time>
      </trkpt>
      <trkpt lat="48.40385" lon="2.66007">
        <ele>94.512</ele>
        <time>2015-03-22T07:22:10.243Z</time>
      </trkpt>
      <trkpt lat="48.40385" lon="2.66023">
        <ele>94.343</ele>
        <time>2015-03-22T07:22:12.465Z</time>
      </trkpt>
      <trkpt lat="48.40384" lon="2.66043">
        <ele>93.627</ele>
        <time>2015-03-22T07:22:15.693Z</time>
      </trkpt>
      <trkpt lat="48.4038" lon="2.66061">
        <ele>92.851</ele>
        <time>2015-03-22T07:22:18.953Z</time>
      </trkpt>
      <trkpt lat="48.4037" lon="2.66065">
        <ele>92.58</ele>
        <time>2015-03-22T07:22:21.406Z</time>
      </trkpt>
      <trkpt lat="48.40361" lon="2.66065">
        <ele>92.972</ele>
        <time>2015-03-22T07:22:23.540Z</time>
      </trkpt>
      <trkpt lat="48.40347" lon="2.66063">
        <ele>93.603</ele>
        <time>2015-03-22T07:22:26.622Z</time>
      </trkpt>
      <trkpt lat="48.40334" lon="2.66061">
        <ele>93.77</ele>
        <time>2015-03-22T07:22:29.234Z</time>
      </trkpt>
      <trkpt lat="48.40325" lon="2.66058">
        <ele>92.862</ele>
        <time>2015-03-22T07:22:30.960Z</time>
      </trkpt>
      <trkpt lat="48.40309" lon="2.66054">
        <ele>91.063</ele>
        <time>2015-03-22T07:22:33.892Z</time>
      </trkpt>
      <trkpt lat="48.40296" lon="2.66052">
        <ele>89.614</ele>
        <time>2015-03-22T07:22:36.356Z</time>
      </trkpt>
      <trkpt lat="48.4028" lon="2.66052">
        <ele>89.555</ele>
        <time>2015-03-22T07:22:39.096Z</time>
      </trkpt>
      <trkpt lat="48.40269" lon="2.6605">
        <ele>90.961</ele>
        <time>2015-03-22T07:22:41.058Z</time>
      </trkpt>
      <trkpt lat="48.40252" lon="2.66048">
        <ele>92.98</ele>
        <time>2015-03-22T07:22:44.006Z</time>
      </trkpt>
      <trkpt lat="48.40241" lon="2.66046">
        <ele>94.507</ele>
        <time>2015-03-22T07:22:45.933Z</time>
      </trkpt>
      <trkpt lat="48.40222" lon="2.66043">
        <ele>94.954</ele>
        <time>2015-03-22T07:22:49.008Z</time>
      </trkpt>
      <trkpt lat="48.40208" lon="2.66042">
        <ele>94.448</ele>
        <time>2015-03-22T07:22:51.261Z</time>
      </trkpt>
      <trkpt lat="48.40192" lon="2.66041">
        <ele>93.684</ele>
        <time>2015-03-22T07:22:54.015Z</time>
      </trkpt>
      <trkpt lat="48.40182" lon="2.6604">
        <ele>93.382</ele>
        <time>2015-03-22T07:22:55.627Z</time>
      </trkpt>
      <trkpt lat="48.40165" lon="2.66038">
        <ele>93.933</ele>
        <time>2015-03-22T07:22:58.399Z</time>
      </trkpt>
      <trkpt lat="48.40155" lon="2.66036">
        <ele>95.271</ele>
        <time>2015-03-22T07:23:00.082Z</time>
      </trkpt>
      <trkpt lat="48.40138" lon="2.66035">
        <ele>96.979</ele>
        <time>2015-03-22T07:23:02.895Z</time>
      </trkpt>
      <trkpt lat="48.40121" lon="2.66033">
        <ele>98.602</ele>
        <time>2015-03-22T07:23:05.720Z</time>
      </trkpt>
      <trkpt lat="48.40105" lon="2.66033">
        <ele>99.663</ele>
        <time>2015-03-22T07:23:08.889Z</time>
      </trkpt>
      <trkpt lat="48.40098" lon="2.66046">
        <ele>99.715</ele>
        <time>2015-03-22T07:23:11.379Z</time>
      </trkpt>
      <trkpt lat="48.40098" lon="2.66046">
        <ele>98.926</ele>
        <time>2015-03-22T07:23:15.365Z</time>
      </trkpt>
      <trkpt lat="48.40098" lon="2.66046">
        <ele>98.192</ele>
        <time>2015-03-22T07:23:18.354Z</time>
      </trkpt>
      <trkpt lat="48.40098" lon="2.66046">
        <ele>98.156</ele>
        <time>2015-03-22T07:23:25.490Z</time>
      </trkpt>
      <trkpt lat="48.40103" lon="2.6603">
        <ele>98.495</ele>
        <time>2015-03-22T07:23:30.709Z</time>
      </trkpt>
      <trkpt lat="48.40106" lon="2.66013">
        <ele>98.886</ele>
        <time>2015-03-22T07:23:33.444Z</time>
      </trkpt>
      <trkpt lat="48.40109" lon="2.65992">
        <ele>99.314</ele>
        <time>2015-03-22T07:23:36.359Z</time>
      </trkpt>
      <trkpt lat="48.40113" lon="2.65974">
        <ele>99.489</ele>
        <time>2015-03-22T07:23:38.748Z</time>
      </trkpt>
      <trkpt lat="48.40118" lon="2.65949">
        <ele>99.203</ele>
        <time>2015-03-22T07:23:41.838Z</time>
      </trkpt>
      <trkpt lat="48.40121" lon="2.65928">
        <ele>98.779</ele>
        <time>2015-03-22T07:23:44.482Z</time>
      </trkpt>
      <trkpt lat="48.40122" lon="2.65914">
        <ele>98.646</ele>
        <time>2015-03-22T07:23:46.204Z</time>
      </trkpt>
      <trkpt lat="48.40122" lon="2.65888">
        <ele>99.225</ele>
        <time>2015-03-22T07:23:49.335Z</time>
      </trkpt>
      <trkpt lat="48.40123" lon="2.6587">
        <ele>100.481</ele>
        <time>2015-03-22T07:23:51.468Z</time>
      </trkpt>
      <trkpt lat="48.40123" lon="2.65854">
        <ele>101.262</ele>
        <time>2015-03-22T07:23:53.359Z</time>
      </trkpt>
      <trkpt lat="48.40123" lon="2.65838">
        <ele>100.624</ele>
        <time>2015-03-22T07:23:55.357Z</time>
      </trkpt>
      <trkpt lat="48.40123" lon="2.65815">
        <ele>99.188</ele>
        <time>2015-03-22T07:23:58.224Z</time>
      </trkpt>
      <trkpt lat="48.40125" lon="2.65791">
        <ele>98.073</ele>
        <time>2015-03-22T07:24:01.271Z</time>
      </trkpt>
      <trkpt lat="48.40127" lon="2.65767">
        <ele>97.945</ele>
        <time>2015-03-22T07:24:04.321Z</time>
      </trkpt>
      <trkpt lat="48.40129" lon="2.65745">
        <ele>98.752</ele>
        <time>2015-03-22T07:24:07.398Z</time>
      </trkpt>
      <trkpt lat="48.40131" lon="2.65723">
        <ele>99.574</ele>
        <time>2015-03-22T07:24:10.699Z</time>
      </trkpt>
      <trkpt lat="48.40132" lon="2.65705">
        <ele>99.71</ele>
        <time>2015-03-22T07:24:13.699Z</time>
      </trkpt>
      <trkpt lat="48.40134" lon="2.65686">
        <ele>99.441</ele>
        <time>2015-03-22T07:24:16.822Z</time>
      </trkpt>
      <trkpt lat="48.40135" lon="2.65666">
        <ele>99.244</ele>
        <time>2015-03-22T07:24:19.873Z</time>
      </trkpt>
      <trkpt lat="48.40139" lon="2.65644">
        <ele>98.951</ele>
        <time>2015-03-22T07:24:23.423Z</time>
      </trkpt>
      <trkpt lat="48.40141" lon="2.65624">
        <ele>98.448</ele>
        <time>2015-03-22T07:24:26.493Z</time>
      </trkpt>
      <trkpt lat="48.40143" lon="2.65604">
        <ele>98.184</ele>
        <time>2015-03-22T07:24:29.253Z</time>
      </trkpt>
      <trkpt lat="48.40146" lon="2.6558">
        <ele>98.44</ele>
        <time>2015-03-22T07:24:32.585Z</time>
      </trkpt>
      <trkpt lat="48.40148" lon="2.65561">
        <ele>99.027</ele>
        <time>2015-03-22T07:24:35.338Z</time>
      </trkpt>
      <trkpt lat="48.40149" lon="2.65542">
        <ele>99.705</ele>
        <time>2015-03-22T07:24:38.125Z</time>
      </trkpt>
      <trkpt lat="48.40152" lon="2.65522">
        <ele>100.194</ele>
        <time>2015-03-22T07:24:41.344Z</time>
      </trkpt>
      <trkpt lat="48.40154" lon="2.65506">
        <ele>99.909</ele>
        <time>2015-03-22T07:24:44.016Z</time>
      </trkpt>
      <trkpt lat="48.40156" lon="2.65487">
        <ele>98.159</ele>
        <time>2015-03-22T07:24:47.104Z</time>
      </trkpt>
      <trkpt lat="48.40158" lon="2.65468">
        <ele>95.549</ele>
        <time>2015-03-22T07:24:49.973Z</time>
      </trkpt>
      <trkpt lat="48.40159" lon="2.65449">
        <ele>93.637</ele>
        <time>2015-03-22T07:24:53.070Z</time>
      </trkpt>
      <trkpt lat="48.4016" lon="2.65433">
        <ele>93.168</ele>
        <time>2015-03-22T07:24:55.891Z</time>
      </trkpt>
      <trkpt lat="48.40161" lon="2.65415">
        <ele>93.759</ele>
        <time>2015-03-22T07:24:58.994Z</time>
      </trkpt>
      <trkpt lat="48.40164" lon="2.65396">
        <ele>94.653</ele>
        <time>2015-03-22T07:25:02.052Z</time>
      </trkpt>
      <trkpt lat="48.40167" lon="2.65377">
        <ele>95.424</ele>
        <time>2015-03-22T07:25:05.260Z</time>
      </trkpt>
      <trkpt lat="48.40169" lon="2.65361">
        <ele>96.233</ele>
        <time>2015-03-22T07:25:07.904Z</time>
      </trkpt>
      <trkpt lat="48.40172" lon="2.65346">
        <ele>97.127</ele>
        <time>2015-03-22T07:25:10.649Z</time>
      </trkpt>
      <trkpt lat="48.40174" lon="2.65327">
        <ele>98.178</ele>
        <time>2015-03-22T07:25:14.112Z</time>
      </trkpt>
      <trkpt lat="48.40176" lon="2.6531">
        <ele>99.895</ele>
        <time>2015-03-22T07:25:17.131Z</time>
      </trkpt>
      <trkpt lat="48.40179" lon="2.65293">
        <ele>102.147</ele>
        <time>2015-03-22T07:25:20.286Z</time>
      </trkpt>
      <trkpt lat="48.40181" lon="2.65279">
        <ele>103.872</ele>
        <time>2015-03-22T07:25:22.994Z</time>
      </trkpt>
      <trkpt lat="48.40183" lon="2.65263">
        <ele>104.012</ele>
        <time>2015-03-22T07:25:25.719Z</time>
      </trkpt>
      <trkpt lat="48.40185" lon="2.65246">
        <ele>102.363</ele>
        <time>2015-03-22T07:25:28.900Z</time>
      </trkpt>
      <trkpt lat="48.40187" lon="2.65231">
        <ele>99.997</ele>
        <time>2015-03-22T07:25:31.540Z</time>
      </trkpt>
      <trkpt lat="48.40188" lon="2.65215">
        <ele>98.357</ele>
        <time>2015-03-22T07:25:34.376Z</time>
      </trkpt>
      <trkpt lat="48.40188" lon="2.65215">
        <ele>97.83</ele>
        <time>2015-03-22T07:25:41.375Z</time>
      </trkpt>
      <trkpt lat="48.40188" lon="2.65215">
        <ele>97.933</ele>
        <time>2015-03-22T07:25:49.789Z</time>
      </trkpt>
      <trkpt lat="48.40197" lon="2.65177">
        <ele>98.128</ele>
        <time>2015-03-22T07:26:08.750Z</time>
      </trkpt>
      <trkpt lat="48.402" lon="2.65163">
        <ele>99.172</ele>
        <time>2015-03-22T07:26:11.735Z</time>
      </trkpt>
      <trkpt lat="48.40202" lon="2.65149">
        <ele>101.62</ele>
        <time>2015-03-22T07:26:14.532Z</time>
      </trkpt>
      <trkpt lat="48.40201" lon="2.65135">
        <ele>104.091</ele>
        <time>2015-03-22T07:26:17.275Z</time>
      </trkpt>
      <trkpt lat="48.40201" lon="2.65116">
        <ele>105.46</ele>
        <time>2015-03-22T07:26:20.607Z</time>
      </trkpt>
      <trkpt lat="48.40202" lon="2.65102">
        <ele>106.507</ele>
        <time>2015-03-22T07:26:22.948Z</time>
      </trkpt>
      <trkpt lat="48.40203" lon="2.65087">
        <ele>107.733</ele>
        <time>2015-03-22T07:26:25.541Z</time>
      </trkpt>
      <trkpt lat="48.40205" lon="2.65071">
        <ele>108.691</ele>
        <time>2015-03-22T07:26:28.248Z</time>
      </trkpt>
      <trkpt lat="48.40208" lon="2.65052">
        <ele>108.939</ele>
        <time>2015-03-22T07:26:31.883Z</time>
      </trkpt>
      <trkpt lat="48.40209" lon="2.65038">
        <ele>108.338</ele>
        <time>2015-03-22T07:26:34.615Z</time>
      </trkpt>
      <trkpt lat="48.40212" lon="2.65023">
        <ele>106.974</ele>
        <time>2015-03-22T07:26:37.628Z</time>
      </trkpt>
      <trkpt lat="48.40216" lon="2.6501">
        <ele>105.178</ele>
        <time>2015-03-22T07:26:40.374Z</time>
      </trkpt>
      <trkpt lat="48.40216" lon="2.6501">
        <ele>103.444</ele>
        <time>2015-03-22T07:26:40.374Z</time>
      </trkpt>
      <trkpt lat="48.40216" lon="2.6501">
        <ele>102.478</ele>
        <time>2015-03-22T07:26:40.442Z</time>
      </trkpt>
      <trkpt lat="48.40218" lon="2.64988">
        <ele>102.511</ele>
        <time>2015-03-22T07:26:48.742Z</time>
      </trkpt>
      <trkpt lat="48.4022" lon="2.64972">
        <ele>102.573</ele>
        <time>2015-03-22T07:26:52.205Z</time>
      </trkpt>
      <trkpt lat="48.40222" lon="2.64955">
        <ele>101.904</ele>
        <time>2015-03-22T07:26:55.704Z</time>
      </trkpt>
      <trkpt lat="48.40225" lon="2.6494">
        <ele>101.094</ele>
        <time>2015-03-22T07:26:58.768Z</time>
      </trkpt>
      <trkpt lat="48.40226" lon="2.64924">
        <ele>101.015</ele>
        <time>2015-03-22T07:27:01.573Z</time>
      </trkpt>
      <trkpt lat="48.40229" lon="2.64908">
        <ele>101.739</ele>
        <time>2015-03-22T07:27:04.486Z</time>
      </trkpt>
      <trkpt lat="48.40232" lon="2.6489">
        <ele>102.744</ele>
        <time>2015-03-22T07:27:07.532Z</time>
      </trkpt>
      <trkpt lat="48.40235" lon="2.6487">
        <ele>103.176</ele>
        <time>2015-03-22T07:27:10.702Z</time>
      </trkpt>
      <trkpt lat="48.40238" lon="2.64852">
        <ele>102.731</ele>
        <time>2015-03-22T07:27:13.649Z</time>
      </trkpt>
      <trkpt lat="48.40241" lon="2.64837">
        <ele>102.113</ele>
        <time>2015-03-22T07:27:16.167Z</time>
      </trkpt>
      <trkpt lat="48.40243" lon="2.64821">
        <ele>102.339</ele>
        <time>2015-03-22T07:27:18.956Z</time>
      </trkpt>
      <trkpt lat="48.40247" lon="2.64802">
        <ele>103.654</ele>
        <time>2015-03-22T07:27:22.033Z</time>
      </trkpt>
      <trkpt lat="48.40249" lon="2.64785">
        <ele>105.44</ele>
        <time>2015-03-22T07:27:24.877Z</time>
      </trkpt>
      <trkpt lat="48.40251" lon="2.64768">
        <ele>106.904</ele>
        <time>2015-03-22T07:27:27.744Z</time>
      </trkpt>
      <trkpt lat="48.40254" lon="2.64751">
        <ele>107.893</ele>
        <time>2015-03-22T07:27:30.663Z</time>
      </trkpt>
      <trkpt lat="48.40256" lon="2.64733">
        <ele>108.736</ele>
        <time>2015-03-22T07:27:33.573Z</time>
      </trkpt>
      <trkpt lat="48.4026" lon="2.64715">
        <ele>109.508</ele>
        <time>2015-03-22T07:27:36.604Z</time>
      </trkpt>
      <trkpt lat="48.40262" lon="2.64699">
        <ele>109.779</ele>
        <time>2015-03-22T07:27:39.356Z</time>
      </trkpt>
      <trkpt lat="48.40265" lon="2.6468">
        <ele>109.436</ele>
        <time>2015-03-22T07:27:42.451Z</time>
      </trkpt>
      <trkpt lat="48.40266" lon="2.64663">
        <ele>109.012</ele>
        <time>2015-03-22T07:27:45.278Z</time>
      </trkpt>
      <trkpt lat="48.40267" lon="2.64646">
        <ele>109.485</ele>
        <time>2015-03-22T07:27:48.184Z</time>
      </trkpt>
      <trkpt lat="48.4027" lon="2.64629">
        <ele>111.126</ele>
        <time>2015-03-22T07:27:51.190Z</time>
      </trkpt>
      <trkpt lat="48.40275" lon="2.64611">
        <ele>113.029</ele>
        <time>2015-03-22T07:27:54.887Z</time>
      </trkpt>
      <trkpt lat="48.40278" lon="2.64595">
        <ele>114.169</ele>
        <time>2015-03-22T07:27:57.875Z</time>
      </trkpt>
      <trkpt lat="48.40282" lon="2.64577">
        <ele>114.319</ele>
        <time>2015-03-22T07:28:01.199Z</time>
      </trkpt>
      <trkpt lat="48.40284" lon="2.64562">
        <ele>113.858</ele>
        <time>2015-03-22T07:28:03.960Z</time>
      </trkpt>
      <trkpt lat="48.40285" lon="2.64545">
        <ele>113.869</ele>
        <time>2015-03-22T07:28:07.093Z</time>
      </trkpt>
      <trkpt lat="48.40284" lon="2.64528">
        <ele>115.156</ele>
        <time>2015-03-22T07:28:10.500Z</time>
      </trkpt>
      <trkpt lat="48.40285" lon="2.64512">
        <ele>117.198</ele>
        <time>2015-03-22T07:28:13.768Z</time>
      </trkpt>
      <trkpt lat="48.40288" lon="2.64496">
        <ele>118.851</ele>
        <time>2015-03-22T07:28:17.089Z</time>
      </trkpt>
      <trkpt lat="48.4029" lon="2.6448">
        <ele>119.488</ele>
        <time>2015-03-22T07:28:20.370Z</time>
      </trkpt>
      <trkpt lat="48.40293" lon="2.64466">
        <ele>119.21</ele>
        <time>2015-03-22T07:28:23.304Z</time>
      </trkpt>
      <trkpt lat="48.40297" lon="2.64452">
        <ele>118.525</ele>
        <time>2015-03-22T07:28:26.380Z</time>
      </trkpt>
      <trkpt lat="48.40297" lon="2.64452">
        <ele>117.971</ele>
        <time>2015-03-22T07:28:34.377Z</time>
      </trkpt>
      <trkpt lat="48.40297" lon="2.64452">
        <ele>117.795</ele>
        <time>2015-03-22T07:29:08.575Z</time>
      </trkpt>
      <trkpt lat="48.40306" lon="2.64418">
        <ele>117.83</ele>
        <time>2015-03-22T07:29:41.264Z</time>
      </trkpt>
      <trkpt lat="48.40305" lon="2.64405">
        <ele>117.528</ele>
        <time>2015-03-22T07:29:46.527Z</time>
      </trkpt>
      <trkpt lat="48.40306" lon="2.64388">
        <ele>116.707</ele>
        <time>2015-03-22T07:29:51.688Z</time>
      </trkpt>
      <trkpt lat="48.40307" lon="2.64373">
        <ele>115.861</ele>
        <time>2015-03-22T07:29:55.818Z</time>
      </trkpt>
      <trkpt lat="48.40308" lon="2.64359">
        <ele>115.718</ele>
        <time>2015-03-22T07:29:59.005Z</time>
      </trkpt>
      <trkpt lat="48.4031" lon="2.64344">
        <ele>116.332</ele>
        <time>2015-03-22T07:30:02.255Z</time>
      </trkpt>
      <trkpt lat="48.40311" lon="2.6433">
        <ele>117.093</ele>
        <time>2015-03-22T07:30:05.003Z</time>
      </trkpt>
      <trkpt lat="48.40313" lon="2.64313">
        <ele>117.407</ele>
        <time>2015-03-22T07:30:08.322Z</time>
      </trkpt>
      <trkpt lat="48.40314" lon="2.64298">
        <ele>116.796</ele>
        <time>2015-03-22T07:30:11.251Z</time>
      </trkpt>
      <trkpt lat="48.40318" lon="2.64282">
        <ele>116.069</ele>
        <time>2015-03-22T07:30:14.528Z</time>
      </trkpt>
      <trkpt lat="48.40322" lon="2.64269">
        <ele>115.196</ele>
        <time>2015-03-22T07:30:17.601Z</time>
      </trkpt>
      <trkpt lat="48.40326" lon="2.64256">
        <ele>113.84</ele>
        <time>2015-03-22T07:30:20.438Z</time>
      </trkpt>
      <trkpt lat="48.40329" lon="2.64243">
        <ele>113.751</ele>
        <time>2015-03-22T07:30:23.349Z</time>
      </trkpt>
      <trkpt lat="48.40332" lon="2.64228">
        <ele>113.869</ele>
        <time>2015-03-22T07:30:26.756Z</time>
      </trkpt>
      <trkpt lat="48.40332" lon="2.64211">
        <ele>114.753</ele>
        <time>2015-03-22T07:30:30.516Z</time>
      </trkpt>
      <trkpt lat="48.40333" lon="2.64197">
        <ele>116.59</ele>
        <time>2015-03-22T07:30:33.527Z</time>
      </trkpt>
      <trkpt lat="48.40336" lon="2.6418">
        <ele>118.457</ele>
        <time>2015-03-22T07:30:37.245Z</time>
      </trkpt>
      <trkpt lat="48.40337" lon="2.64166">
        <ele>119.795</ele>
        <time>2015-03-22T07:30:40.148Z</time>
      </trkpt>
      <trkpt lat="48.40338" lon="2.6415">
        <ele>121.287</ele>
        <time>2015-03-22T07:30:43.402Z</time>
      </trkpt>
      <trkpt lat="48.4034" lon="2.64133">
        <ele>122.094</ele>
        <time>2015-03-22T07:30:47.005Z</time>
      </trkpt>
      <trkpt lat="48.40343" lon="2.64118">
        <ele>122.854</ele>
        <time>2015-03-22T07:30:50.172Z</time>
      </trkpt>
      <trkpt lat="48.40346" lon="2.64102">
        <ele>122.913</ele>
        <time>2015-03-22T07:30:53.710Z</time>
      </trkpt>
      <trkpt lat="48.40349" lon="2.64086">
        <ele>122.076</ele>
        <time>2015-03-22T07:30:57.400Z</time>
      </trkpt>
      <trkpt lat="48.40352" lon="2.64069">
        <ele>120.891</ele>
        <time>2015-03-22T07:31:01.208Z</time>
      </trkpt>
      <trkpt lat="48.40355" lon="2.64053">
        <ele>120.112</ele>
        <time>2015-03-22T07:31:04.884Z</time>
      </trkpt>
      <trkpt lat="48.40357" lon="2.64038">
        <ele>120.225</ele>
        <time>2015-03-22T07:31:08.393Z</time>
      </trkpt>
      <trkpt lat="48.40361" lon="2.64023">
        <ele>121.563</ele>
        <time>2015-03-22T07:31:12.100Z</time>
      </trkpt>
      <trkpt lat="48.40365" lon="2.64009">
        <ele>123.611</ele>
        <time>2015-03-22T07:31:15.763Z</time>
      </trkpt>
      <trkpt lat="48.40368" lon="2.63994">
        <ele>125.478</ele>
        <time>2015-03-22T07:31:19.485Z</time>
      </trkpt>
      <trkpt lat="48.40373" lon="2.63979">
        <ele>127.265</ele>
        <time>2015-03-22T07:31:23.652Z</time>
      </trkpt>
      <trkpt lat="48.40377" lon="2.63966">
        <ele>130.778</ele>
        <time>2015-03-22T07:31:27.458Z</time>
      </trkpt>
      <trkpt lat="48.40382" lon="2.63951">
        <ele>132.244</ele>
        <time>2015-03-22T07:31:31.988Z</time>
      </trkpt>
      <trkpt lat="48.40383" lon="2.63937">
        <ele>133.425</ele>
        <time>2015-03-22T07:31:36.047Z</time>
      </trkpt>
      <trkpt lat="48.40386" lon="2.63924">
        <ele>134.461</ele>
        <time>2015-03-22T07:31:39.826Z</time>
      </trkpt>
      <trkpt lat="48.40388" lon="2.63909">
        <ele>135.883</ele>
        <time>2015-03-22T07:31:43.968Z</time>
      </trkpt>
      <trkpt lat="48.40391" lon="2.63894">
        <ele>137.189</ele>
        <time>2015-03-22T07:31:48.488Z</time>
      </trkpt>
      <trkpt lat="48.40394" lon="2.63879">
        <ele>139.883</ele>
        <time>2015-03-22T07:31:53.228Z</time>
      </trkpt>
      <trkpt lat="48.40399" lon="2.63864">
        <ele>142.358</ele>
        <time>2015-03-22T07:31:58.345Z</time>
      </trkpt>
      <trkpt lat="48.40403" lon="2.6385">
        <ele>142.949</ele>
        <time>2015-03-22T07:32:02.331Z</time>
      </trkpt>
      <trkpt lat="48.40408" lon="2.63832">
        <ele>141.333</ele>
        <time>2015-03-22T07:32:06.956Z</time>
      </trkpt>
      <trkpt lat="48.40412" lon="2.63813">
        <ele>138.583</ele>
        <time>2015-03-22T07:32:11.505Z</time>
      </trkpt>
      <trkpt lat="48.40416" lon="2.638">
        <ele>136.307</ele>
        <time>2015-03-22T07:32:14.376Z</time>
      </trkpt>
      <trkpt lat="48.40416" lon="2.638">
        <ele>135.21</ele>
        <time>2015-03-22T07:32:14.376Z</time>
      </trkpt>
      <trkpt lat="48.40416" lon="2.638">
        <ele>134.977</ele>
        <time>2015-03-22T07:32:14.876Z</time>
      </trkpt>
      <trkpt lat="48.40422" lon="2.63778">
        <ele>135.009</ele>
        <time>2015-03-22T07:32:23.595Z</time>
      </trkpt>
      <trkpt lat="48.40423" lon="2.63762">
        <ele>135.042</ele>
        <time>2015-03-22T07:32:27.180Z</time>
      </trkpt>
      <trkpt lat="48.40425" lon="2.63749">
        <ele>135.167</ele>
        <time>2015-03-22T07:32:30.235Z</time>
      </trkpt>
      <trkpt lat="48.40428" lon="2.63735">
        <ele>135.508</ele>
        <time>2015-03-22T07:32:33.481Z</time>
      </trkpt>
      <trkpt lat="48.40428" lon="2.63719">
        <ele>135.959</ele>
        <time>2015-03-22T07:32:36.890Z</time>
      </trkpt>
      <trkpt lat="48.40431" lon="2.63704">
        <ele>136.294</ele>
        <time>2015-03-22T07:32:40.262Z</time>
      </trkpt>
      <trkpt lat="48.40433" lon="2.6369">
        <ele>136.516</ele>
        <time>2015-03-22T07:32:43.696Z</time>
      </trkpt>
      <trkpt lat="48.40434" lon="2.63675">
        <ele>136.61</ele>
        <time>2015-03-22T07:32:46.973Z</time>
      </trkpt>
      <trkpt lat="48.40435" lon="2.6366">
        <ele>136.462</ele>
        <time>2015-03-22T07:32:50.373Z</time>
      </trkpt>
      <trkpt lat="48.40438" lon="2.63642">
        <ele>136.183</ele>
        <time>2015-03-22T07:32:53.878Z</time>
      </trkpt>
      <trkpt lat="48.4044" lon="2.63628">
        <ele>135.986</ele>
        <time>2015-03-22T07:32:56.539Z</time>
      </trkpt>
      <trkpt lat="48.40442" lon="2.63608">
        <ele>136.206</ele>
        <time>2015-03-22T07:32:59.947Z</time>
      </trkpt>
      <trkpt lat="48.40444" lon="2.63592">
        <ele>136.991</ele>
        <time>2015-03-22T07:33:02.652Z</time>
      </trkpt>
      <trkpt lat="48.40446" lon="2.63575">
        <ele>137.573</ele>
        <time>2015-03-22T07:33:05.231Z</time>
      </trkpt>
      <trkpt lat="48.40447" lon="2.63557">
        <ele>137.324</ele>
        <time>2015-03-22T07:33:08.194Z</time>
      </trkpt>
      <trkpt lat="48.40451" lon="2.63539">
        <ele>136.831</ele>
        <time>2015-03-22T07:33:11.058Z</time>
      </trkpt>
      <trkpt lat="48.40455" lon="2.63524">
        <ele>136.983</ele>
        <time>2015-03-22T07:33:13.498Z</time>
      </trkpt>
      <trkpt lat="48.40455" lon="2.63524">
        <ele>137.809</ele>
        <time>2015-03-22T07:33:14.379Z</time>
      </trkpt>
      <trkpt lat="48.40455" lon="2.63524">
        <ele>138.46</ele>
        <time>2015-03-22T07:33:14.479Z</time>
      </trkpt>
      <trkpt lat="48.40459" lon="2.63495">
        <ele>138.276</ele>
        <time>2015-03-22T07:33:24.081Z</time>
      </trkpt>
      <trkpt lat="48.40461" lon="2.63477">
        <ele>137.139</ele>
        <time>2015-03-22T07:33:27.538Z</time>
      </trkpt>
      <trkpt lat="48.40463" lon="2.63463">
        <ele>135.074</ele>
        <time>2015-03-22T07:33:29.826Z</time>
      </trkpt>
      <trkpt lat="48.40466" lon="2.6345">
        <ele>132.745</ele>
        <time>2015-03-22T07:33:32.050Z</time>
      </trkpt>
      <trkpt lat="48.4047" lon="2.63428">
        <ele>131.213</ele>
        <time>2015-03-22T07:33:35.184Z</time>
      </trkpt>
      <trkpt lat="48.40473" lon="2.63407">
        <ele>130.696</ele>
        <time>2015-03-22T07:33:38.115Z</time>
      </trkpt>
      <trkpt lat="48.40476" lon="2.63387">
        <ele>130.699</ele>
        <time>2015-03-22T07:33:40.778Z</time>
      </trkpt>
      <trkpt lat="48.40479" lon="2.63365">
        <ele>130.736</ele>
        <time>2015-03-22T07:33:43.624Z</time>
      </trkpt>
      <trkpt lat="48.40481" lon="2.63344">
        <ele>130.794</ele>
        <time>2015-03-22T07:33:46.343Z</time>
      </trkpt>
      <trkpt lat="48.40483" lon="2.63322">
        <ele>130.906</ele>
        <time>2015-03-22T07:33:49.107Z</time>
      </trkpt>
      <trkpt lat="48.40486" lon="2.63299">
        <ele>130.73</ele>
        <time>2015-03-22T07:33:51.992Z</time>
      </trkpt>
      <trkpt lat="48.4049" lon="2.63277">
        <ele>129.683</ele>
        <time>2015-03-22T07:33:54.863Z</time>
      </trkpt>
      <trkpt lat="48.40493" lon="2.63256">
        <ele>129.355</ele>
        <time>2015-03-22T07:33:57.499Z</time>
      </trkpt>
      <trkpt lat="48.40493" lon="2.63238">
        <ele>129.454</ele>
        <time>2015-03-22T07:33:59.864Z</time>
      </trkpt>
      <trkpt lat="48.40487" lon="2.63224">
        <ele>129.785</ele>
        <time>2015-03-22T07:34:02.212Z</time>
      </trkpt>
      <trkpt lat="48.40479" lon="2.63213">
        <ele>130.389</ele>
        <time>2015-03-22T07:34:04.717Z</time>
      </trkpt>
      <trkpt lat="48.4047" lon="2.63202">
        <ele>131.751</ele>
        <time>2015-03-22T07:34:07.541Z</time>
      </trkpt>
      <trkpt lat="48.40461" lon="2.6319">
        <ele>133.841</ele>
        <time>2015-03-22T07:34:10.370Z</time>
      </trkpt>
      <trkpt lat="48.40461" lon="2.6319">
        <ele>135.906</ele>
        <time>2015-03-22T07:34:12.378Z</time>
      </trkpt>
      <trkpt lat="48.40461" lon="2.6319">
        <ele>136.968</ele>
        <time>2015-03-22T07:34:12.478Z</time>
      </trkpt>
      <trkpt lat="48.40455" lon="2.63157">
        <ele>136.816</ele>
        <time>2015-03-22T07:34:20.364Z</time>
      </trkpt>
      <trkpt lat="48.40453" lon="2.63135">
        <ele>136.702</ele>
        <time>2015-03-22T07:34:23.949Z</time>
      </trkpt>
      <trkpt lat="48.40453" lon="2.6312">
        <ele>137.817</ele>
        <time>2015-03-22T07:34:26.352Z</time>
      </trkpt>
      <trkpt lat="48.40451" lon="2.63104">
        <ele>139.624</ele>
        <time>2015-03-22T07:34:28.889Z</time>
      </trkpt>
      <trkpt lat="48.40449" lon="2.6309">
        <ele>140.608</ele>
        <time>2015-03-22T07:34:30.999Z</time>
      </trkpt>
      <trkpt lat="48.40446" lon="2.6307">
        <ele>140.287</ele>
        <time>2015-03-22T07:34:34.051Z</time>
      </trkpt>
      <trkpt lat="48.40445" lon="2.63049">
        <ele>139.262</ele>
        <time>2015-03-22T07:34:37.467Z</time>
      </trkpt>
      <trkpt lat="48.40441" lon="2.63033">
        <ele>138.791</ele>
        <time>2015-03-22T07:34:39.986Z</time>
      </trkpt>
      <trkpt lat="48.40431" lon="2.63021">
        <ele>137.359</ele>
        <time>2015-03-22T07:34:42.994Z</time>
      </trkpt>
      <trkpt lat="48.40422" lon="2.63009">
        <ele>135.741</ele>
        <time>2015-03-22T07:34:45.839Z</time>
      </trkpt>
      <trkpt lat="48.40413" lon="2.62997">
        <ele>135.771</ele>
        <time>2015-03-22T07:34:48.649Z</time>
      </trkpt>
      <trkpt lat="48.40405" lon="2.62984">
        <ele>137.72</ele>
        <time>2015-03-22T07:34:51.482Z</time>
      </trkpt>
      <trkpt lat="48.40395" lon="2.62973">
        <ele>139.749</ele>
        <time>2015-03-22T07:34:54.341Z</time>
      </trkpt>
      <trkpt lat="48.40383" lon="2.62967">
        <ele>140.471</ele>
        <time>2015-03-22T07:34:57.124Z</time>
      </trkpt>
      <trkpt lat="48.40372" lon="2.6296">
        <ele>140.759</ele>
        <time>2015-03-22T07:35:00.004Z</time>
      </trkpt>
      <trkpt lat="48.4036" lon="2.62952">
        <ele>141.715</ele>
        <time>2015-03-22T07:35:03.051Z</time>
      </trkpt>
      <trkpt lat="48.40348" lon="2.62945">
        <ele>143.307</ele>
        <time>2015-03-22T07:35:05.968Z</time>
      </trkpt>
      <trkpt lat="48.40337" lon="2.62934">
        <ele>145.234</ele>
        <time>2015-03-22T07:35:08.806Z</time>
      </trkpt>
      <trkpt lat="48.40327" lon="2.62923">
        <ele>147.125</ele>
        <time>2015-03-22T07:35:11.707Z</time>
      </trkpt>
      <trkpt lat="48.40316" lon="2.62913">
        <ele>147.444</ele>
        <time>2015-03-22T07:35:14.553Z</time>
      </trkpt>
      <trkpt lat="48.40305" lon="2.62903">
        <ele>145.54</ele>
        <time>2015-03-22T07:35:17.379Z</time>
      </trkpt>
      <trkpt lat="48.40293" lon="2.62901">
        <ele>143.245</ele>
        <time>2015-03-22T07:35:20.221Z</time>
      </trkpt>
      <trkpt lat="48.40281" lon="2.62895">
        <ele>142.632</ele>
        <time>2015-03-22T07:35:23.212Z</time>
      </trkpt>
      <trkpt lat="48.40269" lon="2.62894">
        <ele>143.672</ele>
        <time>2015-03-22T07:35:25.979Z</time>
      </trkpt>
      <trkpt lat="48.40258" lon="2.62881">
        <ele>145.135</ele>
        <time>2015-03-22T07:35:29.143Z</time>
      </trkpt>
      <trkpt lat="48.4025" lon="2.62867">
        <ele>146.221</ele>
        <time>2015-03-22T07:35:31.960Z</time>
      </trkpt>
      <trkpt lat="48.4024" lon="2.62854">
        <ele>146.995</ele>
        <time>2015-03-22T07:35:34.973Z</time>
      </trkpt>
      <trkpt lat="48.40229" lon="2.62839">
        <ele>147.582</ele>
        <time>2015-03-22T07:35:38.295Z</time>
      </trkpt>
      <trkpt lat="48.40221" lon="2.62829">
        <ele>147.988</ele>
        <time>2015-03-22T07:35:40.491Z</time>
      </trkpt>
      <trkpt lat="48.40212" lon="2.62814">
        <ele>148.186</ele>
        <time>2015-03-22T07:35:43.367Z</time>
      </trkpt>
      <trkpt lat="48.40201" lon="2.62798">
        <ele>148.659</ele>
        <time>2015-03-22T07:35:46.522Z</time>
      </trkpt>
      <trkpt lat="48.40194" lon="2.62791">
        <ele>149.804</ele>
        <time>2015-03-22T07:35:48.488Z</time>
      </trkpt>
      <trkpt lat="48.40186" lon="2.62779">
        <ele>151.442</ele>
        <time>2015-03-22T07:35:51.159Z</time>
      </trkpt>
      <trkpt lat="48.4018" lon="2.62768">
        <ele>153.153</ele>
        <time>2015-03-22T07:35:53.676Z</time>
      </trkpt>
      <trkpt lat="48.40172" lon="2.62754">
        <ele>153.974</ele>
        <time>2015-03-22T07:35:56.794Z</time>
      </trkpt>
      <trkpt lat="48.40164" lon="2.62743">
        <ele>153.331</ele>
        <time>2015-03-22T07:35:59.766Z</time>
      </trkpt>
      <trkpt lat="48.40157" lon="2.62731">
        <ele>152.115</ele>
        <time>2015-03-22T07:36:02.752Z</time>
      </trkpt>
      <trkpt lat="48.40149" lon="2.62719">
        <ele>150.771</ele>
        <time>2015-03-22T07:36:05.894Z</time>
      </trkpt>
      <trkpt lat="48.40144" lon="2.62704">
        <ele>149.152</ele>
        <time>2015-03-22T07:36:08.840Z</time>
      </trkpt>
      <trkpt lat="48.40138" lon="2.62688">
        <ele>147.126</ele>
        <time>2015-03-22T07:36:12.092Z</time>
      </trkpt>
      <trkpt lat="48.40127" lon="2.62675">
        <ele>144.252</ele>
        <time>2015-03-22T07:36:15.404Z</time>
      </trkpt>
      <trkpt lat="48.4012" lon="2.62664">
        <ele>140.989</ele>
        <time>2015-03-22T07:36:17.683Z</time>
      </trkpt>
      <trkpt lat="48.40108" lon="2.62648">
        <ele>138.618</ele>
        <time>2015-03-22T07:36:21.182Z</time>
      </trkpt>
      <trkpt lat="48.40101" lon="2.62638">
        <ele>137.447</ele>
        <time>2015-03-22T07:36:23.211Z</time>
      </trkpt>
      <trkpt lat="48.4009" lon="2.62623">
        <ele>137.094</ele>
        <time>2015-03-22T07:36:26.331Z</time>
      </trkpt>
      <trkpt lat="48.4008" lon="2.62606">
        <ele>137.198</ele>
        <time>2015-03-22T07:36:29.459Z</time>
      </trkpt>
      <trkpt lat="48.40068" lon="2.62589">
        <ele>137.507</ele>
        <time>2015-03-22T07:36:32.646Z</time>
      </trkpt>
      <trkpt lat="48.40062" lon="2.62578">
        <ele>137.865</ele>
        <time>2015-03-22T07:36:34.646Z</time>
      </trkpt>
      <trkpt lat="48.40052" lon="2.62563">
        <ele>138.102</ele>
        <time>2015-03-22T07:36:37.388Z</time>
      </trkpt>
      <trkpt lat="48.40046" lon="2.62552">
        <ele>138.159</ele>
        <time>2015-03-22T07:36:39.360Z</time>
      </trkpt>
      <trkpt lat="48.40045" lon="2.62525">
        <ele>138.051</ele>
        <time>2015-03-22T07:36:42.768Z</time>
      </trkpt>
      <trkpt lat="48.40052" lon="2.62499">
        <ele>137.631</ele>
        <time>2015-03-22T07:36:46.226Z</time>
      </trkpt>
      <trkpt lat="48.4006" lon="2.62476">
        <ele>136.403</ele>
        <time>2015-03-22T07:36:49.266Z</time>
      </trkpt>
      <trkpt lat="48.40067" lon="2.62456">
        <ele>134.205</ele>
        <time>2015-03-22T07:36:52.155Z</time>
      </trkpt>
      <trkpt lat="48.40073" lon="2.6244">
        <ele>131.932</ele>
        <time>2015-03-22T07:36:54.292Z</time>
      </trkpt>
      <trkpt lat="48.40079" lon="2.62421">
        <ele>130.607</ele>
        <time>2015-03-22T07:36:57.014Z</time>
      </trkpt>
      <trkpt lat="48.40084" lon="2.62409">
        <ele>130.124</ele>
        <time>2015-03-22T07:36:58.825Z</time>
      </trkpt>
      <trkpt lat="48.4009" lon="2.62389">
        <ele>129.889</ele>
        <time>2015-03-22T07:37:01.646Z</time>
      </trkpt>
      <trkpt lat="48.40098" lon="2.62367">
        <ele>129.874</ele>
        <time>2015-03-22T07:37:04.815Z</time>
      </trkpt>
      <trkpt lat="48.40105" lon="2.62347">
        <ele>130.221</ele>
        <time>2015-03-22T07:37:07.608Z</time>
      </trkpt>
      <trkpt lat="48.40109" lon="2.62333">
        <ele>130.532</ele>
        <time>2015-03-22T07:37:09.637Z</time>
      </trkpt>
      <trkpt lat="48.40115" lon="2.62319">
        <ele>130.462</ele>
        <time>2015-03-22T07:37:11.765Z</time>
      </trkpt>
      <trkpt lat="48.40123" lon="2.62295">
        <ele>130.487</ele>
        <time>2015-03-22T07:37:15.090Z</time>
      </trkpt>
      <trkpt lat="48.40128" lon="2.62281">
        <ele>131.311</ele>
        <time>2015-03-22T07:37:17.196Z</time>
      </trkpt>
      <trkpt lat="48.40136" lon="2.62261">
        <ele>132.702</ele>
        <time>2015-03-22T07:37:20.149Z</time>
      </trkpt>
      <trkpt lat="48.4014" lon="2.62249">
        <ele>133.608</ele>
        <time>2015-03-22T07:37:22.005Z</time>
      </trkpt>
      <trkpt lat="48.40139" lon="2.62233">
        <ele>133.569</ele>
        <time>2015-03-22T07:37:24.371Z</time>
      </trkpt>
      <trkpt lat="48.40134" lon="2.62221">
        <ele>133.298</ele>
        <time>2015-03-22T07:37:26.230Z</time>
      </trkpt>
      <trkpt lat="48.40127" lon="2.62212">
        <ele>133.694</ele>
        <time>2015-03-22T07:37:28.114Z</time>
      </trkpt>
      <trkpt lat="48.40112" lon="2.62203">
        <ele>134.692</ele>
        <time>2015-03-22T07:37:31.102Z</time>
      </trkpt>
      <trkpt lat="48.40101" lon="2.62195">
        <ele>135.681</ele>
        <time>2015-03-22T07:37:33.332Z</time>
      </trkpt>
      <trkpt lat="48.40085" lon="2.62182">
        <ele>136.433</ele>
        <time>2015-03-22T07:37:36.535Z</time>
      </trkpt>
      <trkpt lat="48.40069" lon="2.6217">
        <ele>137.026</ele>
        <time>2015-03-22T07:37:39.693Z</time>
      </trkpt>
      <trkpt lat="48.40055" lon="2.62156">
        <ele>137.473</ele>
        <time>2015-03-22T07:37:42.781Z</time>
      </trkpt>
      <trkpt lat="48.40047" lon="2.62149">
        <ele>137.907</ele>
        <time>2015-03-22T07:37:44.531Z</time>
      </trkpt>
      <trkpt lat="48.40035" lon="2.62142">
        <ele>138.634</ele>
        <time>2015-03-22T07:37:47.078Z</time>
      </trkpt>
      <trkpt lat="48.40023" lon="2.6214">
        <ele>139.544</ele>
        <time>2015-03-22T07:37:49.490Z</time>
      </trkpt>
      <trkpt lat="48.4001" lon="2.62136">
        <ele>140.1</ele>
        <time>2015-03-22T07:37:52.136Z</time>
      </trkpt>
      <trkpt lat="48.39997" lon="2.62128">
        <ele>140.177</ele>
        <time>2015-03-22T07:37:54.943Z</time>
      </trkpt>
      <trkpt lat="48.39988" lon="2.62119">
        <ele>140.087</ele>
        <time>2015-03-22T07:37:57.051Z</time>
      </trkpt>
      <trkpt lat="48.39974" lon="2.62107">
        <ele>140.295</ele>
        <time>2015-03-22T07:38:00.008Z</time>
      </trkpt>
      <trkpt lat="48.39959" lon="2.62097">
        <ele>141.042</ele>
        <time>2015-03-22T07:38:03.075Z</time>
      </trkpt>
      <trkpt lat="48.39949" lon="2.62089">
        <ele>141.911</ele>
        <time>2015-03-22T07:38:05.029Z</time>
      </trkpt>
      <trkpt lat="48.39934" lon="2.62076">
        <ele>142.414</ele>
        <time>2015-03-22T07:38:08.073Z</time>
      </trkpt>
      <trkpt lat="48.39918" lon="2.62062">
        <ele>142.557</ele>
        <time>2015-03-22T07:38:11.150Z</time>
      </trkpt>
      <trkpt lat="48.39907" lon="2.62053">
        <ele>142.314</ele>
        <time>2015-03-22T07:38:13.163Z</time>
      </trkpt>
      <trkpt lat="48.39896" lon="2.62044">
        <ele>141.709</ele>
        <time>2015-03-22T07:38:15.272Z</time>
      </trkpt>
      <trkpt lat="48.39881" lon="2.62029">
        <ele>141.037</ele>
        <time>2015-03-22T07:38:18.205Z</time>
      </trkpt>
      <trkpt lat="48.39872" lon="2.62021">
        <ele>139.855</ele>
        <time>2015-03-22T07:38:19.857Z</time>
      </trkpt>
      <trkpt lat="48.3986" lon="2.62011">
        <ele>137.779</ele>
        <time>2015-03-22T07:38:22.307Z</time>
      </trkpt>
      <trkpt lat="48.39845" lon="2.61999">
        <ele>135.897</ele>
        <time>2015-03-22T07:38:25.115Z</time>
      </trkpt>
      <trkpt lat="48.39832" lon="2.61988">
        <ele>135.183</ele>
        <time>2015-03-22T07:38:27.817Z</time>
      </trkpt>
      <trkpt lat="48.39819" lon="2.61976">
        <ele>135.249</ele>
        <time>2015-03-22T07:38:30.503Z</time>
      </trkpt>
      <trkpt lat="48.3981" lon="2.61969">
        <ele>135.301</ele>
        <time>2015-03-22T07:38:32.297Z</time>
      </trkpt>
      <trkpt lat="48.39796" lon="2.61959">
        <ele>134.963</ele>
        <time>2015-03-22T07:38:35.062Z</time>
      </trkpt>
      <trkpt lat="48.39784" lon="2.61951">
        <ele>134.596</ele>
        <time>2015-03-22T07:38:37.508Z</time>
      </trkpt>
      <trkpt lat="48.39773" lon="2.61941">
        <ele>134.999</ele>
        <time>2015-03-22T07:38:40.001Z</time>
      </trkpt>
      <trkpt lat="48.39763" lon="2.61935">
        <ele>136.304</ele>
        <time>2015-03-22T07:38:41.998Z</time>
      </trkpt>
      <trkpt lat="48.39752" lon="2.61929">
        <ele>137.665</ele>
        <time>2015-03-22T07:38:44.368Z</time>
      </trkpt>
      <trkpt lat="48.39738" lon="2.61918">
        <ele>138.627</ele>
        <time>2015-03-22T07:38:47.347Z</time>
      </trkpt>
      <trkpt lat="48.39728" lon="2.6191">
        <ele>139.271</ele>
        <time>2015-03-22T07:38:49.465Z</time>
      </trkpt>
      <trkpt lat="48.39713" lon="2.61898">
        <ele>139.581</ele>
        <time>2015-03-22T07:38:52.513Z</time>
      </trkpt>
      <trkpt lat="48.397" lon="2.61888">
        <ele>140.011</ele>
        <time>2015-03-22T07:38:55.213Z</time>
      </trkpt>
      <trkpt lat="48.39689" lon="2.61881">
        <ele>141.185</ele>
        <time>2015-03-22T07:38:57.343Z</time>
      </trkpt>
      <trkpt lat="48.39674" lon="2.61871">
        <ele>142.79</ele>
        <time>2015-03-22T07:39:00.275Z</time>
      </trkpt>
      <trkpt lat="48.39664" lon="2.61864">
        <ele>143.797</ele>
        <time>2015-03-22T07:39:02.266Z</time>
      </trkpt>
      <trkpt lat="48.39649" lon="2.61852">
        <ele>143.755</ele>
        <time>2015-03-22T07:39:05.001Z</time>
      </trkpt>
      <trkpt lat="48.3964" lon="2.61843">
        <ele>143.246</ele>
        <time>2015-03-22T07:39:06.869Z</time>
      </trkpt>
      <trkpt lat="48.39628" lon="2.61831">
        <ele>143.421</ele>
        <time>2015-03-22T07:39:09.371Z</time>
      </trkpt>
      <trkpt lat="48.39628" lon="2.61816">
        <ele>143.641</ele>
        <time>2015-03-22T07:39:11.055Z</time>
      </trkpt>
      <trkpt lat="48.3963" lon="2.61799">
        <ele>143.33</ele>
        <time>2015-03-22T07:39:13.250Z</time>
      </trkpt>
      <trkpt lat="48.39634" lon="2.61783">
        <ele>141.634</ele>
        <time>2015-03-22T07:39:15.606Z</time>
      </trkpt>
      <trkpt lat="48.39639" lon="2.61767">
        <ele>138.34</ele>
        <time>2015-03-22T07:39:18.005Z</time>
      </trkpt>
      <trkpt lat="48.39643" lon="2.61754">
        <ele>134.646</ele>
        <time>2015-03-22T07:39:20.109Z</time>
      </trkpt>
      <trkpt lat="48.39646" lon="2.61741">
        <ele>131.78</ele>
        <time>2015-03-22T07:39:22.341Z</time>
      </trkpt>
      <trkpt lat="48.3965" lon="2.61724">
        <ele>132.122</ele>
        <time>2015-03-22T07:39:25.487Z</time>
      </trkpt>
      <trkpt lat="48.39654" lon="2.61707">
        <ele>132.161</ele>
        <time>2015-03-22T07:39:29.063Z</time>
      </trkpt>
      <trkpt lat="48.39659" lon="2.61688">
        <ele>131.413</ele>
        <time>2015-03-22T07:39:32.970Z</time>
      </trkpt>
      <trkpt lat="48.39664" lon="2.61669">
        <ele>130.271</ele>
        <time>2015-03-22T07:39:36.803Z</time>
      </trkpt>
      <trkpt lat="48.39669" lon="2.61648">
        <ele>129.088</ele>
        <time>2015-03-22T07:39:40.548Z</time>
      </trkpt>
      <trkpt lat="48.39674" lon="2.61631">
        <ele>129.616</ele>
        <time>2015-03-22T07:39:43.680Z</time>
      </trkpt>
      <trkpt lat="48.39678" lon="2.61618">
        <ele>130.625</ele>
        <time>2015-03-22T07:39:45.952Z</time>
      </trkpt>
      <trkpt lat="48.39683" lon="2.61599">
        <ele>131.699</ele>
        <time>2015-03-22T07:39:49.136Z</time>
      </trkpt>
      <trkpt lat="48.39686" lon="2.61585">
        <ele>131.484</ele>
        <time>2015-03-22T07:39:51.361Z</time>
      </trkpt>
      <trkpt lat="48.39692" lon="2.61561">
        <ele>131.137</ele>
        <time>2015-03-22T07:39:55.320Z</time>
      </trkpt>
      <trkpt lat="48.39698" lon="2.61542">
        <ele>131.038</ele>
        <time>2015-03-22T07:39:58.394Z</time>
      </trkpt>
      <trkpt lat="48.39705" lon="2.61518">
        <ele>131.22</ele>
        <time>2015-03-22T07:40:02.134Z</time>
      </trkpt>
      <trkpt lat="48.39711" lon="2.61496">
        <ele>131.203</ele>
        <time>2015-03-22T07:40:05.365Z</time>
      </trkpt>
      <trkpt lat="48.39717" lon="2.61475">
        <ele>130.423</ele>
        <time>2015-03-22T07:40:08.392Z</time>
      </trkpt>
      <trkpt lat="48.39722" lon="2.61452">
        <ele>128.99</ele>
        <time>2015-03-22T07:40:11.537Z</time>
      </trkpt>
      <trkpt lat="48.39726" lon="2.61434">
        <ele>127.675</ele>
        <time>2015-03-22T07:40:14.086Z</time>
      </trkpt>
      <trkpt lat="48.39733" lon="2.61414">
        <ele>127.164</ele>
        <time>2015-03-22T07:40:17.079Z</time>
      </trkpt>
      <trkpt lat="48.39743" lon="2.61405">
        <ele>127.909</ele>
        <time>2015-03-22T07:40:19.552Z</time>
      </trkpt>
      <trkpt lat="48.39756" lon="2.61403">
        <ele>129.732</ele>
        <time>2015-03-22T07:40:22.517Z</time>
      </trkpt>
      <trkpt lat="48.39768" lon="2.61404">
        <ele>131.703</ele>
        <time>2015-03-22T07:40:25.311Z</time>
      </trkpt>
      <trkpt lat="48.39784" lon="2.61406">
        <ele>133.139</ele>
        <time>2015-03-22T07:40:28.848Z</time>
      </trkpt>
      <trkpt lat="48.39799" lon="2.6141">
        <ele>134.131</ele>
        <time>2015-03-22T07:40:32.017Z</time>
      </trkpt>
      <trkpt lat="48.39816" lon="2.61413">
        <ele>134.849</ele>
        <time>2015-03-22T07:40:35.491Z</time>
      </trkpt>
      <trkpt lat="48.39832" lon="2.61415">
        <ele>135.258</ele>
        <time>2015-03-22T07:40:38.632Z</time>
      </trkpt>
      <trkpt lat="48.39848" lon="2.61417">
        <ele>135.283</ele>
        <time>2015-03-22T07:40:41.622Z</time>
      </trkpt>
      <trkpt lat="48.39865" lon="2.6142">
        <ele>134.998</ele>
        <time>2015-03-22T07:40:44.974Z</time>
      </trkpt>
      <trkpt lat="48.3988" lon="2.61421">
        <ele>134.567</ele>
        <time>2015-03-22T07:40:47.969Z</time>
      </trkpt>
      <trkpt lat="48.39899" lon="2.61426">
        <ele>134.117</ele>
        <time>2015-03-22T07:40:51.567Z</time>
      </trkpt>
      <trkpt lat="48.39913" lon="2.61429">
        <ele>133.579</ele>
        <time>2015-03-22T07:40:54.231Z</time>
      </trkpt>
      <trkpt lat="48.3993" lon="2.61433">
        <ele>132.763</ele>
        <time>2015-03-22T07:40:57.512Z</time>
      </trkpt>
      <trkpt lat="48.39947" lon="2.61436">
        <ele>131.608</ele>
        <time>2015-03-22T07:41:00.715Z</time>
      </trkpt>
      <trkpt lat="48.39964" lon="2.61439">
        <ele>130.172</ele>
        <time>2015-03-22T07:41:03.747Z</time>
      </trkpt>
      <trkpt lat="48.39982" lon="2.61442">
        <ele>128.745</ele>
        <time>2015-03-22T07:41:07.059Z</time>
      </trkpt>
      <trkpt lat="48.39998" lon="2.61439">
        <ele>127.851</ele>
        <time>2015-03-22T07:41:09.933Z</time>
      </trkpt>
      <trkpt lat="48.40014" lon="2.61433">
        <ele>127.661</ele>
        <time>2015-03-22T07:41:12.829Z</time>
      </trkpt>
      <trkpt lat="48.40029" lon="2.6143">
        <ele>127.799</ele>
        <time>2015-03-22T07:41:15.659Z</time>
      </trkpt>
      <trkpt lat="48.40042" lon="2.6143">
        <ele>127.822</ele>
        <time>2015-03-22T07:41:18.232Z</time>
      </trkpt>
      <trkpt lat="48.40055" lon="2.6143">
        <ele>127.591</ele>
        <time>2015-03-22T07:41:20.919Z</time>
      </trkpt>
      <trkpt lat="48.40065" lon="2.61421">
        <ele>127.73</ele>
        <time>2015-03-22T07:41:23.391Z</time>
      </trkpt>
      <trkpt lat="48.40072" lon="2.61411">
        <ele>128.687</ele>
        <time>2015-03-22T07:41:25.686Z</time>
      </trkpt>
      <trkpt lat="48.40084" lon="2.61399">
        <ele>129.791</ele>
        <time>2015-03-22T07:41:29.038Z</time>
      </trkpt>
      <trkpt lat="48.40096" lon="2.61394">
        <ele>130.418</ele>
        <time>2015-03-22T07:41:32.069Z</time>
      </trkpt>
      <trkpt lat="48.40107" lon="2.6139">
        <ele>130.716</ele>
        <time>2015-03-22T07:41:34.704Z</time>
      </trkpt>
      <trkpt lat="48.40116" lon="2.61385">
        <ele>130.921</ele>
        <time>2015-03-22T07:41:37.191Z</time>
      </trkpt>
      <trkpt lat="48.40127" lon="2.61381">
        <ele>131.059</ele>
        <time>2015-03-22T07:41:40.176Z</time>
      </trkpt>
      <trkpt lat="48.40147" lon="2.61379">
        <ele>130.973</ele>
        <time>2015-03-22T07:41:44.951Z</time>
      </trkpt>
      <trkpt lat="48.40168" lon="2.61377">
        <ele>130.665</ele>
        <time>2015-03-22T07:41:49.175Z</time>
      </trkpt>
      <trkpt lat="48.40187" lon="2.61377">
        <ele>130.541</ele>
        <time>2015-03-22T07:41:52.666Z</time>
      </trkpt>
      <trkpt lat="48.40204" lon="2.61374">
        <ele>130.822</ele>
        <time>2015-03-22T07:41:55.836Z</time>
      </trkpt>
      <trkpt lat="48.40217" lon="2.61371">
        <ele>131.111</ele>
        <time>2015-03-22T07:41:58.463Z</time>
      </trkpt>
      <trkpt lat="48.40231" lon="2.61366">
        <ele>131.028</ele>
        <time>2015-03-22T07:42:01.307Z</time>
      </trkpt>
      <trkpt lat="48.40243" lon="2.6136">
        <ele>130.594</ele>
        <time>2015-03-22T07:42:04.088Z</time>
      </trkpt>
      <trkpt lat="48.40257" lon="2.61363">
        <ele>129.9</ele>
        <time>2015-03-22T07:42:07.269Z</time>
      </trkpt>
      <trkpt lat="48.4027" lon="2.61375">
        <ele>129.143</ele>
        <time>2015-03-22T07:42:10.681Z</time>
      </trkpt>
      <trkpt lat="48.40281" lon="2.61386">
        <ele>128.335</ele>
        <time>2015-03-22T07:42:13.650Z</time>
      </trkpt>
      <trkpt lat="48.4029" lon="2.61389">
        <ele>127.669</ele>
        <time>2015-03-22T07:42:16.047Z</time>
      </trkpt>
      <trkpt lat="48.40302" lon="2.61391">
        <ele>127.599</ele>
        <time>2015-03-22T07:42:19.206Z</time>
      </trkpt>
      <trkpt lat="48.40313" lon="2.61394">
        <ele>128.071</ele>
        <time>2015-03-22T07:42:22.459Z</time>
      </trkpt>
      <trkpt lat="48.40322" lon="2.61395">
        <ele>128.641</ele>
        <time>2015-03-22T07:42:25.390Z</time>
      </trkpt>
      <trkpt lat="48.40333" lon="2.61397">
        <ele>129.066</ele>
        <time>2015-03-22T07:42:29.150Z</time>
      </trkpt>
      <trkpt lat="48.40342" lon="2.61398">
        <ele>129.37</ele>
        <time>2015-03-22T07:42:32.513Z</time>
      </trkpt>
      <trkpt lat="48.40352" lon="2.614">
        <ele>130.043</ele>
        <time>2015-03-22T07:42:35.811Z</time>
      </trkpt>
      <trkpt lat="48.40362" lon="2.61401">
        <ele>131.168</ele>
        <time>2015-03-22T07:42:39.043Z</time>
      </trkpt>
      <trkpt lat="48.40373" lon="2.61403">
        <ele>132.129</ele>
        <time>2015-03-22T07:42:42.967Z</time>
      </trkpt>
      <trkpt lat="48.40386" lon="2.61407">
        <ele>132.455</ele>
        <time>2015-03-22T07:42:47.225Z</time>
      </trkpt>
      <trkpt lat="48.40398" lon="2.61408">
        <ele>132.293</ele>
        <time>2015-03-22T07:42:50.725Z</time>
      </trkpt>
      <trkpt lat="48.40409" lon="2.6141">
        <ele>132.02</ele>
        <time>2015-03-22T07:42:54.074Z</time>
      </trkpt>
      <trkpt lat="48.4042" lon="2.61413">
        <ele>131.89</ele>
        <time>2015-03-22T07:42:57.501Z</time>
      </trkpt>
      <trkpt lat="48.4043" lon="2.61418">
        <ele>131.908</ele>
        <time>2015-03-22T07:43:00.609Z</time>
      </trkpt>
      <trkpt lat="48.4044" lon="2.61423">
        <ele>131.976</ele>
        <time>2015-03-22T07:43:04.160Z</time>
      </trkpt>
      <trkpt lat="48.4045" lon="2.61425">
        <ele>131.811</ele>
        <time>2015-03-22T07:43:07.380Z</time>
      </trkpt>
      <trkpt lat="48.4045" lon="2.61425">
        <ele>131.277</ele>
        <time>2015-03-22T07:43:10.374Z</time>
      </trkpt>
      <trkpt lat="48.4045" lon="2.61425">
        <ele>130.798</ele>
        <time>2015-03-22T07:43:10.474Z</time>
      </trkpt>
      <trkpt lat="48.4047" lon="2.61434">
        <ele>130.824</ele>
        <time>2015-03-22T07:43:28.590Z</time>
      </trkpt>
      <trkpt lat="48.40478" lon="2.61439">
        <ele>131.433</ele>
        <time>2015-03-22T07:43:32.265Z</time>
      </trkpt>
      <trkpt lat="48.40487" lon="2.61444">
        <ele>132.386</ele>
        <time>2015-03-22T07:43:34.974Z</time>
      </trkpt>
      <trkpt lat="48.405" lon="2.61451">
        <ele>133.126</ele>
        <time>2015-03-22T07:43:38.713Z</time>
      </trkpt>
      <trkpt lat="48.40511" lon="2.61456">
        <ele>133.263</ele>
        <time>2015-03-22T07:43:41.706Z</time>
      </trkpt>
      <trkpt lat="48.4052" lon="2.61462">
        <ele>132.562</ele>
        <time>2015-03-22T07:43:44.400Z</time>
      </trkpt>
      <trkpt lat="48.40531" lon="2.61468">
        <ele>131.169</ele>
        <time>2015-03-22T07:43:47.248Z</time>
      </trkpt>
      <trkpt lat="48.40542" lon="2.61473">
        <ele>129.971</ele>
        <time>2015-03-22T07:43:50.005Z</time>
      </trkpt>
      <trkpt lat="48.40553" lon="2.61478">
        <ele>129.901</ele>
        <time>2015-03-22T07:43:52.649Z</time>
      </trkpt>
      <trkpt lat="48.40567" lon="2.61483">
        <ele>130.955</ele>
        <time>2015-03-22T07:43:55.769Z</time>
      </trkpt>
      <trkpt lat="48.4058" lon="2.61489">
        <ele>132.25</ele>
        <time>2015-03-22T07:43:58.696Z</time>
      </trkpt>
      <trkpt lat="48.40593" lon="2.6149">
        <ele>132.893</ele>
        <time>2015-03-22T07:44:01.389Z</time>
      </trkpt>
      <trkpt lat="48.40607" lon="2.61488">
        <ele>132.727</ele>
        <time>2015-03-22T07:44:03.939Z</time>
      </trkpt>
      <trkpt lat="48.40619" lon="2.61487">
        <ele>131.95</ele>
        <time>2015-03-22T07:44:05.820Z</time>
      </trkpt>
      <trkpt lat="48.40642" lon="2.61484">
        <ele>130.845</ele>
        <time>2015-03-22T07:44:08.925Z</time>
      </trkpt>
      <trkpt lat="48.40666" lon="2.61477">
        <ele>129.625</ele>
        <time>2015-03-22T07:44:11.919Z</time>
      </trkpt>
      <trkpt lat="48.40678" lon="2.61464">
        <ele>128.116</ele>
        <time>2015-03-22T07:44:13.668Z</time>
      </trkpt>
      <trkpt lat="48.4069" lon="2.61449">
        <ele>125.959</ele>
        <time>2015-03-22T07:44:15.529Z</time>
      </trkpt>
      <trkpt lat="48.40703" lon="2.61421">
        <ele>123.6</ele>
        <time>2015-03-22T07:44:18.384Z</time>
      </trkpt>
      <trkpt lat="48.4071" lon="2.61399">
        <ele>121.591</ele>
        <time>2015-03-22T07:44:20.462Z</time>
      </trkpt>
      <trkpt lat="48.40715" lon="2.61378">
        <ele>119.271</ele>
        <time>2015-03-22T07:44:22.466Z</time>
      </trkpt>
      <trkpt lat="48.40722" lon="2.61346">
        <ele>116.378</ele>
        <time>2015-03-22T07:44:25.563Z</time>
      </trkpt>
      <trkpt lat="48.40726" lon="2.61325">
        <ele>113.669</ele>
        <time>2015-03-22T07:44:27.508Z</time>
      </trkpt>
      <trkpt lat="48.40732" lon="2.61302">
        <ele>111.286</ele>
        <time>2015-03-22T07:44:29.815Z</time>
      </trkpt>
      <trkpt lat="48.40737" lon="2.61272">
        <ele>109.17</ele>
        <time>2015-03-22T07:44:32.671Z</time>
      </trkpt>
      <trkpt lat="48.40737" lon="2.61239">
        <ele>107.799</ele>
        <time>2015-03-22T07:44:35.528Z</time>
      </trkpt>
      <trkpt lat="48.40739" lon="2.61208">
        <ele>107.398</ele>
        <time>2015-03-22T07:44:38.109Z</time>
      </trkpt>
      <trkpt lat="48.4074" lon="2.61186">
        <ele>108.066</ele>
        <time>2015-03-22T07:44:39.977Z</time>
      </trkpt>
      <trkpt lat="48.40742" lon="2.61147">
        <ele>109.489</ele>
        <time>2015-03-22T07:44:43.216Z</time>
      </trkpt>
      <trkpt lat="48.40743" lon="2.61112">
        <ele>109.964</ele>
        <time>2015-03-22T07:44:46.237Z</time>
      </trkpt>
      <trkpt lat="48.40744" lon="2.61089">
        <ele>108.395</ele>
        <time>2015-03-22T07:44:48.162Z</time>
      </trkpt>
      <trkpt lat="48.40744" lon="2.61068">
        <ele>106.149</ele>
        <time>2015-03-22T07:44:50.020Z</time>
      </trkpt>
      <trkpt lat="48.40745" lon="2.61031">
        <ele>104.582</ele>
        <time>2015-03-22T07:44:53.047Z</time>
      </trkpt>
      <trkpt lat="48.40746" lon="2.61009">
        <ele>103.615</ele>
        <time>2015-03-22T07:44:54.873Z</time>
      </trkpt>
      <trkpt lat="48.40748" lon="2.60975">
        <ele>103.113</ele>
        <time>2015-03-22T07:44:57.583Z</time>
      </trkpt>
      <trkpt lat="48.40751" lon="2.60939">
        <ele>102.85</ele>
        <time>2015-03-22T07:45:00.494Z</time>
      </trkpt>
      <trkpt lat="48.40754" lon="2.60918">
        <ele>102.496</ele>
        <time>2015-03-22T07:45:02.299Z</time>
      </trkpt>
      <trkpt lat="48.40759" lon="2.60887">
        <ele>102.071</ele>
        <time>2015-03-22T07:45:05.353Z</time>
      </trkpt>
      <trkpt lat="48.40762" lon="2.60869">
        <ele>101.308</ele>
        <time>2015-03-22T07:45:07.220Z</time>
      </trkpt>
      <trkpt lat="48.4077" lon="2.60851">
        <ele>99.964</ele>
        <time>2015-03-22T07:45:09.298Z</time>
      </trkpt>
      <trkpt lat="48.40785" lon="2.6083">
        <ele>98.651</ele>
        <time>2015-03-22T07:45:11.987Z</time>
      </trkpt>
      <trkpt lat="48.40808" lon="2.60807">
        <ele>97.613</ele>
        <time>2015-03-22T07:45:15.333Z</time>
      </trkpt>
      <trkpt lat="48.40823" lon="2.60796">
        <ele>96.515</ele>
        <time>2015-03-22T07:45:17.368Z</time>
      </trkpt>
      <trkpt lat="48.40846" lon="2.60788">
        <ele>95.667</ele>
        <time>2015-03-22T07:45:20.019Z</time>
      </trkpt>
      <trkpt lat="48.40874" lon="2.60784">
        <ele>95.448</ele>
        <time>2015-03-22T07:45:23.107Z</time>
      </trkpt>
      <trkpt lat="48.409" lon="2.60777">
        <ele>95.037</ele>
        <time>2015-03-22T07:45:25.828Z</time>
      </trkpt>
      <trkpt lat="48.40917" lon="2.60775">
        <ele>93.288</ele>
        <time>2015-03-22T07:45:27.724Z</time>
      </trkpt>
      <trkpt lat="48.40946" lon="2.60778">
        <ele>90.422</ele>
        <time>2015-03-22T07:45:30.732Z</time>
      </trkpt>
      <trkpt lat="48.40965" lon="2.60784">
        <ele>87.884</ele>
        <time>2015-03-22T07:45:32.867Z</time>
      </trkpt>
      <trkpt lat="48.4099" lon="2.60796">
        <ele>86.433</ele>
        <time>2015-03-22T07:45:35.877Z</time>
      </trkpt>
      <trkpt lat="48.41006" lon="2.60803">
        <ele>85.569</ele>
        <time>2015-03-22T07:45:37.861Z</time>
      </trkpt>
      <trkpt lat="48.41032" lon="2.60806">
        <ele>84.785</ele>
        <time>2015-03-22T07:45:41.070Z</time>
      </trkpt>
      <trkpt lat="48.41048" lon="2.60809">
        <ele>84.665</ele>
        <time>2015-03-22T07:45:43.033Z</time>
      </trkpt>
      <trkpt lat="48.41074" lon="2.60828">
        <ele>85.783</ele>
        <time>2015-03-22T07:45:46.210Z</time>
      </trkpt>
      <trkpt lat="48.41089" lon="2.60845">
        <ele>87.5</ele>
        <time>2015-03-22T07:45:48.357Z</time>
      </trkpt>
      <trkpt lat="48.41106" lon="2.60879">
        <ele>89.193</ele>
        <time>2015-03-22T07:45:51.658Z</time>
      </trkpt>
      <trkpt lat="48.41111" lon="2.60902">
        <ele>90.816</ele>
        <time>2015-03-22T07:45:53.750Z</time>
      </trkpt>
      <trkpt lat="48.41112" lon="2.60924">
        <ele>92.242</ele>
        <time>2015-03-22T07:45:55.907Z</time>
      </trkpt>
      <trkpt lat="48.41119" lon="2.60942">
        <ele>93.912</ele>
        <time>2015-03-22T07:45:58.020Z</time>
      </trkpt>
      <trkpt lat="48.41132" lon="2.60941">
        <ele>96.088</ele>
        <time>2015-03-22T07:46:00.245Z</time>
      </trkpt>
      <trkpt lat="48.4115" lon="2.60932">
        <ele>96.961</ele>
        <time>2015-03-22T07:46:03.404Z</time>
      </trkpt>
      <trkpt lat="48.41162" lon="2.60927">
        <ele>95.36</ele>
        <time>2015-03-22T07:46:05.158Z</time>
      </trkpt>
      <trkpt lat="48.41182" lon="2.60919">
        <ele>92.816</ele>
        <time>2015-03-22T07:46:08.138Z</time>
      </trkpt>
      <trkpt lat="48.41202" lon="2.60913">
        <ele>90.902</ele>
        <time>2015-03-22T07:46:10.964Z</time>
      </trkpt>
      <trkpt lat="48.41226" lon="2.60903">
        <ele>88.772</ele>
        <time>2015-03-22T07:46:14.190Z</time>
      </trkpt>
      <trkpt lat="48.41241" lon="2.60899">
        <ele>85.549</ele>
        <time>2015-03-22T07:46:16.185Z</time>
      </trkpt>
      <trkpt lat="48.41254" lon="2.60894">
        <ele>82.439</ele>
        <time>2015-03-22T07:46:17.964Z</time>
      </trkpt>
      <trkpt lat="48.41267" lon="2.6089">
        <ele>80.867</ele>
        <time>2015-03-22T07:46:19.840Z</time>
      </trkpt>
      <trkpt lat="48.41287" lon="2.60883">
        <ele>80.946</ele>
        <time>2015-03-22T07:46:22.810Z</time>
      </trkpt>
      <trkpt lat="48.41305" lon="2.60877">
        <ele>82.56</ele>
        <time>2015-03-22T07:46:25.726Z</time>
      </trkpt>
      <trkpt lat="48.4132" lon="2.60868">
        <ele>84.978</ele>
        <time>2015-03-22T07:46:28.414Z</time>
      </trkpt>
      <trkpt lat="48.4134" lon="2.6086">
        <ele>86.948</ele>
        <time>2015-03-22T07:46:31.590Z</time>
      </trkpt>
      <trkpt lat="48.41359" lon="2.60852">
        <ele>87.321</ele>
        <time>2015-03-22T07:46:34.902Z</time>
      </trkpt>
      <trkpt lat="48.41372" lon="2.60847">
        <ele>85.998</ele>
        <time>2015-03-22T07:46:37.334Z</time>
      </trkpt>
      <trkpt lat="48.41388" lon="2.60841">
        <ele>84.283</ele>
        <time>2015-03-22T07:46:40.617Z</time>
      </trkpt>
      <trkpt lat="48.41405" lon="2.60836">
        <ele>83.369</ele>
        <time>2015-03-22T07:46:43.936Z</time>
      </trkpt>
      <trkpt lat="48.4142" lon="2.60831">
        <ele>83.239</ele>
        <time>2015-03-22T07:46:46.666Z</time>
      </trkpt>
      <trkpt lat="48.41434" lon="2.60827">
        <ele>83.51</ele>
        <time>2015-03-22T07:46:49.236Z</time>
      </trkpt>
      <trkpt lat="48.41444" lon="2.60822">
        <ele>83.873</ele>
        <time>2015-03-22T07:46:51.154Z</time>
      </trkpt>
      <trkpt lat="48.41462" lon="2.60816">
        <ele>84.21</ele>
        <time>2015-03-22T07:46:54.304Z</time>
      </trkpt>
      <trkpt lat="48.41474" lon="2.60812">
        <ele>84.904</ele>
        <time>2015-03-22T07:46:56.426Z</time>
      </trkpt>
      <trkpt lat="48.41491" lon="2.60806">
        <ele>86.144</ele>
        <time>2015-03-22T07:46:59.372Z</time>
      </trkpt>
      <trkpt lat="48.41508" lon="2.608">
        <ele>86.713</ele>
        <time>2015-03-22T07:47:02.155Z</time>
      </trkpt>
      <trkpt lat="48.41519" lon="2.60797">
        <ele>85.721</ele>
        <time>2015-03-22T07:47:04.158Z</time>
      </trkpt>
      <trkpt lat="48.41537" lon="2.60791">
        <ele>84.196</ele>
        <time>2015-03-22T07:47:07.215Z</time>
      </trkpt>
      <trkpt lat="48.41546" lon="2.60787">
        <ele>83.478</ele>
        <time>2015-03-22T07:47:08.969Z</time>
      </trkpt>
      <trkpt lat="48.41562" lon="2.60779">
        <ele>83.704</ele>
        <time>2015-03-22T07:47:11.894Z</time>
      </trkpt>
      <trkpt lat="48.41577" lon="2.60772">
        <ele>84.257</ele>
        <time>2015-03-22T07:47:14.595Z</time>
      </trkpt>
      <trkpt lat="48.41592" lon="2.60766">
        <ele>84.871</ele>
        <time>2015-03-22T07:47:17.564Z</time>
      </trkpt>
      <trkpt lat="48.41604" lon="2.60763">
        <ele>85.882</ele>
        <time>2015-03-22T07:47:20.909Z</time>
      </trkpt>
      <trkpt lat="48.41614" lon="2.60766">
        <ele>87.135</ele>
        <time>2015-03-22T07:47:25.370Z</time>
      </trkpt>
      <trkpt lat="48.41614" lon="2.60766">
        <ele>87.861</ele>
        <time>2015-03-22T07:47:27.370Z</time>
      </trkpt>
      <trkpt lat="48.41614" lon="2.60766">
        <ele>87.775</ele>
        <time>2015-03-22T07:47:40.374Z</time>
      </trkpt>
      <trkpt lat="48.41614" lon="2.60766">
        <ele>87.445</ele>
        <time>2015-03-22T07:47:40.474Z</time>
      </trkpt>
      <trkpt lat="48.4162" lon="2.60776">
        <ele>87.396</ele>
        <time>2015-03-22T07:47:51.373Z</time>
      </trkpt>
      <trkpt lat="48.4162" lon="2.60776">
        <ele>87.553</ele>
        <time>2015-03-22T07:47:54.375Z</time>
      </trkpt>
      <trkpt lat="48.4162" lon="2.60776">
        <ele>87.643</ele>
        <time>2015-03-22T07:47:54.475Z</time>
      </trkpt>
      <trkpt lat="48.4162" lon="2.60776">
        <ele>87.507</ele>
        <time>2015-03-22T07:50:03.550Z</time>
      </trkpt>
      <trkpt lat="48.4162" lon="2.60776">
        <ele>87.452</ele>
        <time>2015-03-22T07:51:45.432Z</time>
      </trkpt>
      <trkpt lat="48.4162" lon="2.60776">
        <ele>87.43</ele>
        <time>2015-03-22T07:52:59.325Z</time>
      </trkpt>
      <trkpt lat="48.41609" lon="2.60786">
        <ele>87.417</ele>
        <time>2015-03-22T07:53:15.684Z</time>
      </trkpt>
      <trkpt lat="48.41605" lon="2.60798">
        <ele>88.36</ele>
        <time>2015-03-22T07:53:20.967Z</time>
      </trkpt>
      <trkpt lat="48.41601" lon="2.60812">
        <ele>91.189</ele>
        <time>2015-03-22T07:53:25.627Z</time>
      </trkpt>
      <trkpt lat="48.41597" lon="2.60829">
        <ele>95.415</ele>
        <time>2015-03-22T07:53:29.873Z</time>
      </trkpt>
      <trkpt lat="48.41593" lon="2.60842">
        <ele>99.565</ele>
        <time>2015-03-22T07:53:32.915Z</time>
      </trkpt>
      <trkpt lat="48.41587" lon="2.60855">
        <ele>102.368</ele>
        <time>2015-03-22T07:53:35.754Z</time>
      </trkpt>
      <trkpt lat="48.4158" lon="2.60869">
        <ele>103.393</ele>
        <time>2015-03-22T07:53:38.632Z</time>
      </trkpt>
      <trkpt lat="48.41575" lon="2.60882">
        <ele>102.319</ele>
        <time>2015-03-22T07:53:41.324Z</time>
      </trkpt>
      <trkpt lat="48.41569" lon="2.60895">
        <ele>99.344</ele>
        <time>2015-03-22T07:53:44.038Z</time>
      </trkpt>
      <trkpt lat="48.4156" lon="2.60906">
        <ele>97.447</ele>
        <time>2015-03-22T07:53:47.065Z</time>
      </trkpt>
      <trkpt lat="48.41554" lon="2.60916">
        <ele>98.86</ele>
        <time>2015-03-22T07:53:49.855Z</time>
      </trkpt>
      <trkpt lat="48.41548" lon="2.60927">
        <ele>101.743</ele>
        <time>2015-03-22T07:53:52.906Z</time>
      </trkpt>
      <trkpt lat="48.41544" lon="2.6094">
        <ele>103.567</ele>
        <time>2015-03-22T07:53:56.043Z</time>
      </trkpt>
      <trkpt lat="48.41539" lon="2.60954">
        <ele>103.934</ele>
        <time>2015-03-22T07:54:00.115Z</time>
      </trkpt>
      <trkpt lat="48.41533" lon="2.60964">
        <ele>104.042</ele>
        <time>2015-03-22T07:54:03.710Z</time>
      </trkpt>
      <trkpt lat="48.41528" lon="2.60976">
        <ele>104.887</ele>
        <time>2015-03-22T07:54:07.199Z</time>
      </trkpt>
      <trkpt lat="48.41522" lon="2.6099">
        <ele>106.004</ele>
        <time>2015-03-22T07:54:11.730Z</time>
      </trkpt>
      <trkpt lat="48.41518" lon="2.61002">
        <ele>107.091</ele>
        <time>2015-03-22T07:54:15.607Z</time>
      </trkpt>
      <trkpt lat="48.41514" lon="2.61016">
        <ele>109.163</ele>
        <time>2015-03-22T07:54:20.305Z</time>
      </trkpt>
      <trkpt lat="48.41507" lon="2.61029">
        <ele>112.218</ele>
        <time>2015-03-22T07:54:24.667Z</time>
      </trkpt>
      <trkpt lat="48.41501" lon="2.61046">
        <ele>114.219</ele>
        <time>2015-03-22T07:54:29.373Z</time>
      </trkpt>
      <trkpt lat="48.41494" lon="2.61057">
        <ele>113.996</ele>
        <time>2015-03-22T07:54:32.887Z</time>
      </trkpt>
      <trkpt lat="48.41487" lon="2.61069">
        <ele>112.451</ele>
        <time>2015-03-22T07:54:36.404Z</time>
      </trkpt>
      <trkpt lat="48.41482" lon="2.61081">
        <ele>111.063</ele>
        <time>2015-03-22T07:54:39.655Z</time>
      </trkpt>
      <trkpt lat="48.41475" lon="2.61094">
        <ele>110.419</ele>
        <time>2015-03-22T07:54:43.672Z</time>
      </trkpt>
      <trkpt lat="48.4147" lon="2.61105">
        <ele>110.4</ele>
        <time>2015-03-22T07:54:46.976Z</time>
      </trkpt>
      <trkpt lat="48.41464" lon="2.61119">
        <ele>111.195</ele>
        <time>2015-03-22T07:54:50.993Z</time>
      </trkpt>
      <trkpt lat="48.41459" lon="2.61133">
        <ele>112.797</ele>
        <time>2015-03-22T07:54:54.904Z</time>
      </trkpt>
      <trkpt lat="48.41453" lon="2.61147">
        <ele>114.39</ele>
        <time>2015-03-22T07:54:58.754Z</time>
      </trkpt>
      <trkpt lat="48.4145" lon="2.6116">
        <ele>115.472</ele>
        <time>2015-03-22T07:55:01.858Z</time>
      </trkpt>
      <trkpt lat="48.41446" lon="2.61176">
        <ele>115.857</ele>
        <time>2015-03-22T07:55:05.450Z</time>
      </trkpt>
      <trkpt lat="48.41443" lon="2.61193">
        <ele>115.617</ele>
        <time>2015-03-22T07:55:08.715Z</time>
      </trkpt>
      <trkpt lat="48.41437" lon="2.61209">
        <ele>115.291</ele>
        <time>2015-03-22T07:55:12.092Z</time>
      </trkpt>
      <trkpt lat="48.41432" lon="2.61226">
        <ele>115.268</ele>
        <time>2015-03-22T07:55:15.361Z</time>
      </trkpt>
      <trkpt lat="48.4143" lon="2.6124">
        <ele>114.927</ele>
        <time>2015-03-22T07:55:17.827Z</time>
      </trkpt>
      <trkpt lat="48.41425" lon="2.61255">
        <ele>113.629</ele>
        <time>2015-03-22T07:55:20.617Z</time>
      </trkpt>
      <trkpt lat="48.41418" lon="2.61272">
        <ele>111.618</ele>
        <time>2015-03-22T07:55:23.823Z</time>
      </trkpt>
      <trkpt lat="48.41412" lon="2.61289">
        <ele>109.609</ele>
        <time>2015-03-22T07:55:26.808Z</time>
      </trkpt>
      <trkpt lat="48.41406" lon="2.61307">
        <ele>108.267</ele>
        <time>2015-03-22T07:55:29.990Z</time>
      </trkpt>
      <trkpt lat="48.41398" lon="2.61328">
        <ele>107.827</ele>
        <time>2015-03-22T07:55:33.493Z</time>
      </trkpt>
      <trkpt lat="48.41391" lon="2.61346">
        <ele>107.825</ele>
        <time>2015-03-22T07:55:36.650Z</time>
      </trkpt>
      <trkpt lat="48.41387" lon="2.61364">
        <ele>108.223</ele>
        <time>2015-03-22T07:55:39.479Z</time>
      </trkpt>
      <trkpt lat="48.4138" lon="2.61383">
        <ele>109.165</ele>
        <time>2015-03-22T07:55:42.616Z</time>
      </trkpt>
      <trkpt lat="48.41375" lon="2.61401">
        <ele>110.247</ele>
        <time>2015-03-22T07:55:45.565Z</time>
      </trkpt>
      <trkpt lat="48.4137" lon="2.61421">
        <ele>111.073</ele>
        <time>2015-03-22T07:55:48.606Z</time>
      </trkpt>
      <trkpt lat="48.41363" lon="2.61441">
        <ele>111.636</ele>
        <time>2015-03-22T07:55:51.861Z</time>
      </trkpt>
      <trkpt lat="48.41355" lon="2.61463">
        <ele>112.016</ele>
        <time>2015-03-22T07:55:55.223Z</time>
      </trkpt>
      <trkpt lat="48.41347" lon="2.61484">
        <ele>112.138</ele>
        <time>2015-03-22T07:55:58.471Z</time>
      </trkpt>
      <trkpt lat="48.41343" lon="2.61497">
        <ele>111.834</ele>
        <time>2015-03-22T07:56:00.492Z</time>
      </trkpt>
      <trkpt lat="48.41336" lon="2.61515">
        <ele>111.353</ele>
        <time>2015-03-22T07:56:03.360Z</time>
      </trkpt>
      <trkpt lat="48.41331" lon="2.61534">
        <ele>111.446</ele>
        <time>2015-03-22T07:56:06.321Z</time>
      </trkpt>
      <trkpt lat="48.41324" lon="2.61546">
        <ele>112.333</ele>
        <time>2015-03-22T07:56:08.525Z</time>
      </trkpt>
      <trkpt lat="48.41319" lon="2.61566">
        <ele>113.127</ele>
        <time>2015-03-22T07:56:11.830Z</time>
      </trkpt>
      <trkpt lat="48.41315" lon="2.61584">
        <ele>113.074</ele>
        <time>2015-03-22T07:56:14.664Z</time>
      </trkpt>
      <trkpt lat="48.4131" lon="2.61602">
        <ele>112.549</ele>
        <time>2015-03-22T07:56:17.666Z</time>
      </trkpt>
      <trkpt lat="48.41305" lon="2.61619">
        <ele>112.072</ele>
        <time>2015-03-22T07:56:20.589Z</time>
      </trkpt>
      <trkpt lat="48.413" lon="2.61632">
        <ele>111.493</ele>
        <time>2015-03-22T07:56:22.765Z</time>
      </trkpt>
      <trkpt lat="48.41291" lon="2.61651">
        <ele>110.597</ele>
        <time>2015-03-22T07:56:26.093Z</time>
      </trkpt>
      <trkpt lat="48.41283" lon="2.61668">
        <ele>109.698</ele>
        <time>2015-03-22T07:56:29.023Z</time>
      </trkpt>
      <trkpt lat="48.41269" lon="2.61685">
        <ele>108.944</ele>
        <time>2015-03-22T07:56:32.659Z</time>
      </trkpt>
      <trkpt lat="48.4126" lon="2.61691">
        <ele>107.866</ele>
        <time>2015-03-22T07:56:34.710Z</time>
      </trkpt>
      <trkpt lat="48.41246" lon="2.61701">
        <ele>106.481</ele>
        <time>2015-03-22T07:56:37.744Z</time>
      </trkpt>
      <trkpt lat="48.41237" lon="2.61707">
        <ele>105.807</ele>
        <time>2015-03-22T07:56:39.908Z</time>
      </trkpt>
      <trkpt lat="48.41223" lon="2.61716">
        <ele>106.402</ele>
        <time>2015-03-22T07:56:42.946Z</time>
      </trkpt>
      <trkpt lat="48.41208" lon="2.61727">
        <ele>107.467</ele>
        <time>2015-03-22T07:56:46.661Z</time>
      </trkpt>
      <trkpt lat="48.41199" lon="2.61734">
        <ele>108.164</ele>
        <time>2015-03-22T07:56:49.098Z</time>
      </trkpt>
      <trkpt lat="48.41188" lon="2.61744">
        <ele>108.445</ele>
        <time>2015-03-22T07:56:52.031Z</time>
      </trkpt>
      <trkpt lat="48.41175" lon="2.61753">
        <ele>108.396</ele>
        <time>2015-03-22T07:56:55.353Z</time>
      </trkpt>
      <trkpt lat="48.41165" lon="2.6176">
        <ele>108.032</ele>
        <time>2015-03-22T07:56:57.730Z</time>
      </trkpt>
      <trkpt lat="48.4115" lon="2.6177">
        <ele>107.429</ele>
        <time>2015-03-22T07:57:01.386Z</time>
      </trkpt>
      <trkpt lat="48.4114" lon="2.61781">
        <ele>106.667</ele>
        <time>2015-03-22T07:57:04.642Z</time>
      </trkpt>
      <trkpt lat="48.41127" lon="2.61789">
        <ele>105.794</ele>
        <time>2015-03-22T07:57:08.958Z</time>
      </trkpt>
      <trkpt lat="48.41119" lon="2.61794">
        <ele>104.678</ele>
        <time>2015-03-22T07:57:12.373Z</time>
      </trkpt>
      <trkpt lat="48.41114" lon="2.61808">
        <ele>103.365</ele>
        <time>2015-03-22T07:57:15.796Z</time>
      </trkpt>
      <trkpt lat="48.41117" lon="2.61821">
        <ele>102.604</ele>
        <time>2015-03-22T07:57:18.561Z</time>
      </trkpt>
      <trkpt lat="48.4112" lon="2.61835">
        <ele>102.84</ele>
        <time>2015-03-22T07:57:21.382Z</time>
      </trkpt>
      <trkpt lat="48.41125" lon="2.6185">
        <ele>103.188</ele>
        <time>2015-03-22T07:57:24.548Z</time>
      </trkpt>
      <trkpt lat="48.41131" lon="2.61865">
        <ele>102.806</ele>
        <time>2015-03-22T07:57:28.147Z</time>
      </trkpt>
      <trkpt lat="48.41136" lon="2.61879">
        <ele>102.09</ele>
        <time>2015-03-22T07:57:31.861Z</time>
      </trkpt>
      <trkpt lat="48.41142" lon="2.61893">
        <ele>101.746</ele>
        <time>2015-03-22T07:57:36.101Z</time>
      </trkpt>
      <trkpt lat="48.41145" lon="2.61906">
        <ele>101.95</ele>
        <time>2015-03-22T07:57:39.967Z</time>
      </trkpt>
      <trkpt lat="48.41148" lon="2.61921">
        <ele>102.49</ele>
        <time>2015-03-22T07:57:44.125Z</time>
      </trkpt>
      <trkpt lat="48.41153" lon="2.61935">
        <ele>103.186</ele>
        <time>2015-03-22T07:57:48.179Z</time>
      </trkpt>
      <trkpt lat="48.41156" lon="2.61949">
        <ele>103.844</ele>
        <time>2015-03-22T07:57:52.051Z</time>
      </trkpt>
      <trkpt lat="48.41159" lon="2.61963">
        <ele>104.338</ele>
        <time>2015-03-22T07:57:55.692Z</time>
      </trkpt>
      <trkpt lat="48.41164" lon="2.61975">
        <ele>104.745</ele>
        <time>2015-03-22T07:57:59.461Z</time>
      </trkpt>
      <trkpt lat="48.41168" lon="2.61989">
        <ele>105.737</ele>
        <time>2015-03-22T07:58:03.796Z</time>
      </trkpt>
      <trkpt lat="48.41172" lon="2.62001">
        <ele>107.66</ele>
        <time>2015-03-22T07:58:08.118Z</time>
      </trkpt>
      <trkpt lat="48.41175" lon="2.62014">
        <ele>109.641</ele>
        <time>2015-03-22T07:58:12.460Z</time>
      </trkpt>
      <trkpt lat="48.41178" lon="2.62031">
        <ele>110.674</ele>
        <time>2015-03-22T07:58:17.287Z</time>
      </trkpt>
      <trkpt lat="48.41181" lon="2.62043">
        <ele>110.915</ele>
        <time>2015-03-22T07:58:21.175Z</time>
      </trkpt>
      <trkpt lat="48.41184" lon="2.62059">
        <ele>110.723</ele>
        <time>2015-03-22T07:58:26.072Z</time>
      </trkpt>
      <trkpt lat="48.41189" lon="2.62072">
        <ele>110.571</ele>
        <time>2015-03-22T07:58:30.564Z</time>
      </trkpt>
      <trkpt lat="48.41196" lon="2.62083">
        <ele>111.041</ele>
        <time>2015-03-22T07:58:35.904Z</time>
      </trkpt>
      <trkpt lat="48.41204" lon="2.62094">
        <ele>112.236</ele>
        <time>2015-03-22T07:58:40.927Z</time>
      </trkpt>
      <trkpt lat="48.41211" lon="2.62102">
        <ele>113.7</ele>
        <time>2015-03-22T07:58:45.179Z</time>
      </trkpt>
      <trkpt lat="48.4122" lon="2.62112">
        <ele>115.448</ele>
        <time>2015-03-22T07:58:50.247Z</time>
      </trkpt>
      <trkpt lat="48.41228" lon="2.62121">
        <ele>117.607</ele>
        <time>2015-03-22T07:58:54.872Z</time>
      </trkpt>
      <trkpt lat="48.41234" lon="2.62131">
        <ele>119.52</ele>
        <time>2015-03-22T07:58:59.276Z</time>
      </trkpt>
      <trkpt lat="48.41241" lon="2.62141">
        <ele>120.483</ele>
        <time>2015-03-22T07:59:04.012Z</time>
      </trkpt>
      <trkpt lat="48.41249" lon="2.6215">
        <ele>120.755</ele>
        <time>2015-03-22T07:59:09.483Z</time>
      </trkpt>
      <trkpt lat="48.41256" lon="2.6216">
        <ele>121.789</ele>
        <time>2015-03-22T07:59:15.735Z</time>
      </trkpt>
      <trkpt lat="48.41263" lon="2.62171">
        <ele>124.366</ele>
        <time>2015-03-22T07:59:22.118Z</time>
      </trkpt>
      <trkpt lat="48.41269" lon="2.62182">
        <ele>127.081</ele>
        <time>2015-03-22T07:59:28.581Z</time>
      </trkpt>
      <trkpt lat="48.41269" lon="2.62182">
        <ele>128.432</ele>
        <time>2015-03-22T07:59:31.602Z</time>
      </trkpt>
      <trkpt lat="48.41269" lon="2.62182">
        <ele>128.623</ele>
        <time>2015-03-22T07:59:31.702Z</time>
      </trkpt>
      <trkpt lat="48.41286" lon="2.62208">
        <ele>128.415</ele>
        <time>2015-03-22T08:00:38.680Z</time>
      </trkpt>
      <trkpt lat="48.41295" lon="2.62216">
        <ele>128.766</ele>
        <time>2015-03-22T08:00:41.300Z</time>
      </trkpt>
      <trkpt lat="48.41303" lon="2.62224">
        <ele>130.01</ele>
        <time>2015-03-22T08:00:43.703Z</time>
      </trkpt>
      <trkpt lat="48.41312" lon="2.62231">
        <ele>131.532</ele>
        <time>2015-03-22T08:00:45.389Z</time>
      </trkpt>
      <trkpt lat="48.41321" lon="2.6224">
        <ele>132.633</ele>
        <time>2015-03-22T08:00:47.381Z</time>
      </trkpt>
      <trkpt lat="48.41321" lon="2.6224">
        <ele>133.099</ele>
        <time>2015-03-22T08:00:47.381Z</time>
      </trkpt>
      <trkpt lat="48.41321" lon="2.6224">
        <ele>132.983</ele>
        <time>2015-03-22T08:00:47.481Z</time>
      </trkpt>
      <trkpt lat="48.41333" lon="2.62254">
        <ele>132.683</ele>
        <time>2015-03-22T08:00:55.905Z</time>
      </trkpt>
      <trkpt lat="48.41342" lon="2.62262">
        <ele>132.394</ele>
        <time>2015-03-22T08:00:59.390Z</time>
      </trkpt>
      <trkpt lat="48.41352" lon="2.62271">
        <ele>131.993</ele>
        <time>2015-03-22T08:01:02.512Z</time>
      </trkpt>
      <trkpt lat="48.41361" lon="2.62278">
        <ele>131.504</ele>
        <time>2015-03-22T08:01:04.698Z</time>
      </trkpt>
      <trkpt lat="48.41374" lon="2.6229">
        <ele>131.122</ele>
        <time>2015-03-22T08:01:07.806Z</time>
      </trkpt>
      <trkpt lat="48.41383" lon="2.62299">
        <ele>130.911</ele>
        <time>2015-03-22T08:01:09.674Z</time>
      </trkpt>
      <trkpt lat="48.41393" lon="2.62309">
        <ele>130.708</ele>
        <time>2015-03-22T08:01:11.629Z</time>
      </trkpt>
      <trkpt lat="48.41413" lon="2.62329">
        <ele>130.381</ele>
        <time>2015-03-22T08:01:14.777Z</time>
      </trkpt>
      <trkpt lat="48.41426" lon="2.62342">
        <ele>129.895</ele>
        <time>2015-03-22T08:01:16.506Z</time>
      </trkpt>
      <trkpt lat="48.4144" lon="2.62354">
        <ele>129.081</ele>
        <time>2015-03-22T08:01:18.280Z</time>
      </trkpt>
      <trkpt lat="48.41461" lon="2.62375">
        <ele>127.661</ele>
        <time>2015-03-22T08:01:20.898Z</time>
      </trkpt>
      <trkpt lat="48.41475" lon="2.62389">
        <ele>125.835</ele>
        <time>2015-03-22T08:01:22.536Z</time>
      </trkpt>
      <trkpt lat="48.41492" lon="2.62406">
        <ele>124.058</ele>
        <time>2015-03-22T08:01:24.408Z</time>
      </trkpt>
      <trkpt lat="48.41515" lon="2.62431">
        <ele>122.141</ele>
        <time>2015-03-22T08:01:27.232Z</time>
      </trkpt>
      <trkpt lat="48.41536" lon="2.62451">
        <ele>118.791</ele>
        <time>2015-03-22T08:01:30.195Z</time>
      </trkpt>
      <trkpt lat="48.41548" lon="2.62465">
        <ele>113.969</ele>
        <time>2015-03-22T08:01:32.367Z</time>
      </trkpt>
      <trkpt lat="48.41562" lon="2.6248">
        <ele>109.917</ele>
        <time>2015-03-22T08:01:35.329Z</time>
      </trkpt>
      <trkpt lat="48.41569" lon="2.62499">
        <ele>107.62</ele>
        <time>2015-03-22T08:01:38.247Z</time>
      </trkpt>
      <trkpt lat="48.41573" lon="2.62513">
        <ele>105.383</ele>
        <time>2015-03-22T08:01:40.388Z</time>
      </trkpt>
      <trkpt lat="48.41579" lon="2.62529">
        <ele>102.566</ele>
        <time>2015-03-22T08:01:43.095Z</time>
      </trkpt>
      <trkpt lat="48.41584" lon="2.62543">
        <ele>100.403</ele>
        <time>2015-03-22T08:01:45.823Z</time>
      </trkpt>
      <trkpt lat="48.41591" lon="2.6256">
        <ele>99.882</ele>
        <time>2015-03-22T08:01:49.451Z</time>
      </trkpt>
      <trkpt lat="48.41595" lon="2.62575">
        <ele>100.986</ele>
        <time>2015-03-22T08:01:52.619Z</time>
      </trkpt>
      <trkpt lat="48.416" lon="2.62592">
        <ele>102.861</ele>
        <time>2015-03-22T08:01:56.400Z</time>
      </trkpt>
      <trkpt lat="48.41595" lon="2.62604">
        <ele>104.682</ele>
        <time>2015-03-22T08:01:59.367Z</time>
      </trkpt>
      <trkpt lat="48.4159" lon="2.62618">
        <ele>106.252</ele>
        <time>2015-03-22T08:02:02.887Z</time>
      </trkpt>
      <trkpt lat="48.41583" lon="2.62635">
        <ele>107.244</ele>
        <time>2015-03-22T08:02:07.229Z</time>
      </trkpt>
      <trkpt lat="48.41581" lon="2.6265">
        <ele>107.238</ele>
        <time>2015-03-22T08:02:11.755Z</time>
      </trkpt>
      <trkpt lat="48.4158" lon="2.62663">
        <ele>106.55</ele>
        <time>2015-03-22T08:02:17.755Z</time>
      </trkpt>
      <trkpt lat="48.41581" lon="2.62678">
        <ele>107.163</ele>
        <time>2015-03-22T08:02:23.127Z</time>
      </trkpt>
      <trkpt lat="48.41584" lon="2.62691">
        <ele>110.249</ele>
        <time>2015-03-22T08:02:28.180Z</time>
      </trkpt>
      <trkpt lat="48.4159" lon="2.62705">
        <ele>113.704</ele>
        <time>2015-03-22T08:02:33.727Z</time>
      </trkpt>
      <trkpt lat="48.41595" lon="2.62716">
        <ele>115.531</ele>
        <time>2015-03-22T08:02:38.415Z</time>
      </trkpt>
      <trkpt lat="48.41601" lon="2.62729">
        <ele>116.117</ele>
        <time>2015-03-22T08:02:43.926Z</time>
      </trkpt>
      <trkpt lat="48.41609" lon="2.62737">
        <ele>116.016</ele>
        <time>2015-03-22T08:02:49.132Z</time>
      </trkpt>
      <trkpt lat="48.41615" lon="2.62747">
        <ele>115.944</ele>
        <time>2015-03-22T08:02:53.575Z</time>
      </trkpt>
      <trkpt lat="48.41623" lon="2.62758">
        <ele>116.392</ele>
        <time>2015-03-22T08:02:58.454Z</time>
      </trkpt>
      <trkpt lat="48.4163" lon="2.62769">
        <ele>118.201</ele>
        <time>2015-03-22T08:03:03.428Z</time>
      </trkpt>
      <trkpt lat="48.41638" lon="2.62776">
        <ele>120.382</ele>
        <time>2015-03-22T08:03:08.143Z</time>
      </trkpt>
      <trkpt lat="48.41646" lon="2.62784">
        <ele>125.049</ele>
        <time>2015-03-22T08:03:13.238Z</time>
      </trkpt>
      <trkpt lat="48.41655" lon="2.62789">
        <ele>124.977</ele>
        <time>2015-03-22T08:03:18.125Z</time>
      </trkpt>
      <trkpt lat="48.41666" lon="2.6279">
        <ele>124.391</ele>
        <time>2015-03-22T08:03:23.367Z</time>
      </trkpt>
      <trkpt lat="48.41676" lon="2.62794">
        <ele>125.374</ele>
        <time>2015-03-22T08:03:28.378Z</time>
      </trkpt>
      <trkpt lat="48.41686" lon="2.62796">
        <ele>127.514</ele>
        <time>2015-03-22T08:03:33.242Z</time>
      </trkpt>
      <trkpt lat="48.41696" lon="2.62799">
        <ele>130.156</ele>
        <time>2015-03-22T08:03:37.623Z</time>
      </trkpt>
      <trkpt lat="48.41707" lon="2.62804">
        <ele>132.376</ele>
        <time>2015-03-22T08:03:43.106Z</time>
      </trkpt>
      <trkpt lat="48.41717" lon="2.62809">
        <ele>134.274</ele>
        <time>2015-03-22T08:03:47.132Z</time>
      </trkpt>
      <trkpt lat="48.41726" lon="2.6281">
        <ele>135.931</ele>
        <time>2015-03-22T08:03:50.607Z</time>
      </trkpt>
      <trkpt lat="48.41735" lon="2.62816">
        <ele>136.976</ele>
        <time>2015-03-22T08:03:54.377Z</time>
      </trkpt>
      <trkpt lat="48.41747" lon="2.62821">
        <ele>137.355</ele>
        <time>2015-03-22T08:03:58.736Z</time>
      </trkpt>
      <trkpt lat="48.41757" lon="2.62824">
        <ele>137.277</ele>
        <time>2015-03-22T08:04:02.054Z</time>
      </trkpt>
      <trkpt lat="48.41766" lon="2.62829">
        <ele>137.262</ele>
        <time>2015-03-22T08:04:05.047Z</time>
      </trkpt>
      <trkpt lat="48.41777" lon="2.62834">
        <ele>137.603</ele>
        <time>2015-03-22T08:04:08.309Z</time>
      </trkpt>
      <trkpt lat="48.41788" lon="2.62839">
        <ele>138.505</ele>
        <time>2015-03-22T08:04:11.516Z</time>
      </trkpt>
      <trkpt lat="48.41798" lon="2.62843">
        <ele>139.473</ele>
        <time>2015-03-22T08:04:14.406Z</time>
      </trkpt>
      <trkpt lat="48.41807" lon="2.62848">
        <ele>139.935</ele>
        <time>2015-03-22T08:04:17.256Z</time>
      </trkpt>
      <trkpt lat="48.4182" lon="2.62854">
        <ele>139.519</ele>
        <time>2015-03-22T08:04:20.876Z</time>
      </trkpt>
      <trkpt lat="48.41829" lon="2.62858">
        <ele>136.563</ele>
        <time>2015-03-22T08:04:23.587Z</time>
      </trkpt>
      <trkpt lat="48.4184" lon="2.62864">
        <ele>134.851</ele>
        <time>2015-03-22T08:04:26.660Z</time>
      </trkpt>
      <trkpt lat="48.41853" lon="2.62869">
        <ele>133.462</ele>
        <time>2015-03-22T08:04:30.040Z</time>
      </trkpt>
      <trkpt lat="48.41864" lon="2.62874">
        <ele>133.119</ele>
        <time>2015-03-22T08:04:32.962Z</time>
      </trkpt>
      <trkpt lat="48.41875" lon="2.62877">
        <ele>133.854</ele>
        <time>2015-03-22T08:04:35.705Z</time>
      </trkpt>
      <trkpt lat="48.41886" lon="2.62891">
        <ele>134.855</ele>
        <time>2015-03-22T08:04:39.607Z</time>
      </trkpt>
      <trkpt lat="48.419" lon="2.6291">
        <ele>134.76</ele>
        <time>2015-03-22T08:04:45.057Z</time>
      </trkpt>
      <trkpt lat="48.41915" lon="2.62913">
        <ele>134.926</ele>
        <time>2015-03-22T08:04:48.670Z</time>
      </trkpt>
      <trkpt lat="48.41926" lon="2.62901">
        <ele>134.558</ele>
        <time>2015-03-22T08:04:51.296Z</time>
      </trkpt>
      <trkpt lat="48.41942" lon="2.62885">
        <ele>130.957</ele>
        <time>2015-03-22T08:04:55.043Z</time>
      </trkpt>
      <trkpt lat="48.4195" lon="2.62868">
        <ele>129.139</ele>
        <time>2015-03-22T08:04:57.629Z</time>
      </trkpt>
      <trkpt lat="48.41955" lon="2.62856">
        <ele>126.942</ele>
        <time>2015-03-22T08:04:59.303Z</time>
      </trkpt>
      <trkpt lat="48.41971" lon="2.62856">
        <ele>123.999</ele>
        <time>2015-03-22T08:05:02.067Z</time>
      </trkpt>
      <trkpt lat="48.41994" lon="2.62874">
        <ele>121.087</ele>
        <time>2015-03-22T08:05:06.724Z</time>
      </trkpt>
      <trkpt lat="48.42017" lon="2.6289">
        <ele>119.11</ele>
        <time>2015-03-22T08:05:10.353Z</time>
      </trkpt>
      <trkpt lat="48.4204" lon="2.62908">
        <ele>117.156</ele>
        <time>2015-03-22T08:05:13.442Z</time>
      </trkpt>
      <trkpt lat="48.42062" lon="2.62926">
        <ele>114.396</ele>
        <time>2015-03-22T08:05:16.276Z</time>
      </trkpt>
      <trkpt lat="48.42079" lon="2.62942">
        <ele>111.568</ele>
        <time>2015-03-22T08:05:18.875Z</time>
      </trkpt>
      <trkpt lat="48.42098" lon="2.62957">
        <ele>109.23</ele>
        <time>2015-03-22T08:05:21.737Z</time>
      </trkpt>
      <trkpt lat="48.42114" lon="2.62972">
        <ele>107.11</ele>
        <time>2015-03-22T08:05:24.348Z</time>
      </trkpt>
      <trkpt lat="48.42132" lon="2.62986">
        <ele>105.135</ele>
        <time>2015-03-22T08:05:27.081Z</time>
      </trkpt>
      <trkpt lat="48.42151" lon="2.62999">
        <ele>103.461</ele>
        <time>2015-03-22T08:05:30.048Z</time>
      </trkpt>
      <trkpt lat="48.4217" lon="2.63015">
        <ele>102.931</ele>
        <time>2015-03-22T08:05:33.247Z</time>
      </trkpt>
      <trkpt lat="48.42187" lon="2.63028">
        <ele>103.862</ele>
        <time>2015-03-22T08:05:36.019Z</time>
      </trkpt>
      <trkpt lat="48.42204" lon="2.63041">
        <ele>104.96</ele>
        <time>2015-03-22T08:05:38.926Z</time>
      </trkpt>
      <trkpt lat="48.42221" lon="2.63054">
        <ele>104.952</ele>
        <time>2015-03-22T08:05:41.926Z</time>
      </trkpt>
      <trkpt lat="48.4224" lon="2.63061">
        <ele>104.273</ele>
        <time>2015-03-22T08:05:45.157Z</time>
      </trkpt>
      <trkpt lat="48.42252" lon="2.63064">
        <ele>103.913</ele>
        <time>2015-03-22T08:05:47.849Z</time>
      </trkpt>
      <trkpt lat="48.42262" lon="2.63062">
        <ele>104.303</ele>
        <time>2015-03-22T08:05:50.740Z</time>
      </trkpt>
      <trkpt lat="48.42272" lon="2.63058">
        <ele>105.386</ele>
        <time>2015-03-22T08:05:54.914Z</time>
      </trkpt>
      <trkpt lat="48.42282" lon="2.63056">
        <ele>106.784</ele>
        <time>2015-03-22T08:06:00.462Z</time>
      </trkpt>
      <trkpt lat="48.42291" lon="2.63057">
        <ele>107.924</ele>
        <time>2015-03-22T08:06:06.659Z</time>
      </trkpt>
      <trkpt lat="48.42291" lon="2.63057">
        <ele>108.434</ele>
        <time>2015-03-22T08:06:11.407Z</time>
      </trkpt>
      <trkpt lat="48.42291" lon="2.63057">
        <ele>108.329</ele>
        <time>2015-03-22T08:06:16.410Z</time>
      </trkpt>
      <trkpt lat="48.42291" lon="2.63057">
        <ele>108.073</ele>
        <time>2015-03-22T08:06:39.675Z</time>
      </trkpt>
      <trkpt lat="48.42305" lon="2.63049">
        <ele>108.014</ele>
        <time>2015-03-22T08:06:54.351Z</time>
      </trkpt>
      <trkpt lat="48.42315" lon="2.63048">
        <ele>107.534</ele>
        <time>2015-03-22T08:06:58.839Z</time>
      </trkpt>
      <trkpt lat="48.42327" lon="2.63048">
        <ele>106.142</ele>
        <time>2015-03-22T08:07:02.763Z</time>
      </trkpt>
      <trkpt lat="48.42336" lon="2.63048">
        <ele>104.789</ele>
        <time>2015-03-22T08:07:05.738Z</time>
      </trkpt>
      <trkpt lat="48.42345" lon="2.63046">
        <ele>104.461</ele>
        <time>2015-03-22T08:07:08.799Z</time>
      </trkpt>
      <trkpt lat="48.42355" lon="2.63043">
        <ele>104.977</ele>
        <time>2015-03-22T08:07:12.616Z</time>
      </trkpt>
      <trkpt lat="48.42365" lon="2.63041">
        <ele>106.092</ele>
        <time>2015-03-22T08:07:17.123Z</time>
      </trkpt>
      <trkpt lat="48.42377" lon="2.63041">
        <ele>107.973</ele>
        <time>2015-03-22T08:07:23.863Z</time>
      </trkpt>
      <trkpt lat="48.42387" lon="2.6304">
        <ele>110.584</ele>
        <time>2015-03-22T08:07:30.396Z</time>
      </trkpt>
      <trkpt lat="48.42387" lon="2.6304">
        <ele>113.091</ele>
        <time>2015-03-22T08:07:32.396Z</time>
      </trkpt>
      <trkpt lat="48.42387" lon="2.6304">
        <ele>114.347</ele>
        <time>2015-03-22T08:07:32.496Z</time>
      </trkpt>
      <trkpt lat="48.42402" lon="2.63036">
        <ele>114.181</ele>
        <time>2015-03-22T08:07:46.785Z</time>
      </trkpt>
      <trkpt lat="48.42413" lon="2.63031">
        <ele>113.588</ele>
        <time>2015-03-22T08:07:53.514Z</time>
      </trkpt>
      <trkpt lat="48.42422" lon="2.63031">
        <ele>113.983</ele>
        <time>2015-03-22T08:07:58.312Z</time>
      </trkpt>
      <trkpt lat="48.42431" lon="2.63029">
        <ele>115.837</ele>
        <time>2015-03-22T08:08:02.647Z</time>
      </trkpt>
      <trkpt lat="48.42441" lon="2.63031">
        <ele>117.866</ele>
        <time>2015-03-22T08:08:07.421Z</time>
      </trkpt>
      <trkpt lat="48.42452" lon="2.63028">
        <ele>119.376</ele>
        <time>2015-03-22T08:08:12.742Z</time>
      </trkpt>
      <trkpt lat="48.42461" lon="2.63027">
        <ele>120.983</ele>
        <time>2015-03-22T08:08:17.759Z</time>
      </trkpt>
      <trkpt lat="48.42472" lon="2.63022">
        <ele>123.106</ele>
        <time>2015-03-22T08:08:24.553Z</time>
      </trkpt>
      <trkpt lat="48.42481" lon="2.63019">
        <ele>126.004</ele>
        <time>2015-03-22T08:08:30.370Z</time>
      </trkpt>
      <trkpt lat="48.4249" lon="2.63016">
        <ele>129.189</ele>
        <time>2015-03-22T08:08:35.875Z</time>
      </trkpt>
      <trkpt lat="48.42499" lon="2.63018">
        <ele>131.585</ele>
        <time>2015-03-22T08:08:41.721Z</time>
      </trkpt>
      <trkpt lat="48.42505" lon="2.63029">
        <ele>133.376</ele>
        <time>2015-03-22T08:08:47.920Z</time>
      </trkpt>
      <trkpt lat="48.42506" lon="2.63048">
        <ele>135.142</ele>
        <time>2015-03-22T08:08:55.897Z</time>
      </trkpt>
      <trkpt lat="48.42507" lon="2.63064">
        <ele>137.028</ele>
        <time>2015-03-22T08:09:00.415Z</time>
      </trkpt>
      <trkpt lat="48.42507" lon="2.63064">
        <ele>138.814</ele>
        <time>2015-03-22T08:09:02.414Z</time>
      </trkpt>
      <trkpt lat="48.42507" lon="2.63064">
        <ele>139.78</ele>
        <time>2015-03-22T08:09:02.514Z</time>
      </trkpt>
      <trkpt lat="48.42509" lon="2.631">
        <ele>139.645</ele>
        <time>2015-03-22T08:09:08.648Z</time>
      </trkpt>
      <trkpt lat="48.42509" lon="2.63134">
        <ele>139.211</ele>
        <time>2015-03-22T08:09:13.814Z</time>
      </trkpt>
      <trkpt lat="48.4251" lon="2.63148">
        <ele>139.192</ele>
        <time>2015-03-22T08:09:16.770Z</time>
      </trkpt>
      <trkpt lat="48.42511" lon="2.63164">
        <ele>139.453</ele>
        <time>2015-03-22T08:09:20.164Z</time>
      </trkpt>
      <trkpt lat="48.42513" lon="2.63182">
        <ele>139.544</ele>
        <time>2015-03-22T08:09:24.495Z</time>
      </trkpt>
      <trkpt lat="48.42512" lon="2.63196">
        <ele>139.286</ele>
        <time>2015-03-22T08:09:28.450Z</time>
      </trkpt>
      <trkpt lat="48.42511" lon="2.6321">
        <ele>138.864</ele>
        <time>2015-03-22T08:09:32.424Z</time>
      </trkpt>
      <trkpt lat="48.42512" lon="2.63227">
        <ele>138.602</ele>
        <time>2015-03-22T08:09:37.221Z</time>
      </trkpt>
      <trkpt lat="48.42513" lon="2.63243">
        <ele>138.659</ele>
        <time>2015-03-22T08:09:42.253Z</time>
      </trkpt>
      <trkpt lat="48.42515" lon="2.63259">
        <ele>138.924</ele>
        <time>2015-03-22T08:09:46.792Z</time>
      </trkpt>
      <trkpt lat="48.42516" lon="2.63274">
        <ele>140.111</ele>
        <time>2015-03-22T08:09:50.515Z</time>
      </trkpt>
      <trkpt lat="48.42517" lon="2.63289">
        <ele>143.018</ele>
        <time>2015-03-22T08:09:54.055Z</time>
      </trkpt>
      <trkpt lat="48.42518" lon="2.63306">
        <ele>146.459</ele>
        <time>2015-03-22T08:09:58.308Z</time>
      </trkpt>
      <trkpt lat="48.42519" lon="2.63323">
        <ele>148.576</ele>
        <time>2015-03-22T08:10:02.639Z</time>
      </trkpt>
      <trkpt lat="48.42518" lon="2.63339">
        <ele>148.825</ele>
        <time>2015-03-22T08:10:06.102Z</time>
      </trkpt>
      <trkpt lat="48.42518" lon="2.63355">
        <ele>147.676</ele>
        <time>2015-03-22T08:10:08.808Z</time>
      </trkpt>
      <trkpt lat="48.42519" lon="2.63369">
        <ele>146.26</ele>
        <time>2015-03-22T08:10:10.986Z</time>
      </trkpt>
      <trkpt lat="48.42519" lon="2.63387">
        <ele>145.448</ele>
        <time>2015-03-22T08:10:13.649Z</time>
      </trkpt>
      <trkpt lat="48.42518" lon="2.63401">
        <ele>144.767</ele>
        <time>2015-03-22T08:10:15.680Z</time>
      </trkpt>
      <trkpt lat="48.42516" lon="2.63419">
        <ele>143.333</ele>
        <time>2015-03-22T08:10:18.299Z</time>
      </trkpt>
      <trkpt lat="48.42511" lon="2.63436">
        <ele>141.22</ele>
        <time>2015-03-22T08:10:20.816Z</time>
      </trkpt>
      <trkpt lat="48.42508" lon="2.63455">
        <ele>139.159</ele>
        <time>2015-03-22T08:10:23.356Z</time>
      </trkpt>
      <trkpt lat="48.42506" lon="2.63473">
        <ele>137.685</ele>
        <time>2015-03-22T08:10:25.832Z</time>
      </trkpt>
      <trkpt lat="48.42504" lon="2.63496">
        <ele>137.094</ele>
        <time>2015-03-22T08:10:28.739Z</time>
      </trkpt>
      <trkpt lat="48.42502" lon="2.6351">
        <ele>137.639</ele>
        <time>2015-03-22T08:10:30.657Z</time>
      </trkpt>
      <trkpt lat="48.42498" lon="2.63528">
        <ele>139.248</ele>
        <time>2015-03-22T08:10:33.164Z</time>
      </trkpt>
      <trkpt lat="48.42495" lon="2.63548">
        <ele>141.311</ele>
        <time>2015-03-22T08:10:35.826Z</time>
      </trkpt>
      <trkpt lat="48.42492" lon="2.63568">
        <ele>143.206</ele>
        <time>2015-03-22T08:10:38.620Z</time>
      </trkpt>
      <trkpt lat="48.42488" lon="2.63592">
        <ele>144.749</ele>
        <time>2015-03-22T08:10:41.605Z</time>
      </trkpt>
      <trkpt lat="48.42486" lon="2.63608">
        <ele>145.852</ele>
        <time>2015-03-22T08:10:43.585Z</time>
      </trkpt>
      <trkpt lat="48.42483" lon="2.6363">
        <ele>146.65</ele>
        <time>2015-03-22T08:10:46.235Z</time>
      </trkpt>
      <trkpt lat="48.4248" lon="2.63659">
        <ele>147.351</ele>
        <time>2015-03-22T08:10:49.225Z</time>
      </trkpt>
      <trkpt lat="48.42474" lon="2.63686">
        <ele>147.614</ele>
        <time>2015-03-22T08:10:51.795Z</time>
      </trkpt>
      <trkpt lat="48.42471" lon="2.63708">
        <ele>146.654</ele>
        <time>2015-03-22T08:10:53.536Z</time>
      </trkpt>
      <trkpt lat="48.42464" lon="2.63748">
        <ele>144.313</ele>
        <time>2015-03-22T08:10:56.485Z</time>
      </trkpt>
      <trkpt lat="48.42455" lon="2.63787">
        <ele>141.444</ele>
        <time>2015-03-22T08:10:59.501Z</time>
      </trkpt>
      <trkpt lat="48.42448" lon="2.63815">
        <ele>138.508</ele>
        <time>2015-03-22T08:11:01.747Z</time>
      </trkpt>
      <trkpt lat="48.42432" lon="2.63847">
        <ele>134.62</ele>
        <time>2015-03-22T08:11:04.748Z</time>
      </trkpt>
      <trkpt lat="48.42421" lon="2.6386">
        <ele>129.466</ele>
        <time>2015-03-22T08:11:06.412Z</time>
      </trkpt>
      <trkpt lat="48.42409" lon="2.63873">
        <ele>124.363</ele>
        <time>2015-03-22T08:11:08.153Z</time>
      </trkpt>
      <trkpt lat="48.42388" lon="2.63892">
        <ele>120.733</ele>
        <time>2015-03-22T08:11:11.077Z</time>
      </trkpt>
      <trkpt lat="48.42375" lon="2.63905">
        <ele>118.559</ele>
        <time>2015-03-22T08:11:12.971Z</time>
      </trkpt>
      <trkpt lat="48.42358" lon="2.63923">
        <ele>116.816</ele>
        <time>2015-03-22T08:11:15.653Z</time>
      </trkpt>
      <trkpt lat="48.42347" lon="2.63941">
        <ele>115.167</ele>
        <time>2015-03-22T08:11:18.456Z</time>
      </trkpt>
      <trkpt lat="48.42332" lon="2.63963">
        <ele>114.111</ele>
        <time>2015-03-22T08:11:24.156Z</time>
      </trkpt>
      <trkpt lat="48.42321" lon="2.6397">
        <ele>113.863</ele>
        <time>2015-03-22T08:11:27.754Z</time>
      </trkpt>
      <trkpt lat="48.42308" lon="2.63975">
        <ele>114.231</ele>
        <time>2015-03-22T08:11:32.080Z</time>
      </trkpt>
      <trkpt lat="48.42298" lon="2.63982">
        <ele>114.73</ele>
        <time>2015-03-22T08:11:36.314Z</time>
      </trkpt>
      <trkpt lat="48.42289" lon="2.63988">
        <ele>114.974</ele>
        <time>2015-03-22T08:11:40.741Z</time>
      </trkpt>
      <trkpt lat="48.42278" lon="2.63993">
        <ele>114.888</ele>
        <time>2015-03-22T08:11:46.230Z</time>
      </trkpt>
      <trkpt lat="48.42268" lon="2.63998">
        <ele>114.678</ele>
        <time>2015-03-22T08:11:51.421Z</time>
      </trkpt>
      <trkpt lat="48.42259" lon="2.64005">
        <ele>114.64</ele>
        <time>2015-03-22T08:11:56.907Z</time>
      </trkpt>
      <trkpt lat="48.4225" lon="2.64012">
        <ele>115.141</ele>
        <time>2015-03-22T08:12:02.147Z</time>
      </trkpt>
      <trkpt lat="48.4224" lon="2.64017">
        <ele>117.015</ele>
        <time>2015-03-22T08:12:07.636Z</time>
      </trkpt>
      <trkpt lat="48.42229" lon="2.64022">
        <ele>120.566</ele>
        <time>2015-03-22T08:12:12.787Z</time>
      </trkpt>
      <trkpt lat="48.42221" lon="2.64028">
        <ele>124.617</ele>
        <time>2015-03-22T08:12:16.946Z</time>
      </trkpt>
      <trkpt lat="48.42208" lon="2.6404">
        <ele>127.692</ele>
        <time>2015-03-22T08:12:23.640Z</time>
      </trkpt>
      <trkpt lat="48.422" lon="2.64045">
        <ele>129.179</ele>
        <time>2015-03-22T08:12:28.247Z</time>
      </trkpt>
      <trkpt lat="48.42189" lon="2.64047">
        <ele>129.27</ele>
        <time>2015-03-22T08:12:33.168Z</time>
      </trkpt>
      <trkpt lat="48.4218" lon="2.64053">
        <ele>128.669</ele>
        <time>2015-03-22T08:12:36.873Z</time>
      </trkpt>
      <trkpt lat="48.4217" lon="2.6406">
        <ele>128.066</ele>
        <time>2015-03-22T08:12:41.632Z</time>
      </trkpt>
      <trkpt lat="48.42161" lon="2.64066">
        <ele>127.914</ele>
        <time>2015-03-22T08:12:45.924Z</time>
      </trkpt>
      <trkpt lat="48.42151" lon="2.64072">
        <ele>128.808</ele>
        <time>2015-03-22T08:12:50.423Z</time>
      </trkpt>
      <trkpt lat="48.42142" lon="2.64078">
        <ele>130.768</ele>
        <time>2015-03-22T08:12:54.301Z</time>
      </trkpt>
      <trkpt lat="48.42133" lon="2.64084">
        <ele>132.603</ele>
        <time>2015-03-22T08:12:57.738Z</time>
      </trkpt>
      <trkpt lat="48.42122" lon="2.6409">
        <ele>133.435</ele>
        <time>2015-03-22T08:13:01.866Z</time>
      </trkpt>
      <trkpt lat="48.42113" lon="2.64096">
        <ele>133.685</ele>
        <time>2015-03-22T08:13:05.060Z</time>
      </trkpt>
      <trkpt lat="48.42102" lon="2.64101">
        <ele>134.526</ele>
        <time>2015-03-22T08:13:08.548Z</time>
      </trkpt>
      <trkpt lat="48.42091" lon="2.64106">
        <ele>136.378</ele>
        <time>2015-03-22T08:13:11.815Z</time>
      </trkpt>
      <trkpt lat="48.4208" lon="2.64111">
        <ele>137.919</ele>
        <time>2015-03-22T08:13:14.700Z</time>
      </trkpt>
      <trkpt lat="48.42071" lon="2.64116">
        <ele>138.128</ele>
        <time>2015-03-22T08:13:17.065Z</time>
      </trkpt>
      <trkpt lat="48.42062" lon="2.64121">
        <ele>137.961</ele>
        <time>2015-03-22T08:13:19.395Z</time>
      </trkpt>
      <trkpt lat="48.42054" lon="2.64129">
        <ele>138.415</ele>
        <time>2015-03-22T08:13:21.824Z</time>
      </trkpt>
      <trkpt lat="48.42046" lon="2.64139">
        <ele>139.034</ele>
        <time>2015-03-22T08:13:24.401Z</time>
      </trkpt>
      <trkpt lat="48.42046" lon="2.64139">
        <ele>139.158</ele>
        <time>2015-03-22T08:13:24.401Z</time>
      </trkpt>
      <trkpt lat="48.42046" lon="2.64139">
        <ele>138.982</ele>
        <time>2015-03-22T08:13:24.501Z</time>
      </trkpt>
      <trkpt lat="48.42046" lon="2.64139">
        <ele>138.889</ele>
        <time>2015-03-22T08:13:32.385Z</time>
      </trkpt>
      <trkpt lat="48.42046" lon="2.64139">
        <ele>138.915</ele>
        <time>2015-03-22T08:16:50.511Z</time>
      </trkpt>
      <trkpt lat="48.42056" lon="2.64153">
        <ele>138.861</ele>
        <time>2015-03-22T08:17:08.470Z</time>
      </trkpt>
      <trkpt lat="48.42068" lon="2.64161">
        <ele>139.413</ele>
        <time>2015-03-22T08:17:13.269Z</time>
      </trkpt>
      <trkpt lat="48.4208" lon="2.64168">
        <ele>141.141</ele>
        <time>2015-03-22T08:17:16.384Z</time>
      </trkpt>
      <trkpt lat="48.42088" lon="2.64174">
        <ele>143.23</ele>
        <time>2015-03-22T08:17:18.417Z</time>
      </trkpt>
      <trkpt lat="48.42103" lon="2.64185">
        <ele>144.734</ele>
        <time>2015-03-22T08:17:21.715Z</time>
      </trkpt>
      <trkpt lat="48.42115" lon="2.64196">
        <ele>144.248</ele>
        <time>2015-03-22T08:17:24.544Z</time>
      </trkpt>
      <trkpt lat="48.42124" lon="2.64204">
        <ele>143.499</ele>
        <time>2015-03-22T08:17:26.549Z</time>
      </trkpt>
      <trkpt lat="48.42133" lon="2.64212">
        <ele>142.729</ele>
        <time>2015-03-22T08:17:28.393Z</time>
      </trkpt>
      <trkpt lat="48.42144" lon="2.64221">
        <ele>141.939</ele>
        <time>2015-03-22T08:17:30.707Z</time>
      </trkpt>
      <trkpt lat="48.42153" lon="2.64228">
        <ele>141.154</ele>
        <time>2015-03-22T08:17:32.565Z</time>
      </trkpt>
      <trkpt lat="48.42168" lon="2.64241">
        <ele>140.501</ele>
        <time>2015-03-22T08:17:35.580Z</time>
      </trkpt>
      <trkpt lat="48.42176" lon="2.64249">
        <ele>139.827</ele>
        <time>2015-03-22T08:17:37.384Z</time>
      </trkpt>
      <trkpt lat="48.42186" lon="2.64256">
        <ele>139.029</ele>
        <time>2015-03-22T08:17:39.209Z</time>
      </trkpt>
      <trkpt lat="48.42195" lon="2.64263">
        <ele>138.407</ele>
        <time>2015-03-22T08:17:40.992Z</time>
      </trkpt>
      <trkpt lat="48.4221" lon="2.64276">
        <ele>137.886</ele>
        <time>2015-03-22T08:17:44.016Z</time>
      </trkpt>
      <trkpt lat="48.42226" lon="2.64289">
        <ele>137.117</ele>
        <time>2015-03-22T08:17:46.874Z</time>
      </trkpt>
      <trkpt lat="48.42241" lon="2.64302">
        <ele>136.303</ele>
        <time>2015-03-22T08:17:49.489Z</time>
      </trkpt>
      <trkpt lat="48.42261" lon="2.64317">
        <ele>135.733</ele>
        <time>2015-03-22T08:17:52.747Z</time>
      </trkpt>
      <trkpt lat="48.42274" lon="2.64328">
        <ele>135.048</ele>
        <time>2015-03-22T08:17:54.874Z</time>
      </trkpt>
      <trkpt lat="48.42296" lon="2.64345">
        <ele>133.725</ele>
        <time>2015-03-22T08:17:57.926Z</time>
      </trkpt>
      <trkpt lat="48.42309" lon="2.64355">
        <ele>131.924</ele>
        <time>2015-03-22T08:17:59.658Z</time>
      </trkpt>
      <trkpt lat="48.42333" lon="2.64375">
        <ele>130.157</ele>
        <time>2015-03-22T08:18:02.776Z</time>
      </trkpt>
      <trkpt lat="48.42354" lon="2.64391">
        <ele>127.98</ele>
        <time>2015-03-22T08:18:05.693Z</time>
      </trkpt>
      <trkpt lat="48.42368" lon="2.64402">
        <ele>125.128</ele>
        <time>2015-03-22T08:18:07.714Z</time>
      </trkpt>
      <trkpt lat="48.4239" lon="2.64422">
        <ele>122.622</ele>
        <time>2015-03-22T08:18:11.258Z</time>
      </trkpt>
      <trkpt lat="48.42401" lon="2.64431">
        <ele>121.24</ele>
        <time>2015-03-22T08:18:13.133Z</time>
      </trkpt>
      <trkpt lat="48.42432" lon="2.64461">
        <ele>120.776</ele>
        <time>2015-03-22T08:18:19.021Z</time>
      </trkpt>
      <trkpt lat="48.42445" lon="2.6448">
        <ele>120.761</ele>
        <time>2015-03-22T08:18:22.431Z</time>
      </trkpt>
      <trkpt lat="48.42453" lon="2.64495">
        <ele>120.77</ele>
        <time>2015-03-22T08:18:24.775Z</time>
      </trkpt>
      <trkpt lat="48.42462" lon="2.64515">
        <ele>120.719</ele>
        <time>2015-03-22T08:18:27.677Z</time>
      </trkpt>
      <trkpt lat="48.42472" lon="2.64535">
        <ele>120.586</ele>
        <time>2015-03-22T08:18:30.504Z</time>
      </trkpt>
      <trkpt lat="48.42481" lon="2.64553">
        <ele>120.082</ele>
        <time>2015-03-22T08:18:33.055Z</time>
      </trkpt>
      <trkpt lat="48.42488" lon="2.64567">
        <ele>119.169</ele>
        <time>2015-03-22T08:18:34.975Z</time>
      </trkpt>
      <trkpt lat="48.42498" lon="2.64589">
        <ele>118.077</ele>
        <time>2015-03-22T08:18:38.157Z</time>
      </trkpt>
      <trkpt lat="48.42507" lon="2.64609">
        <ele>117.015</ele>
        <time>2015-03-22T08:18:41.741Z</time>
      </trkpt>
      <trkpt lat="48.42515" lon="2.64625">
        <ele>116.27</ele>
        <time>2015-03-22T08:18:45.107Z</time>
      </trkpt>
      <trkpt lat="48.42522" lon="2.64637">
        <ele>116.438</ele>
        <time>2015-03-22T08:18:47.843Z</time>
      </trkpt>
      <trkpt lat="48.42528" lon="2.6465">
        <ele>117.716</ele>
        <time>2015-03-22T08:18:50.680Z</time>
      </trkpt>
      <trkpt lat="48.42534" lon="2.64663">
        <ele>119.533</ele>
        <time>2015-03-22T08:18:53.552Z</time>
      </trkpt>
      <trkpt lat="48.42541" lon="2.64678">
        <ele>121.056</ele>
        <time>2015-03-22T08:18:57.257Z</time>
      </trkpt>
      <trkpt lat="48.42547" lon="2.6469">
        <ele>121.939</ele>
        <time>2015-03-22T08:19:00.478Z</time>
      </trkpt>
      <trkpt lat="48.42552" lon="2.64701">
        <ele>122.103</ele>
        <time>2015-03-22T08:19:03.984Z</time>
      </trkpt>
      <trkpt lat="48.4256" lon="2.64718">
        <ele>121.721</ele>
        <time>2015-03-22T08:19:09.514Z</time>
      </trkpt>
      <trkpt lat="48.42569" lon="2.64722">
        <ele>121.152</ele>
        <time>2015-03-22T08:19:13.783Z</time>
      </trkpt>
      <trkpt lat="48.42574" lon="2.64709">
        <ele>120.708</ele>
        <time>2015-03-22T08:19:17.902Z</time>
      </trkpt>
      <trkpt lat="48.42577" lon="2.64694">
        <ele>120.541</ele>
        <time>2015-03-22T08:19:21.738Z</time>
      </trkpt>
      <trkpt lat="48.42579" lon="2.64679">
        <ele>121.417</ele>
        <time>2015-03-22T08:19:25.777Z</time>
      </trkpt>
      <trkpt lat="48.42581" lon="2.64663">
        <ele>123.571</ele>
        <time>2015-03-22T08:19:29.636Z</time>
      </trkpt>
      <trkpt lat="48.42583" lon="2.64645">
        <ele>125.68</ele>
        <time>2015-03-22T08:19:33.616Z</time>
      </trkpt>
      <trkpt lat="48.42586" lon="2.6463">
        <ele>126.432</ele>
        <time>2015-03-22T08:19:36.538Z</time>
      </trkpt>
      <trkpt lat="48.42588" lon="2.64615">
        <ele>125.999</ele>
        <time>2015-03-22T08:19:39.572Z</time>
      </trkpt>
      <trkpt lat="48.4259" lon="2.646">
        <ele>125.252</ele>
        <time>2015-03-22T08:19:42.497Z</time>
      </trkpt>
      <trkpt lat="48.42593" lon="2.64586">
        <ele>124.824</ele>
        <time>2015-03-22T08:19:45.628Z</time>
      </trkpt>
      <trkpt lat="48.42595" lon="2.64572">
        <ele>124.97</ele>
        <time>2015-03-22T08:19:48.689Z</time>
      </trkpt>
      <trkpt lat="48.42596" lon="2.64557">
        <ele>126.146</ele>
        <time>2015-03-22T08:19:51.883Z</time>
      </trkpt>
      <trkpt lat="48.42597" lon="2.64542">
        <ele>128.339</ele>
        <time>2015-03-22T08:19:55.192Z</time>
      </trkpt>
      <trkpt lat="48.42597" lon="2.64528">
        <ele>130.519</ele>
        <time>2015-03-22T08:19:58.258Z</time>
      </trkpt>
      <trkpt lat="48.426" lon="2.64513">
        <ele>131.698</ele>
        <time>2015-03-22T08:20:01.726Z</time>
      </trkpt>
      <trkpt lat="48.42602" lon="2.64497">
        <ele>131.278</ele>
        <time>2015-03-22T08:20:05.144Z</time>
      </trkpt>
      <trkpt lat="48.42604" lon="2.64482">
        <ele>130.097</ele>
        <time>2015-03-22T08:20:08.379Z</time>
      </trkpt>
      <trkpt lat="48.42605" lon="2.64465">
        <ele>129.029</ele>
        <time>2015-03-22T08:20:11.985Z</time>
      </trkpt>
      <trkpt lat="48.42607" lon="2.6445">
        <ele>128.867</ele>
        <time>2015-03-22T08:20:15.265Z</time>
      </trkpt>
      <trkpt lat="48.42609" lon="2.64435">
        <ele>130.2</ele>
        <time>2015-03-22T08:20:18.656Z</time>
      </trkpt>
      <trkpt lat="48.42611" lon="2.64421">
        <ele>132.971</ele>
        <time>2015-03-22T08:20:21.709Z</time>
      </trkpt>
      <trkpt lat="48.42613" lon="2.64404">
        <ele>136.114</ele>
        <time>2015-03-22T08:20:25.193Z</time>
      </trkpt>
      <trkpt lat="48.42616" lon="2.64389">
        <ele>138.484</ele>
        <time>2015-03-22T08:20:28.172Z</time>
      </trkpt>
      <trkpt lat="48.42618" lon="2.64374">
        <ele>139.756</ele>
        <time>2015-03-22T08:20:30.930Z</time>
      </trkpt>
      <trkpt lat="48.4262" lon="2.64361">
        <ele>140.176</ele>
        <time>2015-03-22T08:20:33.530Z</time>
      </trkpt>
      <trkpt lat="48.42621" lon="2.64345">
        <ele>140.389</ele>
        <time>2015-03-22T08:20:36.353Z</time>
      </trkpt>
      <trkpt lat="48.42622" lon="2.64331">
        <ele>141.126</ele>
        <time>2015-03-22T08:20:38.953Z</time>
      </trkpt>
      <trkpt lat="48.42623" lon="2.64313">
        <ele>141.897</ele>
        <time>2015-03-22T08:20:41.981Z</time>
      </trkpt>
      <trkpt lat="48.42625" lon="2.64296">
        <ele>142.278</ele>
        <time>2015-03-22T08:20:44.938Z</time>
      </trkpt>
      <trkpt lat="48.42627" lon="2.64281">
        <ele>141.72</ele>
        <time>2015-03-22T08:20:47.449Z</time>
      </trkpt>
      <trkpt lat="48.42629" lon="2.64268">
        <ele>139.874</ele>
        <time>2015-03-22T08:20:49.814Z</time>
      </trkpt>
      <trkpt lat="48.42631" lon="2.64254">
        <ele>137.714</ele>
        <time>2015-03-22T08:20:52.202Z</time>
      </trkpt>
      <trkpt lat="48.42635" lon="2.64236">
        <ele>136.453</ele>
        <time>2015-03-22T08:20:55.357Z</time>
      </trkpt>
      <trkpt lat="48.42639" lon="2.6422">
        <ele>136.127</ele>
        <time>2015-03-22T08:20:58.126Z</time>
      </trkpt>
      <trkpt lat="48.4264" lon="2.64205">
        <ele>136.029</ele>
        <time>2015-03-22T08:21:00.520Z</time>
      </trkpt>
      <trkpt lat="48.42641" lon="2.64186">
        <ele>135.448</ele>
        <time>2015-03-22T08:21:03.404Z</time>
      </trkpt>
      <trkpt lat="48.42643" lon="2.64172">
        <ele>134.455</ele>
        <time>2015-03-22T08:21:05.795Z</time>
      </trkpt>
      <trkpt lat="48.42645" lon="2.64156">
        <ele>133.725</ele>
        <time>2015-03-22T08:21:08.399Z</time>
      </trkpt>
      <trkpt lat="48.42645" lon="2.64156">
        <ele>133.551</ele>
        <time>2015-03-22T08:21:10.398Z</time>
      </trkpt>
      <trkpt lat="48.42645" lon="2.64156">
        <ele>133.635</ele>
        <time>2015-03-22T08:21:10.498Z</time>
      </trkpt>
      <trkpt lat="48.42649" lon="2.64123">
        <ele>133.644</ele>
        <time>2015-03-22T08:21:25.993Z</time>
      </trkpt>
      <trkpt lat="48.42652" lon="2.64108">
        <ele>133.539</ele>
        <time>2015-03-22T08:21:33.564Z</time>
      </trkpt>
      <trkpt lat="48.42652" lon="2.64092">
        <ele>133.496</ele>
        <time>2015-03-22T08:21:38.635Z</time>
      </trkpt>
      <trkpt lat="48.42651" lon="2.64079">
        <ele>134.24</ele>
        <time>2015-03-22T08:21:41.594Z</time>
      </trkpt>
      <trkpt lat="48.42653" lon="2.64061">
        <ele>136.321</ele>
        <time>2015-03-22T08:21:44.683Z</time>
      </trkpt>
      <trkpt lat="48.42656" lon="2.64042">
        <ele>138.874</ele>
        <time>2015-03-22T08:21:47.952Z</time>
      </trkpt>
      <trkpt lat="48.42658" lon="2.64024">
        <ele>140.582</ele>
        <time>2015-03-22T08:21:50.698Z</time>
      </trkpt>
      <trkpt lat="48.4266" lon="2.64005">
        <ele>141.795</ele>
        <time>2015-03-22T08:21:53.566Z</time>
      </trkpt>
      <trkpt lat="48.42663" lon="2.63985">
        <ele>143.585</ele>
        <time>2015-03-22T08:21:56.546Z</time>
      </trkpt>
      <trkpt lat="48.42666" lon="2.63963">
        <ele>145.657</ele>
        <time>2015-03-22T08:21:59.617Z</time>
      </trkpt>
      <trkpt lat="48.42668" lon="2.63941">
        <ele>146.649</ele>
        <time>2015-03-22T08:22:02.731Z</time>
      </trkpt>
      <trkpt lat="48.4267" lon="2.63927">
        <ele>146.147</ele>
        <time>2015-03-22T08:22:04.595Z</time>
      </trkpt>
      <trkpt lat="48.42672" lon="2.63906">
        <ele>145.03</ele>
        <time>2015-03-22T08:22:07.477Z</time>
      </trkpt>
      <trkpt lat="48.42675" lon="2.63884">
        <ele>144.634</ele>
        <time>2015-03-22T08:22:10.470Z</time>
      </trkpt>
      <trkpt lat="48.42676" lon="2.63868">
        <ele>145.359</ele>
        <time>2015-03-22T08:22:12.436Z</time>
      </trkpt>
      <trkpt lat="48.42678" lon="2.63854">
        <ele>146.122</ele>
        <time>2015-03-22T08:22:14.326Z</time>
      </trkpt>
      <trkpt lat="48.42681" lon="2.63831">
        <ele>145.504</ele>
        <time>2015-03-22T08:22:17.211Z</time>
      </trkpt>
      <trkpt lat="48.42685" lon="2.63807">
        <ele>143.55</ele>
        <time>2015-03-22T08:22:20.292Z</time>
      </trkpt>
      <trkpt lat="48.42689" lon="2.63783">
        <ele>141.129</ele>
        <time>2015-03-22T08:22:23.394Z</time>
      </trkpt>
      <trkpt lat="48.42691" lon="2.63766">
        <ele>138.916</ele>
        <time>2015-03-22T08:22:25.413Z</time>
      </trkpt>
      <trkpt lat="48.42692" lon="2.63748">
        <ele>137.468</ele>
        <time>2015-03-22T08:22:27.649Z</time>
      </trkpt>
      <trkpt lat="48.42695" lon="2.63728">
        <ele>137.948</ele>
        <time>2015-03-22T08:22:30.174Z</time>
      </trkpt>
      <trkpt lat="48.42697" lon="2.63709">
        <ele>140.622</ele>
        <time>2015-03-22T08:22:32.525Z</time>
      </trkpt>
      <trkpt lat="48.427" lon="2.63689">
        <ele>143.694</ele>
        <time>2015-03-22T08:22:34.985Z</time>
      </trkpt>
      <trkpt lat="48.42704" lon="2.63666">
        <ele>144.556</ele>
        <time>2015-03-22T08:22:37.716Z</time>
      </trkpt>
      <trkpt lat="48.42708" lon="2.63637">
        <ele>142.427</ele>
        <time>2015-03-22T08:22:41.295Z</time>
      </trkpt>
      <trkpt lat="48.4271" lon="2.63616">
        <ele>139.046</ele>
        <time>2015-03-22T08:22:43.880Z</time>
      </trkpt>
      <trkpt lat="48.42712" lon="2.63601">
        <ele>136.529</ele>
        <time>2015-03-22T08:22:45.714Z</time>
      </trkpt>
      <trkpt lat="48.42715" lon="2.63585">
        <ele>135.012</ele>
        <time>2015-03-22T08:22:47.752Z</time>
      </trkpt>
      <trkpt lat="48.42718" lon="2.63565">
        <ele>133.974</ele>
        <time>2015-03-22T08:22:50.473Z</time>
      </trkpt>
      <trkpt lat="48.42721" lon="2.63544">
        <ele>133.893</ele>
        <time>2015-03-22T08:22:53.303Z</time>
      </trkpt>
      <trkpt lat="48.42723" lon="2.63526">
        <ele>135.044</ele>
        <time>2015-03-22T08:22:55.597Z</time>
      </trkpt>
      <trkpt lat="48.42724" lon="2.63511">
        <ele>135.851</ele>
        <time>2015-03-22T08:22:57.550Z</time>
      </trkpt>
      <trkpt lat="48.42728" lon="2.63486">
        <ele>135.061</ele>
        <time>2015-03-22T08:23:00.751Z</time>
      </trkpt>
      <trkpt lat="48.42731" lon="2.63465">
        <ele>134.064</ele>
        <time>2015-03-22T08:23:03.483Z</time>
      </trkpt>
      <trkpt lat="48.42733" lon="2.6345">
        <ele>134.286</ele>
        <time>2015-03-22T08:23:05.429Z</time>
      </trkpt>
      <trkpt lat="48.42735" lon="2.63434">
        <ele>135.58</ele>
        <time>2015-03-22T08:23:07.620Z</time>
      </trkpt>
      <trkpt lat="48.42736" lon="2.63413">
        <ele>137.397</ele>
        <time>2015-03-22T08:23:10.449Z</time>
      </trkpt>
      <trkpt lat="48.4274" lon="2.63392">
        <ele>139.153</ele>
        <time>2015-03-22T08:23:13.458Z</time>
      </trkpt>
      <trkpt lat="48.42743" lon="2.6337">
        <ele>140.327</ele>
        <time>2015-03-22T08:23:16.654Z</time>
      </trkpt>
      <trkpt lat="48.42746" lon="2.63352">
        <ele>140.239</ele>
        <time>2015-03-22T08:23:19.121Z</time>
      </trkpt>
      <trkpt lat="48.42746" lon="2.63335">
        <ele>138.686</ele>
        <time>2015-03-22T08:23:21.231Z</time>
      </trkpt>
      <trkpt lat="48.42748" lon="2.63306">
        <ele>137.597</ele>
        <time>2015-03-22T08:23:24.950Z</time>
      </trkpt>
      <trkpt lat="48.42752" lon="2.63284">
        <ele>138.484</ele>
        <time>2015-03-22T08:23:27.884Z</time>
      </trkpt>
      <trkpt lat="48.42754" lon="2.63264">
        <ele>140.157</ele>
        <time>2015-03-22T08:23:30.520Z</time>
      </trkpt>
      <trkpt lat="48.42755" lon="2.6324">
        <ele>141.203</ele>
        <time>2015-03-22T08:23:33.621Z</time>
      </trkpt>
      <trkpt lat="48.42757" lon="2.6322">
        <ele>141.805</ele>
        <time>2015-03-22T08:23:36.267Z</time>
      </trkpt>
      <trkpt lat="48.42758" lon="2.63205">
        <ele>142.422</ele>
        <time>2015-03-22T08:23:38.087Z</time>
      </trkpt>
      <trkpt lat="48.4276" lon="2.63187">
        <ele>142.826</ele>
        <time>2015-03-22T08:23:40.470Z</time>
      </trkpt>
      <trkpt lat="48.42764" lon="2.63165">
        <ele>142.732</ele>
        <time>2015-03-22T08:23:43.231Z</time>
      </trkpt>
      <trkpt lat="48.42766" lon="2.63147">
        <ele>142.8</ele>
        <time>2015-03-22T08:23:45.402Z</time>
      </trkpt>
      <trkpt lat="48.42768" lon="2.6313">
        <ele>143.57</ele>
        <time>2015-03-22T08:23:47.499Z</time>
      </trkpt>
      <trkpt lat="48.42771" lon="2.63104">
        <ele>144.443</ele>
        <time>2015-03-22T08:23:50.708Z</time>
      </trkpt>
      <trkpt lat="48.42773" lon="2.6309">
        <ele>144.602</ele>
        <time>2015-03-22T08:23:52.517Z</time>
      </trkpt>
      <trkpt lat="48.42776" lon="2.63071">
        <ele>144.083</ele>
        <time>2015-03-22T08:23:54.918Z</time>
      </trkpt>
      <trkpt lat="48.42779" lon="2.63047">
        <ele>143.463</ele>
        <time>2015-03-22T08:23:58.225Z</time>
      </trkpt>
      <trkpt lat="48.42781" lon="2.63027">
        <ele>143.296</ele>
        <time>2015-03-22T08:24:00.860Z</time>
      </trkpt>
      <trkpt lat="48.42782" lon="2.63012">
        <ele>143.613</ele>
        <time>2015-03-22T08:24:02.904Z</time>
      </trkpt>
      <trkpt lat="48.42786" lon="2.62991">
        <ele>144.015</ele>
        <time>2015-03-22T08:24:05.758Z</time>
      </trkpt>
      <trkpt lat="48.42793" lon="2.62967">
        <ele>144.191</ele>
        <time>2015-03-22T08:24:09.190Z</time>
      </trkpt>
      <trkpt lat="48.428" lon="2.62951">
        <ele>144.322</ele>
        <time>2015-03-22T08:24:12.011Z</time>
      </trkpt>
      <trkpt lat="48.42807" lon="2.6294">
        <ele>144.666</ele>
        <time>2015-03-22T08:24:14.406Z</time>
      </trkpt>
      <trkpt lat="48.42817" lon="2.62927">
        <ele>145.235</ele>
        <time>2015-03-22T08:24:17.413Z</time>
      </trkpt>
      <trkpt lat="48.42824" lon="2.62911">
        <ele>146.569</ele>
        <time>2015-03-22T08:24:20.372Z</time>
      </trkpt>
      <trkpt lat="48.42831" lon="2.62898">
        <ele>148.877</ele>
        <time>2015-03-22T08:24:22.771Z</time>
      </trkpt>
      <trkpt lat="48.42838" lon="2.62888">
        <ele>150.963</ele>
        <time>2015-03-22T08:24:24.978Z</time>
      </trkpt>
      <trkpt lat="48.42849" lon="2.62874">
        <ele>151.494</ele>
        <time>2015-03-22T08:24:28.148Z</time>
      </trkpt>
      <trkpt lat="48.42855" lon="2.62864">
        <ele>150.753</ele>
        <time>2015-03-22T08:24:30.415Z</time>
      </trkpt>
      <trkpt lat="48.42863" lon="2.62855">
        <ele>149.934</ele>
        <time>2015-03-22T08:24:32.851Z</time>
      </trkpt>
      <trkpt lat="48.42871" lon="2.62844">
        <ele>149.667</ele>
        <time>2015-03-22T08:24:35.442Z</time>
      </trkpt>
      <trkpt lat="48.42882" lon="2.62829">
        <ele>149.695</ele>
        <time>2015-03-22T08:24:38.862Z</time>
      </trkpt>
      <trkpt lat="48.42891" lon="2.62817">
        <ele>149.656</ele>
        <time>2015-03-22T08:24:41.415Z</time>
      </trkpt>
      <trkpt lat="48.42901" lon="2.62802">
        <ele>149.384</ele>
        <time>2015-03-22T08:24:44.530Z</time>
      </trkpt>
      <trkpt lat="48.42907" lon="2.62792">
        <ele>149.519</ele>
        <time>2015-03-22T08:24:46.541Z</time>
      </trkpt>
      <trkpt lat="48.42916" lon="2.62778">
        <ele>150.595</ele>
        <time>2015-03-22T08:24:49.407Z</time>
      </trkpt>
      <trkpt lat="48.42923" lon="2.62768">
        <ele>151.961</ele>
        <time>2015-03-22T08:24:51.588Z</time>
      </trkpt>
      <trkpt lat="48.42932" lon="2.62753">
        <ele>153.129</ele>
        <time>2015-03-22T08:24:54.737Z</time>
      </trkpt>
      <trkpt lat="48.42942" lon="2.6274">
        <ele>154.293</ele>
        <time>2015-03-22T08:24:57.727Z</time>
      </trkpt>
      <trkpt lat="48.4295" lon="2.62729">
        <ele>155.334</ele>
        <time>2015-03-22T08:24:59.927Z</time>
      </trkpt>
      <trkpt lat="48.42965" lon="2.62707">
        <ele>155.064</ele>
        <time>2015-03-22T08:25:04.204Z</time>
      </trkpt>
      <trkpt lat="48.42972" lon="2.62696">
        <ele>154.095</ele>
        <time>2015-03-22T08:25:06.447Z</time>
      </trkpt>
      <trkpt lat="48.42981" lon="2.62684">
        <ele>152.227</ele>
        <time>2015-03-22T08:25:08.843Z</time>
      </trkpt>
      <trkpt lat="48.42991" lon="2.6267">
        <ele>149.105</ele>
        <time>2015-03-22T08:25:11.703Z</time>
      </trkpt>
      <trkpt lat="48.43001" lon="2.62654">
        <ele>148.997</ele>
        <time>2015-03-22T08:25:14.829Z</time>
      </trkpt>
      <trkpt lat="48.43009" lon="2.62644">
        <ele>149.574</ele>
        <time>2015-03-22T08:25:16.867Z</time>
      </trkpt>
      <trkpt lat="48.43019" lon="2.62629">
        <ele>149.993</ele>
        <time>2015-03-22T08:25:19.755Z</time>
      </trkpt>
      <trkpt lat="48.43031" lon="2.62612">
        <ele>149.791</ele>
        <time>2015-03-22T08:25:23.141Z</time>
      </trkpt>
      <trkpt lat="48.43037" lon="2.62602">
        <ele>148.629</ele>
        <time>2015-03-22T08:25:25.016Z</time>
      </trkpt>
      <trkpt lat="48.43044" lon="2.62592">
        <ele>146.462</ele>
        <time>2015-03-22T08:25:27.021Z</time>
      </trkpt>
      <trkpt lat="48.43056" lon="2.62576">
        <ele>144.492</ele>
        <time>2015-03-22T08:25:30.295Z</time>
      </trkpt>
      <trkpt lat="48.43063" lon="2.62566">
        <ele>144.079</ele>
        <time>2015-03-22T08:25:32.176Z</time>
      </trkpt>
      <trkpt lat="48.43073" lon="2.62551">
        <ele>145.627</ele>
        <time>2015-03-22T08:25:35.018Z</time>
      </trkpt>
      <trkpt lat="48.4308" lon="2.6254">
        <ele>148.439</ele>
        <time>2015-03-22T08:25:37.098Z</time>
      </trkpt>
      <trkpt lat="48.43087" lon="2.62529">
        <ele>151.08</ele>
        <time>2015-03-22T08:25:39.068Z</time>
      </trkpt>
      <trkpt lat="48.43099" lon="2.62511">
        <ele>152.609</ele>
        <time>2015-03-22T08:25:42.162Z</time>
      </trkpt>
      <trkpt lat="48.43111" lon="2.62494">
        <ele>153.049</ele>
        <time>2015-03-22T08:25:45.196Z</time>
      </trkpt>
      <trkpt lat="48.43125" lon="2.62474">
        <ele>152.406</ele>
        <time>2015-03-22T08:25:48.891Z</time>
      </trkpt>
      <trkpt lat="48.43132" lon="2.62464">
        <ele>150.893</ele>
        <time>2015-03-22T08:25:50.795Z</time>
      </trkpt>
      <trkpt lat="48.43141" lon="2.62446">
        <ele>149.58</ele>
        <time>2015-03-22T08:25:53.633Z</time>
      </trkpt>
      <trkpt lat="48.43144" lon="2.6243">
        <ele>149.227</ele>
        <time>2015-03-22T08:25:55.719Z</time>
      </trkpt>
      <trkpt lat="48.43147" lon="2.62405">
        <ele>148.701</ele>
        <time>2015-03-22T08:25:58.711Z</time>
      </trkpt>
      <trkpt lat="48.43148" lon="2.62386">
        <ele>146.695</ele>
        <time>2015-03-22T08:26:00.910Z</time>
      </trkpt>
      <trkpt lat="48.43148" lon="2.62367">
        <ele>143.835</ele>
        <time>2015-03-22T08:26:03.107Z</time>
      </trkpt>
      <trkpt lat="48.43147" lon="2.62344">
        <ele>141.594</ele>
        <time>2015-03-22T08:26:05.944Z</time>
      </trkpt>
      <trkpt lat="48.43147" lon="2.62326">
        <ele>140.313</ele>
        <time>2015-03-22T08:26:08.110Z</time>
      </trkpt>
      <trkpt lat="48.43146" lon="2.62301">
        <ele>139.6</ele>
        <time>2015-03-22T08:26:11.391Z</time>
      </trkpt>
      <trkpt lat="48.43146" lon="2.62286">
        <ele>139.191</ele>
        <time>2015-03-22T08:26:13.488Z</time>
      </trkpt>
      <trkpt lat="48.43149" lon="2.62269">
        <ele>139.039</ele>
        <time>2015-03-22T08:26:16.095Z</time>
      </trkpt>
      <trkpt lat="48.43156" lon="2.6225">
        <ele>139.281</ele>
        <time>2015-03-22T08:26:19.255Z</time>
      </trkpt>
      <trkpt lat="48.43164" lon="2.62233">
        <ele>140.626</ele>
        <time>2015-03-22T08:26:21.886Z</time>
      </trkpt>
      <trkpt lat="48.43171" lon="2.62219">
        <ele>141.243</ele>
        <time>2015-03-22T08:26:24.217Z</time>
      </trkpt>
      <trkpt lat="48.43183" lon="2.62199">
        <ele>142.064</ele>
        <time>2015-03-22T08:26:27.704Z</time>
      </trkpt>
      <trkpt lat="48.43195" lon="2.62181">
        <ele>142.536</ele>
        <time>2015-03-22T08:26:30.970Z</time>
      </trkpt>
      <trkpt lat="48.43202" lon="2.62169">
        <ele>141.217</ele>
        <time>2015-03-22T08:26:33.282Z</time>
      </trkpt>
      <trkpt lat="48.43211" lon="2.6215">
        <ele>140.079</ele>
        <time>2015-03-22T08:26:36.967Z</time>
      </trkpt>
      <trkpt lat="48.43218" lon="2.62139">
        <ele>139.046</ele>
        <time>2015-03-22T08:26:39.296Z</time>
      </trkpt>
      <trkpt lat="48.43225" lon="2.62127">
        <ele>138.35</ele>
        <time>2015-03-22T08:26:42.092Z</time>
      </trkpt>
      <trkpt lat="48.43234" lon="2.62112">
        <ele>137.993</ele>
        <time>2015-03-22T08:26:45.326Z</time>
      </trkpt>
      <trkpt lat="48.43239" lon="2.62101">
        <ele>137.622</ele>
        <time>2015-03-22T08:26:47.552Z</time>
      </trkpt>
      <trkpt lat="48.43245" lon="2.6209">
        <ele>137.2</ele>
        <time>2015-03-22T08:26:49.806Z</time>
      </trkpt>
      <trkpt lat="48.43251" lon="2.62078">
        <ele>137.082</ele>
        <time>2015-03-22T08:26:52.146Z</time>
      </trkpt>
      <trkpt lat="48.43258" lon="2.62065">
        <ele>137.606</ele>
        <time>2015-03-22T08:26:54.887Z</time>
      </trkpt>
      <trkpt lat="48.43266" lon="2.6205">
        <ele>138.592</ele>
        <time>2015-03-22T08:26:58.200Z</time>
      </trkpt>
      <trkpt lat="48.43274" lon="2.62034">
        <ele>139.227</ele>
        <time>2015-03-22T08:27:01.631Z</time>
      </trkpt>
      <trkpt lat="48.43279" lon="2.62019">
        <ele>138.513</ele>
        <time>2015-03-22T08:27:04.756Z</time>
      </trkpt>
      <trkpt lat="48.43279" lon="2.62001">
        <ele>136.594</ele>
        <time>2015-03-22T08:27:07.896Z</time>
      </trkpt>
      <trkpt lat="48.43278" lon="2.61983">
        <ele>133.577</ele>
        <time>2015-03-22T08:27:10.806Z</time>
      </trkpt>
      <trkpt lat="48.43277" lon="2.61966">
        <ele>133.243</ele>
        <time>2015-03-22T08:27:13.530Z</time>
      </trkpt>
      <trkpt lat="48.43277" lon="2.61948">
        <ele>132.801</ele>
        <time>2015-03-22T08:27:16.284Z</time>
      </trkpt>
      <trkpt lat="48.43276" lon="2.61929">
        <ele>130.83</ele>
        <time>2015-03-22T08:27:18.955Z</time>
      </trkpt>
      <trkpt lat="48.43274" lon="2.61913">
        <ele>130.794</ele>
        <time>2015-03-22T08:27:21.163Z</time>
      </trkpt>
      <trkpt lat="48.43273" lon="2.61898">
        <ele>131.112</ele>
        <time>2015-03-22T08:27:23.200Z</time>
      </trkpt>
      <trkpt lat="48.43272" lon="2.61876">
        <ele>131.04</ele>
        <time>2015-03-22T08:27:26.071Z</time>
      </trkpt>
      <trkpt lat="48.4327" lon="2.6186">
        <ele>130.369</ele>
        <time>2015-03-22T08:27:28.224Z</time>
      </trkpt>
      <trkpt lat="48.43268" lon="2.6184">
        <ele>129.6</ele>
        <time>2015-03-22T08:27:31.011Z</time>
      </trkpt>
      <trkpt lat="48.43266" lon="2.6182">
        <ele>129.405</ele>
        <time>2015-03-22T08:27:33.822Z</time>
      </trkpt>
      <trkpt lat="48.43265" lon="2.61798">
        <ele>129.755</ele>
        <time>2015-03-22T08:27:36.750Z</time>
      </trkpt>
      <trkpt lat="48.43264" lon="2.61779">
        <ele>130.161</ele>
        <time>2015-03-22T08:27:39.266Z</time>
      </trkpt>
      <trkpt lat="48.43261" lon="2.61753">
        <ele>130.057</ele>
        <time>2015-03-22T08:27:42.720Z</time>
      </trkpt>
      <trkpt lat="48.43259" lon="2.61731">
        <ele>128.334</ele>
        <time>2015-03-22T08:27:45.626Z</time>
      </trkpt>
      <trkpt lat="48.43258" lon="2.61711">
        <ele>128.184</ele>
        <time>2015-03-22T08:27:48.447Z</time>
      </trkpt>
      <trkpt lat="48.43256" lon="2.61694">
        <ele>128.888</ele>
        <time>2015-03-22T08:27:50.910Z</time>
      </trkpt>
      <trkpt lat="48.43254" lon="2.61673">
        <ele>129.867</ele>
        <time>2015-03-22T08:27:53.798Z</time>
      </trkpt>
      <trkpt lat="48.43253" lon="2.61652">
        <ele>130.56</ele>
        <time>2015-03-22T08:27:56.691Z</time>
      </trkpt>
      <trkpt lat="48.43253" lon="2.61636">
        <ele>130.878</ele>
        <time>2015-03-22T08:27:58.777Z</time>
      </trkpt>
      <trkpt lat="48.43251" lon="2.61615">
        <ele>130.941</ele>
        <time>2015-03-22T08:28:01.472Z</time>
      </trkpt>
      <trkpt lat="48.4325" lon="2.61601">
        <ele>131.187</ele>
        <time>2015-03-22T08:28:03.368Z</time>
      </trkpt>
      <trkpt lat="48.43248" lon="2.61575">
        <ele>131.871</ele>
        <time>2015-03-22T08:28:06.591Z</time>
      </trkpt>
      <trkpt lat="48.43246" lon="2.61554">
        <ele>132.389</ele>
        <time>2015-03-22T08:28:09.310Z</time>
      </trkpt>
      <trkpt lat="48.43244" lon="2.6153">
        <ele>132.183</ele>
        <time>2015-03-22T08:28:12.225Z</time>
      </trkpt>
      <trkpt lat="48.43243" lon="2.61516">
        <ele>131.599</ele>
        <time>2015-03-22T08:28:14.022Z</time>
      </trkpt>
      <trkpt lat="48.43241" lon="2.615">
        <ele>130.946</ele>
        <time>2015-03-22T08:28:16.046Z</time>
      </trkpt>
      <trkpt lat="48.4324" lon="2.61478">
        <ele>130.101</ele>
        <time>2015-03-22T08:28:19.033Z</time>
      </trkpt>
      <trkpt lat="48.43239" lon="2.61458">
        <ele>129.231</ele>
        <time>2015-03-22T08:28:21.689Z</time>
      </trkpt>
      <trkpt lat="48.43238" lon="2.6144">
        <ele>128.854</ele>
        <time>2015-03-22T08:28:24.354Z</time>
      </trkpt>
      <trkpt lat="48.43236" lon="2.61422">
        <ele>129.087</ele>
        <time>2015-03-22T08:28:26.958Z</time>
      </trkpt>
      <trkpt lat="48.43234" lon="2.61402">
        <ele>129.514</ele>
        <time>2015-03-22T08:28:29.987Z</time>
      </trkpt>
      <trkpt lat="48.43232" lon="2.61384">
        <ele>129.782</ele>
        <time>2015-03-22T08:28:32.652Z</time>
      </trkpt>
      <trkpt lat="48.43231" lon="2.61364">
        <ele>129.884</ele>
        <time>2015-03-22T08:28:35.591Z</time>
      </trkpt>
      <trkpt lat="48.4323" lon="2.61345">
        <ele>129.712</ele>
        <time>2015-03-22T08:28:38.416Z</time>
      </trkpt>
      <trkpt lat="48.43229" lon="2.61329">
        <ele>129.213</ele>
        <time>2015-03-22T08:28:41.062Z</time>
      </trkpt>
      <trkpt lat="48.43228" lon="2.61313">
        <ele>128.243</ele>
        <time>2015-03-22T08:28:43.680Z</time>
      </trkpt>
      <trkpt lat="48.43227" lon="2.61298">
        <ele>127.051</ele>
        <time>2015-03-22T08:28:46.476Z</time>
      </trkpt>
      <trkpt lat="48.43226" lon="2.61283">
        <ele>126.425</ele>
        <time>2015-03-22T08:28:49.324Z</time>
      </trkpt>
      <trkpt lat="48.43225" lon="2.61264">
        <ele>126.651</ele>
        <time>2015-03-22T08:28:52.761Z</time>
      </trkpt>
      <trkpt lat="48.43225" lon="2.6125">
        <ele>127.269</ele>
        <time>2015-03-22T08:28:55.121Z</time>
      </trkpt>
      <trkpt lat="48.43222" lon="2.61227">
        <ele>128.262</ele>
        <time>2015-03-22T08:28:58.760Z</time>
      </trkpt>
      <trkpt lat="48.43221" lon="2.61204">
        <ele>128.465</ele>
        <time>2015-03-22T08:29:01.938Z</time>
      </trkpt>
      <trkpt lat="48.43219" lon="2.6118">
        <ele>129.188</ele>
        <time>2015-03-22T08:29:05.072Z</time>
      </trkpt>
      <trkpt lat="48.43218" lon="2.61156">
        <ele>130.675</ele>
        <time>2015-03-22T08:29:08.186Z</time>
      </trkpt>
      <trkpt lat="48.43215" lon="2.61133">
        <ele>132.102</ele>
        <time>2015-03-22T08:29:11.124Z</time>
      </trkpt>
      <trkpt lat="48.43213" lon="2.61112">
        <ele>132.778</ele>
        <time>2015-03-22T08:29:13.704Z</time>
      </trkpt>
      <trkpt lat="48.43212" lon="2.61087">
        <ele>132.764</ele>
        <time>2015-03-22T08:29:16.804Z</time>
      </trkpt>
      <trkpt lat="48.43211" lon="2.61062">
        <ele>131.537</ele>
        <time>2015-03-22T08:29:19.904Z</time>
      </trkpt>
      <trkpt lat="48.43209" lon="2.61039">
        <ele>129.002</ele>
        <time>2015-03-22T08:29:22.714Z</time>
      </trkpt>
      <trkpt lat="48.43208" lon="2.61016">
        <ele>126.85</ele>
        <time>2015-03-22T08:29:25.375Z</time>
      </trkpt>
      <trkpt lat="48.43206" lon="2.60999">
        <ele>126.81</ele>
        <time>2015-03-22T08:29:27.378Z</time>
      </trkpt>
      <trkpt lat="48.43201" lon="2.60969">
        <ele>128.458</ele>
        <time>2015-03-22T08:29:30.819Z</time>
      </trkpt>
      <trkpt lat="48.43196" lon="2.60954">
        <ele>129.774</ele>
        <time>2015-03-22T08:29:32.706Z</time>
      </trkpt>
      <trkpt lat="48.43188" lon="2.60935">
        <ele>129.563</ele>
        <time>2015-03-22T08:29:35.295Z</time>
      </trkpt>
      <trkpt lat="48.4318" lon="2.60917">
        <ele>128.938</ele>
        <time>2015-03-22T08:29:37.837Z</time>
      </trkpt>
      <trkpt lat="48.43172" lon="2.60902">
        <ele>129.091</ele>
        <time>2015-03-22T08:29:40.275Z</time>
      </trkpt>
      <trkpt lat="48.43167" lon="2.60891">
        <ele>129.689</ele>
        <time>2015-03-22T08:29:42.186Z</time>
      </trkpt>
      <trkpt lat="48.43162" lon="2.60877">
        <ele>130.188</ele>
        <time>2015-03-22T08:29:44.485Z</time>
      </trkpt>
      <trkpt lat="48.43158" lon="2.60862">
        <ele>130.363</ele>
        <time>2015-03-22T08:29:47.068Z</time>
      </trkpt>
      <trkpt lat="48.43152" lon="2.60846">
        <ele>130.251</ele>
        <time>2015-03-22T08:29:50.019Z</time>
      </trkpt>
      <trkpt lat="48.43145" lon="2.60831">
        <ele>129.903</ele>
        <time>2015-03-22T08:29:53.027Z</time>
      </trkpt>
      <trkpt lat="48.43139" lon="2.6082">
        <ele>129.875</ele>
        <time>2015-03-22T08:29:55.282Z</time>
      </trkpt>
      <trkpt lat="48.43131" lon="2.60806">
        <ele>130.645</ele>
        <time>2015-03-22T08:29:58.304Z</time>
      </trkpt>
      <trkpt lat="48.43124" lon="2.60794">
        <ele>132.1</ele>
        <time>2015-03-22T08:30:00.661Z</time>
      </trkpt>
      <trkpt lat="48.43116" lon="2.60778">
        <ele>133.355</ele>
        <time>2015-03-22T08:30:03.681Z</time>
      </trkpt>
      <trkpt lat="48.43111" lon="2.60764">
        <ele>133.73</ele>
        <time>2015-03-22T08:30:05.867Z</time>
      </trkpt>
      <trkpt lat="48.43105" lon="2.60745">
        <ele>133.348</ele>
        <time>2015-03-22T08:30:08.871Z</time>
      </trkpt>
      <trkpt lat="48.431" lon="2.60732">
        <ele>132.05</ele>
        <time>2015-03-22T08:30:10.836Z</time>
      </trkpt>
      <trkpt lat="48.43092" lon="2.60716">
        <ele>129.848</ele>
        <time>2015-03-22T08:30:13.548Z</time>
      </trkpt>
      <trkpt lat="48.43086" lon="2.60696">
        <ele>127.685</ele>
        <time>2015-03-22T08:30:16.572Z</time>
      </trkpt>
      <trkpt lat="48.43087" lon="2.60682">
        <ele>126.385</ele>
        <time>2015-03-22T08:30:18.595Z</time>
      </trkpt>
      <trkpt lat="48.43089" lon="2.60664">
        <ele>125.824</ele>
        <time>2015-03-22T08:30:21.208Z</time>
      </trkpt>
      <trkpt lat="48.43091" lon="2.60649">
        <ele>125.589</ele>
        <time>2015-03-22T08:30:23.410Z</time>
      </trkpt>
      <trkpt lat="48.43091" lon="2.60649">
        <ele>125.359</ele>
        <time>2015-03-22T08:30:25.406Z</time>
      </trkpt>
      <trkpt lat="48.43091" lon="2.60649">
        <ele>125.186</ele>
        <time>2015-03-22T08:30:25.506Z</time>
      </trkpt>
      <trkpt lat="48.43102" lon="2.60585">
        <ele>125.141</ele>
        <time>2015-03-22T08:30:32.279Z</time>
      </trkpt>
      <trkpt lat="48.43113" lon="2.60562">
        <ele>124.398</ele>
        <time>2015-03-22T08:30:34.138Z</time>
      </trkpt>
      <trkpt lat="48.43135" lon="2.60535">
        <ele>122.324</ele>
        <time>2015-03-22T08:30:36.766Z</time>
      </trkpt>
      <trkpt lat="48.43153" lon="2.60516">
        <ele>119.074</ele>
        <time>2015-03-22T08:30:38.657Z</time>
      </trkpt>
      <trkpt lat="48.4318" lon="2.60487">
        <ele>115.274</ele>
        <time>2015-03-22T08:30:41.626Z</time>
      </trkpt>
      <trkpt lat="48.43197" lon="2.60467">
        <ele>112.105</ele>
        <time>2015-03-22T08:30:43.737Z</time>
      </trkpt>
      <trkpt lat="48.43214" lon="2.60449">
        <ele>110.109</ele>
        <time>2015-03-22T08:30:46.784Z</time>
      </trkpt>
      <trkpt lat="48.43228" lon="2.60433">
        <ele>108.656</ele>
        <time>2015-03-22T08:30:53.412Z</time>
      </trkpt>
      <trkpt lat="48.43233" lon="2.60421">
        <ele>107.08</ele>
        <time>2015-03-22T08:30:57.896Z</time>
      </trkpt>
      <trkpt lat="48.43225" lon="2.60431">
        <ele>105.135</ele>
        <time>2015-03-22T08:31:02.276Z</time>
      </trkpt>
      <trkpt lat="48.43213" lon="2.60433">
        <ele>103.646</ele>
        <time>2015-03-22T08:31:07.022Z</time>
      </trkpt>
      <trkpt lat="48.43204" lon="2.6043">
        <ele>103.353</ele>
        <time>2015-03-22T08:31:10.816Z</time>
      </trkpt>
      <trkpt lat="48.43195" lon="2.60427">
        <ele>103.355</ele>
        <time>2015-03-22T08:31:14.274Z</time>
      </trkpt>
      <trkpt lat="48.43184" lon="2.60425">
        <ele>102.68</ele>
        <time>2015-03-22T08:31:18.278Z</time>
      </trkpt>
      <trkpt lat="48.43173" lon="2.60424">
        <ele>101.726</ele>
        <time>2015-03-22T08:31:22.318Z</time>
      </trkpt>
      <trkpt lat="48.43164" lon="2.60422">
        <ele>101.474</ele>
        <time>2015-03-22T08:31:26.519Z</time>
      </trkpt>
      <trkpt lat="48.43153" lon="2.60421">
        <ele>102.483</ele>
        <time>2015-03-22T08:31:31.494Z</time>
      </trkpt>
      <trkpt lat="48.43143" lon="2.60417">
        <ele>104.451</ele>
        <time>2015-03-22T08:31:36.523Z</time>
      </trkpt>
      <trkpt lat="48.43133" lon="2.60415">
        <ele>106.38</ele>
        <time>2015-03-22T08:31:41.586Z</time>
      </trkpt>
      <trkpt lat="48.43122" lon="2.60414">
        <ele>107.955</ele>
        <time>2015-03-22T08:31:46.522Z</time>
      </trkpt>
      <trkpt lat="48.43113" lon="2.60414">
        <ele>110.059</ele>
        <time>2015-03-22T08:31:51.193Z</time>
      </trkpt>
      <trkpt lat="48.43104" lon="2.60412">
        <ele>113.15</ele>
        <time>2015-03-22T08:31:56.600Z</time>
      </trkpt>
      <trkpt lat="48.43094" lon="2.60411">
        <ele>116.991</ele>
        <time>2015-03-22T08:32:03.306Z</time>
      </trkpt>
      <trkpt lat="48.43083" lon="2.60411">
        <ele>120.776</ele>
        <time>2015-03-22T08:32:10.093Z</time>
      </trkpt>
      <trkpt lat="48.43074" lon="2.60408">
        <ele>122.851</ele>
        <time>2015-03-22T08:32:16.029Z</time>
      </trkpt>
      <trkpt lat="48.43064" lon="2.60407">
        <ele>122.543</ele>
        <time>2015-03-22T08:32:21.968Z</time>
      </trkpt>
      <trkpt lat="48.43054" lon="2.60409">
        <ele>121.256</ele>
        <time>2015-03-22T08:32:27.123Z</time>
      </trkpt>
      <trkpt lat="48.43043" lon="2.60409">
        <ele>120.382</ele>
        <time>2015-03-22T08:32:32.961Z</time>
      </trkpt>
      <trkpt lat="48.43035" lon="2.60415">
        <ele>120.31</ele>
        <time>2015-03-22T08:32:37.740Z</time>
      </trkpt>
      <trkpt lat="48.43025" lon="2.60419">
        <ele>121.2</ele>
        <time>2015-03-22T08:32:43.213Z</time>
      </trkpt>
      <trkpt lat="48.43017" lon="2.60424">
        <ele>122.877</ele>
        <time>2015-03-22T08:32:47.800Z</time>
      </trkpt>
      <trkpt lat="48.43008" lon="2.60429">
        <ele>124.392</ele>
        <time>2015-03-22T08:32:52.415Z</time>
      </trkpt>
      <trkpt lat="48.42999" lon="2.60433">
        <ele>125.163</ele>
        <time>2015-03-22T08:32:57.020Z</time>
      </trkpt>
      <trkpt lat="48.42989" lon="2.60437">
        <ele>125.142</ele>
        <time>2015-03-22T08:33:01.982Z</time>
      </trkpt>
      <trkpt lat="48.42978" lon="2.60443">
        <ele>124.611</ele>
        <time>2015-03-22T08:33:06.640Z</time>
      </trkpt>
      <trkpt lat="48.42968" lon="2.60449">
        <ele>124.152</ele>
        <time>2015-03-22T08:33:10.651Z</time>
      </trkpt>
      <trkpt lat="48.42958" lon="2.60456">
        <ele>123.916</ele>
        <time>2015-03-22T08:33:14.567Z</time>
      </trkpt>
      <trkpt lat="48.42949" lon="2.60461">
        <ele>123.697</ele>
        <time>2015-03-22T08:33:17.729Z</time>
      </trkpt>
      <trkpt lat="48.42938" lon="2.60466">
        <ele>123.713</ele>
        <time>2015-03-22T08:33:21.592Z</time>
      </trkpt>
      <trkpt lat="48.42927" lon="2.60473">
        <ele>124.281</ele>
        <time>2015-03-22T08:33:25.221Z</time>
      </trkpt>
      <trkpt lat="48.42917" lon="2.60477">
        <ele>125.503</ele>
        <time>2015-03-22T08:33:28.235Z</time>
      </trkpt>
      <trkpt lat="48.42903" lon="2.60483">
        <ele>126.898</ele>
        <time>2015-03-22T08:33:32.428Z</time>
      </trkpt>
      <trkpt lat="48.42893" lon="2.60489">
        <ele>127.897</ele>
        <time>2015-03-22T08:33:35.581Z</time>
      </trkpt>
      <trkpt lat="48.42885" lon="2.60495">
        <ele>127.765</ele>
        <time>2015-03-22T08:33:38.313Z</time>
      </trkpt>
      <trkpt lat="48.42876" lon="2.605">
        <ele>126.307</ele>
        <time>2015-03-22T08:33:41.141Z</time>
      </trkpt>
      <trkpt lat="48.42866" lon="2.60505">
        <ele>124.923</ele>
        <time>2015-03-22T08:33:44.584Z</time>
      </trkpt>
      <trkpt lat="48.42856" lon="2.60511">
        <ele>124.774</ele>
        <time>2015-03-22T08:33:48.729Z</time>
      </trkpt>
      <trkpt lat="48.42847" lon="2.60518">
        <ele>125.312</ele>
        <time>2015-03-22T08:33:53.266Z</time>
      </trkpt>
      <trkpt lat="48.42836" lon="2.60517">
        <ele>126.439</ele>
        <time>2015-03-22T08:33:57.682Z</time>
      </trkpt>
      <trkpt lat="48.42827" lon="2.60511">
        <ele>128.415</ele>
        <time>2015-03-22T08:34:01.130Z</time>
      </trkpt>
      <trkpt lat="48.42817" lon="2.60499">
        <ele>130.319</ele>
        <time>2015-03-22T08:34:05.182Z</time>
      </trkpt>
      <trkpt lat="48.4281" lon="2.60487">
        <ele>131.243</ele>
        <time>2015-03-22T08:34:08.491Z</time>
      </trkpt>
      <trkpt lat="48.42804" lon="2.60471">
        <ele>131.102</ele>
        <time>2015-03-22T08:34:12.279Z</time>
      </trkpt>
      <trkpt lat="48.42796" lon="2.60479">
        <ele>130.156</ele>
        <time>2015-03-22T08:34:14.869Z</time>
      </trkpt>
      <trkpt lat="48.42796" lon="2.60496">
        <ele>129.171</ele>
        <time>2015-03-22T08:34:18.125Z</time>
      </trkpt>
      <trkpt lat="48.42791" lon="2.60512">
        <ele>128.695</ele>
        <time>2015-03-22T08:34:22.350Z</time>
      </trkpt>
      <trkpt lat="48.42786" lon="2.60528">
        <ele>128.288</ele>
        <time>2015-03-22T08:34:27.584Z</time>
      </trkpt>
      <trkpt lat="48.42779" lon="2.60544">
        <ele>127.498</ele>
        <time>2015-03-22T08:34:32.381Z</time>
      </trkpt>
      <trkpt lat="48.42774" lon="2.60557">
        <ele>126.669</ele>
        <time>2015-03-22T08:34:35.279Z</time>
      </trkpt>
      <trkpt lat="48.42774" lon="2.60573">
        <ele>126.595</ele>
        <time>2015-03-22T08:34:37.933Z</time>
      </trkpt>
      <trkpt lat="48.42775" lon="2.60587">
        <ele>127.443</ele>
        <time>2015-03-22T08:34:40.283Z</time>
      </trkpt>
      <trkpt lat="48.42777" lon="2.606">
        <ele>128.517</ele>
        <time>2015-03-22T08:34:42.798Z</time>
      </trkpt>
      <trkpt lat="48.4278" lon="2.60618">
        <ele>129.118</ele>
        <time>2015-03-22T08:34:46.362Z</time>
      </trkpt>
      <trkpt lat="48.42781" lon="2.60633">
        <ele>129.251</ele>
        <time>2015-03-22T08:34:50.113Z</time>
      </trkpt>
      <trkpt lat="48.42783" lon="2.60649">
        <ele>129.356</ele>
        <time>2015-03-22T08:34:54.502Z</time>
      </trkpt>
      <trkpt lat="48.42784" lon="2.60668">
        <ele>129.875</ele>
        <time>2015-03-22T08:34:59.232Z</time>
      </trkpt>
      <trkpt lat="48.42786" lon="2.60686">
        <ele>130.68</ele>
        <time>2015-03-22T08:35:03.274Z</time>
      </trkpt>
      <trkpt lat="48.42788" lon="2.60704">
        <ele>131.279</ele>
        <time>2015-03-22T08:35:06.850Z</time>
      </trkpt>
      <trkpt lat="48.42791" lon="2.60719">
        <ele>131.095</ele>
        <time>2015-03-22T08:35:09.822Z</time>
      </trkpt>
      <trkpt lat="48.42793" lon="2.60734">
        <ele>130.037</ele>
        <time>2015-03-22T08:35:12.795Z</time>
      </trkpt>
      <trkpt lat="48.42795" lon="2.60753">
        <ele>128.961</ele>
        <time>2015-03-22T08:35:16.327Z</time>
      </trkpt>
      <trkpt lat="48.42796" lon="2.60773">
        <ele>128.585</ele>
        <time>2015-03-22T08:35:20.057Z</time>
      </trkpt>
      <trkpt lat="48.42798" lon="2.6079">
        <ele>128.672</ele>
        <time>2015-03-22T08:35:23.171Z</time>
      </trkpt>
      <trkpt lat="48.42801" lon="2.60806">
        <ele>128.469</ele>
        <time>2015-03-22T08:35:26.124Z</time>
      </trkpt>
      <trkpt lat="48.42802" lon="2.6082">
        <ele>127.594</ele>
        <time>2015-03-22T08:35:28.668Z</time>
      </trkpt>
      <trkpt lat="48.42802" lon="2.60835">
        <ele>126.595</ele>
        <time>2015-03-22T08:35:31.358Z</time>
      </trkpt>
      <trkpt lat="48.42801" lon="2.6085">
        <ele>126.073</ele>
        <time>2015-03-22T08:35:34.048Z</time>
      </trkpt>
      <trkpt lat="48.42801" lon="2.60864">
        <ele>126.019</ele>
        <time>2015-03-22T08:35:36.849Z</time>
      </trkpt>
      <trkpt lat="48.428" lon="2.60884">
        <ele>126.729</ele>
        <time>2015-03-22T08:35:40.959Z</time>
      </trkpt>
      <trkpt lat="48.42795" lon="2.60903">
        <ele>129.68</ele>
        <time>2015-03-22T08:35:45.488Z</time>
      </trkpt>
      <trkpt lat="48.42789" lon="2.60923">
        <ele>130.136</ele>
        <time>2015-03-22T08:35:50.169Z</time>
      </trkpt>
      <trkpt lat="48.42783" lon="2.60939">
        <ele>129.958</ele>
        <time>2015-03-22T08:35:53.560Z</time>
      </trkpt>
      <trkpt lat="48.42777" lon="2.6095">
        <ele>129.839</ele>
        <time>2015-03-22T08:35:56.049Z</time>
      </trkpt>
      <trkpt lat="48.42768" lon="2.6096">
        <ele>130.018</ele>
        <time>2015-03-22T08:35:58.531Z</time>
      </trkpt>
      <trkpt lat="48.42761" lon="2.60973">
        <ele>130.246</ele>
        <time>2015-03-22T08:36:01.036Z</time>
      </trkpt>
      <trkpt lat="48.42755" lon="2.61">
        <ele>130.233</ele>
        <time>2015-03-22T08:36:05.190Z</time>
      </trkpt>
      <trkpt lat="48.42753" lon="2.61019">
        <ele>129.741</ele>
        <time>2015-03-22T08:36:07.846Z</time>
      </trkpt>
      <trkpt lat="48.42755" lon="2.61049">
        <ele>128.02</ele>
        <time>2015-03-22T08:36:11.855Z</time>
      </trkpt>
      <trkpt lat="48.42756" lon="2.61068">
        <ele>127.236</ele>
        <time>2015-03-22T08:36:14.088Z</time>
      </trkpt>
      <trkpt lat="48.42756" lon="2.61104">
        <ele>126.453</ele>
        <time>2015-03-22T08:36:18.023Z</time>
      </trkpt>
      <trkpt lat="48.42754" lon="2.61125">
        <ele>125.387</ele>
        <time>2015-03-22T08:36:20.085Z</time>
      </trkpt>
      <trkpt lat="48.4275" lon="2.61156">
        <ele>123.912</ele>
        <time>2015-03-22T08:36:22.973Z</time>
      </trkpt>
      <trkpt lat="48.42747" lon="2.61173">
        <ele>121.935</ele>
        <time>2015-03-22T08:36:24.655Z</time>
      </trkpt>
      <trkpt lat="48.42741" lon="2.61204">
        <ele>119.191</ele>
        <time>2015-03-22T08:36:27.639Z</time>
      </trkpt>
      <trkpt lat="48.42732" lon="2.61244">
        <ele>116.139</ele>
        <time>2015-03-22T08:36:31.467Z</time>
      </trkpt>
      <trkpt lat="48.42719" lon="2.61287">
        <ele>113.429</ele>
        <time>2015-03-22T08:36:35.024Z</time>
      </trkpt>
      <trkpt lat="48.42711" lon="2.61312">
        <ele>111.282</ele>
        <time>2015-03-22T08:36:36.909Z</time>
      </trkpt>
      <trkpt lat="48.42698" lon="2.61346">
        <ele>109.882</ele>
        <time>2015-03-22T08:36:39.585Z</time>
      </trkpt>
      <trkpt lat="48.42687" lon="2.61377">
        <ele>109.102</ele>
        <time>2015-03-22T08:36:42.007Z</time>
      </trkpt>
      <trkpt lat="48.42684" lon="2.61403">
        <ele>108.576</ele>
        <time>2015-03-22T08:36:43.874Z</time>
      </trkpt>
      <trkpt lat="48.42679" lon="2.61439">
        <ele>108.596</ele>
        <time>2015-03-22T08:36:46.619Z</time>
      </trkpt>
      <trkpt lat="48.42677" lon="2.61462">
        <ele>109.342</ele>
        <time>2015-03-22T08:36:48.349Z</time>
      </trkpt>
      <trkpt lat="48.42676" lon="2.61497">
        <ele>109.422</ele>
        <time>2015-03-22T08:36:50.932Z</time>
      </trkpt>
      <trkpt lat="48.42672" lon="2.61532">
        <ele>107.797</ele>
        <time>2015-03-22T08:36:53.791Z</time>
      </trkpt>
      <trkpt lat="48.42667" lon="2.61561">
        <ele>105.738</ele>
        <time>2015-03-22T08:36:56.284Z</time>
      </trkpt>
      <trkpt lat="48.42662" lon="2.61589">
        <ele>104.639</ele>
        <time>2015-03-22T08:36:58.756Z</time>
      </trkpt>
      <trkpt lat="48.42659" lon="2.61609">
        <ele>104.291</ele>
        <time>2015-03-22T08:37:00.551Z</time>
      </trkpt>
      <trkpt lat="48.42657" lon="2.61624">
        <ele>104.142</ele>
        <time>2015-03-22T08:37:02.005Z</time>
      </trkpt>
      <trkpt lat="48.4265" lon="2.6165">
        <ele>104.069</ele>
        <time>2015-03-22T08:37:04.734Z</time>
      </trkpt>
      <trkpt lat="48.42645" lon="2.61666">
        <ele>104.282</ele>
        <time>2015-03-22T08:37:06.591Z</time>
      </trkpt>
      <trkpt lat="48.42637" lon="2.61689">
        <ele>104.764</ele>
        <time>2015-03-22T08:37:09.568Z</time>
      </trkpt>
      <trkpt lat="48.42631" lon="2.61707">
        <ele>105.202</ele>
        <time>2015-03-22T08:37:11.819Z</time>
      </trkpt>
      <trkpt lat="48.42626" lon="2.61726">
        <ele>105.415</ele>
        <time>2015-03-22T08:37:14.141Z</time>
      </trkpt>
      <trkpt lat="48.42617" lon="2.61743">
        <ele>105.489</ele>
        <time>2015-03-22T08:37:16.696Z</time>
      </trkpt>
      <trkpt lat="48.42603" lon="2.61765">
        <ele>104.912</ele>
        <time>2015-03-22T08:37:20.120Z</time>
      </trkpt>
      <trkpt lat="48.42589" lon="2.61784">
        <ele>103.321</ele>
        <time>2015-03-22T08:37:23.267Z</time>
      </trkpt>
      <trkpt lat="48.42577" lon="2.61796">
        <ele>101.664</ele>
        <time>2015-03-22T08:37:25.415Z</time>
      </trkpt>
      <trkpt lat="48.42568" lon="2.61806">
        <ele>100.925</ele>
        <time>2015-03-22T08:37:27.180Z</time>
      </trkpt>
      <trkpt lat="48.42557" lon="2.61816">
        <ele>100.918</ele>
        <time>2015-03-22T08:37:29.035Z</time>
      </trkpt>
      <trkpt lat="48.42544" lon="2.61829">
        <ele>100.964</ele>
        <time>2015-03-22T08:37:31.482Z</time>
      </trkpt>
      <trkpt lat="48.42525" lon="2.61848">
        <ele>100.667</ele>
        <time>2015-03-22T08:37:35.233Z</time>
      </trkpt>
      <trkpt lat="48.42509" lon="2.61865">
        <ele>100.443</ele>
        <time>2015-03-22T08:37:38.278Z</time>
      </trkpt>
      <trkpt lat="48.42495" lon="2.61882">
        <ele>100.718</ele>
        <time>2015-03-22T08:37:40.859Z</time>
      </trkpt>
      <trkpt lat="48.42474" lon="2.61904">
        <ele>101.328</ele>
        <time>2015-03-22T08:37:44.392Z</time>
      </trkpt>
      <trkpt lat="48.42456" lon="2.61921">
        <ele>101.693</ele>
        <time>2015-03-22T08:37:47.265Z</time>
      </trkpt>
      <trkpt lat="48.42445" lon="2.61934">
        <ele>100.966</ele>
        <time>2015-03-22T08:37:49.156Z</time>
      </trkpt>
      <trkpt lat="48.42427" lon="2.61952">
        <ele>98.724</ele>
        <time>2015-03-22T08:37:52.059Z</time>
      </trkpt>
      <trkpt lat="48.42419" lon="2.6196">
        <ele>95.82</ele>
        <time>2015-03-22T08:37:53.447Z</time>
      </trkpt>
      <trkpt lat="48.42403" lon="2.61977">
        <ele>93.634</ele>
        <time>2015-03-22T08:37:56.540Z</time>
      </trkpt>
      <trkpt lat="48.42386" lon="2.61997">
        <ele>92.911</ele>
        <time>2015-03-22T08:38:00.287Z</time>
      </trkpt>
      <trkpt lat="48.42368" lon="2.62017">
        <ele>93.554</ele>
        <time>2015-03-22T08:38:04.113Z</time>
      </trkpt>
      <trkpt lat="48.42349" lon="2.62038">
        <ele>94.863</ele>
        <time>2015-03-22T08:38:07.891Z</time>
      </trkpt>
      <trkpt lat="48.42337" lon="2.62051">
        <ele>95.906</ele>
        <time>2015-03-22T08:38:10.386Z</time>
      </trkpt>
      <trkpt lat="48.42318" lon="2.62063">
        <ele>96.319</ele>
        <time>2015-03-22T08:38:13.645Z</time>
      </trkpt>
      <trkpt lat="48.42303" lon="2.62072">
        <ele>96.147</ele>
        <time>2015-03-22T08:38:16.583Z</time>
      </trkpt>
      <trkpt lat="48.42285" lon="2.62082">
        <ele>95.556</ele>
        <time>2015-03-22T08:38:20.250Z</time>
      </trkpt>
      <trkpt lat="48.42272" lon="2.62091">
        <ele>94.884</ele>
        <time>2015-03-22T08:38:22.930Z</time>
      </trkpt>
      <trkpt lat="48.42257" lon="2.621">
        <ele>94.386</ele>
        <time>2015-03-22T08:38:25.788Z</time>
      </trkpt>
      <trkpt lat="48.42245" lon="2.62108">
        <ele>93.961</ele>
        <time>2015-03-22T08:38:28.376Z</time>
      </trkpt>
      <trkpt lat="48.42236" lon="2.62111">
        <ele>93.002</ele>
        <time>2015-03-22T08:38:30.139Z</time>
      </trkpt>
      <trkpt lat="48.42225" lon="2.62116">
        <ele>91.044</ele>
        <time>2015-03-22T08:38:32.488Z</time>
      </trkpt>
      <trkpt lat="48.4221" lon="2.62125">
        <ele>88.763</ele>
        <time>2015-03-22T08:38:35.698Z</time>
      </trkpt>
      <trkpt lat="48.42193" lon="2.62135">
        <ele>86.917</ele>
        <time>2015-03-22T08:38:39.111Z</time>
      </trkpt>
      <trkpt lat="48.42173" lon="2.62146">
        <ele>85.829</ele>
        <time>2015-03-22T08:38:43.135Z</time>
      </trkpt>
      <trkpt lat="48.42163" lon="2.62154">
        <ele>85.425</ele>
        <time>2015-03-22T08:38:45.344Z</time>
      </trkpt>
      <trkpt lat="48.42152" lon="2.62162">
        <ele>85.44</ele>
        <time>2015-03-22T08:38:48.309Z</time>
      </trkpt>
      <trkpt lat="48.42138" lon="2.62172">
        <ele>85.847</ele>
        <time>2015-03-22T08:38:52.589Z</time>
      </trkpt>
      <trkpt lat="48.42121" lon="2.62183">
        <ele>86.493</ele>
        <time>2015-03-22T08:38:56.416Z</time>
      </trkpt>
      <trkpt lat="48.42103" lon="2.62193">
        <ele>86.928</ele>
        <time>2015-03-22T08:39:00.152Z</time>
      </trkpt>
      <trkpt lat="48.42093" lon="2.62198">
        <ele>87.149</ele>
        <time>2015-03-22T08:39:02.355Z</time>
      </trkpt>
      <trkpt lat="48.42077" lon="2.62208">
        <ele>87.233</ele>
        <time>2015-03-22T08:39:05.565Z</time>
      </trkpt>
      <trkpt lat="48.42067" lon="2.62213">
        <ele>87.065</ele>
        <time>2015-03-22T08:39:07.610Z</time>
      </trkpt>
      <trkpt lat="48.42054" lon="2.6222">
        <ele>86.057</ele>
        <time>2015-03-22T08:39:09.996Z</time>
      </trkpt>
      <trkpt lat="48.42039" lon="2.62231">
        <ele>84.17</ele>
        <time>2015-03-22T08:39:13.090Z</time>
      </trkpt>
      <trkpt lat="48.42029" lon="2.62238">
        <ele>83.706</ele>
        <time>2015-03-22T08:39:15.157Z</time>
      </trkpt>
      <trkpt lat="48.42017" lon="2.62244">
        <ele>86.551</ele>
        <time>2015-03-22T08:39:17.666Z</time>
      </trkpt>
      <trkpt lat="48.42007" lon="2.62249">
        <ele>90.792</ele>
        <time>2015-03-22T08:39:20.110Z</time>
      </trkpt>
      <trkpt lat="48.41993" lon="2.62258">
        <ele>93.357</ele>
        <time>2015-03-22T08:39:24.274Z</time>
      </trkpt>
      <trkpt lat="48.41983" lon="2.62265">
        <ele>93.665</ele>
        <time>2015-03-22T08:39:28.844Z</time>
      </trkpt>
      <trkpt lat="48.41974" lon="2.6227">
        <ele>92.944</ele>
        <time>2015-03-22T08:39:33.170Z</time>
      </trkpt>
      <trkpt lat="48.41965" lon="2.62276">
        <ele>92.212</ele>
        <time>2015-03-22T08:39:36.811Z</time>
      </trkpt>
      <trkpt lat="48.41956" lon="2.62279">
        <ele>91.588</ele>
        <time>2015-03-22T08:39:39.828Z</time>
      </trkpt>
      <trkpt lat="48.41947" lon="2.62284">
        <ele>91.055</ele>
        <time>2015-03-22T08:39:42.927Z</time>
      </trkpt>
      <trkpt lat="48.41937" lon="2.6229">
        <ele>91.286</ele>
        <time>2015-03-22T08:39:46.383Z</time>
      </trkpt>
      <trkpt lat="48.41929" lon="2.62297">
        <ele>92.623</ele>
        <time>2015-03-22T08:39:49.485Z</time>
      </trkpt>
      <trkpt lat="48.4192" lon="2.62302">
        <ele>94.138</ele>
        <time>2015-03-22T08:39:52.962Z</time>
      </trkpt>
      <trkpt lat="48.41911" lon="2.62306">
        <ele>94.673</ele>
        <time>2015-03-22T08:39:56.528Z</time>
      </trkpt>
      <trkpt lat="48.41901" lon="2.62311">
        <ele>94.155</ele>
        <time>2015-03-22T08:40:00.209Z</time>
      </trkpt>
      <trkpt lat="48.41892" lon="2.62317">
        <ele>92.858</ele>
        <time>2015-03-22T08:40:03.700Z</time>
      </trkpt>
      <trkpt lat="48.41882" lon="2.62321">
        <ele>90.746</ele>
        <time>2015-03-22T08:40:07.580Z</time>
      </trkpt>
      <trkpt lat="48.41872" lon="2.62326">
        <ele>88.306</ele>
        <time>2015-03-22T08:40:11.097Z</time>
      </trkpt>
      <trkpt lat="48.41863" lon="2.62333">
        <ele>86.973</ele>
        <time>2015-03-22T08:40:14.120Z</time>
      </trkpt>
      <trkpt lat="48.41853" lon="2.62338">
        <ele>87.298</ele>
        <time>2015-03-22T08:40:17.404Z</time>
      </trkpt>
      <trkpt lat="48.41844" lon="2.62344">
        <ele>88.483</ele>
        <time>2015-03-22T08:40:20.318Z</time>
      </trkpt>
      <trkpt lat="48.41836" lon="2.62349">
        <ele>89.994</ele>
        <time>2015-03-22T08:40:22.978Z</time>
      </trkpt>
      <trkpt lat="48.41825" lon="2.62356">
        <ele>92.034</ele>
        <time>2015-03-22T08:40:26.294Z</time>
      </trkpt>
      <trkpt lat="48.41816" lon="2.62363">
        <ele>94.456</ele>
        <time>2015-03-22T08:40:29.322Z</time>
      </trkpt>
      <trkpt lat="48.41807" lon="2.62369">
        <ele>96.498</ele>
        <time>2015-03-22T08:40:32.191Z</time>
      </trkpt>
      <trkpt lat="48.41796" lon="2.62375">
        <ele>97.575</ele>
        <time>2015-03-22T08:40:35.476Z</time>
      </trkpt>
      <trkpt lat="48.41787" lon="2.62381">
        <ele>97.439</ele>
        <time>2015-03-22T08:40:38.375Z</time>
      </trkpt>
      <trkpt lat="48.41776" lon="2.62388">
        <ele>96.372</ele>
        <time>2015-03-22T08:40:41.433Z</time>
      </trkpt>
      <trkpt lat="48.41767" lon="2.62393">
        <ele>95.632</ele>
        <time>2015-03-22T08:40:44.182Z</time>
      </trkpt>
      <trkpt lat="48.41757" lon="2.62398">
        <ele>96.074</ele>
        <time>2015-03-22T08:40:46.966Z</time>
      </trkpt>
      <trkpt lat="48.41748" lon="2.62405">
        <ele>96.751</ele>
        <time>2015-03-22T08:40:49.885Z</time>
      </trkpt>
      <trkpt lat="48.41738" lon="2.62411">
        <ele>96.524</ele>
        <time>2015-03-22T08:40:52.842Z</time>
      </trkpt>
      <trkpt lat="48.41729" lon="2.62417">
        <ele>95.618</ele>
        <time>2015-03-22T08:40:55.542Z</time>
      </trkpt>
      <trkpt lat="48.41718" lon="2.62422">
        <ele>94.989</ele>
        <time>2015-03-22T08:40:58.969Z</time>
      </trkpt>
      <trkpt lat="48.41707" lon="2.62429">
        <ele>95.291</ele>
        <time>2015-03-22T08:41:02.205Z</time>
      </trkpt>
      <trkpt lat="48.41699" lon="2.62434">
        <ele>96.585</ele>
        <time>2015-03-22T08:41:04.887Z</time>
      </trkpt>
      <trkpt lat="48.41689" lon="2.62441">
        <ele>98.5</ele>
        <time>2015-03-22T08:41:07.987Z</time>
      </trkpt>
      <trkpt lat="48.41679" lon="2.62448">
        <ele>100.327</ele>
        <time>2015-03-22T08:41:11.375Z</time>
      </trkpt>
      <trkpt lat="48.41669" lon="2.62455">
        <ele>101.431</ele>
        <time>2015-03-22T08:41:14.850Z</time>
      </trkpt>
      <trkpt lat="48.41659" lon="2.6246">
        <ele>100.95</ele>
        <time>2015-03-22T08:41:18.228Z</time>
      </trkpt>
      <trkpt lat="48.41649" lon="2.62465">
        <ele>98.683</ele>
        <time>2015-03-22T08:41:21.435Z</time>
      </trkpt>
      <trkpt lat="48.41639" lon="2.62472">
        <ele>96.036</ele>
        <time>2015-03-22T08:41:24.860Z</time>
      </trkpt>
      <trkpt lat="48.41627" lon="2.6248">
        <ele>94.411</ele>
        <time>2015-03-22T08:41:28.491Z</time>
      </trkpt>
      <trkpt lat="48.41619" lon="2.62485">
        <ele>94.441</ele>
        <time>2015-03-22T08:41:31.241Z</time>
      </trkpt>
      <trkpt lat="48.41608" lon="2.6249">
        <ele>97.352</ele>
        <time>2015-03-22T08:41:34.725Z</time>
      </trkpt>
      <trkpt lat="48.41598" lon="2.62496">
        <ele>96.885</ele>
        <time>2015-03-22T08:41:38.232Z</time>
      </trkpt>
      <trkpt lat="48.41588" lon="2.62499">
        <ele>95.59</ele>
        <time>2015-03-22T08:41:41.418Z</time>
      </trkpt>
      <trkpt lat="48.41588" lon="2.62499">
        <ele>94.894</ele>
        <time>2015-03-22T08:41:50.414Z</time>
      </trkpt>
      <trkpt lat="48.41588" lon="2.62499">
        <ele>94.949</ele>
        <time>2015-03-22T08:41:50.514Z</time>
      </trkpt>
      <trkpt lat="48.41572" lon="2.62482">
        <ele>95.248</ele>
        <time>2015-03-22T08:42:05.198Z</time>
      </trkpt>
      <trkpt lat="48.41572" lon="2.62468">
        <ele>96.345</ele>
        <time>2015-03-22T08:42:09.353Z</time>
      </trkpt>
      <trkpt lat="48.41574" lon="2.62452">
        <ele>98.807</ele>
        <time>2015-03-22T08:42:13.341Z</time>
      </trkpt>
      <trkpt lat="48.41575" lon="2.62436">
        <ele>101.492</ele>
        <time>2015-03-22T08:42:16.672Z</time>
      </trkpt>
      <trkpt lat="48.41577" lon="2.62419">
        <ele>103.1</ele>
        <time>2015-03-22T08:42:19.834Z</time>
      </trkpt>
      <trkpt lat="48.41578" lon="2.62404">
        <ele>103.897</ele>
        <time>2015-03-22T08:42:22.489Z</time>
      </trkpt>
      <trkpt lat="48.4158" lon="2.62385">
        <ele>104.498</ele>
        <time>2015-03-22T08:42:25.937Z</time>
      </trkpt>
      <trkpt lat="48.41582" lon="2.6237">
        <ele>104.994</ele>
        <time>2015-03-22T08:42:28.592Z</time>
      </trkpt>
      <trkpt lat="48.41584" lon="2.62352">
        <ele>105.03</ele>
        <time>2015-03-22T08:42:31.636Z</time>
      </trkpt>
      <trkpt lat="48.41585" lon="2.62332">
        <ele>104.572</ele>
        <time>2015-03-22T08:42:34.775Z</time>
      </trkpt>
      <trkpt lat="48.41588" lon="2.62311">
        <ele>104.257</ele>
        <time>2015-03-22T08:42:38.098Z</time>
      </trkpt>
      <trkpt lat="48.4159" lon="2.62295">
        <ele>104.585</ele>
        <time>2015-03-22T08:42:40.693Z</time>
      </trkpt>
      <trkpt lat="48.41592" lon="2.62274">
        <ele>105.333</ele>
        <time>2015-03-22T08:42:43.689Z</time>
      </trkpt>
      <trkpt lat="48.41593" lon="2.62259">
        <ele>106.043</ele>
        <time>2015-03-22T08:42:45.844Z</time>
      </trkpt>
      <trkpt lat="48.41595" lon="2.62233">
        <ele>106.403</ele>
        <time>2015-03-22T08:42:49.465Z</time>
      </trkpt>
      <trkpt lat="48.41596" lon="2.62217">
        <ele>106.411</ele>
        <time>2015-03-22T08:42:51.759Z</time>
      </trkpt>
      <trkpt lat="48.41597" lon="2.62203">
        <ele>106.254</ele>
        <time>2015-03-22T08:42:53.789Z</time>
      </trkpt>
      <trkpt lat="48.41598" lon="2.62183">
        <ele>105.727</ele>
        <time>2015-03-22T08:42:56.849Z</time>
      </trkpt>
      <trkpt lat="48.41599" lon="2.62168">
        <ele>104.596</ele>
        <time>2015-03-22T08:42:59.224Z</time>
      </trkpt>
      <trkpt lat="48.41601" lon="2.62152">
        <ele>103.452</ele>
        <time>2015-03-22T08:43:01.793Z</time>
      </trkpt>
      <trkpt lat="48.41603" lon="2.62133">
        <ele>103.262</ele>
        <time>2015-03-22T08:43:04.855Z</time>
      </trkpt>
      <trkpt lat="48.41604" lon="2.62114">
        <ele>104.054</ele>
        <time>2015-03-22T08:43:07.864Z</time>
      </trkpt>
      <trkpt lat="48.41605" lon="2.62098">
        <ele>105.023</ele>
        <time>2015-03-22T08:43:10.562Z</time>
      </trkpt>
      <trkpt lat="48.41607" lon="2.62079">
        <ele>105.59</ele>
        <time>2015-03-22T08:43:13.678Z</time>
      </trkpt>
      <trkpt lat="48.41608" lon="2.62064">
        <ele>106.221</ele>
        <time>2015-03-22T08:43:16.242Z</time>
      </trkpt>
      <trkpt lat="48.4161" lon="2.62048">
        <ele>107.248</ele>
        <time>2015-03-22T08:43:18.942Z</time>
      </trkpt>
      <trkpt lat="48.41611" lon="2.62033">
        <ele>108.125</ele>
        <time>2015-03-22T08:43:21.745Z</time>
      </trkpt>
      <trkpt lat="48.41612" lon="2.62019">
        <ele>108.549</ele>
        <time>2015-03-22T08:43:24.393Z</time>
      </trkpt>
      <trkpt lat="48.41612" lon="2.62004">
        <ele>108.95</ele>
        <time>2015-03-22T08:43:27.148Z</time>
      </trkpt>
      <trkpt lat="48.41613" lon="2.61987">
        <ele>109.632</ele>
        <time>2015-03-22T08:43:30.523Z</time>
      </trkpt>
      <trkpt lat="48.41615" lon="2.6197">
        <ele>110.455</ele>
        <time>2015-03-22T08:43:33.651Z</time>
      </trkpt>
      <trkpt lat="48.41616" lon="2.61957">
        <ele>110.544</ele>
        <time>2015-03-22T08:43:36.050Z</time>
      </trkpt>
      <trkpt lat="48.41618" lon="2.61939">
        <ele>109.533</ele>
        <time>2015-03-22T08:43:39.168Z</time>
      </trkpt>
      <trkpt lat="48.4162" lon="2.61921">
        <ele>108.383</ele>
        <time>2015-03-22T08:43:42.067Z</time>
      </trkpt>
      <trkpt lat="48.41622" lon="2.61901">
        <ele>107.971</ele>
        <time>2015-03-22T08:43:45.258Z</time>
      </trkpt>
      <trkpt lat="48.41625" lon="2.61881">
        <ele>107.437</ele>
        <time>2015-03-22T08:43:48.304Z</time>
      </trkpt>
      <trkpt lat="48.41626" lon="2.61859">
        <ele>105.966</ele>
        <time>2015-03-22T08:43:51.453Z</time>
      </trkpt>
      <trkpt lat="48.41628" lon="2.61844">
        <ele>104.679</ele>
        <time>2015-03-22T08:43:53.449Z</time>
      </trkpt>
      <trkpt lat="48.41629" lon="2.61825">
        <ele>104.881</ele>
        <time>2015-03-22T08:43:55.766Z</time>
      </trkpt>
      <trkpt lat="48.4163" lon="2.61799">
        <ele>106.039</ele>
        <time>2015-03-22T08:43:58.866Z</time>
      </trkpt>
      <trkpt lat="48.41633" lon="2.61771">
        <ele>106.832</ele>
        <time>2015-03-22T08:44:02.012Z</time>
      </trkpt>
      <trkpt lat="48.41635" lon="2.61754">
        <ele>106.598</ele>
        <time>2015-03-22T08:44:03.850Z</time>
      </trkpt>
      <trkpt lat="48.41637" lon="2.61728">
        <ele>105.339</ele>
        <time>2015-03-22T08:44:06.740Z</time>
      </trkpt>
      <trkpt lat="48.4164" lon="2.61702">
        <ele>103.513</ele>
        <time>2015-03-22T08:44:09.501Z</time>
      </trkpt>
      <trkpt lat="48.41642" lon="2.61682">
        <ele>101.995</ele>
        <time>2015-03-22T08:44:11.650Z</time>
      </trkpt>
      <trkpt lat="48.41643" lon="2.61659">
        <ele>101.325</ele>
        <time>2015-03-22T08:44:14.112Z</time>
      </trkpt>
      <trkpt lat="48.41645" lon="2.61632">
        <ele>101.277</ele>
        <time>2015-03-22T08:44:17.105Z</time>
      </trkpt>
      <trkpt lat="48.41646" lon="2.61616">
        <ele>101.475</ele>
        <time>2015-03-22T08:44:18.888Z</time>
      </trkpt>
      <trkpt lat="48.41648" lon="2.61592">
        <ele>101.651</ele>
        <time>2015-03-22T08:44:21.609Z</time>
      </trkpt>
      <trkpt lat="48.4165" lon="2.61568">
        <ele>101.643</ele>
        <time>2015-03-22T08:44:24.338Z</time>
      </trkpt>
      <trkpt lat="48.41652" lon="2.61543">
        <ele>101.522</ele>
        <time>2015-03-22T08:44:27.209Z</time>
      </trkpt>
      <trkpt lat="48.41654" lon="2.61523">
        <ele>101.442</ele>
        <time>2015-03-22T08:44:29.401Z</time>
      </trkpt>
      <trkpt lat="48.41657" lon="2.61497">
        <ele>101.398</ele>
        <time>2015-03-22T08:44:32.336Z</time>
      </trkpt>
      <trkpt lat="48.41659" lon="2.61473">
        <ele>101.023</ele>
        <time>2015-03-22T08:44:35.052Z</time>
      </trkpt>
      <trkpt lat="48.4166" lon="2.61455">
        <ele>100.165</ele>
        <time>2015-03-22T08:44:37.077Z</time>
      </trkpt>
      <trkpt lat="48.41661" lon="2.61433">
        <ele>99.35</ele>
        <time>2015-03-22T08:44:39.594Z</time>
      </trkpt>
      <trkpt lat="48.41662" lon="2.61413">
        <ele>99.059</ele>
        <time>2015-03-22T08:44:42.026Z</time>
      </trkpt>
      <trkpt lat="48.41662" lon="2.61399">
        <ele>98.773</ele>
        <time>2015-03-22T08:44:43.738Z</time>
      </trkpt>
      <trkpt lat="48.41663" lon="2.61383">
        <ele>98.01</ele>
        <time>2015-03-22T08:44:45.738Z</time>
      </trkpt>
      <trkpt lat="48.41663" lon="2.61365">
        <ele>97.252</ele>
        <time>2015-03-22T08:44:48.269Z</time>
      </trkpt>
      <trkpt lat="48.41664" lon="2.61342">
        <ele>97.059</ele>
        <time>2015-03-22T08:44:51.448Z</time>
      </trkpt>
      <trkpt lat="48.41665" lon="2.61324">
        <ele>97.551</ele>
        <time>2015-03-22T08:44:54.134Z</time>
      </trkpt>
      <trkpt lat="48.41665" lon="2.61306">
        <ele>98.436</ele>
        <time>2015-03-22T08:44:56.779Z</time>
      </trkpt>
      <trkpt lat="48.41665" lon="2.6129">
        <ele>99.057</ele>
        <time>2015-03-22T08:44:59.224Z</time>
      </trkpt>
      <trkpt lat="48.41665" lon="2.61272">
        <ele>99.167</ele>
        <time>2015-03-22T08:45:01.986Z</time>
      </trkpt>
      <trkpt lat="48.41665" lon="2.61254">
        <ele>98.977</ele>
        <time>2015-03-22T08:45:04.752Z</time>
      </trkpt>
      <trkpt lat="48.41664" lon="2.61235">
        <ele>98.426</ele>
        <time>2015-03-22T08:45:07.712Z</time>
      </trkpt>
      <trkpt lat="48.41664" lon="2.61217">
        <ele>97.348</ele>
        <time>2015-03-22T08:45:10.680Z</time>
      </trkpt>
      <trkpt lat="48.41663" lon="2.61201">
        <ele>96.019</ele>
        <time>2015-03-22T08:45:13.119Z</time>
      </trkpt>
      <trkpt lat="48.41662" lon="2.61185">
        <ele>94.908</ele>
        <time>2015-03-22T08:45:15.719Z</time>
      </trkpt>
      <trkpt lat="48.41662" lon="2.61167">
        <ele>94.138</ele>
        <time>2015-03-22T08:45:18.712Z</time>
      </trkpt>
      <trkpt lat="48.41662" lon="2.61151">
        <ele>93.699</ele>
        <time>2015-03-22T08:45:21.392Z</time>
      </trkpt>
      <trkpt lat="48.4166" lon="2.61134">
        <ele>94.182</ele>
        <time>2015-03-22T08:45:24.223Z</time>
      </trkpt>
      <trkpt lat="48.41658" lon="2.6112">
        <ele>95.928</ele>
        <time>2015-03-22T08:45:26.520Z</time>
      </trkpt>
      <trkpt lat="48.41658" lon="2.611">
        <ele>97.972</ele>
        <time>2015-03-22T08:45:29.942Z</time>
      </trkpt>
      <trkpt lat="48.41657" lon="2.61082">
        <ele>98.917</ele>
        <time>2015-03-22T08:45:33.148Z</time>
      </trkpt>
      <trkpt lat="48.41655" lon="2.61055">
        <ele>98.269</ele>
        <time>2015-03-22T08:45:37.761Z</time>
      </trkpt>
      <trkpt lat="48.41652" lon="2.61032">
        <ele>96.65</ele>
        <time>2015-03-22T08:45:41.339Z</time>
      </trkpt>
      <trkpt lat="48.41647" lon="2.60992">
        <ele>94.961</ele>
        <time>2015-03-22T08:45:45.862Z</time>
      </trkpt>
      <trkpt lat="48.41642" lon="2.60955">
        <ele>93.113</ele>
        <time>2015-03-22T08:45:48.992Z</time>
      </trkpt>
      <trkpt lat="48.41639" lon="2.60929">
        <ele>90.715</ele>
        <time>2015-03-22T08:45:51.021Z</time>
      </trkpt>
      <trkpt lat="48.41636" lon="2.60904">
        <ele>88.299</ele>
        <time>2015-03-22T08:45:52.998Z</time>
      </trkpt>
      <trkpt lat="48.41633" lon="2.60881">
        <ele>86.673</ele>
        <time>2015-03-22T08:45:54.919Z</time>
      </trkpt>
      <trkpt lat="48.41629" lon="2.60845">
        <ele>85.843</ele>
        <time>2015-03-22T08:45:57.980Z</time>
      </trkpt>
      <trkpt lat="48.41626" lon="2.60823">
        <ele>85.506</ele>
        <time>2015-03-22T08:45:59.895Z</time>
      </trkpt>
      <trkpt lat="48.41623" lon="2.60796">
        <ele>85.463</ele>
        <time>2015-03-22T08:46:02.914Z</time>
      </trkpt>
      <trkpt lat="48.41621" lon="2.60781">
        <ele>84.741</ele>
        <time>2015-03-22T08:46:05.434Z</time>
      </trkpt>
      <trkpt lat="48.41621" lon="2.60781">
        <ele>82.853</ele>
        <time>2015-03-22T08:46:07.406Z</time>
      </trkpt>
      <trkpt lat="48.41621" lon="2.60781">
        <ele>81.326</ele>
        <time>2015-03-22T08:46:09.407Z</time>
      </trkpt>
      <trkpt lat="48.41621" lon="2.60781">
        <ele>81.325</ele>
        <time>2015-03-22T08:46:09.507Z</time>
      </trkpt>
      <trkpt lat="48.41621" lon="2.60781">
        <ele>81.902</ele>
        <time>2015-03-22T08:46:41.405Z</time>
      </trkpt>
      <trkpt lat="48.41621" lon="2.60781">
        <ele>81.628</ele>
        <time>2015-03-22T08:46:41.505Z</time>
      </trkpt>
      <trkpt lat="48.41621" lon="2.60781">
        <ele>81.669</ele>
        <time>2015-03-22T08:46:52.409Z</time>
      </trkpt>
      <trkpt lat="48.41621" lon="2.60781">
        <ele>81.742</ele>
        <time>2015-03-22T08:52:59.853Z</time>
      </trkpt>
      <trkpt lat="48.41605" lon="2.60755">
        <ele>81.706</ele>
        <time>2015-03-22T08:53:23.924Z</time>
      </trkpt>
      <trkpt lat="48.41599" lon="2.60744">
        <ele>82.418</ele>
        <time>2015-03-22T08:53:27.233Z</time>
      </trkpt>
      <trkpt lat="48.41591" lon="2.60726">
        <ele>84.431</ele>
        <time>2015-03-22T08:53:31.123Z</time>
      </trkpt>
      <trkpt lat="48.41582" lon="2.60708">
        <ele>86.152</ele>
        <time>2015-03-22T08:53:34.504Z</time>
      </trkpt>
      <trkpt lat="48.41575" lon="2.60694">
        <ele>85.847</ele>
        <time>2015-03-22T08:53:36.734Z</time>
      </trkpt>
      <trkpt lat="48.41565" lon="2.60674">
        <ele>84.152</ele>
        <time>2015-03-22T08:53:39.999Z</time>
      </trkpt>
      <trkpt lat="48.41556" lon="2.60657">
        <ele>82.769</ele>
        <time>2015-03-22T08:53:42.858Z</time>
      </trkpt>
      <trkpt lat="48.41547" lon="2.6064">
        <ele>82.445</ele>
        <time>2015-03-22T08:53:45.548Z</time>
      </trkpt>
      <trkpt lat="48.41538" lon="2.60625">
        <ele>82.754</ele>
        <time>2015-03-22T08:53:48.199Z</time>
      </trkpt>
      <trkpt lat="48.41528" lon="2.60608">
        <ele>83.424</ele>
        <time>2015-03-22T08:53:51.076Z</time>
      </trkpt>
      <trkpt lat="48.41522" lon="2.60595">
        <ele>84.401</ele>
        <time>2015-03-22T08:53:53.050Z</time>
      </trkpt>
      <trkpt lat="48.41512" lon="2.60578">
        <ele>85.013</ele>
        <time>2015-03-22T08:53:55.879Z</time>
      </trkpt>
      <trkpt lat="48.41506" lon="2.60567">
        <ele>84.796</ele>
        <time>2015-03-22T08:53:57.681Z</time>
      </trkpt>
      <trkpt lat="48.41498" lon="2.60555">
        <ele>84.243</ele>
        <time>2015-03-22T08:53:59.769Z</time>
      </trkpt>
      <trkpt lat="48.41492" lon="2.60543">
        <ele>83.419</ele>
        <time>2015-03-22T08:54:01.705Z</time>
      </trkpt>
      <trkpt lat="48.41483" lon="2.60525">
        <ele>82.004</ele>
        <time>2015-03-22T08:54:04.623Z</time>
      </trkpt>
      <trkpt lat="48.41475" lon="2.6051">
        <ele>80.553</ele>
        <time>2015-03-22T08:54:07.432Z</time>
      </trkpt>
      <trkpt lat="48.41467" lon="2.60497">
        <ele>79.964</ele>
        <time>2015-03-22T08:54:09.803Z</time>
      </trkpt>
      <trkpt lat="48.41459" lon="2.6048">
        <ele>80.314</ele>
        <time>2015-03-22T08:54:12.689Z</time>
      </trkpt>
      <trkpt lat="48.41451" lon="2.60464">
        <ele>81.004</ele>
        <time>2015-03-22T08:54:15.625Z</time>
      </trkpt>
      <trkpt lat="48.41442" lon="2.60449">
        <ele>81.464</ele>
        <time>2015-03-22T08:54:18.462Z</time>
      </trkpt>
      <trkpt lat="48.41434" lon="2.60434">
        <ele>81.548</ele>
        <time>2015-03-22T08:54:21.375Z</time>
      </trkpt>
      <trkpt lat="48.41427" lon="2.60423">
        <ele>81.202</ele>
        <time>2015-03-22T08:54:23.626Z</time>
      </trkpt>
      <trkpt lat="48.41421" lon="2.60413">
        <ele>80.562</ele>
        <time>2015-03-22T08:54:25.671Z</time>
      </trkpt>
      <trkpt lat="48.41412" lon="2.60397">
        <ele>80.066</ele>
        <time>2015-03-22T08:54:28.694Z</time>
      </trkpt>
      <trkpt lat="48.41406" lon="2.60386">
        <ele>80.596</ele>
        <time>2015-03-22T08:54:30.690Z</time>
      </trkpt>
      <trkpt lat="48.41397" lon="2.6037">
        <ele>82.37</ele>
        <time>2015-03-22T08:54:33.598Z</time>
      </trkpt>
      <trkpt lat="48.41388" lon="2.60354">
        <ele>84.006</ele>
        <time>2015-03-22T08:54:36.522Z</time>
      </trkpt>
      <trkpt lat="48.41379" lon="2.60338">
        <ele>84.376</ele>
        <time>2015-03-22T08:54:39.379Z</time>
      </trkpt>
      <trkpt lat="48.41373" lon="2.60328">
        <ele>83.992</ele>
        <time>2015-03-22T08:54:41.248Z</time>
      </trkpt>
      <trkpt lat="48.41367" lon="2.60317">
        <ele>83.608</ele>
        <time>2015-03-22T08:54:43.177Z</time>
      </trkpt>
      <trkpt lat="48.41362" lon="2.60306">
        <ele>83.44</ele>
        <time>2015-03-22T08:54:45.042Z</time>
      </trkpt>
      <trkpt lat="48.41353" lon="2.60289">
        <ele>83.292</ele>
        <time>2015-03-22T08:54:47.880Z</time>
      </trkpt>
      <trkpt lat="48.41346" lon="2.60272">
        <ele>82.791</ele>
        <time>2015-03-22T08:54:50.724Z</time>
      </trkpt>
      <trkpt lat="48.41336" lon="2.60255">
        <ele>81.96</ele>
        <time>2015-03-22T08:54:53.896Z</time>
      </trkpt>
      <trkpt lat="48.41328" lon="2.60242">
        <ele>81.395</ele>
        <time>2015-03-22T08:54:56.505Z</time>
      </trkpt>
      <trkpt lat="48.4132" lon="2.60231">
        <ele>81.516</ele>
        <time>2015-03-22T08:54:58.935Z</time>
      </trkpt>
      <trkpt lat="48.41313" lon="2.60218">
        <ele>82.076</ele>
        <time>2015-03-22T08:55:01.780Z</time>
      </trkpt>
      <trkpt lat="48.41304" lon="2.60199">
        <ele>82.612</ele>
        <time>2015-03-22T08:55:05.624Z</time>
      </trkpt>
      <trkpt lat="48.41298" lon="2.60184">
        <ele>82.384</ele>
        <time>2015-03-22T08:55:08.380Z</time>
      </trkpt>
      <trkpt lat="48.41288" lon="2.60167">
        <ele>81.041</ele>
        <time>2015-03-22T08:55:11.879Z</time>
      </trkpt>
      <trkpt lat="48.41281" lon="2.60156">
        <ele>79.266</ele>
        <time>2015-03-22T08:55:14.095Z</time>
      </trkpt>
      <trkpt lat="48.41275" lon="2.60145">
        <ele>77.903</ele>
        <time>2015-03-22T08:55:16.197Z</time>
      </trkpt>
      <trkpt lat="48.41265" lon="2.6013">
        <ele>77.182</ele>
        <time>2015-03-22T08:55:19.307Z</time>
      </trkpt>
      <trkpt lat="48.4126" lon="2.60118">
        <ele>77.054</ele>
        <time>2015-03-22T08:55:21.337Z</time>
      </trkpt>
      <trkpt lat="48.41252" lon="2.60103">
        <ele>77.265</ele>
        <time>2015-03-22T08:55:24.127Z</time>
      </trkpt>
      <trkpt lat="48.41242" lon="2.60088">
        <ele>77.897</ele>
        <time>2015-03-22T08:55:27.122Z</time>
      </trkpt>
      <trkpt lat="48.41235" lon="2.60076">
        <ele>78.998</ele>
        <time>2015-03-22T08:55:29.390Z</time>
      </trkpt>
      <trkpt lat="48.41227" lon="2.6006">
        <ele>80.226</ele>
        <time>2015-03-22T08:55:32.277Z</time>
      </trkpt>
      <trkpt lat="48.41218" lon="2.60044">
        <ele>81.092</ele>
        <time>2015-03-22T08:55:35.293Z</time>
      </trkpt>
      <trkpt lat="48.41208" lon="2.6003">
        <ele>81.432</ele>
        <time>2015-03-22T08:55:38.305Z</time>
      </trkpt>
      <trkpt lat="48.412" lon="2.60016">
        <ele>81.442</ele>
        <time>2015-03-22T08:55:41.127Z</time>
      </trkpt>
      <trkpt lat="48.41191" lon="2.6">
        <ele>81.734</ele>
        <time>2015-03-22T08:55:44.289Z</time>
      </trkpt>
      <trkpt lat="48.41182" lon="2.59983">
        <ele>82.522</ele>
        <time>2015-03-22T08:55:47.541Z</time>
      </trkpt>
      <trkpt lat="48.41175" lon="2.59966">
        <ele>82.984</ele>
        <time>2015-03-22T08:55:50.572Z</time>
      </trkpt>
      <trkpt lat="48.41168" lon="2.59957">
        <ele>82.383</ele>
        <time>2015-03-22T08:55:52.653Z</time>
      </trkpt>
      <trkpt lat="48.41159" lon="2.59942">
        <ele>81.324</ele>
        <time>2015-03-22T08:55:55.657Z</time>
      </trkpt>
      <trkpt lat="48.4115" lon="2.59924">
        <ele>80.67</ele>
        <time>2015-03-22T08:55:58.877Z</time>
      </trkpt>
      <trkpt lat="48.41144" lon="2.59913">
        <ele>80.548</ele>
        <time>2015-03-22T08:56:01.082Z</time>
      </trkpt>
      <trkpt lat="48.41136" lon="2.59899">
        <ele>80.345</ele>
        <time>2015-03-22T08:56:04.027Z</time>
      </trkpt>
      <trkpt lat="48.41128" lon="2.59884">
        <ele>79.586</ele>
        <time>2015-03-22T08:56:07.620Z</time>
      </trkpt>
      <trkpt lat="48.41121" lon="2.59875">
        <ele>78.697</ele>
        <time>2015-03-22T08:56:10.433Z</time>
      </trkpt>
      <trkpt lat="48.41114" lon="2.59862">
        <ele>78.545</ele>
        <time>2015-03-22T08:56:13.553Z</time>
      </trkpt>
      <trkpt lat="48.41108" lon="2.59851">
        <ele>79.284</ele>
        <time>2015-03-22T08:56:16.334Z</time>
      </trkpt>
      <trkpt lat="48.411" lon="2.59838">
        <ele>79.968</ele>
        <time>2015-03-22T08:56:19.422Z</time>
      </trkpt>
      <trkpt lat="48.41092" lon="2.59822">
        <ele>79.767</ele>
        <time>2015-03-22T08:56:22.575Z</time>
      </trkpt>
      <trkpt lat="48.41085" lon="2.59809">
        <ele>79.002</ele>
        <time>2015-03-22T08:56:25.054Z</time>
      </trkpt>
      <trkpt lat="48.4108" lon="2.59797">
        <ele>78.305</ele>
        <time>2015-03-22T08:56:27.235Z</time>
      </trkpt>
      <trkpt lat="48.41072" lon="2.59776">
        <ele>77.938</ele>
        <time>2015-03-22T08:56:30.613Z</time>
      </trkpt>
      <trkpt lat="48.41063" lon="2.59758">
        <ele>77.8</ele>
        <time>2015-03-22T08:56:33.843Z</time>
      </trkpt>
      <trkpt lat="48.41053" lon="2.59742">
        <ele>77.69</ele>
        <time>2015-03-22T08:56:36.864Z</time>
      </trkpt>
      <trkpt lat="48.41044" lon="2.59722">
        <ele>77.885</ele>
        <time>2015-03-22T08:56:40.330Z</time>
      </trkpt>
      <trkpt lat="48.41039" lon="2.59711">
        <ele>78.645</ele>
        <time>2015-03-22T08:56:42.258Z</time>
      </trkpt>
      <trkpt lat="48.41029" lon="2.59696">
        <ele>79.535</ele>
        <time>2015-03-22T08:56:45.133Z</time>
      </trkpt>
      <trkpt lat="48.41019" lon="2.59679">
        <ele>80.035</ele>
        <time>2015-03-22T08:56:48.397Z</time>
      </trkpt>
      <trkpt lat="48.41013" lon="2.59667">
        <ele>80.086</ele>
        <time>2015-03-22T08:56:50.478Z</time>
      </trkpt>
      <trkpt lat="48.41002" lon="2.5965">
        <ele>79.863</ele>
        <time>2015-03-22T08:56:54.210Z</time>
      </trkpt>
      <trkpt lat="48.40995" lon="2.59638">
        <ele>79.765</ele>
        <time>2015-03-22T08:56:56.857Z</time>
      </trkpt>
      <trkpt lat="48.40987" lon="2.59625">
        <ele>80.008</ele>
        <time>2015-03-22T08:56:59.717Z</time>
      </trkpt>
      <trkpt lat="48.40979" lon="2.59609">
        <ele>80.193</ele>
        <time>2015-03-22T08:57:02.735Z</time>
      </trkpt>
      <trkpt lat="48.40971" lon="2.59593">
        <ele>79.854</ele>
        <time>2015-03-22T08:57:05.960Z</time>
      </trkpt>
      <trkpt lat="48.40963" lon="2.59578">
        <ele>79.041</ele>
        <time>2015-03-22T08:57:09.404Z</time>
      </trkpt>
      <trkpt lat="48.40958" lon="2.59561">
        <ele>77.921</ele>
        <time>2015-03-22T08:57:12.664Z</time>
      </trkpt>
      <trkpt lat="48.40958" lon="2.59545">
        <ele>76.739</ele>
        <time>2015-03-22T08:57:15.578Z</time>
      </trkpt>
      <trkpt lat="48.40959" lon="2.59528">
        <ele>76.289</ele>
        <time>2015-03-22T08:57:18.214Z</time>
      </trkpt>
      <trkpt lat="48.4096" lon="2.59507">
        <ele>77.188</ele>
        <time>2015-03-22T08:57:21.379Z</time>
      </trkpt>
      <trkpt lat="48.40961" lon="2.59483">
        <ele>78.811</ele>
        <time>2015-03-22T08:57:24.801Z</time>
      </trkpt>
      <trkpt lat="48.40962" lon="2.5947">
        <ele>79.818</ele>
        <time>2015-03-22T08:57:26.711Z</time>
      </trkpt>
      <trkpt lat="48.40966" lon="2.59447">
        <ele>79.559</ele>
        <time>2015-03-22T08:57:29.928Z</time>
      </trkpt>
      <trkpt lat="48.40968" lon="2.59423">
        <ele>78.551</ele>
        <time>2015-03-22T08:57:33.437Z</time>
      </trkpt>
      <trkpt lat="48.4097" lon="2.59403">
        <ele>77.679</ele>
        <time>2015-03-22T08:57:36.336Z</time>
      </trkpt>
      <trkpt lat="48.40971" lon="2.59383">
        <ele>77.298</ele>
        <time>2015-03-22T08:57:39.388Z</time>
      </trkpt>
      <trkpt lat="48.40973" lon="2.59364">
        <ele>77.299</ele>
        <time>2015-03-22T08:57:42.396Z</time>
      </trkpt>
      <trkpt lat="48.40974" lon="2.59347">
        <ele>77.486</ele>
        <time>2015-03-22T08:57:45.037Z</time>
      </trkpt>
      <trkpt lat="48.40976" lon="2.59331">
        <ele>78.314</ele>
        <time>2015-03-22T08:57:47.761Z</time>
      </trkpt>
      <trkpt lat="48.40976" lon="2.59314">
        <ele>80.115</ele>
        <time>2015-03-22T08:57:50.552Z</time>
      </trkpt>
      <trkpt lat="48.40977" lon="2.59298">
        <ele>82.217</ele>
        <time>2015-03-22T08:57:53.037Z</time>
      </trkpt>
      <trkpt lat="48.40978" lon="2.59284">
        <ele>83.815</ele>
        <time>2015-03-22T08:57:55.102Z</time>
      </trkpt>
      <trkpt lat="48.40978" lon="2.59264">
        <ele>84.624</ele>
        <time>2015-03-22T08:57:58.127Z</time>
      </trkpt>
      <trkpt lat="48.40979" lon="2.5925">
        <ele>84.406</ele>
        <time>2015-03-22T08:58:00.223Z</time>
      </trkpt>
      <trkpt lat="48.40981" lon="2.59229">
        <ele>83.227</ele>
        <time>2015-03-22T08:58:03.713Z</time>
      </trkpt>
      <trkpt lat="48.40983" lon="2.59215">
        <ele>81.69</ele>
        <time>2015-03-22T08:58:06.250Z</time>
      </trkpt>
      <trkpt lat="48.4098" lon="2.59201">
        <ele>80.876</ele>
        <time>2015-03-22T08:58:08.987Z</time>
      </trkpt>
      <trkpt lat="48.40971" lon="2.59193">
        <ele>81.742</ele>
        <time>2015-03-22T08:58:12.081Z</time>
      </trkpt>
      <trkpt lat="48.40962" lon="2.59193">
        <ele>81.864</ele>
        <time>2015-03-22T08:58:14.887Z</time>
      </trkpt>
      <trkpt lat="48.40953" lon="2.59197">
        <ele>81.667</ele>
        <time>2015-03-22T08:58:17.836Z</time>
      </trkpt>
      <trkpt lat="48.40941" lon="2.592">
        <ele>81.238</ele>
        <time>2015-03-22T08:58:21.635Z</time>
      </trkpt>
      <trkpt lat="48.40932" lon="2.59201">
        <ele>80.517</ele>
        <time>2015-03-22T08:58:24.750Z</time>
      </trkpt>
      <trkpt lat="48.4092" lon="2.59203">
        <ele>80.071</ele>
        <time>2015-03-22T08:58:28.741Z</time>
      </trkpt>
      <trkpt lat="48.4091" lon="2.59212">
        <ele>80.357</ele>
        <time>2015-03-22T08:58:32.876Z</time>
      </trkpt>
      <trkpt lat="48.40902" lon="2.59221">
        <ele>81.418</ele>
        <time>2015-03-22T08:58:36.362Z</time>
      </trkpt>
      <trkpt lat="48.40893" lon="2.59228">
        <ele>81.85</ele>
        <time>2015-03-22T08:58:40.505Z</time>
      </trkpt>
      <trkpt lat="48.40882" lon="2.59231">
        <ele>82.487</ele>
        <time>2015-03-22T08:58:44.900Z</time>
      </trkpt>
      <trkpt lat="48.40873" lon="2.59236">
        <ele>83.974</ele>
        <time>2015-03-22T08:58:49.593Z</time>
      </trkpt>
      <trkpt lat="48.40865" lon="2.59244">
        <ele>86.359</ele>
        <time>2015-03-22T08:58:55.389Z</time>
      </trkpt>
      <trkpt lat="48.40857" lon="2.59251">
        <ele>88.684</ele>
        <time>2015-03-22T08:59:01.411Z</time>
      </trkpt>
      <trkpt lat="48.40857" lon="2.59251">
        <ele>90.196</ele>
        <time>2015-03-22T08:59:01.411Z</time>
      </trkpt>
      <trkpt lat="48.40857" lon="2.59251">
        <ele>90.767</ele>
        <time>2015-03-22T08:59:01.511Z</time>
      </trkpt>
      <trkpt lat="48.4084" lon="2.5926">
        <ele>90.638</ele>
        <time>2015-03-22T08:59:21.024Z</time>
      </trkpt>
      <trkpt lat="48.4083" lon="2.59262">
        <ele>90.567</ele>
        <time>2015-03-22T08:59:25.172Z</time>
      </trkpt>
      <trkpt lat="48.40821" lon="2.59264">
        <ele>91.272</ele>
        <time>2015-03-22T08:59:29.125Z</time>
      </trkpt>
      <trkpt lat="48.40813" lon="2.59271">
        <ele>92.657</ele>
        <time>2015-03-22T08:59:33.315Z</time>
      </trkpt>
      <trkpt lat="48.40805" lon="2.59276">
        <ele>94.391</ele>
        <time>2015-03-22T08:59:37.631Z</time>
      </trkpt>
      <trkpt lat="48.40796" lon="2.59282">
        <ele>93.814</ele>
        <time>2015-03-22T08:59:42.937Z</time>
      </trkpt>
      <trkpt lat="48.40787" lon="2.59285">
        <ele>94.007</ele>
        <time>2015-03-22T08:59:48.022Z</time>
      </trkpt>
      <trkpt lat="48.40775" lon="2.59286">
        <ele>96.316</ele>
        <time>2015-03-22T08:59:53.455Z</time>
      </trkpt>
      <trkpt lat="48.40765" lon="2.59288">
        <ele>99.219</ele>
        <time>2015-03-22T08:59:57.832Z</time>
      </trkpt>
      <trkpt lat="48.40755" lon="2.59285">
        <ele>101.845</ele>
        <time>2015-03-22T09:00:02.540Z</time>
      </trkpt>
      <trkpt lat="48.40745" lon="2.59282">
        <ele>103.217</ele>
        <time>2015-03-22T09:00:07.162Z</time>
      </trkpt>
      <trkpt lat="48.40737" lon="2.59274">
        <ele>104.564</ele>
        <time>2015-03-22T09:00:11.697Z</time>
      </trkpt>
      <trkpt lat="48.40731" lon="2.59264">
        <ele>105.187</ele>
        <time>2015-03-22T09:00:16.108Z</time>
      </trkpt>
      <trkpt lat="48.40726" lon="2.59252">
        <ele>105.531</ele>
        <time>2015-03-22T09:00:20.764Z</time>
      </trkpt>
      <trkpt lat="48.40723" lon="2.59238">
        <ele>106.301</ele>
        <time>2015-03-22T09:00:25.815Z</time>
      </trkpt>
      <trkpt lat="48.40723" lon="2.59223">
        <ele>107.992</ele>
        <time>2015-03-22T09:00:30.668Z</time>
      </trkpt>
      <trkpt lat="48.40723" lon="2.59207">
        <ele>107.334</ele>
        <time>2015-03-22T09:00:35.980Z</time>
      </trkpt>
      <trkpt lat="48.40719" lon="2.59193">
        <ele>106.07</ele>
        <time>2015-03-22T09:00:41.276Z</time>
      </trkpt>
      <trkpt lat="48.40709" lon="2.59196">
        <ele>106.034</ele>
        <time>2015-03-22T09:00:47.983Z</time>
      </trkpt>
      <trkpt lat="48.40701" lon="2.59206">
        <ele>108.451</ele>
        <time>2015-03-22T09:00:55.589Z</time>
      </trkpt>
      <trkpt lat="48.40692" lon="2.59213">
        <ele>111.541</ele>
        <time>2015-03-22T09:01:02.411Z</time>
      </trkpt>
      <trkpt lat="48.40692" lon="2.59213">
        <ele>112.799</ele>
        <time>2015-03-22T09:01:02.411Z</time>
      </trkpt>
      <trkpt lat="48.40692" lon="2.59213">
        <ele>112.421</ele>
        <time>2015-03-22T09:01:02.511Z</time>
      </trkpt>
      <trkpt lat="48.40683" lon="2.59224">
        <ele>111.95</ele>
        <time>2015-03-22T09:01:12.321Z</time>
      </trkpt>
      <trkpt lat="48.40673" lon="2.59223">
        <ele>112.109</ele>
        <time>2015-03-22T09:01:18.051Z</time>
      </trkpt>
      <trkpt lat="48.40664" lon="2.59216">
        <ele>113.389</ele>
        <time>2015-03-22T09:01:23.205Z</time>
      </trkpt>
      <trkpt lat="48.40658" lon="2.59207">
        <ele>115.74</ele>
        <time>2015-03-22T09:01:28.412Z</time>
      </trkpt>
      <trkpt lat="48.40658" lon="2.59207">
        <ele>117.944</ele>
        <time>2015-03-22T09:01:31.415Z</time>
      </trkpt>
      <trkpt lat="48.40658" lon="2.59207">
        <ele>118.86</ele>
        <time>2015-03-22T09:01:31.515Z</time>
      </trkpt>
      <trkpt lat="48.40636" lon="2.59206">
        <ele>118.687</ele>
        <time>2015-03-22T09:02:56.771Z</time>
      </trkpt>
      <trkpt lat="48.40624" lon="2.59197">
        <ele>118.91</ele>
        <time>2015-03-22T09:02:59.835Z</time>
      </trkpt>
      <trkpt lat="48.40616" lon="2.59178">
        <ele>120.499</ele>
        <time>2015-03-22T09:03:02.074Z</time>
      </trkpt>
      <trkpt lat="48.40614" lon="2.59143">
        <ele>121.806</ele>
        <time>2015-03-22T09:03:04.971Z</time>
      </trkpt>
      <trkpt lat="48.40621" lon="2.59104">
        <ele>120.803</ele>
        <time>2015-03-22T09:03:08.207Z</time>
      </trkpt>
      <trkpt lat="48.40627" lon="2.59063">
        <ele>117.912</ele>
        <time>2015-03-22T09:03:11.587Z</time>
      </trkpt>
      <trkpt lat="48.40623" lon="2.59037">
        <ele>114.606</ele>
        <time>2015-03-22T09:03:13.622Z</time>
      </trkpt>
      <trkpt lat="48.40614" lon="2.59019">
        <ele>111.401</ele>
        <time>2015-03-22T09:03:15.293Z</time>
      </trkpt>
      <trkpt lat="48.40592" lon="2.59009">
        <ele>108.105</ele>
        <time>2015-03-22T09:03:18.034Z</time>
      </trkpt>
      <trkpt lat="48.40571" lon="2.59011">
        <ele>104.793</ele>
        <time>2015-03-22T09:03:20.450Z</time>
      </trkpt>
      <trkpt lat="48.40546" lon="2.59003">
        <ele>101.778</ele>
        <time>2015-03-22T09:03:23.520Z</time>
      </trkpt>
      <trkpt lat="48.40535" lon="2.58986">
        <ele>99.234</ele>
        <time>2015-03-22T09:03:25.416Z</time>
      </trkpt>
      <trkpt lat="48.40525" lon="2.58968">
        <ele>97.335</ele>
        <time>2015-03-22T09:03:27.808Z</time>
      </trkpt>
      <trkpt lat="48.40502" lon="2.58948">
        <ele>96.13</ele>
        <time>2015-03-22T09:03:31.582Z</time>
      </trkpt>
      <trkpt lat="48.40483" lon="2.58929">
        <ele>94.97</ele>
        <time>2015-03-22T09:03:34.442Z</time>
      </trkpt>
      <trkpt lat="48.40485" lon="2.58898">
        <ele>92.952</ele>
        <time>2015-03-22T09:03:37.053Z</time>
      </trkpt>
      <trkpt lat="48.40487" lon="2.58861">
        <ele>90.121</ele>
        <time>2015-03-22T09:03:40.215Z</time>
      </trkpt>
      <trkpt lat="48.40485" lon="2.58838">
        <ele>87.544</ele>
        <time>2015-03-22T09:03:42.289Z</time>
      </trkpt>
      <trkpt lat="48.40488" lon="2.58817">
        <ele>86.336</ele>
        <time>2015-03-22T09:03:44.421Z</time>
      </trkpt>
      <trkpt lat="48.40498" lon="2.5878">
        <ele>86.812</ele>
        <time>2015-03-22T09:03:48.714Z</time>
      </trkpt>
      <trkpt lat="48.40505" lon="2.58757">
        <ele>88.175</ele>
        <time>2015-03-22T09:03:51.474Z</time>
      </trkpt>
      <trkpt lat="48.40512" lon="2.58728">
        <ele>89.303</ele>
        <time>2015-03-22T09:03:54.793Z</time>
      </trkpt>
      <trkpt lat="48.40514" lon="2.58705">
        <ele>89.415</ele>
        <time>2015-03-22T09:03:57.110Z</time>
      </trkpt>
      <trkpt lat="48.40512" lon="2.58679">
        <ele>87.367</ele>
        <time>2015-03-22T09:03:59.607Z</time>
      </trkpt>
      <trkpt lat="48.40511" lon="2.5866">
        <ele>83.28</ele>
        <time>2015-03-22T09:04:01.846Z</time>
      </trkpt>
      <trkpt lat="48.40512" lon="2.5863">
        <ele>79.474</ele>
        <time>2015-03-22T09:04:05.262Z</time>
      </trkpt>
      <trkpt lat="48.40518" lon="2.58608">
        <ele>77.277</ele>
        <time>2015-03-22T09:04:07.756Z</time>
      </trkpt>
      <trkpt lat="48.40526" lon="2.58575">
        <ele>76.073</ele>
        <time>2015-03-22T09:04:11.186Z</time>
      </trkpt>
      <trkpt lat="48.40517" lon="2.58561">
        <ele>75.309</ele>
        <time>2015-03-22T09:04:13.111Z</time>
      </trkpt>
      <trkpt lat="48.40504" lon="2.58554">
        <ele>74.058</ele>
        <time>2015-03-22T09:04:15.027Z</time>
      </trkpt>
      <trkpt lat="48.40485" lon="2.58544">
        <ele>71.888</ele>
        <time>2015-03-22T09:04:18.029Z</time>
      </trkpt>
      <trkpt lat="48.40472" lon="2.58538">
        <ele>70.865</ele>
        <time>2015-03-22T09:04:20.072Z</time>
      </trkpt>
      <trkpt lat="48.4045" lon="2.58536">
        <ele>72.746</ele>
        <time>2015-03-22T09:04:23.353Z</time>
      </trkpt>
      <trkpt lat="48.40437" lon="2.58534">
        <ele>76.202</ele>
        <time>2015-03-22T09:04:25.363Z</time>
      </trkpt>
      <trkpt lat="48.40417" lon="2.58528">
        <ele>79.121</ele>
        <time>2015-03-22T09:04:28.471Z</time>
      </trkpt>
      <trkpt lat="48.40399" lon="2.58519">
        <ele>80.896</ele>
        <time>2015-03-22T09:04:31.558Z</time>
      </trkpt>
      <trkpt lat="48.40381" lon="2.58506">
        <ele>81.747</ele>
        <time>2015-03-22T09:04:34.789Z</time>
      </trkpt>
      <trkpt lat="48.40369" lon="2.58493">
        <ele>81.948</ele>
        <time>2015-03-22T09:04:37.023Z</time>
      </trkpt>
      <trkpt lat="48.40352" lon="2.58479">
        <ele>81.351</ele>
        <time>2015-03-22T09:04:40.138Z</time>
      </trkpt>
      <trkpt lat="48.40335" lon="2.58467">
        <ele>79.899</ele>
        <time>2015-03-22T09:04:43.365Z</time>
      </trkpt>
      <trkpt lat="48.40318" lon="2.58454">
        <ele>78.232</ele>
        <time>2015-03-22T09:04:47.061Z</time>
      </trkpt>
      <trkpt lat="48.40307" lon="2.58446">
        <ele>76.372</ele>
        <time>2015-03-22T09:04:49.962Z</time>
      </trkpt>
      <trkpt lat="48.40289" lon="2.58436">
        <ele>73.899</ele>
        <time>2015-03-22T09:04:53.863Z</time>
      </trkpt>
      <trkpt lat="48.40279" lon="2.5843">
        <ele>71.803</ele>
        <time>2015-03-22T09:04:56.015Z</time>
      </trkpt>
      <trkpt lat="48.40264" lon="2.58419">
        <ele>71.501</ele>
        <time>2015-03-22T09:04:59.639Z</time>
      </trkpt>
      <trkpt lat="48.40254" lon="2.58422">
        <ele>72.772</ele>
        <time>2015-03-22T09:05:01.836Z</time>
      </trkpt>
      <trkpt lat="48.40249" lon="2.5844">
        <ele>74.264</ele>
        <time>2015-03-22T09:05:04.804Z</time>
      </trkpt>
      <trkpt lat="48.40246" lon="2.58454">
        <ele>75.18</ele>
        <time>2015-03-22T09:05:07.155Z</time>
      </trkpt>
      <trkpt lat="48.40244" lon="2.58468">
        <ele>75.734</ele>
        <time>2015-03-22T09:05:09.358Z</time>
      </trkpt>
      <trkpt lat="48.40246" lon="2.58483">
        <ele>76.102</ele>
        <time>2015-03-22T09:05:11.606Z</time>
      </trkpt>
      <trkpt lat="48.40249" lon="2.58502">
        <ele>76.584</ele>
        <time>2015-03-22T09:05:14.499Z</time>
      </trkpt>
      <trkpt lat="48.40253" lon="2.58516">
        <ele>77.376</ele>
        <time>2015-03-22T09:05:16.695Z</time>
      </trkpt>
      <trkpt lat="48.40254" lon="2.58536">
        <ele>77.906</ele>
        <time>2015-03-22T09:05:19.592Z</time>
      </trkpt>
      <trkpt lat="48.40253" lon="2.58557">
        <ele>77.736</ele>
        <time>2015-03-22T09:05:23.061Z</time>
      </trkpt>
      <trkpt lat="48.40251" lon="2.58571">
        <ele>77.271</ele>
        <time>2015-03-22T09:05:26.925Z</time>
      </trkpt>
      <trkpt lat="48.40249" lon="2.58595">
        <ele>76.774</ele>
        <time>2015-03-22T09:05:33.715Z</time>
      </trkpt>
      <trkpt lat="48.40248" lon="2.58608">
        <ele>76.17</ele>
        <time>2015-03-22T09:05:36.711Z</time>
      </trkpt>
      <trkpt lat="48.40247" lon="2.58628">
        <ele>75.803</ele>
        <time>2015-03-22T09:05:40.418Z</time>
      </trkpt>
      <trkpt lat="48.40246" lon="2.58649">
        <ele>76.119</ele>
        <time>2015-03-22T09:05:44.320Z</time>
      </trkpt>
      <trkpt lat="48.40246" lon="2.58663">
        <ele>76.29</ele>
        <time>2015-03-22T09:05:46.875Z</time>
      </trkpt>
      <trkpt lat="48.40244" lon="2.58676">
        <ele>76.224</ele>
        <time>2015-03-22T09:05:49.577Z</time>
      </trkpt>
      <trkpt lat="48.4024" lon="2.5869">
        <ele>75.974</ele>
        <time>2015-03-22T09:05:52.755Z</time>
      </trkpt>
      <trkpt lat="48.40238" lon="2.58703">
        <ele>75.941</ele>
        <time>2015-03-22T09:05:55.930Z</time>
      </trkpt>
      <trkpt lat="48.40237" lon="2.58721">
        <ele>75.692</ele>
        <time>2015-03-22T09:06:00.202Z</time>
      </trkpt>
      <trkpt lat="48.40237" lon="2.58735">
        <ele>74.993</ele>
        <time>2015-03-22T09:06:04.035Z</time>
      </trkpt>
      <trkpt lat="48.40235" lon="2.58752">
        <ele>74.05</ele>
        <time>2015-03-22T09:06:08.251Z</time>
      </trkpt>
      <trkpt lat="48.40234" lon="2.58771">
        <ele>72.841</ele>
        <time>2015-03-22T09:06:13.101Z</time>
      </trkpt>
      <trkpt lat="48.40232" lon="2.58785">
        <ele>71.32</ele>
        <time>2015-03-22T09:06:16.372Z</time>
      </trkpt>
      <trkpt lat="48.40235" lon="2.58802">
        <ele>71.048</ele>
        <time>2015-03-22T09:06:20.104Z</time>
      </trkpt>
      <trkpt lat="48.40236" lon="2.58819">
        <ele>72.984</ele>
        <time>2015-03-22T09:06:23.733Z</time>
      </trkpt>
      <trkpt lat="48.40235" lon="2.58835">
        <ele>74.567</ele>
        <time>2015-03-22T09:06:27.263Z</time>
      </trkpt>
      <trkpt lat="48.40239" lon="2.58852">
        <ele>73.592</ele>
        <time>2015-03-22T09:06:31.204Z</time>
      </trkpt>
      <trkpt lat="48.40239" lon="2.5887">
        <ele>72.398</ele>
        <time>2015-03-22T09:06:35.185Z</time>
      </trkpt>
      <trkpt lat="48.40241" lon="2.58884">
        <ele>73.382</ele>
        <time>2015-03-22T09:06:38.413Z</time>
      </trkpt>
      <trkpt lat="48.40243" lon="2.589">
        <ele>75.331</ele>
        <time>2015-03-22T09:06:42.318Z</time>
      </trkpt>
      <trkpt lat="48.40244" lon="2.58916">
        <ele>75.516</ele>
        <time>2015-03-22T09:06:46.516Z</time>
      </trkpt>
      <trkpt lat="48.40245" lon="2.58931">
        <ele>73.252</ele>
        <time>2015-03-22T09:06:50.182Z</time>
      </trkpt>
      <trkpt lat="48.40246" lon="2.58946">
        <ele>71.99</ele>
        <time>2015-03-22T09:06:54.212Z</time>
      </trkpt>
      <trkpt lat="48.40247" lon="2.58963">
        <ele>74.474</ele>
        <time>2015-03-22T09:06:58.841Z</time>
      </trkpt>
      <trkpt lat="48.40248" lon="2.58978">
        <ele>78.248</ele>
        <time>2015-03-22T09:07:03.120Z</time>
      </trkpt>
      <trkpt lat="48.4025" lon="2.58993">
        <ele>80.412</ele>
        <time>2015-03-22T09:07:07.243Z</time>
      </trkpt>
      <trkpt lat="48.4025" lon="2.5901">
        <ele>80.917</ele>
        <time>2015-03-22T09:07:11.988Z</time>
      </trkpt>
      <trkpt lat="48.40251" lon="2.59025">
        <ele>80.595</ele>
        <time>2015-03-22T09:07:16.399Z</time>
      </trkpt>
      <trkpt lat="48.40254" lon="2.5904">
        <ele>80.541</ele>
        <time>2015-03-22T09:07:20.702Z</time>
      </trkpt>
      <trkpt lat="48.40255" lon="2.59056">
        <ele>81.291</ele>
        <time>2015-03-22T09:07:24.807Z</time>
      </trkpt>
      <trkpt lat="48.40257" lon="2.5907">
        <ele>82.415</ele>
        <time>2015-03-22T09:07:28.367Z</time>
      </trkpt>
      <trkpt lat="48.40258" lon="2.59085">
        <ele>83.352</ele>
        <time>2015-03-22T09:07:32.531Z</time>
      </trkpt>
      <trkpt lat="48.4026" lon="2.59099">
        <ele>84.252</ele>
        <time>2015-03-22T09:07:36.617Z</time>
      </trkpt>
      <trkpt lat="48.40261" lon="2.59115">
        <ele>85.421</ele>
        <time>2015-03-22T09:07:41.730Z</time>
      </trkpt>
      <trkpt lat="48.40263" lon="2.59131">
        <ele>86.788</ele>
        <time>2015-03-22T09:07:47.398Z</time>
      </trkpt>
      <trkpt lat="48.40265" lon="2.59145">
        <ele>87.947</ele>
        <time>2015-03-22T09:07:52.222Z</time>
      </trkpt>
      <trkpt lat="48.40265" lon="2.59159">
        <ele>88.618</ele>
        <time>2015-03-22T09:07:56.292Z</time>
      </trkpt>
      <trkpt lat="48.40266" lon="2.59173">
        <ele>88.813</ele>
        <time>2015-03-22T09:07:59.987Z</time>
      </trkpt>
      <trkpt lat="48.40268" lon="2.59188">
        <ele>89.187</ele>
        <time>2015-03-22T09:08:04.273Z</time>
      </trkpt>
      <trkpt lat="48.40271" lon="2.59203">
        <ele>90.256</ele>
        <time>2015-03-22T09:08:08.119Z</time>
      </trkpt>
      <trkpt lat="48.40273" lon="2.59219">
        <ele>91.547</ele>
        <time>2015-03-22T09:08:12.243Z</time>
      </trkpt>
      <trkpt lat="48.40275" lon="2.59233">
        <ele>92.328</ele>
        <time>2015-03-22T09:08:15.550Z</time>
      </trkpt>
      <trkpt lat="48.40274" lon="2.59248">
        <ele>92.502</ele>
        <time>2015-03-22T09:08:19.255Z</time>
      </trkpt>
      <trkpt lat="48.40276" lon="2.59265">
        <ele>92.453</ele>
        <time>2015-03-22T09:08:23.687Z</time>
      </trkpt>
      <trkpt lat="48.40276" lon="2.5928">
        <ele>92.886</ele>
        <time>2015-03-22T09:08:28.029Z</time>
      </trkpt>
      <trkpt lat="48.40275" lon="2.59293">
        <ele>93.96</ele>
        <time>2015-03-22T09:08:32.100Z</time>
      </trkpt>
      <trkpt lat="48.40278" lon="2.59306">
        <ele>94.398</ele>
        <time>2015-03-22T09:08:36.152Z</time>
      </trkpt>
      <trkpt lat="48.4028" lon="2.59321">
        <ele>93.36</ele>
        <time>2015-03-22T09:08:40.294Z</time>
      </trkpt>
      <trkpt lat="48.40282" lon="2.59335">
        <ele>92.053</ele>
        <time>2015-03-22T09:08:44.228Z</time>
      </trkpt>
      <trkpt lat="48.40285" lon="2.59348">
        <ele>92.161</ele>
        <time>2015-03-22T09:08:47.595Z</time>
      </trkpt>
      <trkpt lat="48.40286" lon="2.59364">
        <ele>93.754</ele>
        <time>2015-03-22T09:08:51.639Z</time>
      </trkpt>
      <trkpt lat="48.40288" lon="2.59381">
        <ele>95.774</ele>
        <time>2015-03-22T09:08:56.046Z</time>
      </trkpt>
      <trkpt lat="48.4029" lon="2.59397">
        <ele>97.33</ele>
        <time>2015-03-22T09:09:00.423Z</time>
      </trkpt>
      <trkpt lat="48.40291" lon="2.59411">
        <ele>97.596</ele>
        <time>2015-03-22T09:09:04.446Z</time>
      </trkpt>
      <trkpt lat="48.40292" lon="2.59425">
        <ele>95.242</ele>
        <time>2015-03-22T09:09:08.800Z</time>
      </trkpt>
      <trkpt lat="48.40291" lon="2.59442">
        <ele>95.866</ele>
        <time>2015-03-22T09:09:14.179Z</time>
      </trkpt>
      <trkpt lat="48.40288" lon="2.59457">
        <ele>97.616</ele>
        <time>2015-03-22T09:09:19.516Z</time>
      </trkpt>
      <trkpt lat="48.40284" lon="2.59477">
        <ele>99.278</ele>
        <time>2015-03-22T09:09:26.343Z</time>
      </trkpt>
      <trkpt lat="48.40282" lon="2.59492">
        <ele>100.361</ele>
        <time>2015-03-22T09:09:30.711Z</time>
      </trkpt>
      <trkpt lat="48.40279" lon="2.5951">
        <ele>101.047</ele>
        <time>2015-03-22T09:09:36.403Z</time>
      </trkpt>
      <trkpt lat="48.40279" lon="2.59524">
        <ele>102.104</ele>
        <time>2015-03-22T09:09:40.806Z</time>
      </trkpt>
      <trkpt lat="48.40276" lon="2.59539">
        <ele>103.863</ele>
        <time>2015-03-22T09:09:45.327Z</time>
      </trkpt>
      <trkpt lat="48.40274" lon="2.59556">
        <ele>105.806</ele>
        <time>2015-03-22T09:09:50.035Z</time>
      </trkpt>
      <trkpt lat="48.40274" lon="2.59574">
        <ele>107.395</ele>
        <time>2015-03-22T09:09:54.812Z</time>
      </trkpt>
      <trkpt lat="48.40275" lon="2.59588">
        <ele>108.325</ele>
        <time>2015-03-22T09:09:58.968Z</time>
      </trkpt>
      <trkpt lat="48.40275" lon="2.59603">
        <ele>108.577</ele>
        <time>2015-03-22T09:10:03.019Z</time>
      </trkpt>
      <trkpt lat="48.40274" lon="2.59617">
        <ele>108.567</ele>
        <time>2015-03-22T09:10:07.200Z</time>
      </trkpt>
      <trkpt lat="48.40274" lon="2.59631">
        <ele>108.589</ele>
        <time>2015-03-22T09:10:11.522Z</time>
      </trkpt>
      <trkpt lat="48.40276" lon="2.59645">
        <ele>108.07</ele>
        <time>2015-03-22T09:10:16.249Z</time>
      </trkpt>
      <trkpt lat="48.40277" lon="2.59661">
        <ele>106.615</ele>
        <time>2015-03-22T09:10:21.324Z</time>
      </trkpt>
      <trkpt lat="48.40276" lon="2.59676">
        <ele>105.714</ele>
        <time>2015-03-22T09:10:26.304Z</time>
      </trkpt>
      <trkpt lat="48.40274" lon="2.59691">
        <ele>106.593</ele>
        <time>2015-03-22T09:10:31.267Z</time>
      </trkpt>
      <trkpt lat="48.40273" lon="2.59707">
        <ele>108.129</ele>
        <time>2015-03-22T09:10:36.967Z</time>
      </trkpt>
      <trkpt lat="48.40271" lon="2.59723">
        <ele>109.145</ele>
        <time>2015-03-22T09:10:42.125Z</time>
      </trkpt>
      <trkpt lat="48.40269" lon="2.59738">
        <ele>109.321</ele>
        <time>2015-03-22T09:10:46.833Z</time>
      </trkpt>
      <trkpt lat="48.40264" lon="2.59753">
        <ele>109.444</ele>
        <time>2015-03-22T09:10:51.326Z</time>
      </trkpt>
      <trkpt lat="48.40259" lon="2.59765">
        <ele>109.326</ele>
        <time>2015-03-22T09:10:55.284Z</time>
      </trkpt>
      <trkpt lat="48.40254" lon="2.59777">
        <ele>108.874</ele>
        <time>2015-03-22T09:10:59.115Z</time>
      </trkpt>
      <trkpt lat="48.40248" lon="2.5979">
        <ele>108.321</ele>
        <time>2015-03-22T09:11:03.871Z</time>
      </trkpt>
      <trkpt lat="48.40244" lon="2.59805">
        <ele>108.227</ele>
        <time>2015-03-22T09:11:08.677Z</time>
      </trkpt>
      <trkpt lat="48.40244" lon="2.59821">
        <ele>108.743</ele>
        <time>2015-03-22T09:11:13.447Z</time>
      </trkpt>
      <trkpt lat="48.40244" lon="2.59837">
        <ele>110.495</ele>
        <time>2015-03-22T09:11:17.494Z</time>
      </trkpt>
      <trkpt lat="48.40245" lon="2.59854">
        <ele>113.647</ele>
        <time>2015-03-22T09:11:21.559Z</time>
      </trkpt>
      <trkpt lat="48.40246" lon="2.5987">
        <ele>116.485</ele>
        <time>2015-03-22T09:11:25.118Z</time>
      </trkpt>
      <trkpt lat="48.40246" lon="2.59884">
        <ele>117.648</ele>
        <time>2015-03-22T09:11:28.412Z</time>
      </trkpt>
      <trkpt lat="48.40245" lon="2.59898">
        <ele>117.653</ele>
        <time>2015-03-22T09:11:31.907Z</time>
      </trkpt>
      <trkpt lat="48.40244" lon="2.59912">
        <ele>117.429</ele>
        <time>2015-03-22T09:11:36.276Z</time>
      </trkpt>
      <trkpt lat="48.40242" lon="2.59929">
        <ele>117.545</ele>
        <time>2015-03-22T09:11:41.217Z</time>
      </trkpt>
      <trkpt lat="48.4024" lon="2.59945">
        <ele>118.311</ele>
        <time>2015-03-22T09:11:45.380Z</time>
      </trkpt>
      <trkpt lat="48.40238" lon="2.5996">
        <ele>117.964</ele>
        <time>2015-03-22T09:11:49.012Z</time>
      </trkpt>
      <trkpt lat="48.40237" lon="2.59976">
        <ele>116.627</ele>
        <time>2015-03-22T09:11:52.716Z</time>
      </trkpt>
      <trkpt lat="48.40234" lon="2.59991">
        <ele>115.956</ele>
        <time>2015-03-22T09:11:56.477Z</time>
      </trkpt>
      <trkpt lat="48.40232" lon="2.60005">
        <ele>114.799</ele>
        <time>2015-03-22T09:11:59.840Z</time>
      </trkpt>
      <trkpt lat="48.4023" lon="2.60022">
        <ele>114.146</ele>
        <time>2015-03-22T09:12:03.890Z</time>
      </trkpt>
      <trkpt lat="48.40227" lon="2.60038">
        <ele>114.898</ele>
        <time>2015-03-22T09:12:07.656Z</time>
      </trkpt>
      <trkpt lat="48.40224" lon="2.60055">
        <ele>116.4</ele>
        <time>2015-03-22T09:12:11.548Z</time>
      </trkpt>
      <trkpt lat="48.40222" lon="2.6007">
        <ele>117.725</ele>
        <time>2015-03-22T09:12:15.040Z</time>
      </trkpt>
      <trkpt lat="48.40222" lon="2.60083">
        <ele>118.693</ele>
        <time>2015-03-22T09:12:18.418Z</time>
      </trkpt>
      <trkpt lat="48.40222" lon="2.60083">
        <ele>119.412</ele>
        <time>2015-03-22T09:12:22.421Z</time>
      </trkpt>
      <trkpt lat="48.40222" lon="2.60083">
        <ele>119.787</ele>
        <time>2015-03-22T09:13:45.850Z</time>
      </trkpt>
      <trkpt lat="48.40226" lon="2.60106">
        <ele>119.706</ele>
        <time>2015-03-22T09:14:57.391Z</time>
      </trkpt>
      <trkpt lat="48.40228" lon="2.60122">
        <ele>120.342</ele>
        <time>2015-03-22T09:15:01.947Z</time>
      </trkpt>
      <trkpt lat="48.40231" lon="2.60138">
        <ele>122.49</ele>
        <time>2015-03-22T09:15:05.734Z</time>
      </trkpt>
      <trkpt lat="48.40233" lon="2.60154">
        <ele>124.513</ele>
        <time>2015-03-22T09:15:08.874Z</time>
      </trkpt>
      <trkpt lat="48.40231" lon="2.6017">
        <ele>124.698</ele>
        <time>2015-03-22T09:15:12.204Z</time>
      </trkpt>
      <trkpt lat="48.40231" lon="2.60189">
        <ele>123.648</ele>
        <time>2015-03-22T09:15:15.891Z</time>
      </trkpt>
      <trkpt lat="48.40229" lon="2.60203">
        <ele>122.871</ele>
        <time>2015-03-22T09:15:19.005Z</time>
      </trkpt>
      <trkpt lat="48.40221" lon="2.60212">
        <ele>123.128</ele>
        <time>2015-03-22T09:15:22.236Z</time>
      </trkpt>
      <trkpt lat="48.40213" lon="2.60219">
        <ele>124.044</ele>
        <time>2015-03-22T09:15:25.300Z</time>
      </trkpt>
      <trkpt lat="48.40204" lon="2.60222">
        <ele>125.074</ele>
        <time>2015-03-22T09:15:28.324Z</time>
      </trkpt>
      <trkpt lat="48.40195" lon="2.60226">
        <ele>126.129</ele>
        <time>2015-03-22T09:15:31.312Z</time>
      </trkpt>
      <trkpt lat="48.40184" lon="2.6023">
        <ele>127.31</ele>
        <time>2015-03-22T09:15:34.797Z</time>
      </trkpt>
      <trkpt lat="48.40175" lon="2.60232">
        <ele>128.776</ele>
        <time>2015-03-22T09:15:37.798Z</time>
      </trkpt>
      <trkpt lat="48.40165" lon="2.60237">
        <ele>130.319</ele>
        <time>2015-03-22T09:15:41.332Z</time>
      </trkpt>
      <trkpt lat="48.40154" lon="2.60241">
        <ele>131.026</ele>
        <time>2015-03-22T09:15:44.755Z</time>
      </trkpt>
      <trkpt lat="48.40142" lon="2.60246">
        <ele>130.515</ele>
        <time>2015-03-22T09:15:48.087Z</time>
      </trkpt>
      <trkpt lat="48.40132" lon="2.6025">
        <ele>129.86</ele>
        <time>2015-03-22T09:15:50.909Z</time>
      </trkpt>
      <trkpt lat="48.40123" lon="2.60255">
        <ele>129.985</ele>
        <time>2015-03-22T09:15:53.359Z</time>
      </trkpt>
      <trkpt lat="48.4011" lon="2.60262">
        <ele>130.404</ele>
        <time>2015-03-22T09:15:56.335Z</time>
      </trkpt>
      <trkpt lat="48.40099" lon="2.60266">
        <ele>130.259</ele>
        <time>2015-03-22T09:15:58.864Z</time>
      </trkpt>
      <trkpt lat="48.40083" lon="2.60269">
        <ele>129.261</ele>
        <time>2015-03-22T09:16:02.031Z</time>
      </trkpt>
      <trkpt lat="48.40069" lon="2.60273">
        <ele>127.79</ele>
        <time>2015-03-22T09:16:04.792Z</time>
      </trkpt>
      <trkpt lat="48.40054" lon="2.6028">
        <ele>126.482</ele>
        <time>2015-03-22T09:16:07.558Z</time>
      </trkpt>
      <trkpt lat="48.40043" lon="2.60289">
        <ele>125.295</ele>
        <time>2015-03-22T09:16:09.734Z</time>
      </trkpt>
      <trkpt lat="48.40025" lon="2.60308">
        <ele>123.562</ele>
        <time>2015-03-22T09:16:13.129Z</time>
      </trkpt>
      <trkpt lat="48.4001" lon="2.60328">
        <ele>121.206</ele>
        <time>2015-03-22T09:16:16.212Z</time>
      </trkpt>
      <trkpt lat="48.40002" lon="2.60344">
        <ele>119.074</ele>
        <time>2015-03-22T09:16:18.152Z</time>
      </trkpt>
      <trkpt lat="48.39993" lon="2.6037">
        <ele>118.215</ele>
        <time>2015-03-22T09:16:21.178Z</time>
      </trkpt>
      <trkpt lat="48.39988" lon="2.60395">
        <ele>118.729</ele>
        <time>2015-03-22T09:16:23.802Z</time>
      </trkpt>
      <trkpt lat="48.39985" lon="2.60413">
        <ele>119.575</ele>
        <time>2015-03-22T09:16:25.839Z</time>
      </trkpt>
      <trkpt lat="48.39979" lon="2.60438">
        <ele>119.902</ele>
        <time>2015-03-22T09:16:29.386Z</time>
      </trkpt>
      <trkpt lat="48.39974" lon="2.60454">
        <ele>119.347</ele>
        <time>2015-03-22T09:16:32.480Z</time>
      </trkpt>
      <trkpt lat="48.39961" lon="2.60449">
        <ele>117.973</ele>
        <time>2015-03-22T09:16:35.803Z</time>
      </trkpt>
      <trkpt lat="48.39948" lon="2.60441">
        <ele>116.901</ele>
        <time>2015-03-22T09:16:38.860Z</time>
      </trkpt>
      <trkpt lat="48.39934" lon="2.60432">
        <ele>117.109</ele>
        <time>2015-03-22T09:16:41.904Z</time>
      </trkpt>
      <trkpt lat="48.39923" lon="2.60425">
        <ele>118.192</ele>
        <time>2015-03-22T09:16:44.435Z</time>
      </trkpt>
      <trkpt lat="48.39913" lon="2.60418">
        <ele>119.736</ele>
        <time>2015-03-22T09:16:46.647Z</time>
      </trkpt>
      <trkpt lat="48.39899" lon="2.60412">
        <ele>121.711</ele>
        <time>2015-03-22T09:16:49.875Z</time>
      </trkpt>
      <trkpt lat="48.39889" lon="2.60413">
        <ele>123.548</ele>
        <time>2015-03-22T09:16:52.356Z</time>
      </trkpt>
      <trkpt lat="48.39878" lon="2.60413">
        <ele>124.209</ele>
        <time>2015-03-22T09:16:54.969Z</time>
      </trkpt>
      <trkpt lat="48.3987" lon="2.60406">
        <ele>123.13</ele>
        <time>2015-03-22T09:16:57.199Z</time>
      </trkpt>
      <trkpt lat="48.39859" lon="2.60389">
        <ele>121.013</ele>
        <time>2015-03-22T09:17:00.451Z</time>
      </trkpt>
      <trkpt lat="48.39847" lon="2.60369">
        <ele>119.076</ele>
        <time>2015-03-22T09:17:04.017Z</time>
      </trkpt>
      <trkpt lat="48.39841" lon="2.60358">
        <ele>117.802</ele>
        <time>2015-03-22T09:17:05.864Z</time>
      </trkpt>
      <trkpt lat="48.39832" lon="2.60342">
        <ele>117.179</ele>
        <time>2015-03-22T09:17:08.549Z</time>
      </trkpt>
      <trkpt lat="48.39826" lon="2.6033">
        <ele>116.962</ele>
        <time>2015-03-22T09:17:10.419Z</time>
      </trkpt>
      <trkpt lat="48.39817" lon="2.6031">
        <ele>116.644</ele>
        <time>2015-03-22T09:17:13.494Z</time>
      </trkpt>
      <trkpt lat="48.39811" lon="2.60296">
        <ele>116.249</ele>
        <time>2015-03-22T09:17:15.673Z</time>
      </trkpt>
      <trkpt lat="48.39803" lon="2.60283">
        <ele>116.231</ele>
        <time>2015-03-22T09:17:18.039Z</time>
      </trkpt>
      <trkpt lat="48.39798" lon="2.6027">
        <ele>116.739</ele>
        <time>2015-03-22T09:17:19.938Z</time>
      </trkpt>
      <trkpt lat="48.39788" lon="2.60246">
        <ele>117.503</ele>
        <time>2015-03-22T09:17:23.682Z</time>
      </trkpt>
      <trkpt lat="48.39785" lon="2.60225">
        <ele>118.108</ele>
        <time>2015-03-22T09:17:26.634Z</time>
      </trkpt>
      <trkpt lat="48.39789" lon="2.60202">
        <ele>118.07</ele>
        <time>2015-03-22T09:17:30.081Z</time>
      </trkpt>
      <trkpt lat="48.39792" lon="2.60184">
        <ele>117.289</ele>
        <time>2015-03-22T09:17:32.912Z</time>
      </trkpt>
      <trkpt lat="48.39795" lon="2.60168">
        <ele>116.395</ele>
        <time>2015-03-22T09:17:35.529Z</time>
      </trkpt>
      <trkpt lat="48.39799" lon="2.60152">
        <ele>116.241</ele>
        <time>2015-03-22T09:17:38.238Z</time>
      </trkpt>
      <trkpt lat="48.39803" lon="2.60135">
        <ele>116.871</ele>
        <time>2015-03-22T09:17:41.038Z</time>
      </trkpt>
      <trkpt lat="48.39806" lon="2.60116">
        <ele>117.139</ele>
        <time>2015-03-22T09:17:44.143Z</time>
      </trkpt>
      <trkpt lat="48.3981" lon="2.60098">
        <ele>116.266</ele>
        <time>2015-03-22T09:17:47.278Z</time>
      </trkpt>
      <trkpt lat="48.39813" lon="2.60082">
        <ele>114.764</ele>
        <time>2015-03-22T09:17:50.289Z</time>
      </trkpt>
      <trkpt lat="48.39814" lon="2.60066">
        <ele>113.642</ele>
        <time>2015-03-22T09:17:53.317Z</time>
      </trkpt>
      <trkpt lat="48.39816" lon="2.60052">
        <ele>113.514</ele>
        <time>2015-03-22T09:17:56.170Z</time>
      </trkpt>
      <trkpt lat="48.39818" lon="2.60039">
        <ele>114.253</ele>
        <time>2015-03-22T09:17:58.938Z</time>
      </trkpt>
      <trkpt lat="48.39821" lon="2.60024">
        <ele>116.099</ele>
        <time>2015-03-22T09:18:01.936Z</time>
      </trkpt>
      <trkpt lat="48.39826" lon="2.6001">
        <ele>117.157</ele>
        <time>2015-03-22T09:18:04.570Z</time>
      </trkpt>
      <trkpt lat="48.39832" lon="2.59994">
        <ele>117.957</ele>
        <time>2015-03-22T09:18:07.540Z</time>
      </trkpt>
      <trkpt lat="48.39841" lon="2.59976">
        <ele>118.166</ele>
        <time>2015-03-22T09:18:11.131Z</time>
      </trkpt>
      <trkpt lat="48.3985" lon="2.5996">
        <ele>117.94</ele>
        <time>2015-03-22T09:18:14.223Z</time>
      </trkpt>
      <trkpt lat="48.39857" lon="2.59946">
        <ele>117.608</ele>
        <time>2015-03-22T09:18:17.006Z</time>
      </trkpt>
      <trkpt lat="48.39865" lon="2.59931">
        <ele>117.68</ele>
        <time>2015-03-22T09:18:20.268Z</time>
      </trkpt>
      <trkpt lat="48.3987" lon="2.59919">
        <ele>118.347</ele>
        <time>2015-03-22T09:18:22.460Z</time>
      </trkpt>
      <trkpt lat="48.39878" lon="2.59905">
        <ele>119.251</ele>
        <time>2015-03-22T09:18:25.486Z</time>
      </trkpt>
      <trkpt lat="48.39885" lon="2.5989">
        <ele>119.965</ele>
        <time>2015-03-22T09:18:28.394Z</time>
      </trkpt>
      <trkpt lat="48.39893" lon="2.59875">
        <ele>120.323</ele>
        <time>2015-03-22T09:18:31.416Z</time>
      </trkpt>
      <trkpt lat="48.39899" lon="2.59863">
        <ele>120.624</ele>
        <time>2015-03-22T09:18:34.033Z</time>
      </trkpt>
      <trkpt lat="48.39903" lon="2.59848">
        <ele>120.925</ele>
        <time>2015-03-22T09:18:36.885Z</time>
      </trkpt>
      <trkpt lat="48.39902" lon="2.59833">
        <ele>120.777</ele>
        <time>2015-03-22T09:18:39.718Z</time>
      </trkpt>
      <trkpt lat="48.39897" lon="2.59815">
        <ele>119.988</ele>
        <time>2015-03-22T09:18:42.895Z</time>
      </trkpt>
      <trkpt lat="48.39892" lon="2.59795">
        <ele>118.33</ele>
        <time>2015-03-22T09:18:46.068Z</time>
      </trkpt>
      <trkpt lat="48.39889" lon="2.59773">
        <ele>115.953</ele>
        <time>2015-03-22T09:18:49.245Z</time>
      </trkpt>
      <trkpt lat="48.39887" lon="2.59752">
        <ele>114.306</ele>
        <time>2015-03-22T09:18:52.089Z</time>
      </trkpt>
      <trkpt lat="48.39887" lon="2.59731">
        <ele>115.008</ele>
        <time>2015-03-22T09:18:54.925Z</time>
      </trkpt>
      <trkpt lat="48.39886" lon="2.59709">
        <ele>115.852</ele>
        <time>2015-03-22T09:18:57.796Z</time>
      </trkpt>
      <trkpt lat="48.39884" lon="2.59687">
        <ele>116.5</ele>
        <time>2015-03-22T09:19:00.717Z</time>
      </trkpt>
      <trkpt lat="48.39882" lon="2.59662">
        <ele>117.141</ele>
        <time>2015-03-22T09:19:03.828Z</time>
      </trkpt>
      <trkpt lat="48.39881" lon="2.59641">
        <ele>117.531</ele>
        <time>2015-03-22T09:19:06.544Z</time>
      </trkpt>
      <trkpt lat="48.3988" lon="2.59618">
        <ele>117.568</ele>
        <time>2015-03-22T09:19:09.570Z</time>
      </trkpt>
      <trkpt lat="48.39878" lon="2.59595">
        <ele>118.074</ele>
        <time>2015-03-22T09:19:12.669Z</time>
      </trkpt>
      <trkpt lat="48.39878" lon="2.59581">
        <ele>119.174</ele>
        <time>2015-03-22T09:19:14.697Z</time>
      </trkpt>
      <trkpt lat="48.39877" lon="2.59562">
        <ele>119.481</ele>
        <time>2015-03-22T09:19:17.444Z</time>
      </trkpt>
      <trkpt lat="48.39877" lon="2.5954">
        <ele>118.5</ele>
        <time>2015-03-22T09:19:20.792Z</time>
      </trkpt>
      <trkpt lat="48.39877" lon="2.59521">
        <ele>117.235</ele>
        <time>2015-03-22T09:19:23.579Z</time>
      </trkpt>
      <trkpt lat="48.39875" lon="2.59501">
        <ele>116.731</ele>
        <time>2015-03-22T09:19:26.575Z</time>
      </trkpt>
      <trkpt lat="48.39875" lon="2.59476">
        <ele>117.2</ele>
        <time>2015-03-22T09:19:30.173Z</time>
      </trkpt>
      <trkpt lat="48.3988" lon="2.59464">
        <ele>118.34</ele>
        <time>2015-03-22T09:19:32.469Z</time>
      </trkpt>
      <trkpt lat="48.39889" lon="2.59451">
        <ele>119.46</ele>
        <time>2015-03-22T09:19:35.667Z</time>
      </trkpt>
      <trkpt lat="48.39898" lon="2.59446">
        <ele>120.124</ele>
        <time>2015-03-22T09:19:38.441Z</time>
      </trkpt>
      <trkpt lat="48.39907" lon="2.59446">
        <ele>119.923</ele>
        <time>2015-03-22T09:19:41.102Z</time>
      </trkpt>
      <trkpt lat="48.39917" lon="2.59446">
        <ele>118.75</ele>
        <time>2015-03-22T09:19:44.016Z</time>
      </trkpt>
      <trkpt lat="48.39926" lon="2.59446">
        <ele>117.996</ele>
        <time>2015-03-22T09:19:47.217Z</time>
      </trkpt>
      <trkpt lat="48.39936" lon="2.59442">
        <ele>118.724</ele>
        <time>2015-03-22T09:19:51.457Z</time>
      </trkpt>
      <trkpt lat="48.39942" lon="2.59431">
        <ele>119.581</ele>
        <time>2015-03-22T09:19:55.922Z</time>
      </trkpt>
      <trkpt lat="48.39941" lon="2.59416">
        <ele>119.231</ele>
        <time>2015-03-22T09:20:01.529Z</time>
      </trkpt>
      <trkpt lat="48.39935" lon="2.59404">
        <ele>118.3</ele>
        <time>2015-03-22T09:20:06.918Z</time>
      </trkpt>
      <trkpt lat="48.39928" lon="2.5939">
        <ele>117.78</ele>
        <time>2015-03-22T09:20:11.740Z</time>
      </trkpt>
      <trkpt lat="48.39925" lon="2.59374">
        <ele>118.079</ele>
        <time>2015-03-22T09:20:15.754Z</time>
      </trkpt>
      <trkpt lat="48.39924" lon="2.59358">
        <ele>119.101</ele>
        <time>2015-03-22T09:20:19.326Z</time>
      </trkpt>
      <trkpt lat="48.39924" lon="2.59344">
        <ele>120.169</ele>
        <time>2015-03-22T09:20:22.450Z</time>
      </trkpt>
      <trkpt lat="48.39929" lon="2.59217">
        <ele>120.724</ele>
        <time>2015-03-22T09:20:40.847Z</time>
      </trkpt>
      <trkpt lat="48.39917" lon="2.59167">
        <ele>120.572</ele>
        <time>2015-03-22T09:20:45.539Z</time>
      </trkpt>
      <trkpt lat="48.39917" lon="2.59141">
        <ele>119.298</ele>
        <time>2015-03-22T09:20:47.650Z</time>
      </trkpt>
      <trkpt lat="48.39931" lon="2.59084">
        <ele>117.124</ele>
        <time>2015-03-22T09:20:53.004Z</time>
      </trkpt>
      <trkpt lat="48.39929" lon="2.59062">
        <ele>115.297</ele>
        <time>2015-03-22T09:20:55.650Z</time>
      </trkpt>
      <trkpt lat="48.39921" lon="2.59048">
        <ele>114.45</ele>
        <time>2015-03-22T09:20:58.255Z</time>
      </trkpt>
      <trkpt lat="48.39913" lon="2.59032">
        <ele>113.827</ele>
        <time>2015-03-22T09:21:01.383Z</time>
      </trkpt>
      <trkpt lat="48.39908" lon="2.59015">
        <ele>112.889</ele>
        <time>2015-03-22T09:21:04.489Z</time>
      </trkpt>
      <trkpt lat="48.39903" lon="2.59001">
        <ele>112.078</ele>
        <time>2015-03-22T09:21:07.367Z</time>
      </trkpt>
      <trkpt lat="48.39898" lon="2.58989">
        <ele>111.833</ele>
        <time>2015-03-22T09:21:10.555Z</time>
      </trkpt>
      <trkpt lat="48.39888" lon="2.58985">
        <ele>111.955</ele>
        <time>2015-03-22T09:21:14.424Z</time>
      </trkpt>
      <trkpt lat="48.39888" lon="2.58985">
        <ele>112.146</ele>
        <time>2015-03-22T09:21:17.421Z</time>
      </trkpt>
      <trkpt lat="48.39888" lon="2.58985">
        <ele>112.231</ele>
        <time>2015-03-22T09:21:19.423Z</time>
      </trkpt>
      <trkpt lat="48.39888" lon="2.58985">
        <ele>112.176</ele>
        <time>2015-03-22T09:22:58.495Z</time>
      </trkpt>
      <trkpt lat="48.39868" lon="2.58996">
        <ele>112.076</ele>
        <time>2015-03-22T09:23:10.180Z</time>
      </trkpt>
      <trkpt lat="48.39858" lon="2.59001">
        <ele>111.584</ele>
        <time>2015-03-22T09:23:12.393Z</time>
      </trkpt>
      <trkpt lat="48.39843" lon="2.58996">
        <ele>110.342</ele>
        <time>2015-03-22T09:23:15.272Z</time>
      </trkpt>
      <trkpt lat="48.39836" lon="2.58985">
        <ele>108.928</ele>
        <time>2015-03-22T09:23:16.874Z</time>
      </trkpt>
      <trkpt lat="48.39832" lon="2.58952">
        <ele>107.884</ele>
        <time>2015-03-22T09:23:19.873Z</time>
      </trkpt>
      <trkpt lat="48.39822" lon="2.58916">
        <ele>106.774</ele>
        <time>2015-03-22T09:23:23.597Z</time>
      </trkpt>
      <trkpt lat="48.39815" lon="2.589">
        <ele>105.116</ele>
        <time>2015-03-22T09:23:25.625Z</time>
      </trkpt>
      <trkpt lat="48.39802" lon="2.58894">
        <ele>103.264</ele>
        <time>2015-03-22T09:23:27.954Z</time>
      </trkpt>
      <trkpt lat="48.39789" lon="2.58888">
        <ele>102.006</ele>
        <time>2015-03-22T09:23:30.079Z</time>
      </trkpt>
      <trkpt lat="48.39769" lon="2.5888">
        <ele>101.47</ele>
        <time>2015-03-22T09:23:33.521Z</time>
      </trkpt>
      <trkpt lat="48.39757" lon="2.58874">
        <ele>101.057</ele>
        <time>2015-03-22T09:23:35.631Z</time>
      </trkpt>
      <trkpt lat="48.39746" lon="2.58865">
        <ele>99.993</ele>
        <time>2015-03-22T09:23:37.619Z</time>
      </trkpt>
      <trkpt lat="48.39732" lon="2.58853">
        <ele>97.641</ele>
        <time>2015-03-22T09:23:40.193Z</time>
      </trkpt>
      <trkpt lat="48.39708" lon="2.58854">
        <ele>94.595</ele>
        <time>2015-03-22T09:23:43.186Z</time>
      </trkpt>
      <trkpt lat="48.39683" lon="2.5886">
        <ele>92.089</ele>
        <time>2015-03-22T09:23:46.540Z</time>
      </trkpt>
      <trkpt lat="48.39667" lon="2.58864">
        <ele>90.376</ele>
        <time>2015-03-22T09:23:49.952Z</time>
      </trkpt>
      <trkpt lat="48.39657" lon="2.5887">
        <ele>88.872</ele>
        <time>2015-03-22T09:23:52.623Z</time>
      </trkpt>
      <trkpt lat="48.39655" lon="2.58887">
        <ele>87.261</ele>
        <time>2015-03-22T09:23:55.220Z</time>
      </trkpt>
      <trkpt lat="48.39652" lon="2.58905">
        <ele>85.496</ele>
        <time>2015-03-22T09:23:57.818Z</time>
      </trkpt>
      <trkpt lat="48.39649" lon="2.58927">
        <ele>83.704</ele>
        <time>2015-03-22T09:24:00.810Z</time>
      </trkpt>
      <trkpt lat="48.39648" lon="2.58942">
        <ele>82.013</ele>
        <time>2015-03-22T09:24:02.769Z</time>
      </trkpt>
      <trkpt lat="48.39646" lon="2.58967">
        <ele>80.529</ele>
        <time>2015-03-22T09:24:05.989Z</time>
      </trkpt>
      <trkpt lat="48.39645" lon="2.58991">
        <ele>79.351</ele>
        <time>2015-03-22T09:24:09.188Z</time>
      </trkpt>
      <trkpt lat="48.39644" lon="2.59011">
        <ele>78.654</ele>
        <time>2015-03-22T09:24:11.856Z</time>
      </trkpt>
      <trkpt lat="48.39643" lon="2.59025">
        <ele>78.398</ele>
        <time>2015-03-22T09:24:13.632Z</time>
      </trkpt>
      <trkpt lat="48.3964" lon="2.59042">
        <ele>78.385</ele>
        <time>2015-03-22T09:24:15.890Z</time>
      </trkpt>
      <trkpt lat="48.39639" lon="2.59064">
        <ele>78.217</ele>
        <time>2015-03-22T09:24:18.699Z</time>
      </trkpt>
      <trkpt lat="48.39639" lon="2.59088">
        <ele>77.686</ele>
        <time>2015-03-22T09:24:21.986Z</time>
      </trkpt>
      <trkpt lat="48.39636" lon="2.59108">
        <ele>77.974</ele>
        <time>2015-03-22T09:24:25.225Z</time>
      </trkpt>
      <trkpt lat="48.39633" lon="2.59131">
        <ele>79.99</ele>
        <time>2015-03-22T09:24:29.116Z</time>
      </trkpt>
      <trkpt lat="48.39629" lon="2.59146">
        <ele>82.387</ele>
        <time>2015-03-22T09:24:31.567Z</time>
      </trkpt>
      <trkpt lat="48.39627" lon="2.59166">
        <ele>83.672</ele>
        <time>2015-03-22T09:24:34.459Z</time>
      </trkpt>
      <trkpt lat="48.39627" lon="2.5918">
        <ele>83.679</ele>
        <time>2015-03-22T09:24:36.499Z</time>
      </trkpt>
      <trkpt lat="48.39626" lon="2.59199">
        <ele>82.807</ele>
        <time>2015-03-22T09:24:39.461Z</time>
      </trkpt>
      <trkpt lat="48.39623" lon="2.5922">
        <ele>81.874</ele>
        <time>2015-03-22T09:24:43.014Z</time>
      </trkpt>
      <trkpt lat="48.39622" lon="2.59238">
        <ele>81.419</ele>
        <time>2015-03-22T09:24:46.445Z</time>
      </trkpt>
      <trkpt lat="48.39618" lon="2.59253">
        <ele>81.431</ele>
        <time>2015-03-22T09:24:49.664Z</time>
      </trkpt>
      <trkpt lat="48.39614" lon="2.59269">
        <ele>81.738</ele>
        <time>2015-03-22T09:24:52.567Z</time>
      </trkpt>
      <trkpt lat="48.39614" lon="2.59283">
        <ele>82.733</ele>
        <time>2015-03-22T09:24:54.932Z</time>
      </trkpt>
      <trkpt lat="48.39611" lon="2.59301">
        <ele>84.649</ele>
        <time>2015-03-22T09:24:58.055Z</time>
      </trkpt>
      <trkpt lat="48.39608" lon="2.59319">
        <ele>85.667</ele>
        <time>2015-03-22T09:25:00.988Z</time>
      </trkpt>
      <trkpt lat="48.39602" lon="2.59336">
        <ele>84.185</ele>
        <time>2015-03-22T09:25:03.866Z</time>
      </trkpt>
      <trkpt lat="48.39599" lon="2.59354">
        <ele>81.609</ele>
        <time>2015-03-22T09:25:06.955Z</time>
      </trkpt>
      <trkpt lat="48.39596" lon="2.59372">
        <ele>80.186</ele>
        <time>2015-03-22T09:25:09.849Z</time>
      </trkpt>
      <trkpt lat="48.39592" lon="2.5939">
        <ele>80.415</ele>
        <time>2015-03-22T09:25:12.729Z</time>
      </trkpt>
      <trkpt lat="48.39588" lon="2.59408">
        <ele>81.31</ele>
        <time>2015-03-22T09:25:15.663Z</time>
      </trkpt>
      <trkpt lat="48.39585" lon="2.59427">
        <ele>81.815</ele>
        <time>2015-03-22T09:25:18.616Z</time>
      </trkpt>
      <trkpt lat="48.39583" lon="2.59447">
        <ele>81.774</ele>
        <time>2015-03-22T09:25:21.598Z</time>
      </trkpt>
      <trkpt lat="48.39579" lon="2.59467">
        <ele>81.015</ele>
        <time>2015-03-22T09:25:24.862Z</time>
      </trkpt>
      <trkpt lat="48.39577" lon="2.59481">
        <ele>80.378</ele>
        <time>2015-03-22T09:25:27.157Z</time>
      </trkpt>
      <trkpt lat="48.39574" lon="2.595">
        <ele>80.886</ele>
        <time>2015-03-22T09:25:30.382Z</time>
      </trkpt>
      <trkpt lat="48.39573" lon="2.59521">
        <ele>81.706</ele>
        <time>2015-03-22T09:25:33.989Z</time>
      </trkpt>
      <trkpt lat="48.39572" lon="2.59536">
        <ele>81.694</ele>
        <time>2015-03-22T09:25:36.648Z</time>
      </trkpt>
      <trkpt lat="48.39569" lon="2.59554">
        <ele>81.17</ele>
        <time>2015-03-22T09:25:40.061Z</time>
      </trkpt>
      <trkpt lat="48.39564" lon="2.59572">
        <ele>80.668</ele>
        <time>2015-03-22T09:25:43.646Z</time>
      </trkpt>
      <trkpt lat="48.3956" lon="2.59585">
        <ele>80.519</ele>
        <time>2015-03-22T09:25:46.326Z</time>
      </trkpt>
      <trkpt lat="48.39556" lon="2.59601">
        <ele>80.194</ele>
        <time>2015-03-22T09:25:49.439Z</time>
      </trkpt>
      <trkpt lat="48.39555" lon="2.59615">
        <ele>79.251</ele>
        <time>2015-03-22T09:25:52.155Z</time>
      </trkpt>
      <trkpt lat="48.39556" lon="2.59631">
        <ele>78.505</ele>
        <time>2015-03-22T09:25:55.132Z</time>
      </trkpt>
      <trkpt lat="48.39553" lon="2.59645">
        <ele>79.045</ele>
        <time>2015-03-22T09:25:57.859Z</time>
      </trkpt>
      <trkpt lat="48.39551" lon="2.5966">
        <ele>80.553</ele>
        <time>2015-03-22T09:26:00.648Z</time>
      </trkpt>
      <trkpt lat="48.39552" lon="2.59676">
        <ele>81.585</ele>
        <time>2015-03-22T09:26:03.442Z</time>
      </trkpt>
      <trkpt lat="48.3955" lon="2.59695">
        <ele>81.405</ele>
        <time>2015-03-22T09:26:06.801Z</time>
      </trkpt>
      <trkpt lat="48.39548" lon="2.5971">
        <ele>80.991</ele>
        <time>2015-03-22T09:26:09.577Z</time>
      </trkpt>
      <trkpt lat="48.39545" lon="2.59727">
        <ele>81.288</ele>
        <time>2015-03-22T09:26:12.931Z</time>
      </trkpt>
      <trkpt lat="48.39541" lon="2.59743">
        <ele>81.929</ele>
        <time>2015-03-22T09:26:16.135Z</time>
      </trkpt>
      <trkpt lat="48.39539" lon="2.59761">
        <ele>82.336</ele>
        <time>2015-03-22T09:26:19.505Z</time>
      </trkpt>
      <trkpt lat="48.39537" lon="2.59777">
        <ele>82.719</ele>
        <time>2015-03-22T09:26:22.426Z</time>
      </trkpt>
      <trkpt lat="48.39534" lon="2.59796">
        <ele>83.637</ele>
        <time>2015-03-22T09:26:25.743Z</time>
      </trkpt>
      <trkpt lat="48.39531" lon="2.59811">
        <ele>84.992</ele>
        <time>2015-03-22T09:26:28.714Z</time>
      </trkpt>
      <trkpt lat="48.39526" lon="2.59827">
        <ele>85.593</ele>
        <time>2015-03-22T09:26:32.148Z</time>
      </trkpt>
      <trkpt lat="48.39523" lon="2.5984">
        <ele>84.837</ele>
        <time>2015-03-22T09:26:35.341Z</time>
      </trkpt>
      <trkpt lat="48.39521" lon="2.59854">
        <ele>82.943</ele>
        <time>2015-03-22T09:26:39.093Z</time>
      </trkpt>
      <trkpt lat="48.39521" lon="2.5987">
        <ele>81.261</ele>
        <time>2015-03-22T09:26:43.735Z</time>
      </trkpt>
      <trkpt lat="48.39521" lon="2.59886">
        <ele>80.846</ele>
        <time>2015-03-22T09:26:48.437Z</time>
      </trkpt>
      <trkpt lat="48.3952" lon="2.599">
        <ele>81.425</ele>
        <time>2015-03-22T09:26:52.043Z</time>
      </trkpt>
      <trkpt lat="48.39518" lon="2.59913">
        <ele>82.186</ele>
        <time>2015-03-22T09:26:55.369Z</time>
      </trkpt>
      <trkpt lat="48.39516" lon="2.59932">
        <ele>82.899</ele>
        <time>2015-03-22T09:26:59.467Z</time>
      </trkpt>
      <trkpt lat="48.39515" lon="2.59948">
        <ele>83.442</ele>
        <time>2015-03-22T09:27:02.721Z</time>
      </trkpt>
      <trkpt lat="48.39513" lon="2.59964">
        <ele>83.879</ele>
        <time>2015-03-22T09:27:06.373Z</time>
      </trkpt>
      <trkpt lat="48.39508" lon="2.59977">
        <ele>83.832</ele>
        <time>2015-03-22T09:27:10.250Z</time>
      </trkpt>
      <trkpt lat="48.39498" lon="2.59977">
        <ele>83.343</ele>
        <time>2015-03-22T09:27:14.603Z</time>
      </trkpt>
      <trkpt lat="48.39489" lon="2.59974">
        <ele>82.992</ele>
        <time>2015-03-22T09:27:18.699Z</time>
      </trkpt>
      <trkpt lat="48.3948" lon="2.5997">
        <ele>83.33</ele>
        <time>2015-03-22T09:27:22.709Z</time>
      </trkpt>
      <trkpt lat="48.3947" lon="2.59965">
        <ele>84.096</ele>
        <time>2015-03-22T09:27:27.299Z</time>
      </trkpt>
      <trkpt lat="48.39461" lon="2.59963">
        <ele>84.701</ele>
        <time>2015-03-22T09:27:31.101Z</time>
      </trkpt>
      <trkpt lat="48.39451" lon="2.59958">
        <ele>85.481</ele>
        <time>2015-03-22T09:27:35.273Z</time>
      </trkpt>
      <trkpt lat="48.39442" lon="2.59952">
        <ele>87.105</ele>
        <time>2015-03-22T09:27:38.797Z</time>
      </trkpt>
      <trkpt lat="48.39433" lon="2.59946">
        <ele>89.078</ele>
        <time>2015-03-22T09:27:42.757Z</time>
      </trkpt>
      <trkpt lat="48.39423" lon="2.59939">
        <ele>90.671</ele>
        <time>2015-03-22T09:27:46.656Z</time>
      </trkpt>
      <trkpt lat="48.39414" lon="2.59933">
        <ele>91.918</ele>
        <time>2015-03-22T09:27:51.505Z</time>
      </trkpt>
      <trkpt lat="48.39408" lon="2.59923">
        <ele>92.719</ele>
        <time>2015-03-22T09:27:56.465Z</time>
      </trkpt>
      <trkpt lat="48.39408" lon="2.59923">
        <ele>92.926</ele>
        <time>2015-03-22T09:28:05.492Z</time>
      </trkpt>
      <trkpt lat="48.39408" lon="2.59923">
        <ele>92.811</ele>
        <time>2015-03-22T09:29:07.426Z</time>
      </trkpt>
      <trkpt lat="48.39408" lon="2.59923">
        <ele>92.685</ele>
        <time>2015-03-22T09:33:20.428Z</time>
      </trkpt>
      <trkpt lat="48.39408" lon="2.59923">
        <ele>92.647</ele>
        <time>2015-03-22T09:33:20.528Z</time>
      </trkpt>
      <trkpt lat="48.39386" lon="2.59918">
        <ele>92.666</ele>
        <time>2015-03-22T09:33:45.485Z</time>
      </trkpt>
      <trkpt lat="48.39375" lon="2.59913">
        <ele>93.621</ele>
        <time>2015-03-22T09:33:50.326Z</time>
      </trkpt>
      <trkpt lat="48.39366" lon="2.59906">
        <ele>96.055</ele>
        <time>2015-03-22T09:33:54.822Z</time>
      </trkpt>
      <trkpt lat="48.39357" lon="2.599">
        <ele>99.244</ele>
        <time>2015-03-22T09:33:59.135Z</time>
      </trkpt>
      <trkpt lat="48.39349" lon="2.59894">
        <ele>99.037</ele>
        <time>2015-03-22T09:34:02.893Z</time>
      </trkpt>
      <trkpt lat="48.39341" lon="2.59888">
        <ele>98.848</ele>
        <time>2015-03-22T09:34:06.760Z</time>
      </trkpt>
      <trkpt lat="48.39332" lon="2.59883">
        <ele>99.19</ele>
        <time>2015-03-22T09:34:10.522Z</time>
      </trkpt>
      <trkpt lat="48.39322" lon="2.59876">
        <ele>99.781</ele>
        <time>2015-03-22T09:34:15.522Z</time>
      </trkpt>
      <trkpt lat="48.39312" lon="2.59872">
        <ele>100.334</ele>
        <time>2015-03-22T09:34:20.123Z</time>
      </trkpt>
      <trkpt lat="48.39302" lon="2.59868">
        <ele>101.124</ele>
        <time>2015-03-22T09:34:25.022Z</time>
      </trkpt>
      <trkpt lat="48.39292" lon="2.59863">
        <ele>102.361</ele>
        <time>2015-03-22T09:34:29.953Z</time>
      </trkpt>
      <trkpt lat="48.39283" lon="2.59858">
        <ele>103.703</ele>
        <time>2015-03-22T09:34:34.545Z</time>
      </trkpt>
      <trkpt lat="48.39274" lon="2.59858">
        <ele>105.313</ele>
        <time>2015-03-22T09:34:39.491Z</time>
      </trkpt>
      <trkpt lat="48.39264" lon="2.59857">
        <ele>107.779</ele>
        <time>2015-03-22T09:34:44.642Z</time>
      </trkpt>
      <trkpt lat="48.39255" lon="2.59855">
        <ele>110.554</ele>
        <time>2015-03-22T09:34:49.573Z</time>
      </trkpt>
      <trkpt lat="48.39245" lon="2.59853">
        <ele>113.097</ele>
        <time>2015-03-22T09:34:55.433Z</time>
      </trkpt>
      <trkpt lat="48.39245" lon="2.59853">
        <ele>115.513</ele>
        <time>2015-03-22T09:35:00.440Z</time>
      </trkpt>
      <trkpt lat="48.39245" lon="2.59853">
        <ele>116.956</ele>
        <time>2015-03-22T09:35:00.540Z</time>
      </trkpt>
      <trkpt lat="48.39219" lon="2.59849">
        <ele>116.817</ele>
        <time>2015-03-22T09:35:23.550Z</time>
      </trkpt>
      <trkpt lat="48.39209" lon="2.59847">
        <ele>116.992</ele>
        <time>2015-03-22T09:35:29.344Z</time>
      </trkpt>
      <trkpt lat="48.392" lon="2.59846">
        <ele>119.214</ele>
        <time>2015-03-22T09:35:34.233Z</time>
      </trkpt>
      <trkpt lat="48.3919" lon="2.59845">
        <ele>122.279</ele>
        <time>2015-03-22T09:35:39.092Z</time>
      </trkpt>
      <trkpt lat="48.3918" lon="2.59842">
        <ele>124.306</ele>
        <time>2015-03-22T09:35:43.521Z</time>
      </trkpt>
      <trkpt lat="48.39171" lon="2.5984">
        <ele>125.286</ele>
        <time>2015-03-22T09:35:47.277Z</time>
      </trkpt>
      <trkpt lat="48.3916" lon="2.5984">
        <ele>125.846</ele>
        <time>2015-03-22T09:35:51.431Z</time>
      </trkpt>
      <trkpt lat="48.3916" lon="2.5984">
        <ele>126.171</ele>
        <time>2015-03-22T09:35:54.433Z</time>
      </trkpt>
      <trkpt lat="48.3916" lon="2.5984">
        <ele>126.238</ele>
        <time>2015-03-22T09:35:54.533Z</time>
      </trkpt>
      <trkpt lat="48.39136" lon="2.59834">
        <ele>126.162</ele>
        <time>2015-03-22T09:36:09.439Z</time>
      </trkpt>
      <trkpt lat="48.39127" lon="2.59832">
        <ele>126.26</ele>
        <time>2015-03-22T09:36:13.255Z</time>
      </trkpt>
      <trkpt lat="48.39116" lon="2.59831">
        <ele>126.949</ele>
        <time>2015-03-22T09:36:18.091Z</time>
      </trkpt>
      <trkpt lat="48.39106" lon="2.59829">
        <ele>128.07</ele>
        <time>2015-03-22T09:36:22.794Z</time>
      </trkpt>
      <trkpt lat="48.39095" lon="2.59828">
        <ele>128.979</ele>
        <time>2015-03-22T09:36:27.514Z</time>
      </trkpt>
      <trkpt lat="48.39085" lon="2.59827">
        <ele>129.836</ele>
        <time>2015-03-22T09:36:31.905Z</time>
      </trkpt>
      <trkpt lat="48.39075" lon="2.59824">
        <ele>131.076</ele>
        <time>2015-03-22T09:36:35.818Z</time>
      </trkpt>
      <trkpt lat="48.39066" lon="2.59821">
        <ele>132.136</ele>
        <time>2015-03-22T09:36:39.440Z</time>
      </trkpt>
      <trkpt lat="48.39057" lon="2.59819">
        <ele>132.194</ele>
        <time>2015-03-22T09:36:42.885Z</time>
      </trkpt>
      <trkpt lat="48.39047" lon="2.59818">
        <ele>131.41</ele>
        <time>2015-03-22T09:36:46.454Z</time>
      </trkpt>
      <trkpt lat="48.39036" lon="2.59816">
        <ele>130.49</ele>
        <time>2015-03-22T09:36:50.314Z</time>
      </trkpt>
      <trkpt lat="48.39027" lon="2.59813">
        <ele>129.89</ele>
        <time>2015-03-22T09:36:53.442Z</time>
      </trkpt>
      <trkpt lat="48.39027" lon="2.59813">
        <ele>129.632</ele>
        <time>2015-03-22T09:36:56.444Z</time>
      </trkpt>
      <trkpt lat="48.39027" lon="2.59813">
        <ele>129.614</ele>
        <time>2015-03-22T09:36:56.544Z</time>
      </trkpt>
      <trkpt lat="48.39001" lon="2.5981">
        <ele>129.64</ele>
        <time>2015-03-22T09:37:11.911Z</time>
      </trkpt>
      <trkpt lat="48.38991" lon="2.59807">
        <ele>129.452</ele>
        <time>2015-03-22T09:37:16.352Z</time>
      </trkpt>
      <trkpt lat="48.3898" lon="2.59804">
        <ele>128.992</ele>
        <time>2015-03-22T09:37:21.149Z</time>
      </trkpt>
      <trkpt lat="48.38971" lon="2.59803">
        <ele>128.759</ele>
        <time>2015-03-22T09:37:24.919Z</time>
      </trkpt>
      <trkpt lat="48.38961" lon="2.598">
        <ele>129.254</ele>
        <time>2015-03-22T09:37:28.924Z</time>
      </trkpt>
      <trkpt lat="48.3895" lon="2.598">
        <ele>130.19</ele>
        <time>2015-03-22T09:37:32.863Z</time>
      </trkpt>
      <trkpt lat="48.38939" lon="2.59798">
        <ele>131.04</ele>
        <time>2015-03-22T09:37:36.388Z</time>
      </trkpt>
      <trkpt lat="48.38928" lon="2.59797">
        <ele>131.658</ele>
        <time>2015-03-22T09:37:39.580Z</time>
      </trkpt>
      <trkpt lat="48.38917" lon="2.59795">
        <ele>131.978</ele>
        <time>2015-03-22T09:37:42.447Z</time>
      </trkpt>
      <trkpt lat="48.38917" lon="2.59795">
        <ele>131.981</ele>
        <time>2015-03-22T09:37:42.447Z</time>
      </trkpt>
      <trkpt lat="48.38917" lon="2.59795">
        <ele>131.869</ele>
        <time>2015-03-22T09:37:42.547Z</time>
      </trkpt>
      <trkpt lat="48.38901" lon="2.59793">
        <ele>131.803</ele>
        <time>2015-03-22T09:37:49.233Z</time>
      </trkpt>
      <trkpt lat="48.38888" lon="2.59788">
        <ele>131.013</ele>
        <time>2015-03-22T09:37:52.716Z</time>
      </trkpt>
      <trkpt lat="48.38876" lon="2.59786">
        <ele>128.735</ele>
        <time>2015-03-22T09:37:55.523Z</time>
      </trkpt>
      <trkpt lat="48.38865" lon="2.5979">
        <ele>125.913</ele>
        <time>2015-03-22T09:37:58.117Z</time>
      </trkpt>
      <trkpt lat="48.38856" lon="2.59798">
        <ele>124.028</ele>
        <time>2015-03-22T09:38:00.558Z</time>
      </trkpt>
      <trkpt lat="48.38846" lon="2.59802">
        <ele>123.437</ele>
        <time>2015-03-22T09:38:02.981Z</time>
      </trkpt>
      <trkpt lat="48.38837" lon="2.59806">
        <ele>123.732</ele>
        <time>2015-03-22T09:38:05.287Z</time>
      </trkpt>
      <trkpt lat="48.38825" lon="2.59807">
        <ele>124.024</ele>
        <time>2015-03-22T09:38:08.100Z</time>
      </trkpt>
      <trkpt lat="48.38813" lon="2.59806">
        <ele>123.776</ele>
        <time>2015-03-22T09:38:10.828Z</time>
      </trkpt>
      <trkpt lat="48.38802" lon="2.59809">
        <ele>123.299</ele>
        <time>2015-03-22T09:38:13.466Z</time>
      </trkpt>
      <trkpt lat="48.38795" lon="2.59824">
        <ele>123.042</ele>
        <time>2015-03-22T09:38:16.460Z</time>
      </trkpt>
      <trkpt lat="48.3879" lon="2.5984">
        <ele>123.056</ele>
        <time>2015-03-22T09:38:19.561Z</time>
      </trkpt>
      <trkpt lat="48.38782" lon="2.59854">
        <ele>123.181</ele>
        <time>2015-03-22T09:38:22.675Z</time>
      </trkpt>
      <trkpt lat="48.38772" lon="2.59867">
        <ele>123.274</ele>
        <time>2015-03-22T09:38:25.670Z</time>
      </trkpt>
      <trkpt lat="48.38765" lon="2.59877">
        <ele>123.325</ele>
        <time>2015-03-22T09:38:27.938Z</time>
      </trkpt>
      <trkpt lat="48.38758" lon="2.59889">
        <ele>123.362</ele>
        <time>2015-03-22T09:38:30.487Z</time>
      </trkpt>
      <trkpt lat="48.38752" lon="2.59899">
        <ele>123.368</ele>
        <time>2015-03-22T09:38:32.766Z</time>
      </trkpt>
      <trkpt lat="48.38743" lon="2.59907">
        <ele>123.336</ele>
        <time>2015-03-22T09:38:35.311Z</time>
      </trkpt>
      <trkpt lat="48.38732" lon="2.5991">
        <ele>123.334</ele>
        <time>2015-03-22T09:38:38.234Z</time>
      </trkpt>
      <trkpt lat="48.38721" lon="2.59905">
        <ele>123.409</ele>
        <time>2015-03-22T09:38:41.386Z</time>
      </trkpt>
      <trkpt lat="48.38706" lon="2.59899">
        <ele>123.49</ele>
        <time>2015-03-22T09:38:45.471Z</time>
      </trkpt>
      <trkpt lat="48.38688" lon="2.59899">
        <ele>123.366</ele>
        <time>2015-03-22T09:38:49.638Z</time>
      </trkpt>
      <trkpt lat="48.38677" lon="2.59902">
        <ele>122.986</ele>
        <time>2015-03-22T09:38:51.904Z</time>
      </trkpt>
      <trkpt lat="48.38665" lon="2.59911">
        <ele>122.677</ele>
        <time>2015-03-22T09:38:54.437Z</time>
      </trkpt>
      <trkpt lat="48.38665" lon="2.59911">
        <ele>122.698</ele>
        <time>2015-03-22T09:38:55.438Z</time>
      </trkpt>
      <trkpt lat="48.38665" lon="2.59911">
        <ele>122.815</ele>
        <time>2015-03-22T09:38:55.450Z</time>
      </trkpt>
      <trkpt lat="48.38648" lon="2.59924">
        <ele>122.773</ele>
        <time>2015-03-22T09:39:02.399Z</time>
      </trkpt>
      <trkpt lat="48.38639" lon="2.59928">
        <ele>122.641</ele>
        <time>2015-03-22T09:39:04.812Z</time>
      </trkpt>
      <trkpt lat="48.38631" lon="2.59921">
        <ele>122.629</ele>
        <time>2015-03-22T09:39:07.523Z</time>
      </trkpt>
      <trkpt lat="48.38634" lon="2.59907">
        <ele>122.796</ele>
        <time>2015-03-22T09:39:10.807Z</time>
      </trkpt>
      <trkpt lat="48.38636" lon="2.5989">
        <ele>122.821</ele>
        <time>2015-03-22T09:39:15.326Z</time>
      </trkpt>
      <trkpt lat="48.38637" lon="2.59872">
        <ele>122.257</ele>
        <time>2015-03-22T09:39:20.103Z</time>
      </trkpt>
      <trkpt lat="48.38638" lon="2.59857">
        <ele>121.265</ele>
        <time>2015-03-22T09:39:23.803Z</time>
      </trkpt>
      <trkpt lat="48.38638" lon="2.59839">
        <ele>120.591</ele>
        <time>2015-03-22T09:39:28.050Z</time>
      </trkpt>
      <trkpt lat="48.38639" lon="2.59821">
        <ele>121.165</ele>
        <time>2015-03-22T09:39:31.965Z</time>
      </trkpt>
      <trkpt lat="48.3864" lon="2.59806">
        <ele>122.979</ele>
        <time>2015-03-22T09:39:35.056Z</time>
      </trkpt>
      <trkpt lat="48.38641" lon="2.59787">
        <ele>124.409</ele>
        <time>2015-03-22T09:39:38.604Z</time>
      </trkpt>
      <trkpt lat="48.38643" lon="2.59767">
        <ele>124.289</ele>
        <time>2015-03-22T09:39:42.008Z</time>
      </trkpt>
      <trkpt lat="48.38644" lon="2.59749">
        <ele>123.382</ele>
        <time>2015-03-22T09:39:45.005Z</time>
      </trkpt>
      <trkpt lat="48.38644" lon="2.5973">
        <ele>123.035</ele>
        <time>2015-03-22T09:39:48.190Z</time>
      </trkpt>
      <trkpt lat="48.38646" lon="2.5971">
        <ele>123.652</ele>
        <time>2015-03-22T09:39:51.338Z</time>
      </trkpt>
      <trkpt lat="48.38648" lon="2.59691">
        <ele>124.506</ele>
        <time>2015-03-22T09:39:54.133Z</time>
      </trkpt>
      <trkpt lat="48.3865" lon="2.59673">
        <ele>124.866</ele>
        <time>2015-03-22T09:39:56.711Z</time>
      </trkpt>
      <trkpt lat="48.38651" lon="2.59658">
        <ele>124.795</ele>
        <time>2015-03-22T09:39:59.008Z</time>
      </trkpt>
      <trkpt lat="48.38651" lon="2.59641">
        <ele>124.603</ele>
        <time>2015-03-22T09:40:01.451Z</time>
      </trkpt>
      <trkpt lat="48.38654" lon="2.59623">
        <ele>124.475</ele>
        <time>2015-03-22T09:40:04.298Z</time>
      </trkpt>
      <trkpt lat="48.38655" lon="2.59608">
        <ele>124.499</ele>
        <time>2015-03-22T09:40:06.655Z</time>
      </trkpt>
      <trkpt lat="48.38657" lon="2.5959">
        <ele>124.639</ele>
        <time>2015-03-22T09:40:09.664Z</time>
      </trkpt>
      <trkpt lat="48.38659" lon="2.59573">
        <ele>124.77</ele>
        <time>2015-03-22T09:40:12.406Z</time>
      </trkpt>
      <trkpt lat="48.38662" lon="2.59557">
        <ele>124.969</ele>
        <time>2015-03-22T09:40:15.026Z</time>
      </trkpt>
      <trkpt lat="48.38663" lon="2.59544">
        <ele>125.336</ele>
        <time>2015-03-22T09:40:17.194Z</time>
      </trkpt>
      <trkpt lat="48.38664" lon="2.59529">
        <ele>125.828</ele>
        <time>2015-03-22T09:40:19.582Z</time>
      </trkpt>
      <trkpt lat="48.38665" lon="2.59511">
        <ele>126.36</ele>
        <time>2015-03-22T09:40:22.582Z</time>
      </trkpt>
      <trkpt lat="48.38665" lon="2.59493">
        <ele>126.636</ele>
        <time>2015-03-22T09:40:25.739Z</time>
      </trkpt>
      <trkpt lat="48.38664" lon="2.59473">
        <ele>126.275</ele>
        <time>2015-03-22T09:40:29.198Z</time>
      </trkpt>
      <trkpt lat="48.38662" lon="2.59454">
        <ele>125.166</ele>
        <time>2015-03-22T09:40:32.456Z</time>
      </trkpt>
      <trkpt lat="48.3866" lon="2.59434">
        <ele>123.731</ele>
        <time>2015-03-22T09:40:35.541Z</time>
      </trkpt>
      <trkpt lat="48.38658" lon="2.59415">
        <ele>122.762</ele>
        <time>2015-03-22T09:40:38.524Z</time>
      </trkpt>
      <trkpt lat="48.38654" lon="2.59397">
        <ele>122.564</ele>
        <time>2015-03-22T09:40:41.257Z</time>
      </trkpt>
      <trkpt lat="48.38648" lon="2.59385">
        <ele>122.568</ele>
        <time>2015-03-22T09:40:43.352Z</time>
      </trkpt>
      <trkpt lat="48.38637" lon="2.5936">
        <ele>122.027</ele>
        <time>2015-03-22T09:40:47.554Z</time>
      </trkpt>
      <trkpt lat="48.38624" lon="2.59331">
        <ele>120.603</ele>
        <time>2015-03-22T09:40:51.927Z</time>
      </trkpt>
      <trkpt lat="48.3862" lon="2.59307">
        <ele>118.235</ele>
        <time>2015-03-22T09:40:54.483Z</time>
      </trkpt>
      <trkpt lat="48.38624" lon="2.59272">
        <ele>115.478</ele>
        <time>2015-03-22T09:40:57.475Z</time>
      </trkpt>
      <trkpt lat="48.38638" lon="2.59248">
        <ele>113.358</ele>
        <time>2015-03-22T09:41:00.225Z</time>
      </trkpt>
      <trkpt lat="48.38652" lon="2.59227">
        <ele>112.157</ele>
        <time>2015-03-22T09:41:02.893Z</time>
      </trkpt>
      <trkpt lat="48.38659" lon="2.59207">
        <ele>111.49</ele>
        <time>2015-03-22T09:41:05.106Z</time>
      </trkpt>
      <trkpt lat="48.38655" lon="2.59187">
        <ele>111.248</ele>
        <time>2015-03-22T09:41:07.344Z</time>
      </trkpt>
      <trkpt lat="48.38648" lon="2.59174">
        <ele>111.642</ele>
        <time>2015-03-22T09:41:09.591Z</time>
      </trkpt>
      <trkpt lat="48.38637" lon="2.59159">
        <ele>112.669</ele>
        <time>2015-03-22T09:41:12.804Z</time>
      </trkpt>
      <trkpt lat="48.38626" lon="2.59145">
        <ele>113.762</ele>
        <time>2015-03-22T09:41:15.694Z</time>
      </trkpt>
      <trkpt lat="48.38617" lon="2.5913">
        <ele>114.289</ele>
        <time>2015-03-22T09:41:18.335Z</time>
      </trkpt>
      <trkpt lat="48.3861" lon="2.59119">
        <ele>114.172</ele>
        <time>2015-03-22T09:41:20.181Z</time>
      </trkpt>
      <trkpt lat="48.38599" lon="2.591">
        <ele>113.495</ele>
        <time>2015-03-22T09:41:23.340Z</time>
      </trkpt>
      <trkpt lat="48.38593" lon="2.59078">
        <ele>112.297</ele>
        <time>2015-03-22T09:41:26.434Z</time>
      </trkpt>
      <trkpt lat="48.38588" lon="2.59064">
        <ele>110.152</ele>
        <time>2015-03-22T09:41:28.539Z</time>
      </trkpt>
      <trkpt lat="48.38581" lon="2.59054">
        <ele>106.895</ele>
        <time>2015-03-22T09:41:30.291Z</time>
      </trkpt>
      <trkpt lat="48.38571" lon="2.59032">
        <ele>104</ele>
        <time>2015-03-22T09:41:33.759Z</time>
      </trkpt>
      <trkpt lat="48.38561" lon="2.59009">
        <ele>103.134</ele>
        <time>2015-03-22T09:41:37.289Z</time>
      </trkpt>
      <trkpt lat="48.38557" lon="2.58996">
        <ele>104.434</ele>
        <time>2015-03-22T09:41:38.997Z</time>
      </trkpt>
      <trkpt lat="48.3855" lon="2.58978">
        <ele>106.875</ele>
        <time>2015-03-22T09:41:41.524Z</time>
      </trkpt>
      <trkpt lat="48.38547" lon="2.58965">
        <ele>108.686</ele>
        <time>2015-03-22T09:41:43.379Z</time>
      </trkpt>
      <trkpt lat="48.38543" lon="2.58943">
        <ele>108.811</ele>
        <time>2015-03-22T09:41:46.778Z</time>
      </trkpt>
      <trkpt lat="48.38539" lon="2.58926">
        <ele>107.761</ele>
        <time>2015-03-22T09:41:49.886Z</time>
      </trkpt>
      <trkpt lat="48.3853" lon="2.58914">
        <ele>106.466</ele>
        <time>2015-03-22T09:41:52.994Z</time>
      </trkpt>
      <trkpt lat="48.38522" lon="2.589">
        <ele>104.502</ele>
        <time>2015-03-22T09:41:56.241Z</time>
      </trkpt>
      <trkpt lat="48.38514" lon="2.58881">
        <ele>101.396</ele>
        <time>2015-03-22T09:41:59.442Z</time>
      </trkpt>
      <trkpt lat="48.38506" lon="2.58861">
        <ele>98.562</ele>
        <time>2015-03-22T09:42:02.504Z</time>
      </trkpt>
      <trkpt lat="48.38496" lon="2.58848">
        <ele>97.536</ele>
        <time>2015-03-22T09:42:05.431Z</time>
      </trkpt>
      <trkpt lat="48.38489" lon="2.58837">
        <ele>98.187</ele>
        <time>2015-03-22T09:42:07.666Z</time>
      </trkpt>
      <trkpt lat="48.38482" lon="2.58817">
        <ele>99.573</ele>
        <time>2015-03-22T09:42:11.147Z</time>
      </trkpt>
      <trkpt lat="48.38474" lon="2.58806">
        <ele>100.562</ele>
        <time>2015-03-22T09:42:13.770Z</time>
      </trkpt>
      <trkpt lat="48.38461" lon="2.58796">
        <ele>100.774</ele>
        <time>2015-03-22T09:42:17.107Z</time>
      </trkpt>
      <trkpt lat="48.38452" lon="2.58786">
        <ele>101.151</ele>
        <time>2015-03-22T09:42:19.299Z</time>
      </trkpt>
      <trkpt lat="48.38436" lon="2.58779">
        <ele>102.703</ele>
        <time>2015-03-22T09:42:22.516Z</time>
      </trkpt>
      <trkpt lat="48.38423" lon="2.58779">
        <ele>104.826</ele>
        <time>2015-03-22T09:42:25.277Z</time>
      </trkpt>
      <trkpt lat="48.38404" lon="2.58783">
        <ele>106.025</ele>
        <time>2015-03-22T09:42:28.965Z</time>
      </trkpt>
      <trkpt lat="48.38392" lon="2.58777">
        <ele>105.321</ele>
        <time>2015-03-22T09:42:31.424Z</time>
      </trkpt>
      <trkpt lat="48.38382" lon="2.58771">
        <ele>103.136</ele>
        <time>2015-03-22T09:42:33.789Z</time>
      </trkpt>
      <trkpt lat="48.38373" lon="2.58772">
        <ele>101.001</ele>
        <time>2015-03-22T09:42:36.319Z</time>
      </trkpt>
      <trkpt lat="48.38377" lon="2.58785">
        <ele>99.833</ele>
        <time>2015-03-22T09:42:39.814Z</time>
      </trkpt>
      <trkpt lat="48.38383" lon="2.58797">
        <ele>99.462</ele>
        <time>2015-03-22T09:42:44.164Z</time>
      </trkpt>
      <trkpt lat="48.3839" lon="2.5881">
        <ele>99.469</ele>
        <time>2015-03-22T09:42:49.458Z</time>
      </trkpt>
      <trkpt lat="48.38397" lon="2.58822">
        <ele>99.492</ele>
        <time>2015-03-22T09:42:55.271Z</time>
      </trkpt>
      <trkpt lat="48.38403" lon="2.58835">
        <ele>99.46</ele>
        <time>2015-03-22T09:43:00.443Z</time>
      </trkpt>
      <trkpt lat="48.38403" lon="2.58835">
        <ele>99.419</ele>
        <time>2015-03-22T09:43:03.440Z</time>
      </trkpt>
      <trkpt lat="48.38403" lon="2.58835">
        <ele>99.378</ele>
        <time>2015-03-22T09:43:04.454Z</time>
      </trkpt>
      <trkpt lat="48.38403" lon="2.58835">
        <ele>99.344</ele>
        <time>2015-03-22T09:43:16.393Z</time>
      </trkpt>
      <trkpt lat="48.3841" lon="2.58847">
        <ele>99.313</ele>
        <time>2015-03-22T09:43:28.139Z</time>
      </trkpt>
      <trkpt lat="48.38417" lon="2.58857">
        <ele>99.284</ele>
        <time>2015-03-22T09:43:34.228Z</time>
      </trkpt>
      <trkpt lat="48.38424" lon="2.58868">
        <ele>99.335</ele>
        <time>2015-03-22T09:43:38.902Z</time>
      </trkpt>
      <trkpt lat="48.38431" lon="2.5888">
        <ele>99.685</ele>
        <time>2015-03-22T09:43:42.987Z</time>
      </trkpt>
      <trkpt lat="48.38439" lon="2.5889">
        <ele>100.322</ele>
        <time>2015-03-22T09:43:46.710Z</time>
      </trkpt>
      <trkpt lat="48.38446" lon="2.589">
        <ele>100.462</ele>
        <time>2015-03-22T09:43:50.464Z</time>
      </trkpt>
      <trkpt lat="48.38453" lon="2.58912">
        <ele>99.623</ele>
        <time>2015-03-22T09:43:54.638Z</time>
      </trkpt>
      <trkpt lat="48.38458" lon="2.58927">
        <ele>99.381</ele>
        <time>2015-03-22T09:43:59.623Z</time>
      </trkpt>
      <trkpt lat="48.38463" lon="2.58942">
        <ele>101.583</ele>
        <time>2015-03-22T09:44:04.324Z</time>
      </trkpt>
      <trkpt lat="48.38465" lon="2.58955">
        <ele>105.236</ele>
        <time>2015-03-22T09:44:08.037Z</time>
      </trkpt>
      <trkpt lat="48.38466" lon="2.58972">
        <ele>108.051</ele>
        <time>2015-03-22T09:44:12.242Z</time>
      </trkpt>
      <trkpt lat="48.38468" lon="2.58989">
        <ele>109.327</ele>
        <time>2015-03-22T09:44:16.204Z</time>
      </trkpt>
      <trkpt lat="48.38468" lon="2.59004">
        <ele>109.652</ele>
        <time>2015-03-22T09:44:19.944Z</time>
      </trkpt>
      <trkpt lat="48.38469" lon="2.5902">
        <ele>109.767</ele>
        <time>2015-03-22T09:44:24.071Z</time>
      </trkpt>
      <trkpt lat="48.3847" lon="2.59037">
        <ele>110.108</ele>
        <time>2015-03-22T09:44:28.510Z</time>
      </trkpt>
      <trkpt lat="48.38469" lon="2.59054">
        <ele>110.561</ele>
        <time>2015-03-22T09:44:33.041Z</time>
      </trkpt>
      <trkpt lat="48.38469" lon="2.59069">
        <ele>110.633</ele>
        <time>2015-03-22T09:44:37.138Z</time>
      </trkpt>
      <trkpt lat="48.38468" lon="2.59083">
        <ele>109.897</ele>
        <time>2015-03-22T09:44:41.134Z</time>
      </trkpt>
      <trkpt lat="48.38466" lon="2.59096">
        <ele>108.648</ele>
        <time>2015-03-22T09:44:45.442Z</time>
      </trkpt>
      <trkpt lat="48.38466" lon="2.59096">
        <ele>107.819</ele>
        <time>2015-03-22T09:44:51.447Z</time>
      </trkpt>
      <trkpt lat="48.38466" lon="2.59096">
        <ele>107.815</ele>
        <time>2015-03-22T09:45:48.498Z</time>
      </trkpt>
      <trkpt lat="48.38462" lon="2.59122">
        <ele>108.191</ele>
        <time>2015-03-22T09:46:06.803Z</time>
      </trkpt>
      <trkpt lat="48.38455" lon="2.59133">
        <ele>110.17</ele>
        <time>2015-03-22T09:46:12.506Z</time>
      </trkpt>
      <trkpt lat="48.38446" lon="2.59141">
        <ele>114.691</ele>
        <time>2015-03-22T09:46:16.781Z</time>
      </trkpt>
      <trkpt lat="48.38437" lon="2.59149">
        <ele>119.19</ele>
        <time>2015-03-22T09:46:21.054Z</time>
      </trkpt>
      <trkpt lat="48.38427" lon="2.59154">
        <ele>121.115</ele>
        <time>2015-03-22T09:46:24.799Z</time>
      </trkpt>
      <trkpt lat="48.38417" lon="2.59159">
        <ele>120.823</ele>
        <time>2015-03-22T09:46:28.809Z</time>
      </trkpt>
      <trkpt lat="48.38406" lon="2.59165">
        <ele>119.492</ele>
        <time>2015-03-22T09:46:33.186Z</time>
      </trkpt>
      <trkpt lat="48.38398" lon="2.59173">
        <ele>118.26</ele>
        <time>2015-03-22T09:46:37.066Z</time>
      </trkpt>
      <trkpt lat="48.38391" lon="2.59182">
        <ele>117.964</ele>
        <time>2015-03-22T09:46:41.398Z</time>
      </trkpt>
      <trkpt lat="48.38382" lon="2.59193">
        <ele>118.898</ele>
        <time>2015-03-22T09:46:46.660Z</time>
      </trkpt>
      <trkpt lat="48.38373" lon="2.59203">
        <ele>120.689</ele>
        <time>2015-03-22T09:46:52.028Z</time>
      </trkpt>
      <trkpt lat="48.38366" lon="2.59212">
        <ele>122.473</ele>
        <time>2015-03-22T09:46:56.987Z</time>
      </trkpt>
      <trkpt lat="48.3836" lon="2.59223">
        <ele>123.88</ele>
        <time>2015-03-22T09:47:02.459Z</time>
      </trkpt>
      <trkpt lat="48.38352" lon="2.59233">
        <ele>125.215</ele>
        <time>2015-03-22T09:47:07.871Z</time>
      </trkpt>
      <trkpt lat="48.38346" lon="2.59243">
        <ele>126.534</ele>
        <time>2015-03-22T09:47:12.872Z</time>
      </trkpt>
      <trkpt lat="48.3834" lon="2.59253">
        <ele>127.637</ele>
        <time>2015-03-22T09:47:17.566Z</time>
      </trkpt>
      <trkpt lat="48.38332" lon="2.59263">
        <ele>128</ele>
        <time>2015-03-22T09:47:22.622Z</time>
      </trkpt>
      <trkpt lat="48.38324" lon="2.59272">
        <ele>128.914</ele>
        <time>2015-03-22T09:47:27.012Z</time>
      </trkpt>
      <trkpt lat="48.38317" lon="2.59283">
        <ele>130.156</ele>
        <time>2015-03-22T09:47:31.445Z</time>
      </trkpt>
      <trkpt lat="48.38309" lon="2.59294">
        <ele>131.538</ele>
        <time>2015-03-22T09:47:36.004Z</time>
      </trkpt>
      <trkpt lat="48.38303" lon="2.59305">
        <ele>133.486</ele>
        <time>2015-03-22T09:47:40.335Z</time>
      </trkpt>
      <trkpt lat="48.38296" lon="2.59315">
        <ele>133.756</ele>
        <time>2015-03-22T09:47:43.888Z</time>
      </trkpt>
      <trkpt lat="48.38288" lon="2.59324">
        <ele>133.958</ele>
        <time>2015-03-22T09:47:47.097Z</time>
      </trkpt>
      <trkpt lat="48.38281" lon="2.59333">
        <ele>134.078</ele>
        <time>2015-03-22T09:47:49.930Z</time>
      </trkpt>
      <trkpt lat="48.38273" lon="2.59345">
        <ele>133.997</ele>
        <time>2015-03-22T09:47:53.502Z</time>
      </trkpt>
      <trkpt lat="48.38266" lon="2.59355">
        <ele>133.841</ele>
        <time>2015-03-22T09:47:56.386Z</time>
      </trkpt>
      <trkpt lat="48.38259" lon="2.59365">
        <ele>133.711</ele>
        <time>2015-03-22T09:47:59.316Z</time>
      </trkpt>
      <trkpt lat="48.38251" lon="2.59377">
        <ele>133.519</ele>
        <time>2015-03-22T09:48:02.518Z</time>
      </trkpt>
      <trkpt lat="48.38243" lon="2.59388">
        <ele>133.184</ele>
        <time>2015-03-22T09:48:05.658Z</time>
      </trkpt>
      <trkpt lat="48.38235" lon="2.59399">
        <ele>132.745</ele>
        <time>2015-03-22T09:48:08.794Z</time>
      </trkpt>
      <trkpt lat="48.38227" lon="2.59409">
        <ele>132.251</ele>
        <time>2015-03-22T09:48:11.791Z</time>
      </trkpt>
      <trkpt lat="48.38218" lon="2.59421">
        <ele>131.789</ele>
        <time>2015-03-22T09:48:15.111Z</time>
      </trkpt>
      <trkpt lat="48.3821" lon="2.59432">
        <ele>131.502</ele>
        <time>2015-03-22T09:48:18.111Z</time>
      </trkpt>
      <trkpt lat="48.38202" lon="2.59444">
        <ele>131.344</ele>
        <time>2015-03-22T09:48:21.487Z</time>
      </trkpt>
      <trkpt lat="48.38195" lon="2.59452">
        <ele>131.171</ele>
        <time>2015-03-22T09:48:24.340Z</time>
      </trkpt>
      <trkpt lat="48.38187" lon="2.59464">
        <ele>131.013</ele>
        <time>2015-03-22T09:48:27.649Z</time>
      </trkpt>
      <trkpt lat="48.38179" lon="2.59476">
        <ele>130.884</ele>
        <time>2015-03-22T09:48:31.132Z</time>
      </trkpt>
      <trkpt lat="48.38172" lon="2.59487">
        <ele>131.118</ele>
        <time>2015-03-22T09:48:34.117Z</time>
      </trkpt>
      <trkpt lat="48.38165" lon="2.59499">
        <ele>131.8</ele>
        <time>2015-03-22T09:48:37.311Z</time>
      </trkpt>
      <trkpt lat="48.38157" lon="2.59511">
        <ele>132.528</ele>
        <time>2015-03-22T09:48:40.384Z</time>
      </trkpt>
      <trkpt lat="48.38148" lon="2.59523">
        <ele>132.895</ele>
        <time>2015-03-22T09:48:43.706Z</time>
      </trkpt>
      <trkpt lat="48.38139" lon="2.59535">
        <ele>132.892</ele>
        <time>2015-03-22T09:48:46.947Z</time>
      </trkpt>
      <trkpt lat="48.38129" lon="2.59548">
        <ele>132.655</ele>
        <time>2015-03-22T09:48:50.611Z</time>
      </trkpt>
      <trkpt lat="48.38121" lon="2.5956">
        <ele>132.281</ele>
        <time>2015-03-22T09:48:53.716Z</time>
      </trkpt>
      <trkpt lat="48.38113" lon="2.59572">
        <ele>132.044</ele>
        <time>2015-03-22T09:48:56.945Z</time>
      </trkpt>
      <trkpt lat="48.38103" lon="2.59585">
        <ele>132.025</ele>
        <time>2015-03-22T09:49:00.505Z</time>
      </trkpt>
      <trkpt lat="48.38092" lon="2.59597">
        <ele>131.638</ele>
        <time>2015-03-22T09:49:03.882Z</time>
      </trkpt>
      <trkpt lat="48.38086" lon="2.59606">
        <ele>131.114</ele>
        <time>2015-03-22T09:49:06.387Z</time>
      </trkpt>
      <trkpt lat="48.38079" lon="2.59617">
        <ele>130.4</ele>
        <time>2015-03-22T09:49:09.302Z</time>
      </trkpt>
      <trkpt lat="48.3807" lon="2.59625">
        <ele>129.488</ele>
        <time>2015-03-22T09:49:12.802Z</time>
      </trkpt>
      <trkpt lat="48.38061" lon="2.59625">
        <ele>128.382</ele>
        <time>2015-03-22T09:49:16.443Z</time>
      </trkpt>
      <trkpt lat="48.38061" lon="2.59625">
        <ele>127.353</ele>
        <time>2015-03-22T09:49:16.443Z</time>
      </trkpt>
      <trkpt lat="48.38061" lon="2.59625">
        <ele>126.783</ele>
        <time>2015-03-22T09:49:16.543Z</time>
      </trkpt>
      <trkpt lat="48.38044" lon="2.59621">
        <ele>126.919</ele>
        <time>2015-03-22T09:49:27.867Z</time>
      </trkpt>
      <trkpt lat="48.38034" lon="2.59618">
        <ele>127.552</ele>
        <time>2015-03-22T09:49:31.830Z</time>
      </trkpt>
      <trkpt lat="48.38025" lon="2.59612">
        <ele>128.195</ele>
        <time>2015-03-22T09:49:35.076Z</time>
      </trkpt>
      <trkpt lat="48.38012" lon="2.59607">
        <ele>128.602</ele>
        <time>2015-03-22T09:49:39.119Z</time>
      </trkpt>
      <trkpt lat="48.38001" lon="2.596">
        <ele>129.036</ele>
        <time>2015-03-22T09:49:42.813Z</time>
      </trkpt>
      <trkpt lat="48.37994" lon="2.59591">
        <ele>129.655</ele>
        <time>2015-03-22T09:49:45.816Z</time>
      </trkpt>
      <trkpt lat="48.37989" lon="2.59579">
        <ele>130.113</ele>
        <time>2015-03-22T09:49:48.898Z</time>
      </trkpt>
      <trkpt lat="48.37986" lon="2.59563">
        <ele>129.931</ele>
        <time>2015-03-22T09:49:52.650Z</time>
      </trkpt>
      <trkpt lat="48.37984" lon="2.59546">
        <ele>129.287</ele>
        <time>2015-03-22T09:49:56.003Z</time>
      </trkpt>
      <trkpt lat="48.37984" lon="2.59528">
        <ele>128.048</ele>
        <time>2015-03-22T09:49:59.395Z</time>
      </trkpt>
      <trkpt lat="48.37986" lon="2.59508">
        <ele>126.599</ele>
        <time>2015-03-22T09:50:02.964Z</time>
      </trkpt>
      <trkpt lat="48.37986" lon="2.59493">
        <ele>125.052</ele>
        <time>2015-03-22T09:50:05.736Z</time>
      </trkpt>
      <trkpt lat="48.37986" lon="2.59474">
        <ele>125.47</ele>
        <time>2015-03-22T09:50:08.889Z</time>
      </trkpt>
      <trkpt lat="48.37987" lon="2.59452">
        <ele>126.09</ele>
        <time>2015-03-22T09:50:12.519Z</time>
      </trkpt>
      <trkpt lat="48.37988" lon="2.59437">
        <ele>126.298</ele>
        <time>2015-03-22T09:50:14.895Z</time>
      </trkpt>
      <trkpt lat="48.37988" lon="2.59421">
        <ele>126.094</ele>
        <time>2015-03-22T09:50:17.629Z</time>
      </trkpt>
      <trkpt lat="48.37989" lon="2.59404">
        <ele>125.613</ele>
        <time>2015-03-22T09:50:20.484Z</time>
      </trkpt>
      <trkpt lat="48.37991" lon="2.59388">
        <ele>124.708</ele>
        <time>2015-03-22T09:50:23.599Z</time>
      </trkpt>
      <trkpt lat="48.37991" lon="2.59374">
        <ele>123.509</ele>
        <time>2015-03-22T09:50:26.591Z</time>
      </trkpt>
      <trkpt lat="48.37989" lon="2.59358">
        <ele>123.113</ele>
        <time>2015-03-22T09:50:30.043Z</time>
      </trkpt>
      <trkpt lat="48.3799" lon="2.59344">
        <ele>124.165</ele>
        <time>2015-03-22T09:50:33.013Z</time>
      </trkpt>
      <trkpt lat="48.37991" lon="2.59328">
        <ele>125.644</ele>
        <time>2015-03-22T09:50:36.186Z</time>
      </trkpt>
      <trkpt lat="48.37991" lon="2.59313">
        <ele>126.248</ele>
        <time>2015-03-22T09:50:39.047Z</time>
      </trkpt>
      <trkpt lat="48.37992" lon="2.59292">
        <ele>125.719</ele>
        <time>2015-03-22T09:50:42.707Z</time>
      </trkpt>
      <trkpt lat="48.37992" lon="2.59274">
        <ele>124.588</ele>
        <time>2015-03-22T09:50:45.637Z</time>
      </trkpt>
      <trkpt lat="48.37992" lon="2.5925">
        <ele>123.654</ele>
        <time>2015-03-22T09:50:49.089Z</time>
      </trkpt>
      <trkpt lat="48.37993" lon="2.59225">
        <ele>122.952</ele>
        <time>2015-03-22T09:50:52.463Z</time>
      </trkpt>
      <trkpt lat="48.37994" lon="2.592">
        <ele>122.069</ele>
        <time>2015-03-22T09:50:55.705Z</time>
      </trkpt>
      <trkpt lat="48.37996" lon="2.59179">
        <ele>120.999</ele>
        <time>2015-03-22T09:50:58.525Z</time>
      </trkpt>
      <trkpt lat="48.37996" lon="2.59156">
        <ele>119.976</ele>
        <time>2015-03-22T09:51:01.587Z</time>
      </trkpt>
      <trkpt lat="48.37997" lon="2.59135">
        <ele>119.356</ele>
        <time>2015-03-22T09:51:04.484Z</time>
      </trkpt>
      <trkpt lat="48.37998" lon="2.59118">
        <ele>119.487</ele>
        <time>2015-03-22T09:51:07.817Z</time>
      </trkpt>
      <trkpt lat="48.37996" lon="2.59103">
        <ele>120.259</ele>
        <time>2015-03-22T09:51:10.898Z</time>
      </trkpt>
      <trkpt lat="48.37987" lon="2.59104">
        <ele>121.212</ele>
        <time>2015-03-22T09:51:14.772Z</time>
      </trkpt>
      <trkpt lat="48.37977" lon="2.59112">
        <ele>121.852</ele>
        <time>2015-03-22T09:51:19.318Z</time>
      </trkpt>
      <trkpt lat="48.37968" lon="2.5912">
        <ele>122.263</ele>
        <time>2015-03-22T09:51:22.892Z</time>
      </trkpt>
      <trkpt lat="48.37957" lon="2.59127">
        <ele>123.075</ele>
        <time>2015-03-22T09:51:26.682Z</time>
      </trkpt>
      <trkpt lat="48.37947" lon="2.59134">
        <ele>124.408</ele>
        <time>2015-03-22T09:51:30.317Z</time>
      </trkpt>
      <trkpt lat="48.37939" lon="2.59142">
        <ele>125.869</ele>
        <time>2015-03-22T09:51:33.309Z</time>
      </trkpt>
      <trkpt lat="48.37929" lon="2.59149">
        <ele>127.23</ele>
        <time>2015-03-22T09:51:36.992Z</time>
      </trkpt>
      <trkpt lat="48.37918" lon="2.59156">
        <ele>128.179</ele>
        <time>2015-03-22T09:51:40.544Z</time>
      </trkpt>
      <trkpt lat="48.37909" lon="2.59164">
        <ele>128.411</ele>
        <time>2015-03-22T09:51:43.739Z</time>
      </trkpt>
      <trkpt lat="48.37899" lon="2.59172">
        <ele>128.162</ele>
        <time>2015-03-22T09:51:47.099Z</time>
      </trkpt>
      <trkpt lat="48.3789" lon="2.5918">
        <ele>127.593</ele>
        <time>2015-03-22T09:51:50.637Z</time>
      </trkpt>
      <trkpt lat="48.37882" lon="2.59186">
        <ele>126.756</ele>
        <time>2015-03-22T09:51:53.761Z</time>
      </trkpt>
      <trkpt lat="48.37873" lon="2.59194">
        <ele>126.022</ele>
        <time>2015-03-22T09:51:57.452Z</time>
      </trkpt>
      <trkpt lat="48.37873" lon="2.59194">
        <ele>125.662</ele>
        <time>2015-03-22T09:51:58.443Z</time>
      </trkpt>
      <trkpt lat="48.37873" lon="2.59194">
        <ele>125.577</ele>
        <time>2015-03-22T09:51:58.543Z</time>
      </trkpt>
      <trkpt lat="48.37859" lon="2.59206">
        <ele>125.59</ele>
        <time>2015-03-22T09:52:04.447Z</time>
      </trkpt>
      <trkpt lat="48.37859" lon="2.59206">
        <ele>125.57</ele>
        <time>2015-03-22T09:52:19.476Z</time>
      </trkpt>
      <trkpt lat="48.37859" lon="2.59206">
        <ele>125.505</ele>
        <time>2015-03-22T09:54:20.871Z</time>
      </trkpt>
      <trkpt lat="48.37841" lon="2.59219">
        <ele>125.45</ele>
        <time>2015-03-22T09:54:46.121Z</time>
      </trkpt>
      <trkpt lat="48.37832" lon="2.59228">
        <ele>126.232</ele>
        <time>2015-03-22T09:54:50.223Z</time>
      </trkpt>
      <trkpt lat="48.37823" lon="2.59235">
        <ele>128.382</ele>
        <time>2015-03-22T09:54:53.118Z</time>
      </trkpt>
      <trkpt lat="48.37813" lon="2.59243">
        <ele>130.627</ele>
        <time>2015-03-22T09:54:56.357Z</time>
      </trkpt>
      <trkpt lat="48.37805" lon="2.59251">
        <ele>131.613</ele>
        <time>2015-03-22T09:54:59.081Z</time>
      </trkpt>
      <trkpt lat="48.37796" lon="2.59257">
        <ele>131.434</ele>
        <time>2015-03-22T09:55:01.725Z</time>
      </trkpt>
      <trkpt lat="48.37786" lon="2.59264">
        <ele>130.385</ele>
        <time>2015-03-22T09:55:04.690Z</time>
      </trkpt>
      <trkpt lat="48.37777" lon="2.59271">
        <ele>128.913</ele>
        <time>2015-03-22T09:55:07.281Z</time>
      </trkpt>
      <trkpt lat="48.37768" lon="2.59279">
        <ele>127.95</ele>
        <time>2015-03-22T09:55:10.173Z</time>
      </trkpt>
      <trkpt lat="48.37759" lon="2.59286">
        <ele>128.034</ele>
        <time>2015-03-22T09:55:12.920Z</time>
      </trkpt>
      <trkpt lat="48.3775" lon="2.59294">
        <ele>129.005</ele>
        <time>2015-03-22T09:55:15.540Z</time>
      </trkpt>
      <trkpt lat="48.37741" lon="2.59301">
        <ele>130.365</ele>
        <time>2015-03-22T09:55:18.383Z</time>
      </trkpt>
      <trkpt lat="48.3773" lon="2.59309">
        <ele>131.291</ele>
        <time>2015-03-22T09:55:21.372Z</time>
      </trkpt>
      <trkpt lat="48.37721" lon="2.59316">
        <ele>131.34</ele>
        <time>2015-03-22T09:55:24.152Z</time>
      </trkpt>
      <trkpt lat="48.37711" lon="2.59324">
        <ele>130.931</ele>
        <time>2015-03-22T09:55:26.913Z</time>
      </trkpt>
      <trkpt lat="48.37701" lon="2.59331">
        <ele>130.578</ele>
        <time>2015-03-22T09:55:29.723Z</time>
      </trkpt>
      <trkpt lat="48.37691" lon="2.5934">
        <ele>130.509</ele>
        <time>2015-03-22T09:55:32.557Z</time>
      </trkpt>
      <trkpt lat="48.3768" lon="2.5935">
        <ele>130.75</ele>
        <time>2015-03-22T09:55:35.704Z</time>
      </trkpt>
      <trkpt lat="48.37669" lon="2.59359">
        <ele>131.112</ele>
        <time>2015-03-22T09:55:38.552Z</time>
      </trkpt>
      <trkpt lat="48.37658" lon="2.59367">
        <ele>130.85</ele>
        <time>2015-03-22T09:55:41.312Z</time>
      </trkpt>
      <trkpt lat="48.37647" lon="2.59374">
        <ele>129.599</ele>
        <time>2015-03-22T09:55:44.061Z</time>
      </trkpt>
      <trkpt lat="48.37637" lon="2.59382">
        <ele>128.21</ele>
        <time>2015-03-22T09:55:46.885Z</time>
      </trkpt>
      <trkpt lat="48.37628" lon="2.5939">
        <ele>127.662</ele>
        <time>2015-03-22T09:55:49.294Z</time>
      </trkpt>
      <trkpt lat="48.37618" lon="2.59396">
        <ele>128.06</ele>
        <time>2015-03-22T09:55:51.855Z</time>
      </trkpt>
      <trkpt lat="48.37609" lon="2.59404">
        <ele>129.087</ele>
        <time>2015-03-22T09:55:54.484Z</time>
      </trkpt>
      <trkpt lat="48.37601" lon="2.5941">
        <ele>130.412</ele>
        <time>2015-03-22T09:55:56.940Z</time>
      </trkpt>
      <trkpt lat="48.37591" lon="2.59417">
        <ele>131.856</ele>
        <time>2015-03-22T09:55:59.967Z</time>
      </trkpt>
      <trkpt lat="48.37581" lon="2.59424">
        <ele>133.208</ele>
        <time>2015-03-22T09:56:03.029Z</time>
      </trkpt>
      <trkpt lat="48.37573" lon="2.59431">
        <ele>134.39</ele>
        <time>2015-03-22T09:56:05.696Z</time>
      </trkpt>
      <trkpt lat="48.37565" lon="2.59438">
        <ele>135.52</ele>
        <time>2015-03-22T09:56:08.521Z</time>
      </trkpt>
      <trkpt lat="48.37557" lon="2.59446">
        <ele>136.718</ele>
        <time>2015-03-22T09:56:11.621Z</time>
      </trkpt>
      <trkpt lat="48.37549" lon="2.59454">
        <ele>138.025</ele>
        <time>2015-03-22T09:56:14.793Z</time>
      </trkpt>
      <trkpt lat="48.37541" lon="2.59463">
        <ele>139.453</ele>
        <time>2015-03-22T09:56:18.066Z</time>
      </trkpt>
      <trkpt lat="48.37535" lon="2.59475">
        <ele>140.776</ele>
        <time>2015-03-22T09:56:21.381Z</time>
      </trkpt>
      <trkpt lat="48.37533" lon="2.59491">
        <ele>140.992</ele>
        <time>2015-03-22T09:56:24.805Z</time>
      </trkpt>
      <trkpt lat="48.37533" lon="2.59509">
        <ele>139.549</ele>
        <time>2015-03-22T09:56:28.458Z</time>
      </trkpt>
      <trkpt lat="48.37533" lon="2.59509">
        <ele>137.71</ele>
        <time>2015-03-22T09:56:30.457Z</time>
      </trkpt>
      <trkpt lat="48.37533" lon="2.59509">
        <ele>136.869</ele>
        <time>2015-03-22T09:56:30.557Z</time>
      </trkpt>
      <trkpt lat="48.37533" lon="2.5955">
        <ele>137.2</ele>
        <time>2015-03-22T09:56:39.385Z</time>
      </trkpt>
      <trkpt lat="48.37533" lon="2.59566">
        <ele>138.291</ele>
        <time>2015-03-22T09:56:41.714Z</time>
      </trkpt>
      <trkpt lat="48.37533" lon="2.59592">
        <ele>139.426</ele>
        <time>2015-03-22T09:56:45.340Z</time>
      </trkpt>
      <trkpt lat="48.37533" lon="2.59608">
        <ele>139.131</ele>
        <time>2015-03-22T09:56:47.500Z</time>
      </trkpt>
      <trkpt lat="48.37533" lon="2.5963">
        <ele>136.659</ele>
        <time>2015-03-22T09:56:50.560Z</time>
      </trkpt>
      <trkpt lat="48.37533" lon="2.59645">
        <ele>133.475</ele>
        <time>2015-03-22T09:56:52.624Z</time>
      </trkpt>
      <trkpt lat="48.37533" lon="2.59668">
        <ele>131.283</ele>
        <time>2015-03-22T09:56:55.784Z</time>
      </trkpt>
      <trkpt lat="48.37532" lon="2.59682">
        <ele>130.134</ele>
        <time>2015-03-22T09:56:57.737Z</time>
      </trkpt>
      <trkpt lat="48.37532" lon="2.59696">
        <ele>129.606</ele>
        <time>2015-03-22T09:56:59.673Z</time>
      </trkpt>
      <trkpt lat="48.37532" lon="2.59715">
        <ele>129.362</ele>
        <time>2015-03-22T09:57:02.186Z</time>
      </trkpt>
      <trkpt lat="48.37531" lon="2.59736">
        <ele>129.078</ele>
        <time>2015-03-22T09:57:05.085Z</time>
      </trkpt>
      <trkpt lat="48.37531" lon="2.5975">
        <ele>128.601</ele>
        <time>2015-03-22T09:57:07.018Z</time>
      </trkpt>
      <trkpt lat="48.37532" lon="2.59764">
        <ele>128.058</ele>
        <time>2015-03-22T09:57:09.091Z</time>
      </trkpt>
      <trkpt lat="48.37532" lon="2.59783">
        <ele>127.475</ele>
        <time>2015-03-22T09:57:11.714Z</time>
      </trkpt>
      <trkpt lat="48.37532" lon="2.59801">
        <ele>126.727</ele>
        <time>2015-03-22T09:57:14.320Z</time>
      </trkpt>
      <trkpt lat="48.37532" lon="2.59815">
        <ele>125.946</ele>
        <time>2015-03-22T09:57:16.225Z</time>
      </trkpt>
      <trkpt lat="48.37532" lon="2.59837">
        <ele>125.456</ele>
        <time>2015-03-22T09:57:19.106Z</time>
      </trkpt>
      <trkpt lat="48.37532" lon="2.59852">
        <ele>125.479</ele>
        <time>2015-03-22T09:57:21.060Z</time>
      </trkpt>
      <trkpt lat="48.37533" lon="2.59867">
        <ele>126.027</ele>
        <time>2015-03-22T09:57:22.923Z</time>
      </trkpt>
      <trkpt lat="48.37533" lon="2.5989">
        <ele>126.664</ele>
        <time>2015-03-22T09:57:25.790Z</time>
      </trkpt>
      <trkpt lat="48.37534" lon="2.59914">
        <ele>126.833</ele>
        <time>2015-03-22T09:57:28.716Z</time>
      </trkpt>
      <trkpt lat="48.37534" lon="2.5994">
        <ele>126.374</ele>
        <time>2015-03-22T09:57:31.784Z</time>
      </trkpt>
      <trkpt lat="48.37534" lon="2.59965">
        <ele>125.532</ele>
        <time>2015-03-22T09:57:34.867Z</time>
      </trkpt>
      <trkpt lat="48.37534" lon="2.59988">
        <ele>124.693</ele>
        <time>2015-03-22T09:57:37.565Z</time>
      </trkpt>
      <trkpt lat="48.37534" lon="2.60009">
        <ele>124.127</ele>
        <time>2015-03-22T09:57:40.191Z</time>
      </trkpt>
      <trkpt lat="48.37534" lon="2.60032">
        <ele>124.136</ele>
        <time>2015-03-22T09:57:42.994Z</time>
      </trkpt>
      <trkpt lat="48.37534" lon="2.60053">
        <ele>124.888</ele>
        <time>2015-03-22T09:57:45.612Z</time>
      </trkpt>
      <trkpt lat="48.37535" lon="2.60076">
        <ele>126.025</ele>
        <time>2015-03-22T09:57:48.577Z</time>
      </trkpt>
      <trkpt lat="48.37536" lon="2.601">
        <ele>127.147</ele>
        <time>2015-03-22T09:57:51.596Z</time>
      </trkpt>
      <trkpt lat="48.37536" lon="2.60124">
        <ele>128.16</ele>
        <time>2015-03-22T09:57:54.650Z</time>
      </trkpt>
      <trkpt lat="48.37537" lon="2.60147">
        <ele>129.098</ele>
        <time>2015-03-22T09:57:57.625Z</time>
      </trkpt>
      <trkpt lat="48.37537" lon="2.6017">
        <ele>129.933</ele>
        <time>2015-03-22T09:58:00.584Z</time>
      </trkpt>
      <trkpt lat="48.37537" lon="2.60192">
        <ele>130.202</ele>
        <time>2015-03-22T09:58:03.544Z</time>
      </trkpt>
      <trkpt lat="48.37538" lon="2.60217">
        <ele>129.558</ele>
        <time>2015-03-22T09:58:06.654Z</time>
      </trkpt>
      <trkpt lat="48.37538" lon="2.60244">
        <ele>128.368</ele>
        <time>2015-03-22T09:58:09.991Z</time>
      </trkpt>
      <trkpt lat="48.37539" lon="2.60269">
        <ele>127.263</ele>
        <time>2015-03-22T09:58:13.075Z</time>
      </trkpt>
      <trkpt lat="48.37539" lon="2.60294">
        <ele>126.697</ele>
        <time>2015-03-22T09:58:16.158Z</time>
      </trkpt>
      <trkpt lat="48.37538" lon="2.60319">
        <ele>127.17</ele>
        <time>2015-03-22T09:58:19.340Z</time>
      </trkpt>
      <trkpt lat="48.37537" lon="2.60343">
        <ele>128.582</ele>
        <time>2015-03-22T09:58:22.560Z</time>
      </trkpt>
      <trkpt lat="48.3754" lon="2.6036">
        <ele>129.922</ele>
        <time>2015-03-22T09:58:25.081Z</time>
      </trkpt>
      <trkpt lat="48.37545" lon="2.60373">
        <ele>130.473</ele>
        <time>2015-03-22T09:58:27.449Z</time>
      </trkpt>
      <trkpt lat="48.37555" lon="2.60387">
        <ele>130.555</ele>
        <time>2015-03-22T09:58:30.393Z</time>
      </trkpt>
      <trkpt lat="48.37567" lon="2.60403">
        <ele>130.605</ele>
        <time>2015-03-22T09:58:33.882Z</time>
      </trkpt>
      <trkpt lat="48.37578" lon="2.60418">
        <ele>130.493</ele>
        <time>2015-03-22T09:58:37.301Z</time>
      </trkpt>
      <trkpt lat="48.37587" lon="2.60428">
        <ele>130.015</ele>
        <time>2015-03-22T09:58:40.538Z</time>
      </trkpt>
      <trkpt lat="48.37594" lon="2.60438">
        <ele>129.297</ele>
        <time>2015-03-22T09:58:43.404Z</time>
      </trkpt>
      <trkpt lat="48.37604" lon="2.60447">
        <ele>128.383</ele>
        <time>2015-03-22T09:58:47.457Z</time>
      </trkpt>
      <trkpt lat="48.37604" lon="2.60447">
        <ele>127.407</ele>
        <time>2015-03-22T09:58:52.456Z</time>
      </trkpt>
      <trkpt lat="48.37604" lon="2.60447">
        <ele>126.841</ele>
        <time>2015-03-22T09:58:52.556Z</time>
      </trkpt>
      <trkpt lat="48.37612" lon="2.60461">
        <ele>126.83</ele>
        <time>2015-03-22T09:59:12.039Z</time>
      </trkpt>
      <trkpt lat="48.3762" lon="2.60472">
        <ele>126.819</ele>
        <time>2015-03-22T09:59:15.941Z</time>
      </trkpt>
      <trkpt lat="48.37629" lon="2.60483">
        <ele>126.37</ele>
        <time>2015-03-22T09:59:19.296Z</time>
      </trkpt>
      <trkpt lat="48.37638" lon="2.60494">
        <ele>125.791</ele>
        <time>2015-03-22T09:59:22.569Z</time>
      </trkpt>
      <trkpt lat="48.37646" lon="2.60504">
        <ele>125.742</ele>
        <time>2015-03-22T09:59:25.636Z</time>
      </trkpt>
      <trkpt lat="48.37656" lon="2.60513">
        <ele>126.622</ele>
        <time>2015-03-22T09:59:28.692Z</time>
      </trkpt>
      <trkpt lat="48.37665" lon="2.60524">
        <ele>128.273</ele>
        <time>2015-03-22T09:59:31.990Z</time>
      </trkpt>
      <trkpt lat="48.37675" lon="2.60535">
        <ele>130.037</ele>
        <time>2015-03-22T09:59:35.212Z</time>
      </trkpt>
      <trkpt lat="48.37685" lon="2.60546">
        <ele>131.274</ele>
        <time>2015-03-22T09:59:38.285Z</time>
      </trkpt>
      <trkpt lat="48.37695" lon="2.60557">
        <ele>131.778</ele>
        <time>2015-03-22T09:59:41.424Z</time>
      </trkpt>
      <trkpt lat="48.37703" lon="2.60567">
        <ele>131.799</ele>
        <time>2015-03-22T09:59:44.365Z</time>
      </trkpt>
      <trkpt lat="48.37712" lon="2.60578">
        <ele>131.402</ele>
        <time>2015-03-22T09:59:47.343Z</time>
      </trkpt>
      <trkpt lat="48.37718" lon="2.60589">
        <ele>130.242</ele>
        <time>2015-03-22T09:59:50.071Z</time>
      </trkpt>
      <trkpt lat="48.37726" lon="2.60599">
        <ele>128.473</ele>
        <time>2015-03-22T09:59:53.102Z</time>
      </trkpt>
      <trkpt lat="48.37733" lon="2.60609">
        <ele>126.869</ele>
        <time>2015-03-22T09:59:55.868Z</time>
      </trkpt>
      <trkpt lat="48.37742" lon="2.60619">
        <ele>125.916</ele>
        <time>2015-03-22T09:59:58.996Z</time>
      </trkpt>
      <trkpt lat="48.37751" lon="2.60628">
        <ele>125.745</ele>
        <time>2015-03-22T10:00:02.241Z</time>
      </trkpt>
      <trkpt lat="48.3776" lon="2.60639">
        <ele>126.227</ele>
        <time>2015-03-22T10:00:05.944Z</time>
      </trkpt>
      <trkpt lat="48.37767" lon="2.60649">
        <ele>126.743</ele>
        <time>2015-03-22T10:00:09.376Z</time>
      </trkpt>
      <trkpt lat="48.37774" lon="2.60657">
        <ele>126.698</ele>
        <time>2015-03-22T10:00:12.886Z</time>
      </trkpt>
      <trkpt lat="48.37781" lon="2.60665">
        <ele>126.142</ele>
        <time>2015-03-22T10:00:16.606Z</time>
      </trkpt>
      <trkpt lat="48.3779" lon="2.60676">
        <ele>125.525</ele>
        <time>2015-03-22T10:00:21.421Z</time>
      </trkpt>
      <trkpt lat="48.37797" lon="2.60685">
        <ele>125.148</ele>
        <time>2015-03-22T10:00:25.350Z</time>
      </trkpt>
      <trkpt lat="48.37805" lon="2.60694">
        <ele>125.099</ele>
        <time>2015-03-22T10:00:29.697Z</time>
      </trkpt>
      <trkpt lat="48.37813" lon="2.60702">
        <ele>126.06</ele>
        <time>2015-03-22T10:00:33.777Z</time>
      </trkpt>
      <trkpt lat="48.37821" lon="2.60712">
        <ele>128.299</ele>
        <time>2015-03-22T10:00:37.893Z</time>
      </trkpt>
      <trkpt lat="48.37828" lon="2.60721">
        <ele>130.496</ele>
        <time>2015-03-22T10:00:41.586Z</time>
      </trkpt>
      <trkpt lat="48.37836" lon="2.60733">
        <ele>131.249</ele>
        <time>2015-03-22T10:00:45.842Z</time>
      </trkpt>
      <trkpt lat="48.37844" lon="2.60742">
        <ele>130.608</ele>
        <time>2015-03-22T10:00:49.392Z</time>
      </trkpt>
      <trkpt lat="48.37851" lon="2.6075">
        <ele>129.445</ele>
        <time>2015-03-22T10:00:52.957Z</time>
      </trkpt>
      <trkpt lat="48.3786" lon="2.60758">
        <ele>128.604</ele>
        <time>2015-03-22T10:00:56.819Z</time>
      </trkpt>
      <trkpt lat="48.37868" lon="2.60766">
        <ele>128.584</ele>
        <time>2015-03-22T10:01:00.559Z</time>
      </trkpt>
      <trkpt lat="48.37877" lon="2.60777">
        <ele>129.35</ele>
        <time>2015-03-22T10:01:04.822Z</time>
      </trkpt>
      <trkpt lat="48.37884" lon="2.60786">
        <ele>130.347</ele>
        <time>2015-03-22T10:01:07.959Z</time>
      </trkpt>
      <trkpt lat="48.37893" lon="2.60799">
        <ele>131.079</ele>
        <time>2015-03-22T10:01:11.829Z</time>
      </trkpt>
      <trkpt lat="48.379" lon="2.60809">
        <ele>131.168</ele>
        <time>2015-03-22T10:01:14.930Z</time>
      </trkpt>
      <trkpt lat="48.37908" lon="2.60818">
        <ele>130.52</ele>
        <time>2015-03-22T10:01:18.430Z</time>
      </trkpt>
      <trkpt lat="48.37915" lon="2.60827">
        <ele>129.666</ele>
        <time>2015-03-22T10:01:21.928Z</time>
      </trkpt>
      <trkpt lat="48.37923" lon="2.60836">
        <ele>128.965</ele>
        <time>2015-03-22T10:01:26.648Z</time>
      </trkpt>
      <trkpt lat="48.37932" lon="2.60848">
        <ele>128.394</ele>
        <time>2015-03-22T10:01:32.676Z</time>
      </trkpt>
      <trkpt lat="48.37939" lon="2.60856">
        <ele>128.383</ele>
        <time>2015-03-22T10:01:37.568Z</time>
      </trkpt>
      <trkpt lat="48.37946" lon="2.60865">
        <ele>129.225</ele>
        <time>2015-03-22T10:01:41.328Z</time>
      </trkpt>
      <trkpt lat="48.37955" lon="2.60875">
        <ele>130.253</ele>
        <time>2015-03-22T10:01:45.272Z</time>
      </trkpt>
      <trkpt lat="48.37963" lon="2.60884">
        <ele>130.782</ele>
        <time>2015-03-22T10:01:48.768Z</time>
      </trkpt>
      <trkpt lat="48.37971" lon="2.60892">
        <ele>130.917</ele>
        <time>2015-03-22T10:01:51.945Z</time>
      </trkpt>
      <trkpt lat="48.37979" lon="2.609">
        <ele>130.966</ele>
        <time>2015-03-22T10:01:55.077Z</time>
      </trkpt>
      <trkpt lat="48.37987" lon="2.60909">
        <ele>131.13</ele>
        <time>2015-03-22T10:01:58.956Z</time>
      </trkpt>
      <trkpt lat="48.37995" lon="2.6092">
        <ele>131.676</ele>
        <time>2015-03-22T10:02:03.071Z</time>
      </trkpt>
      <trkpt lat="48.38004" lon="2.60931">
        <ele>132.588</ele>
        <time>2015-03-22T10:02:07.356Z</time>
      </trkpt>
      <trkpt lat="48.38011" lon="2.60939">
        <ele>134.044</ele>
        <time>2015-03-22T10:02:10.748Z</time>
      </trkpt>
      <trkpt lat="48.3802" lon="2.60951">
        <ele>134.883</ele>
        <time>2015-03-22T10:02:14.852Z</time>
      </trkpt>
      <trkpt lat="48.38029" lon="2.60963">
        <ele>134.324</ele>
        <time>2015-03-22T10:02:18.337Z</time>
      </trkpt>
      <trkpt lat="48.38038" lon="2.60972">
        <ele>133.487</ele>
        <time>2015-03-22T10:02:21.450Z</time>
      </trkpt>
      <trkpt lat="48.38046" lon="2.60981">
        <ele>132.188</ele>
        <time>2015-03-22T10:02:24.170Z</time>
      </trkpt>
      <trkpt lat="48.38054" lon="2.6099">
        <ele>131.843</ele>
        <time>2015-03-22T10:02:27.097Z</time>
      </trkpt>
      <trkpt lat="48.38061" lon="2.61">
        <ele>133.585</ele>
        <time>2015-03-22T10:02:29.931Z</time>
      </trkpt>
      <trkpt lat="48.38071" lon="2.61012">
        <ele>135.954</ele>
        <time>2015-03-22T10:02:33.323Z</time>
      </trkpt>
      <trkpt lat="48.3808" lon="2.61023">
        <ele>137.283</ele>
        <time>2015-03-22T10:02:36.539Z</time>
      </trkpt>
      <trkpt lat="48.38087" lon="2.61033">
        <ele>137.115</ele>
        <time>2015-03-22T10:02:39.263Z</time>
      </trkpt>
      <trkpt lat="48.38095" lon="2.61043">
        <ele>135.631</ele>
        <time>2015-03-22T10:02:42.352Z</time>
      </trkpt>
      <trkpt lat="48.38102" lon="2.61053">
        <ele>133.562</ele>
        <time>2015-03-22T10:02:45.419Z</time>
      </trkpt>
      <trkpt lat="48.3811" lon="2.61063">
        <ele>131.439</ele>
        <time>2015-03-22T10:02:49.149Z</time>
      </trkpt>
      <trkpt lat="48.38118" lon="2.61073">
        <ele>129.535</ele>
        <time>2015-03-22T10:02:52.732Z</time>
      </trkpt>
      <trkpt lat="48.38125" lon="2.61082">
        <ele>128.311</ele>
        <time>2015-03-22T10:02:56.401Z</time>
      </trkpt>
      <trkpt lat="48.38131" lon="2.61097">
        <ele>128.396</ele>
        <time>2015-03-22T10:03:01.063Z</time>
      </trkpt>
      <trkpt lat="48.38134" lon="2.61115">
        <ele>129.932</ele>
        <time>2015-03-22T10:03:05.660Z</time>
      </trkpt>
      <trkpt lat="48.38134" lon="2.61129">
        <ele>131.844</ele>
        <time>2015-03-22T10:03:08.937Z</time>
      </trkpt>
      <trkpt lat="48.38134" lon="2.61143">
        <ele>132.983</ele>
        <time>2015-03-22T10:03:12.166Z</time>
      </trkpt>
      <trkpt lat="48.38135" lon="2.61158">
        <ele>133.698</ele>
        <time>2015-03-22T10:03:15.452Z</time>
      </trkpt>
      <trkpt lat="48.38135" lon="2.61176">
        <ele>134.729</ele>
        <time>2015-03-22T10:03:19.098Z</time>
      </trkpt>
      <trkpt lat="48.38135" lon="2.61194">
        <ele>135.767</ele>
        <time>2015-03-22T10:03:22.650Z</time>
      </trkpt>
      <trkpt lat="48.38135" lon="2.61211">
        <ele>136.082</ele>
        <time>2015-03-22T10:03:25.633Z</time>
      </trkpt>
      <trkpt lat="48.38136" lon="2.61227">
        <ele>135.753</ele>
        <time>2015-03-22T10:03:28.610Z</time>
      </trkpt>
      <trkpt lat="48.38136" lon="2.61244">
        <ele>135.311</ele>
        <time>2015-03-22T10:03:31.664Z</time>
      </trkpt>
      <trkpt lat="48.38136" lon="2.6126">
        <ele>134.911</ele>
        <time>2015-03-22T10:03:34.484Z</time>
      </trkpt>
      <trkpt lat="48.38137" lon="2.61279">
        <ele>134.354</ele>
        <time>2015-03-22T10:03:38.080Z</time>
      </trkpt>
      <trkpt lat="48.38137" lon="2.61295">
        <ele>133.815</ele>
        <time>2015-03-22T10:03:41.179Z</time>
      </trkpt>
      <trkpt lat="48.38138" lon="2.61313">
        <ele>133.935</ele>
        <time>2015-03-22T10:03:44.617Z</time>
      </trkpt>
      <trkpt lat="48.38138" lon="2.61328">
        <ele>134.805</ele>
        <time>2015-03-22T10:03:47.275Z</time>
      </trkpt>
      <trkpt lat="48.38139" lon="2.61347">
        <ele>135.728</ele>
        <time>2015-03-22T10:03:50.486Z</time>
      </trkpt>
      <trkpt lat="48.3814" lon="2.61367">
        <ele>135.713</ele>
        <time>2015-03-22T10:03:53.904Z</time>
      </trkpt>
      <trkpt lat="48.38141" lon="2.61384">
        <ele>135.037</ele>
        <time>2015-03-22T10:03:56.877Z</time>
      </trkpt>
      <trkpt lat="48.38143" lon="2.61399">
        <ele>135.08</ele>
        <time>2015-03-22T10:03:59.759Z</time>
      </trkpt>
      <trkpt lat="48.38142" lon="2.61415">
        <ele>136.083</ele>
        <time>2015-03-22T10:04:02.744Z</time>
      </trkpt>
      <trkpt lat="48.38143" lon="2.61433">
        <ele>137.927</ele>
        <time>2015-03-22T10:04:06.217Z</time>
      </trkpt>
      <trkpt lat="48.38143" lon="2.61453">
        <ele>139.335</ele>
        <time>2015-03-22T10:04:09.795Z</time>
      </trkpt>
      <trkpt lat="48.38142" lon="2.61472">
        <ele>138.855</ele>
        <time>2015-03-22T10:04:13.075Z</time>
      </trkpt>
      <trkpt lat="48.38142" lon="2.61486">
        <ele>137.579</ele>
        <time>2015-03-22T10:04:15.592Z</time>
      </trkpt>
      <trkpt lat="48.38141" lon="2.61501">
        <ele>135.26</ele>
        <time>2015-03-22T10:04:18.504Z</time>
      </trkpt>
      <trkpt lat="48.38143" lon="2.61517">
        <ele>133.412</ele>
        <time>2015-03-22T10:04:21.777Z</time>
      </trkpt>
      <trkpt lat="48.38144" lon="2.6153">
        <ele>133.549</ele>
        <time>2015-03-22T10:04:24.912Z</time>
      </trkpt>
      <trkpt lat="48.38145" lon="2.61548">
        <ele>134.921</ele>
        <time>2015-03-22T10:04:29.164Z</time>
      </trkpt>
      <trkpt lat="48.38145" lon="2.61563">
        <ele>135.985</ele>
        <time>2015-03-22T10:04:32.832Z</time>
      </trkpt>
      <trkpt lat="48.38145" lon="2.61578">
        <ele>136.135</ele>
        <time>2015-03-22T10:04:36.463Z</time>
      </trkpt>
      <trkpt lat="48.38144" lon="2.61593">
        <ele>136.756</ele>
        <time>2015-03-22T10:04:40.011Z</time>
      </trkpt>
      <trkpt lat="48.38145" lon="2.61611">
        <ele>139.126</ele>
        <time>2015-03-22T10:04:43.884Z</time>
      </trkpt>
      <trkpt lat="48.38146" lon="2.61626">
        <ele>142.34</ele>
        <time>2015-03-22T10:04:47.079Z</time>
      </trkpt>
      <trkpt lat="48.38147" lon="2.61642">
        <ele>144.723</ele>
        <time>2015-03-22T10:04:50.312Z</time>
      </trkpt>
      <trkpt lat="48.38146" lon="2.61656">
        <ele>145.666</ele>
        <time>2015-03-22T10:04:53.141Z</time>
      </trkpt>
      <trkpt lat="48.38147" lon="2.61674">
        <ele>145.156</ele>
        <time>2015-03-22T10:04:56.626Z</time>
      </trkpt>
      <trkpt lat="48.38148" lon="2.61688">
        <ele>143.595</ele>
        <time>2015-03-22T10:04:59.253Z</time>
      </trkpt>
      <trkpt lat="48.38149" lon="2.61702">
        <ele>141.494</ele>
        <time>2015-03-22T10:05:02.115Z</time>
      </trkpt>
      <trkpt lat="48.38149" lon="2.61716">
        <ele>138.781</ele>
        <time>2015-03-22T10:05:05.438Z</time>
      </trkpt>
      <trkpt lat="48.3815" lon="2.61731">
        <ele>135.624</ele>
        <time>2015-03-22T10:05:09.369Z</time>
      </trkpt>
      <trkpt lat="48.38149" lon="2.61745">
        <ele>133.33</ele>
        <time>2015-03-22T10:05:13.775Z</time>
      </trkpt>
      <trkpt lat="48.38149" lon="2.61761">
        <ele>132.709</ele>
        <time>2015-03-22T10:05:18.598Z</time>
      </trkpt>
      <trkpt lat="48.38148" lon="2.61775">
        <ele>133.432</ele>
        <time>2015-03-22T10:05:22.269Z</time>
      </trkpt>
      <trkpt lat="48.38148" lon="2.61793">
        <ele>134.732</ele>
        <time>2015-03-22T10:05:26.486Z</time>
      </trkpt>
      <trkpt lat="48.38148" lon="2.61808">
        <ele>135.673</ele>
        <time>2015-03-22T10:05:29.637Z</time>
      </trkpt>
      <trkpt lat="48.38149" lon="2.61822">
        <ele>135.89</ele>
        <time>2015-03-22T10:05:32.407Z</time>
      </trkpt>
      <trkpt lat="48.38149" lon="2.61838">
        <ele>136.31</ele>
        <time>2015-03-22T10:05:35.621Z</time>
      </trkpt>
      <trkpt lat="48.3815" lon="2.61853">
        <ele>137.66</ele>
        <time>2015-03-22T10:05:38.382Z</time>
      </trkpt>
      <trkpt lat="48.38151" lon="2.6187">
        <ele>138.793</ele>
        <time>2015-03-22T10:05:41.710Z</time>
      </trkpt>
      <trkpt lat="48.38153" lon="2.61885">
        <ele>138.606</ele>
        <time>2015-03-22T10:05:44.452Z</time>
      </trkpt>
      <trkpt lat="48.38153" lon="2.61885">
        <ele>137.863</ele>
        <time>2015-03-22T10:05:51.459Z</time>
      </trkpt>
      <trkpt lat="48.38153" lon="2.61885">
        <ele>138.057</ele>
        <time>2015-03-22T10:08:37.515Z</time>
      </trkpt>
      <trkpt lat="48.3816" lon="2.61907">
        <ele>138.053</ele>
        <time>2015-03-22T10:09:40.372Z</time>
      </trkpt>
      <trkpt lat="48.38165" lon="2.61921">
        <ele>137.518</ele>
        <time>2015-03-22T10:09:44.323Z</time>
      </trkpt>
      <trkpt lat="48.3817" lon="2.61934">
        <ele>136.431</ele>
        <time>2015-03-22T10:09:47.176Z</time>
      </trkpt>
      <trkpt lat="48.38175" lon="2.6195">
        <ele>135.511</ele>
        <time>2015-03-22T10:09:50.156Z</time>
      </trkpt>
      <trkpt lat="48.3818" lon="2.61966">
        <ele>135.328</ele>
        <time>2015-03-22T10:09:53.095Z</time>
      </trkpt>
      <trkpt lat="48.38185" lon="2.61983">
        <ele>135.359</ele>
        <time>2015-03-22T10:09:56.443Z</time>
      </trkpt>
      <trkpt lat="48.38191" lon="2.61998">
        <ele>134.653</ele>
        <time>2015-03-22T10:09:59.473Z</time>
      </trkpt>
      <trkpt lat="48.38194" lon="2.62011">
        <ele>132.988</ele>
        <time>2015-03-22T10:10:02.258Z</time>
      </trkpt>
      <trkpt lat="48.38199" lon="2.62026">
        <ele>131.018</ele>
        <time>2015-03-22T10:10:05.378Z</time>
      </trkpt>
      <trkpt lat="48.38205" lon="2.62043">
        <ele>129.35</ele>
        <time>2015-03-22T10:10:09.015Z</time>
      </trkpt>
      <trkpt lat="48.3821" lon="2.62059">
        <ele>128.227</ele>
        <time>2015-03-22T10:10:12.603Z</time>
      </trkpt>
      <trkpt lat="48.38215" lon="2.62071">
        <ele>128.364</ele>
        <time>2015-03-22T10:10:15.393Z</time>
      </trkpt>
      <trkpt lat="48.3822" lon="2.62085">
        <ele>129.953</ele>
        <time>2015-03-22T10:10:18.292Z</time>
      </trkpt>
      <trkpt lat="48.38226" lon="2.62102">
        <ele>131.722</ele>
        <time>2015-03-22T10:10:21.786Z</time>
      </trkpt>
      <trkpt lat="48.3823" lon="2.62116">
        <ele>132.534</ele>
        <time>2015-03-22T10:10:24.553Z</time>
      </trkpt>
      <trkpt lat="48.38235" lon="2.62133">
        <ele>132.546</ele>
        <time>2015-03-22T10:10:27.731Z</time>
      </trkpt>
      <trkpt lat="48.38241" lon="2.62149">
        <ele>132.262</ele>
        <time>2015-03-22T10:10:30.823Z</time>
      </trkpt>
      <trkpt lat="48.38247" lon="2.62165">
        <ele>131.641</ele>
        <time>2015-03-22T10:10:33.912Z</time>
      </trkpt>
      <trkpt lat="48.38252" lon="2.62181">
        <ele>130.513</ele>
        <time>2015-03-22T10:10:37.028Z</time>
      </trkpt>
      <trkpt lat="48.38257" lon="2.62195">
        <ele>129.393</ele>
        <time>2015-03-22T10:10:39.788Z</time>
      </trkpt>
      <trkpt lat="48.38261" lon="2.62211">
        <ele>128.824</ele>
        <time>2015-03-22T10:10:42.791Z</time>
      </trkpt>
      <trkpt lat="48.38265" lon="2.62225">
        <ele>128.907</ele>
        <time>2015-03-22T10:10:45.516Z</time>
      </trkpt>
      <trkpt lat="48.3827" lon="2.6224">
        <ele>129.616</ele>
        <time>2015-03-22T10:10:48.577Z</time>
      </trkpt>
      <trkpt lat="48.38277" lon="2.62256">
        <ele>130.999</ele>
        <time>2015-03-22T10:10:51.866Z</time>
      </trkpt>
      <trkpt lat="48.38282" lon="2.62271">
        <ele>132.816</ele>
        <time>2015-03-22T10:10:55.200Z</time>
      </trkpt>
      <trkpt lat="48.38288" lon="2.62287">
        <ele>134.127</ele>
        <time>2015-03-22T10:10:58.845Z</time>
      </trkpt>
      <trkpt lat="48.38291" lon="2.62301">
        <ele>134.353</ele>
        <time>2015-03-22T10:11:01.834Z</time>
      </trkpt>
      <trkpt lat="48.38295" lon="2.62318">
        <ele>134.334</ele>
        <time>2015-03-22T10:11:05.112Z</time>
      </trkpt>
      <trkpt lat="48.38301" lon="2.62333">
        <ele>135.206</ele>
        <time>2015-03-22T10:11:08.253Z</time>
      </trkpt>
      <trkpt lat="48.38306" lon="2.62349">
        <ele>136.862</ele>
        <time>2015-03-22T10:11:11.270Z</time>
      </trkpt>
      <trkpt lat="48.38312" lon="2.62366">
        <ele>137.759</ele>
        <time>2015-03-22T10:11:14.839Z</time>
      </trkpt>
      <trkpt lat="48.38318" lon="2.62386">
        <ele>137.1</ele>
        <time>2015-03-22T10:11:18.818Z</time>
      </trkpt>
      <trkpt lat="48.38336" lon="2.62438">
        <ele>136.296</ele>
        <time>2015-03-22T10:11:30.304Z</time>
      </trkpt>
      <trkpt lat="48.38341" lon="2.62453">
        <ele>136.644</ele>
        <time>2015-03-22T10:11:34.272Z</time>
      </trkpt>
      <trkpt lat="48.38346" lon="2.62466">
        <ele>137.573</ele>
        <time>2015-03-22T10:11:37.668Z</time>
      </trkpt>
      <trkpt lat="48.38351" lon="2.62479">
        <ele>138.214</ele>
        <time>2015-03-22T10:11:40.964Z</time>
      </trkpt>
      <trkpt lat="48.38355" lon="2.62495">
        <ele>138.147</ele>
        <time>2015-03-22T10:11:44.968Z</time>
      </trkpt>
      <trkpt lat="48.3836" lon="2.62507">
        <ele>137.147</ele>
        <time>2015-03-22T10:11:48.344Z</time>
      </trkpt>
      <trkpt lat="48.38364" lon="2.62521">
        <ele>135.734</ele>
        <time>2015-03-22T10:11:51.883Z</time>
      </trkpt>
      <trkpt lat="48.38369" lon="2.62535">
        <ele>135.95</ele>
        <time>2015-03-22T10:11:55.438Z</time>
      </trkpt>
      <trkpt lat="48.38373" lon="2.6255">
        <ele>138.735</ele>
        <time>2015-03-22T10:11:58.869Z</time>
      </trkpt>
      <trkpt lat="48.38378" lon="2.62561">
        <ele>142.089</ele>
        <time>2015-03-22T10:12:01.933Z</time>
      </trkpt>
      <trkpt lat="48.38385" lon="2.62574">
        <ele>144.049</ele>
        <time>2015-03-22T10:12:05.681Z</time>
      </trkpt>
      <trkpt lat="48.3839" lon="2.6259">
        <ele>144.92</ele>
        <time>2015-03-22T10:12:09.717Z</time>
      </trkpt>
      <trkpt lat="48.38394" lon="2.62603">
        <ele>145.443</ele>
        <time>2015-03-22T10:12:13.083Z</time>
      </trkpt>
      <trkpt lat="48.38399" lon="2.62618">
        <ele>146.183</ele>
        <time>2015-03-22T10:12:16.590Z</time>
      </trkpt>
      <trkpt lat="48.38404" lon="2.62631">
        <ele>146.847</ele>
        <time>2015-03-22T10:12:19.602Z</time>
      </trkpt>
      <trkpt lat="48.38409" lon="2.62647">
        <ele>146.401</ele>
        <time>2015-03-22T10:12:22.926Z</time>
      </trkpt>
      <trkpt lat="48.38413" lon="2.6266">
        <ele>144.694</ele>
        <time>2015-03-22T10:12:25.669Z</time>
      </trkpt>
      <trkpt lat="48.38417" lon="2.62674">
        <ele>142.904</ele>
        <time>2015-03-22T10:12:28.723Z</time>
      </trkpt>
      <trkpt lat="48.38421" lon="2.62687">
        <ele>142.52</ele>
        <time>2015-03-22T10:12:31.627Z</time>
      </trkpt>
      <trkpt lat="48.38426" lon="2.62701">
        <ele>145.575</ele>
        <time>2015-03-22T10:12:34.791Z</time>
      </trkpt>
      <trkpt lat="48.38431" lon="2.62714">
        <ele>145.66</ele>
        <time>2015-03-22T10:12:37.725Z</time>
      </trkpt>
      <trkpt lat="48.38435" lon="2.62727">
        <ele>144.13</ele>
        <time>2015-03-22T10:12:40.780Z</time>
      </trkpt>
      <trkpt lat="48.38439" lon="2.6274">
        <ele>140.938</ele>
        <time>2015-03-22T10:12:43.719Z</time>
      </trkpt>
      <trkpt lat="48.38443" lon="2.62754">
        <ele>140.426</ele>
        <time>2015-03-22T10:12:46.831Z</time>
      </trkpt>
      <trkpt lat="48.38448" lon="2.62767">
        <ele>140.216</ele>
        <time>2015-03-22T10:12:49.701Z</time>
      </trkpt>
      <trkpt lat="48.38453" lon="2.62783">
        <ele>140.254</ele>
        <time>2015-03-22T10:12:53.152Z</time>
      </trkpt>
      <trkpt lat="48.38458" lon="2.62799">
        <ele>140.594</ele>
        <time>2015-03-22T10:12:56.414Z</time>
      </trkpt>
      <trkpt lat="48.38463" lon="2.62815">
        <ele>140.974</ele>
        <time>2015-03-22T10:12:59.877Z</time>
      </trkpt>
      <trkpt lat="48.38469" lon="2.62829">
        <ele>141.427</ele>
        <time>2015-03-22T10:13:02.990Z</time>
      </trkpt>
      <trkpt lat="48.38475" lon="2.62843">
        <ele>142.149</ele>
        <time>2015-03-22T10:13:06.103Z</time>
      </trkpt>
      <trkpt lat="48.38478" lon="2.62857">
        <ele>142.607</ele>
        <time>2015-03-22T10:13:08.791Z</time>
      </trkpt>
      <trkpt lat="48.38482" lon="2.62871">
        <ele>142.396</ele>
        <time>2015-03-22T10:13:11.771Z</time>
      </trkpt>
      <trkpt lat="48.38488" lon="2.62887">
        <ele>142.64</ele>
        <time>2015-03-22T10:13:15.040Z</time>
      </trkpt>
      <trkpt lat="48.38493" lon="2.62903">
        <ele>143.413</ele>
        <time>2015-03-22T10:13:18.141Z</time>
      </trkpt>
      <trkpt lat="48.38497" lon="2.62915">
        <ele>144.821</ele>
        <time>2015-03-22T10:13:20.551Z</time>
      </trkpt>
      <trkpt lat="48.38503" lon="2.62932">
        <ele>144.514</ele>
        <time>2015-03-22T10:13:23.817Z</time>
      </trkpt>
      <trkpt lat="48.38508" lon="2.62948">
        <ele>143.648</ele>
        <time>2015-03-22T10:13:26.714Z</time>
      </trkpt>
      <trkpt lat="48.38513" lon="2.62963">
        <ele>142.668</ele>
        <time>2015-03-22T10:13:29.594Z</time>
      </trkpt>
      <trkpt lat="48.38518" lon="2.62978">
        <ele>142.053</ele>
        <time>2015-03-22T10:13:32.428Z</time>
      </trkpt>
      <trkpt lat="48.38524" lon="2.62994">
        <ele>142.209</ele>
        <time>2015-03-22T10:13:35.641Z</time>
      </trkpt>
      <trkpt lat="48.38527" lon="2.63007">
        <ele>142.99</ele>
        <time>2015-03-22T10:13:38.308Z</time>
      </trkpt>
      <trkpt lat="48.38531" lon="2.63021">
        <ele>142.596</ele>
        <time>2015-03-22T10:13:41.275Z</time>
      </trkpt>
      <trkpt lat="48.3853" lon="2.63036">
        <ele>139.912</ele>
        <time>2015-03-22T10:13:44.614Z</time>
      </trkpt>
      <trkpt lat="48.38526" lon="2.63052">
        <ele>137.5</ele>
        <time>2015-03-22T10:13:48.662Z</time>
      </trkpt>
      <trkpt lat="48.38528" lon="2.63069">
        <ele>138.508</ele>
        <time>2015-03-22T10:13:52.520Z</time>
      </trkpt>
      <trkpt lat="48.38534" lon="2.63083">
        <ele>142.152</ele>
        <time>2015-03-22T10:13:56.471Z</time>
      </trkpt>
      <trkpt lat="48.38542" lon="2.63095">
        <ele>143.473</ele>
        <time>2015-03-22T10:14:00.525Z</time>
      </trkpt>
      <trkpt lat="48.38546" lon="2.63109">
        <ele>139.797</ele>
        <time>2015-03-22T10:14:04.034Z</time>
      </trkpt>
      <trkpt lat="48.38547" lon="2.63128">
        <ele>135.739</ele>
        <time>2015-03-22T10:14:08.273Z</time>
      </trkpt>
      <trkpt lat="48.38547" lon="2.63143">
        <ele>135.953</ele>
        <time>2015-03-22T10:14:11.569Z</time>
      </trkpt>
      <trkpt lat="48.38549" lon="2.63161">
        <ele>138.996</ele>
        <time>2015-03-22T10:14:15.042Z</time>
      </trkpt>
      <trkpt lat="48.38551" lon="2.63175">
        <ele>141.815</ele>
        <time>2015-03-22T10:14:17.868Z</time>
      </trkpt>
      <trkpt lat="48.38552" lon="2.63191">
        <ele>143.536</ele>
        <time>2015-03-22T10:14:20.724Z</time>
      </trkpt>
      <trkpt lat="48.38553" lon="2.63204">
        <ele>144.562</ele>
        <time>2015-03-22T10:14:23.168Z</time>
      </trkpt>
      <trkpt lat="48.38554" lon="2.63219">
        <ele>144.865</ele>
        <time>2015-03-22T10:14:25.724Z</time>
      </trkpt>
      <trkpt lat="48.38556" lon="2.63237">
        <ele>144.236</ele>
        <time>2015-03-22T10:14:28.681Z</time>
      </trkpt>
      <trkpt lat="48.38557" lon="2.63256">
        <ele>143.258</ele>
        <time>2015-03-22T10:14:31.816Z</time>
      </trkpt>
      <trkpt lat="48.38558" lon="2.63274">
        <ele>142.233</ele>
        <time>2015-03-22T10:14:34.711Z</time>
      </trkpt>
      <trkpt lat="48.38557" lon="2.63293">
        <ele>140.989</ele>
        <time>2015-03-22T10:14:38.152Z</time>
      </trkpt>
      <trkpt lat="48.38558" lon="2.63307">
        <ele>139.097</ele>
        <time>2015-03-22T10:14:40.791Z</time>
      </trkpt>
      <trkpt lat="48.3856" lon="2.63323">
        <ele>136.525</ele>
        <time>2015-03-22T10:14:44.293Z</time>
      </trkpt>
      <trkpt lat="48.38561" lon="2.63338">
        <ele>134.972</ele>
        <time>2015-03-22T10:14:47.700Z</time>
      </trkpt>
      <trkpt lat="48.38562" lon="2.63354">
        <ele>135.885</ele>
        <time>2015-03-22T10:14:51.413Z</time>
      </trkpt>
      <trkpt lat="48.38563" lon="2.63369">
        <ele>138.17</ele>
        <time>2015-03-22T10:14:54.337Z</time>
      </trkpt>
      <trkpt lat="48.38563" lon="2.63385">
        <ele>140.161</ele>
        <time>2015-03-22T10:14:57.399Z</time>
      </trkpt>
      <trkpt lat="48.38564" lon="2.63404">
        <ele>140.565</ele>
        <time>2015-03-22T10:15:00.673Z</time>
      </trkpt>
      <trkpt lat="48.38564" lon="2.63425">
        <ele>138.681</ele>
        <time>2015-03-22T10:15:04.124Z</time>
      </trkpt>
      <trkpt lat="48.38564" lon="2.63441">
        <ele>135.66</ele>
        <time>2015-03-22T10:15:07.009Z</time>
      </trkpt>
      <trkpt lat="48.38566" lon="2.63457">
        <ele>133.456</ele>
        <time>2015-03-22T10:15:10.020Z</time>
      </trkpt>
      <trkpt lat="48.38566" lon="2.63475">
        <ele>132.765</ele>
        <time>2015-03-22T10:15:13.557Z</time>
      </trkpt>
      <trkpt lat="48.38567" lon="2.63489">
        <ele>133.058</ele>
        <time>2015-03-22T10:15:16.616Z</time>
      </trkpt>
      <trkpt lat="48.38569" lon="2.63504">
        <ele>133.669</ele>
        <time>2015-03-22T10:15:19.642Z</time>
      </trkpt>
      <trkpt lat="48.3857" lon="2.63519">
        <ele>134.313</ele>
        <time>2015-03-22T10:15:22.514Z</time>
      </trkpt>
      <trkpt lat="48.38572" lon="2.63538">
        <ele>134.863</ele>
        <time>2015-03-22T10:15:26.105Z</time>
      </trkpt>
      <trkpt lat="48.38574" lon="2.63553">
        <ele>134.87</ele>
        <time>2015-03-22T10:15:28.755Z</time>
      </trkpt>
      <trkpt lat="48.38575" lon="2.63569">
        <ele>134.17</ele>
        <time>2015-03-22T10:15:31.729Z</time>
      </trkpt>
      <trkpt lat="48.38575" lon="2.63586">
        <ele>133.311</ele>
        <time>2015-03-22T10:15:34.724Z</time>
      </trkpt>
      <trkpt lat="48.38576" lon="2.63605">
        <ele>133.528</ele>
        <time>2015-03-22T10:15:37.923Z</time>
      </trkpt>
      <trkpt lat="48.38576" lon="2.63624">
        <ele>133.759</ele>
        <time>2015-03-22T10:15:40.971Z</time>
      </trkpt>
      <trkpt lat="48.38576" lon="2.63641">
        <ele>133.914</ele>
        <time>2015-03-22T10:15:43.989Z</time>
      </trkpt>
      <trkpt lat="48.38576" lon="2.63655">
        <ele>134.227</ele>
        <time>2015-03-22T10:15:46.493Z</time>
      </trkpt>
      <trkpt lat="48.38578" lon="2.63669">
        <ele>135.247</ele>
        <time>2015-03-22T10:15:49.113Z</time>
      </trkpt>
      <trkpt lat="48.38578" lon="2.63683">
        <ele>137.255</ele>
        <time>2015-03-22T10:15:51.848Z</time>
      </trkpt>
      <trkpt lat="48.38579" lon="2.63699">
        <ele>138.751</ele>
        <time>2015-03-22T10:15:55.868Z</time>
      </trkpt>
      <trkpt lat="48.38589" lon="2.63701">
        <ele>138.075</ele>
        <time>2015-03-22T10:15:59.667Z</time>
      </trkpt>
      <trkpt lat="48.386" lon="2.63702">
        <ele>135.104</ele>
        <time>2015-03-22T10:16:05.504Z</time>
      </trkpt>
      <trkpt lat="48.38612" lon="2.63704">
        <ele>131.087</ele>
        <time>2015-03-22T10:16:10.234Z</time>
      </trkpt>
      <trkpt lat="48.38624" lon="2.63706">
        <ele>127.808</ele>
        <time>2015-03-22T10:16:13.634Z</time>
      </trkpt>
      <trkpt lat="48.38633" lon="2.63707">
        <ele>126.198</ele>
        <time>2015-03-22T10:16:16.004Z</time>
      </trkpt>
      <trkpt lat="48.38649" lon="2.63709">
        <ele>125.885</ele>
        <time>2015-03-22T10:16:19.658Z</time>
      </trkpt>
      <trkpt lat="48.3866" lon="2.63712">
        <ele>126.038</ele>
        <time>2015-03-22T10:16:22.046Z</time>
      </trkpt>
      <trkpt lat="48.38672" lon="2.63714">
        <ele>125.998</ele>
        <time>2015-03-22T10:16:24.623Z</time>
      </trkpt>
      <trkpt lat="48.38685" lon="2.63716">
        <ele>125.598</ele>
        <time>2015-03-22T10:16:27.399Z</time>
      </trkpt>
      <trkpt lat="48.387" lon="2.63719">
        <ele>125.141</ele>
        <time>2015-03-22T10:16:30.602Z</time>
      </trkpt>
      <trkpt lat="48.38714" lon="2.63723">
        <ele>124.497</ele>
        <time>2015-03-22T10:16:33.847Z</time>
      </trkpt>
      <trkpt lat="48.38724" lon="2.63726">
        <ele>123.332</ele>
        <time>2015-03-22T10:16:36.385Z</time>
      </trkpt>
      <trkpt lat="48.38734" lon="2.63726">
        <ele>121.601</ele>
        <time>2015-03-22T10:16:39.208Z</time>
      </trkpt>
      <trkpt lat="48.38745" lon="2.63728">
        <ele>119.506</ele>
        <time>2015-03-22T10:16:42.240Z</time>
      </trkpt>
      <trkpt lat="48.38754" lon="2.63729">
        <ele>117.703</ele>
        <time>2015-03-22T10:16:45.114Z</time>
      </trkpt>
      <trkpt lat="48.38764" lon="2.63731">
        <ele>117.043</ele>
        <time>2015-03-22T10:16:48.562Z</time>
      </trkpt>
      <trkpt lat="48.38775" lon="2.63734">
        <ele>117.689</ele>
        <time>2015-03-22T10:16:52.429Z</time>
      </trkpt>
      <trkpt lat="48.38785" lon="2.63734">
        <ele>119.037</ele>
        <time>2015-03-22T10:16:56.845Z</time>
      </trkpt>
      <trkpt lat="48.38794" lon="2.63735">
        <ele>120.768</ele>
        <time>2015-03-22T10:17:01.321Z</time>
      </trkpt>
      <trkpt lat="48.38803" lon="2.63739">
        <ele>122.828</ele>
        <time>2015-03-22T10:17:06.065Z</time>
      </trkpt>
      <trkpt lat="48.38814" lon="2.63742">
        <ele>124.234</ele>
        <time>2015-03-22T10:17:11.259Z</time>
      </trkpt>
      <trkpt lat="48.38823" lon="2.63745">
        <ele>124.267</ele>
        <time>2015-03-22T10:17:16.114Z</time>
      </trkpt>
      <trkpt lat="48.38827" lon="2.63761">
        <ele>123.881</ele>
        <time>2015-03-22T10:17:21.676Z</time>
      </trkpt>
      <trkpt lat="48.38828" lon="2.63774">
        <ele>124.092</ele>
        <time>2015-03-22T10:17:26.697Z</time>
      </trkpt>
      <trkpt lat="48.38829" lon="2.63789">
        <ele>125.052</ele>
        <time>2015-03-22T10:17:31.212Z</time>
      </trkpt>
      <trkpt lat="48.38831" lon="2.63806">
        <ele>126.795</ele>
        <time>2015-03-22T10:17:35.751Z</time>
      </trkpt>
      <trkpt lat="48.38832" lon="2.6382">
        <ele>128.954</ele>
        <time>2015-03-22T10:17:39.260Z</time>
      </trkpt>
      <trkpt lat="48.38835" lon="2.63838">
        <ele>130.527</ele>
        <time>2015-03-22T10:17:43.235Z</time>
      </trkpt>
      <trkpt lat="48.38836" lon="2.63856">
        <ele>131.118</ele>
        <time>2015-03-22T10:17:47.250Z</time>
      </trkpt>
      <trkpt lat="48.38838" lon="2.63871">
        <ele>131.156</ele>
        <time>2015-03-22T10:17:50.454Z</time>
      </trkpt>
      <trkpt lat="48.3884" lon="2.63887">
        <ele>130.696</ele>
        <time>2015-03-22T10:17:53.842Z</time>
      </trkpt>
      <trkpt lat="48.38841" lon="2.63901">
        <ele>129.538</ele>
        <time>2015-03-22T10:17:56.808Z</time>
      </trkpt>
      <trkpt lat="48.38843" lon="2.6392">
        <ele>128.314</ele>
        <time>2015-03-22T10:18:00.585Z</time>
      </trkpt>
      <trkpt lat="48.38844" lon="2.63935">
        <ele>127.745</ele>
        <time>2015-03-22T10:18:03.634Z</time>
      </trkpt>
      <trkpt lat="48.38846" lon="2.6395">
        <ele>127.61</ele>
        <time>2015-03-22T10:18:06.728Z</time>
      </trkpt>
      <trkpt lat="48.38849" lon="2.63964">
        <ele>127.088</ele>
        <time>2015-03-22T10:18:09.461Z</time>
      </trkpt>
      <trkpt lat="48.38849" lon="2.63964">
        <ele>125.873</ele>
        <time>2015-03-22T10:18:22.457Z</time>
      </trkpt>
      <trkpt lat="48.38849" lon="2.63964">
        <ele>124.852</ele>
        <time>2015-03-22T10:19:04.407Z</time>
      </trkpt>
      <trkpt lat="48.3885" lon="2.63989">
        <ele>124.987</ele>
        <time>2015-03-22T10:19:31.855Z</time>
      </trkpt>
      <trkpt lat="48.38852" lon="2.64004">
        <ele>126.717</ele>
        <time>2015-03-22T10:19:36.265Z</time>
      </trkpt>
      <trkpt lat="48.38854" lon="2.6402">
        <ele>129.79</ele>
        <time>2015-03-22T10:19:39.779Z</time>
      </trkpt>
      <trkpt lat="48.38857" lon="2.64035">
        <ele>132.533</ele>
        <time>2015-03-22T10:19:43.133Z</time>
      </trkpt>
      <trkpt lat="48.38859" lon="2.6405">
        <ele>133.316</ele>
        <time>2015-03-22T10:19:46.300Z</time>
      </trkpt>
      <trkpt lat="48.38859" lon="2.64064">
        <ele>132.447</ele>
        <time>2015-03-22T10:19:49.684Z</time>
      </trkpt>
      <trkpt lat="48.3886" lon="2.64078">
        <ele>131.53</ele>
        <time>2015-03-22T10:19:53.031Z</time>
      </trkpt>
      <trkpt lat="48.38856" lon="2.64095">
        <ele>131.753</ele>
        <time>2015-03-22T10:19:57.512Z</time>
      </trkpt>
      <trkpt lat="48.38851" lon="2.6411">
        <ele>132.787</ele>
        <time>2015-03-22T10:20:01.800Z</time>
      </trkpt>
      <trkpt lat="48.38846" lon="2.64122">
        <ele>132.93</ele>
        <time>2015-03-22T10:20:05.100Z</time>
      </trkpt>
      <trkpt lat="48.3884" lon="2.64136">
        <ele>131.22</ele>
        <time>2015-03-22T10:20:08.585Z</time>
      </trkpt>
      <trkpt lat="48.38832" lon="2.64151">
        <ele>128.842</ele>
        <time>2015-03-22T10:20:12.154Z</time>
      </trkpt>
      <trkpt lat="48.38824" lon="2.64167">
        <ele>127.292</ele>
        <time>2015-03-22T10:20:15.528Z</time>
      </trkpt>
      <trkpt lat="48.38817" lon="2.6418">
        <ele>126.939</ele>
        <time>2015-03-22T10:20:18.248Z</time>
      </trkpt>
      <trkpt lat="48.3881" lon="2.64193">
        <ele>127.497</ele>
        <time>2015-03-22T10:20:20.944Z</time>
      </trkpt>
      <trkpt lat="48.38805" lon="2.64205">
        <ele>127.902</ele>
        <time>2015-03-22T10:20:23.127Z</time>
      </trkpt>
      <trkpt lat="48.38801" lon="2.64218">
        <ele>127.268</ele>
        <time>2015-03-22T10:20:25.289Z</time>
      </trkpt>
      <trkpt lat="48.38801" lon="2.6424">
        <ele>125.84</ele>
        <time>2015-03-22T10:20:28.186Z</time>
      </trkpt>
      <trkpt lat="48.38804" lon="2.64268">
        <ele>124.237</ele>
        <time>2015-03-22T10:20:31.430Z</time>
      </trkpt>
      <trkpt lat="48.3881" lon="2.64299">
        <ele>122.753</ele>
        <time>2015-03-22T10:20:34.205Z</time>
      </trkpt>
      <trkpt lat="48.38815" lon="2.6434">
        <ele>121.267</ele>
        <time>2015-03-22T10:20:37.113Z</time>
      </trkpt>
      <trkpt lat="48.38821" lon="2.64383">
        <ele>119.546</ele>
        <time>2015-03-22T10:20:40.044Z</time>
      </trkpt>
      <trkpt lat="48.38826" lon="2.64424">
        <ele>117.799</ele>
        <time>2015-03-22T10:20:42.918Z</time>
      </trkpt>
      <trkpt lat="48.38832" lon="2.64465">
        <ele>116.382</ele>
        <time>2015-03-22T10:20:45.921Z</time>
      </trkpt>
      <trkpt lat="48.38836" lon="2.64504">
        <ele>114.765</ele>
        <time>2015-03-22T10:20:48.929Z</time>
      </trkpt>
      <trkpt lat="48.38842" lon="2.64539">
        <ele>112.315</ele>
        <time>2015-03-22T10:20:51.757Z</time>
      </trkpt>
      <trkpt lat="48.38846" lon="2.64573">
        <ele>109.57</ele>
        <time>2015-03-22T10:20:54.746Z</time>
      </trkpt>
      <trkpt lat="48.3885" lon="2.64603">
        <ele>107.157</ele>
        <time>2015-03-22T10:20:57.615Z</time>
      </trkpt>
      <trkpt lat="48.38854" lon="2.6463">
        <ele>105.143</ele>
        <time>2015-03-22T10:21:00.683Z</time>
      </trkpt>
      <trkpt lat="48.38857" lon="2.64654">
        <ele>104.018</ele>
        <time>2015-03-22T10:21:06.046Z</time>
      </trkpt>
      <trkpt lat="48.38853" lon="2.64669">
        <ele>104.067</ele>
        <time>2015-03-22T10:21:11.555Z</time>
      </trkpt>
      <trkpt lat="48.38844" lon="2.64664">
        <ele>104.68</ele>
        <time>2015-03-22T10:21:17.589Z</time>
      </trkpt>
      <trkpt lat="48.38834" lon="2.64661">
        <ele>104.799</ele>
        <time>2015-03-22T10:21:22.848Z</time>
      </trkpt>
      <trkpt lat="48.38825" lon="2.64655">
        <ele>103.987</ele>
        <time>2015-03-22T10:21:27.070Z</time>
      </trkpt>
      <trkpt lat="48.38814" lon="2.64649">
        <ele>103.463</ele>
        <time>2015-03-22T10:21:31.145Z</time>
      </trkpt>
      <trkpt lat="48.38805" lon="2.64645">
        <ele>104.248</ele>
        <time>2015-03-22T10:21:34.336Z</time>
      </trkpt>
      <trkpt lat="48.38796" lon="2.64641">
        <ele>105.391</ele>
        <time>2015-03-22T10:21:37.261Z</time>
      </trkpt>
      <trkpt lat="48.38786" lon="2.64638">
        <ele>105.482</ele>
        <time>2015-03-22T10:21:40.487Z</time>
      </trkpt>
      <trkpt lat="48.38774" lon="2.64635">
        <ele>104.483</ele>
        <time>2015-03-22T10:21:44.786Z</time>
      </trkpt>
      <trkpt lat="48.38764" lon="2.64629">
        <ele>103.986</ele>
        <time>2015-03-22T10:21:49.603Z</time>
      </trkpt>
      <trkpt lat="48.38754" lon="2.64622">
        <ele>105.052</ele>
        <time>2015-03-22T10:21:55.082Z</time>
      </trkpt>
      <trkpt lat="48.38745" lon="2.64619">
        <ele>105.866</ele>
        <time>2015-03-22T10:21:58.849Z</time>
      </trkpt>
      <trkpt lat="48.38734" lon="2.64615">
        <ele>104.782</ele>
        <time>2015-03-22T10:22:02.497Z</time>
      </trkpt>
      <trkpt lat="48.38725" lon="2.6461">
        <ele>103.219</ele>
        <time>2015-03-22T10:22:05.235Z</time>
      </trkpt>
      <trkpt lat="48.38714" lon="2.64606">
        <ele>102.98</ele>
        <time>2015-03-22T10:22:08.607Z</time>
      </trkpt>
      <trkpt lat="48.38704" lon="2.64602">
        <ele>104.113</ele>
        <time>2015-03-22T10:22:11.416Z</time>
      </trkpt>
      <trkpt lat="48.38695" lon="2.64594">
        <ele>105.741</ele>
        <time>2015-03-22T10:22:14.342Z</time>
      </trkpt>
      <trkpt lat="48.38686" lon="2.64589">
        <ele>106.65</ele>
        <time>2015-03-22T10:22:17.171Z</time>
      </trkpt>
      <trkpt lat="48.38676" lon="2.64585">
        <ele>106.129</ele>
        <time>2015-03-22T10:22:19.988Z</time>
      </trkpt>
      <trkpt lat="48.38665" lon="2.6458">
        <ele>103.998</ele>
        <time>2015-03-22T10:22:23.388Z</time>
      </trkpt>
      <trkpt lat="48.38653" lon="2.64584">
        <ele>100.882</ele>
        <time>2015-03-22T10:22:27.143Z</time>
      </trkpt>
      <trkpt lat="48.38651" lon="2.64601">
        <ele>98.867</ele>
        <time>2015-03-22T10:22:31.053Z</time>
      </trkpt>
      <trkpt lat="48.38652" lon="2.64617">
        <ele>99.147</ele>
        <time>2015-03-22T10:22:35.087Z</time>
      </trkpt>
      <trkpt lat="48.38654" lon="2.64633">
        <ele>100.215</ele>
        <time>2015-03-22T10:22:38.673Z</time>
      </trkpt>
      <trkpt lat="48.38656" lon="2.64652">
        <ele>100.557</ele>
        <time>2015-03-22T10:22:42.601Z</time>
      </trkpt>
      <trkpt lat="48.38658" lon="2.64667">
        <ele>100.498</ele>
        <time>2015-03-22T10:22:45.751Z</time>
      </trkpt>
      <trkpt lat="48.38658" lon="2.64682">
        <ele>100.847</ele>
        <time>2015-03-22T10:22:49.062Z</time>
      </trkpt>
      <trkpt lat="48.38661" lon="2.64698">
        <ele>101.56</ele>
        <time>2015-03-22T10:22:52.491Z</time>
      </trkpt>
      <trkpt lat="48.38661" lon="2.64698">
        <ele>102.015</ele>
        <time>2015-03-22T10:22:53.496Z</time>
      </trkpt>
      <trkpt lat="48.38661" lon="2.64698">
        <ele>101.95</ele>
        <time>2015-03-22T10:22:53.596Z</time>
      </trkpt>
      <trkpt lat="48.38662" lon="2.64724">
        <ele>101.661</ele>
        <time>2015-03-22T10:23:03.636Z</time>
      </trkpt>
      <trkpt lat="48.38665" lon="2.6474">
        <ele>100.539</ele>
        <time>2015-03-22T10:23:07.335Z</time>
      </trkpt>
      <trkpt lat="48.38668" lon="2.64757">
        <ele>98.064</ele>
        <time>2015-03-22T10:23:11.121Z</time>
      </trkpt>
      <trkpt lat="48.38669" lon="2.64771">
        <ele>95.893</ele>
        <time>2015-03-22T10:23:14.236Z</time>
      </trkpt>
      <trkpt lat="48.38671" lon="2.64785">
        <ele>95.509</ele>
        <time>2015-03-22T10:23:17.526Z</time>
      </trkpt>
      <trkpt lat="48.38674" lon="2.64798">
        <ele>96.251</ele>
        <time>2015-03-22T10:23:21.204Z</time>
      </trkpt>
      <trkpt lat="48.38675" lon="2.64812">
        <ele>96.788</ele>
        <time>2015-03-22T10:23:25.366Z</time>
      </trkpt>
      <trkpt lat="48.38675" lon="2.64826">
        <ele>97.362</ele>
        <time>2015-03-22T10:23:28.933Z</time>
      </trkpt>
      <trkpt lat="48.38676" lon="2.64841">
        <ele>98.842</ele>
        <time>2015-03-22T10:23:32.801Z</time>
      </trkpt>
      <trkpt lat="48.38678" lon="2.64857">
        <ele>100.446</ele>
        <time>2015-03-22T10:23:36.676Z</time>
      </trkpt>
      <trkpt lat="48.3868" lon="2.6487">
        <ele>100.839</ele>
        <time>2015-03-22T10:23:40.583Z</time>
      </trkpt>
      <trkpt lat="48.3868" lon="2.64886">
        <ele>100.211</ele>
        <time>2015-03-22T10:23:45.357Z</time>
      </trkpt>
      <trkpt lat="48.38683" lon="2.64902">
        <ele>99.46</ele>
        <time>2015-03-22T10:23:50.924Z</time>
      </trkpt>
      <trkpt lat="48.38685" lon="2.64916">
        <ele>99.653</ele>
        <time>2015-03-22T10:23:56.822Z</time>
      </trkpt>
      <trkpt lat="48.38687" lon="2.6493">
        <ele>100.875</ele>
        <time>2015-03-22T10:24:01.758Z</time>
      </trkpt>
      <trkpt lat="48.38689" lon="2.64946">
        <ele>101.557</ele>
        <time>2015-03-22T10:24:06.337Z</time>
      </trkpt>
      <trkpt lat="48.38691" lon="2.64962">
        <ele>100.483</ele>
        <time>2015-03-22T10:24:10.092Z</time>
      </trkpt>
      <trkpt lat="48.38694" lon="2.64977">
        <ele>98.773</ele>
        <time>2015-03-22T10:24:13.643Z</time>
      </trkpt>
      <trkpt lat="48.38695" lon="2.64991">
        <ele>97.885</ele>
        <time>2015-03-22T10:24:16.861Z</time>
      </trkpt>
      <trkpt lat="48.38697" lon="2.65006">
        <ele>97.803</ele>
        <time>2015-03-22T10:24:20.585Z</time>
      </trkpt>
      <trkpt lat="48.38696" lon="2.65021">
        <ele>97.657</ele>
        <time>2015-03-22T10:24:24.479Z</time>
      </trkpt>
      <trkpt lat="48.38686" lon="2.65017">
        <ele>96.974</ele>
        <time>2015-03-22T10:24:29.606Z</time>
      </trkpt>
      <trkpt lat="48.38678" lon="2.6501">
        <ele>97.03</ele>
        <time>2015-03-22T10:24:35.531Z</time>
      </trkpt>
      <trkpt lat="48.3867" lon="2.65003">
        <ele>99.081</ele>
        <time>2015-03-22T10:24:40.494Z</time>
      </trkpt>
      <trkpt lat="48.38663" lon="2.64995">
        <ele>102.077</ele>
        <time>2015-03-22T10:24:44.982Z</time>
      </trkpt>
      <trkpt lat="48.38654" lon="2.64985">
        <ele>104.324</ele>
        <time>2015-03-22T10:24:50.191Z</time>
      </trkpt>
      <trkpt lat="48.38647" lon="2.64976">
        <ele>105.358</ele>
        <time>2015-03-22T10:24:54.466Z</time>
      </trkpt>
      <trkpt lat="48.38647" lon="2.64976">
        <ele>105.526</ele>
        <time>2015-03-22T10:24:57.459Z</time>
      </trkpt>
      <trkpt lat="48.38647" lon="2.64976">
        <ele>105.421</ele>
        <time>2015-03-22T10:27:04.786Z</time>
      </trkpt>
      <trkpt lat="48.38634" lon="2.64955">
        <ele>105.359</ele>
        <time>2015-03-22T10:27:38.088Z</time>
      </trkpt>
      <trkpt lat="48.38625" lon="2.64948">
        <ele>105.96</ele>
        <time>2015-03-22T10:27:45.227Z</time>
      </trkpt>
      <trkpt lat="48.38617" lon="2.64941">
        <ele>107.552</ele>
        <time>2015-03-22T10:27:50.836Z</time>
      </trkpt>
      <trkpt lat="48.3861" lon="2.6493">
        <ele>109.19</ele>
        <time>2015-03-22T10:27:56.130Z</time>
      </trkpt>
      <trkpt lat="48.38602" lon="2.64922">
        <ele>109.972</ele>
        <time>2015-03-22T10:28:01.815Z</time>
      </trkpt>
      <trkpt lat="48.38595" lon="2.64915">
        <ele>110.282</ele>
        <time>2015-03-22T10:28:07.268Z</time>
      </trkpt>
      <trkpt lat="48.38585" lon="2.64907">
        <ele>110.873</ele>
        <time>2015-03-22T10:28:14.017Z</time>
      </trkpt>
      <trkpt lat="48.38579" lon="2.64895">
        <ele>111.982</ele>
        <time>2015-03-22T10:28:20.417Z</time>
      </trkpt>
      <trkpt lat="48.38571" lon="2.64886">
        <ele>113.253</ele>
        <time>2015-03-22T10:28:26.321Z</time>
      </trkpt>
      <trkpt lat="48.38564" lon="2.64875">
        <ele>114.435</ele>
        <time>2015-03-22T10:28:32.937Z</time>
      </trkpt>
      <trkpt lat="48.38554" lon="2.64876">
        <ele>115.436</ele>
        <time>2015-03-22T10:28:38.270Z</time>
      </trkpt>
      <trkpt lat="48.38547" lon="2.64886">
        <ele>116.046</ele>
        <time>2015-03-22T10:28:43.126Z</time>
      </trkpt>
      <trkpt lat="48.3854" lon="2.64898">
        <ele>116.592</ele>
        <time>2015-03-22T10:28:47.661Z</time>
      </trkpt>
      <trkpt lat="48.38535" lon="2.64911">
        <ele>117.681</ele>
        <time>2015-03-22T10:28:51.481Z</time>
      </trkpt>
      <trkpt lat="48.38531" lon="2.64924">
        <ele>119.017</ele>
        <time>2015-03-22T10:28:55.924Z</time>
      </trkpt>
      <trkpt lat="48.38525" lon="2.64935">
        <ele>119.871</ele>
        <time>2015-03-22T10:29:00.434Z</time>
      </trkpt>
      <trkpt lat="48.3852" lon="2.64947">
        <ele>120.653</ele>
        <time>2015-03-22T10:29:07.376Z</time>
      </trkpt>
      <trkpt lat="48.38515" lon="2.6496">
        <ele>122.872</ele>
        <time>2015-03-22T10:29:15.370Z</time>
      </trkpt>
      <trkpt lat="48.3851" lon="2.64971">
        <ele>126.643</ele>
        <time>2015-03-22T10:29:22.308Z</time>
      </trkpt>
      <trkpt lat="48.3851" lon="2.64985">
        <ele>129.857</ele>
        <time>2015-03-22T10:29:28.505Z</time>
      </trkpt>
      <trkpt lat="48.38511" lon="2.65001">
        <ele>130.679</ele>
        <time>2015-03-22T10:29:35.553Z</time>
      </trkpt>
      <trkpt lat="48.38511" lon="2.65014">
        <ele>128.66</ele>
        <time>2015-03-22T10:29:41.569Z</time>
      </trkpt>
      <trkpt lat="48.38511" lon="2.65029">
        <ele>124.875</ele>
        <time>2015-03-22T10:29:48.367Z</time>
      </trkpt>
      <trkpt lat="48.38513" lon="2.65044">
        <ele>121.707</ele>
        <time>2015-03-22T10:29:54.912Z</time>
      </trkpt>
      <trkpt lat="48.38514" lon="2.65057">
        <ele>121.271</ele>
        <time>2015-03-22T10:30:00.431Z</time>
      </trkpt>
      <trkpt lat="48.38516" lon="2.65071">
        <ele>123.757</ele>
        <time>2015-03-22T10:30:05.932Z</time>
      </trkpt>
      <trkpt lat="48.38517" lon="2.65086">
        <ele>127.488</ele>
        <time>2015-03-22T10:30:11.553Z</time>
      </trkpt>
      <trkpt lat="48.38516" lon="2.651">
        <ele>130.528</ele>
        <time>2015-03-22T10:30:16.799Z</time>
      </trkpt>
      <trkpt lat="48.38517" lon="2.65116">
        <ele>132.173</ele>
        <time>2015-03-22T10:30:22.451Z</time>
      </trkpt>
      <trkpt lat="48.38517" lon="2.65132">
        <ele>132.844</ele>
        <time>2015-03-22T10:30:27.418Z</time>
      </trkpt>
      <trkpt lat="48.38519" lon="2.65149">
        <ele>133.267</ele>
        <time>2015-03-22T10:30:32.573Z</time>
      </trkpt>
      <trkpt lat="48.3852" lon="2.65165">
        <ele>133.387</ele>
        <time>2015-03-22T10:30:37.568Z</time>
      </trkpt>
      <trkpt lat="48.38522" lon="2.65179">
        <ele>132.907</ele>
        <time>2015-03-22T10:30:42.599Z</time>
      </trkpt>
      <trkpt lat="48.38525" lon="2.65193">
        <ele>132.014</ele>
        <time>2015-03-22T10:30:48.464Z</time>
      </trkpt>
      <trkpt lat="48.38525" lon="2.65193">
        <ele>131.112</ele>
        <time>2015-03-22T10:30:50.466Z</time>
      </trkpt>
      <trkpt lat="48.38525" lon="2.65193">
        <ele>130.594</ele>
        <time>2015-03-22T10:31:22.552Z</time>
      </trkpt>
      <trkpt lat="48.38533" lon="2.65211">
        <ele>130.778</ele>
        <time>2015-03-22T10:32:18.141Z</time>
      </trkpt>
      <trkpt lat="48.38538" lon="2.65228">
        <ele>131.863</ele>
        <time>2015-03-22T10:32:22.266Z</time>
      </trkpt>
      <trkpt lat="48.38542" lon="2.6524">
        <ele>134.348</ele>
        <time>2015-03-22T10:32:24.725Z</time>
      </trkpt>
      <trkpt lat="48.38547" lon="2.65257">
        <ele>136.637</ele>
        <time>2015-03-22T10:32:27.799Z</time>
      </trkpt>
      <trkpt lat="48.38552" lon="2.65272">
        <ele>136.938</ele>
        <time>2015-03-22T10:32:30.696Z</time>
      </trkpt>
      <trkpt lat="48.38559" lon="2.6529">
        <ele>135.677</ele>
        <time>2015-03-22T10:32:33.836Z</time>
      </trkpt>
      <trkpt lat="48.38565" lon="2.65306">
        <ele>134.301</ele>
        <time>2015-03-22T10:32:36.837Z</time>
      </trkpt>
      <trkpt lat="48.38572" lon="2.65324">
        <ele>133.374</ele>
        <time>2015-03-22T10:32:40.305Z</time>
      </trkpt>
      <trkpt lat="48.38575" lon="2.65339">
        <ele>132.489</ele>
        <time>2015-03-22T10:32:43.083Z</time>
      </trkpt>
      <trkpt lat="48.3858" lon="2.65353">
        <ele>131.282</ele>
        <time>2015-03-22T10:32:46.168Z</time>
      </trkpt>
      <trkpt lat="48.38585" lon="2.65369">
        <ele>129.542</ele>
        <time>2015-03-22T10:32:49.467Z</time>
      </trkpt>
      <trkpt lat="48.38585" lon="2.65369">
        <ele>127.617</ele>
        <time>2015-03-22T10:32:51.476Z</time>
      </trkpt>
      <trkpt lat="48.38585" lon="2.65369">
        <ele>126.503</ele>
        <time>2015-03-22T10:32:51.576Z</time>
      </trkpt>
      <trkpt lat="48.38595" lon="2.654">
        <ele>126.531</ele>
        <time>2015-03-22T10:32:59.938Z</time>
      </trkpt>
      <trkpt lat="48.38601" lon="2.65417">
        <ele>126.632</ele>
        <time>2015-03-22T10:33:02.854Z</time>
      </trkpt>
      <trkpt lat="48.38606" lon="2.6543">
        <ele>125.907</ele>
        <time>2015-03-22T10:33:04.746Z</time>
      </trkpt>
      <trkpt lat="48.38614" lon="2.65453">
        <ele>124.892</ele>
        <time>2015-03-22T10:33:07.753Z</time>
      </trkpt>
      <trkpt lat="48.3862" lon="2.65472">
        <ele>124.329</ele>
        <time>2015-03-22T10:33:09.807Z</time>
      </trkpt>
      <trkpt lat="48.3863" lon="2.655">
        <ele>123.819</ele>
        <time>2015-03-22T10:33:12.435Z</time>
      </trkpt>
      <trkpt lat="48.38638" lon="2.65522">
        <ele>122.653</ele>
        <time>2015-03-22T10:33:14.146Z</time>
      </trkpt>
      <trkpt lat="48.38645" lon="2.65544">
        <ele>120.937</ele>
        <time>2015-03-22T10:33:15.807Z</time>
      </trkpt>
      <trkpt lat="48.38656" lon="2.65578">
        <ele>119.074</ele>
        <time>2015-03-22T10:33:18.158Z</time>
      </trkpt>
      <trkpt lat="48.38671" lon="2.65625">
        <ele>116.921</ele>
        <time>2015-03-22T10:33:21.306Z</time>
      </trkpt>
      <trkpt lat="48.38679" lon="2.65649">
        <ele>113.853</ele>
        <time>2015-03-22T10:33:23.009Z</time>
      </trkpt>
      <trkpt lat="48.38687" lon="2.65675">
        <ele>110.176</ele>
        <time>2015-03-22T10:33:24.832Z</time>
      </trkpt>
      <trkpt lat="48.38699" lon="2.65712">
        <ele>106.8</ele>
        <time>2015-03-22T10:33:27.600Z</time>
      </trkpt>
      <trkpt lat="48.38706" lon="2.65735">
        <ele>103.446</ele>
        <time>2015-03-22T10:33:29.734Z</time>
      </trkpt>
      <trkpt lat="48.38715" lon="2.6576">
        <ele>99.823</ele>
        <time>2015-03-22T10:33:32.947Z</time>
      </trkpt>
      <trkpt lat="48.38721" lon="2.65774">
        <ele>96.293</ele>
        <time>2015-03-22T10:33:36.077Z</time>
      </trkpt>
      <trkpt lat="48.3873" lon="2.65774">
        <ele>92.991</ele>
        <time>2015-03-22T10:33:39.578Z</time>
      </trkpt>
      <trkpt lat="48.38733" lon="2.65759">
        <ele>90.584</ele>
        <time>2015-03-22T10:33:44.472Z</time>
      </trkpt>
      <trkpt lat="48.38733" lon="2.65759">
        <ele>89.621</ele>
        <time>2015-03-22T10:33:49.477Z</time>
      </trkpt>
      <trkpt lat="48.38733" lon="2.65759">
        <ele>89.569</ele>
        <time>2015-03-22T10:35:22.211Z</time>
      </trkpt>
      <trkpt lat="48.38746" lon="2.6576">
        <ele>89.737</ele>
        <time>2015-03-22T10:35:32.411Z</time>
      </trkpt>
      <trkpt lat="48.38759" lon="2.6576">
        <ele>89.692</ele>
        <time>2015-03-22T10:35:36.282Z</time>
      </trkpt>
      <trkpt lat="48.38771" lon="2.65758">
        <ele>89.788</ele>
        <time>2015-03-22T10:35:39.760Z</time>
      </trkpt>
      <trkpt lat="48.38783" lon="2.65756">
        <ele>89.794</ele>
        <time>2015-03-22T10:35:43.109Z</time>
      </trkpt>
      <trkpt lat="48.38793" lon="2.65756">
        <ele>89.582</ele>
        <time>2015-03-22T10:35:45.724Z</time>
      </trkpt>
      <trkpt lat="48.38802" lon="2.65755">
        <ele>89.441</ele>
        <time>2015-03-22T10:35:48.627Z</time>
      </trkpt>
      <trkpt lat="48.38812" lon="2.65756">
        <ele>88.342</ele>
        <time>2015-03-22T10:35:52.179Z</time>
      </trkpt>
      <trkpt lat="48.38822" lon="2.65755">
        <ele>85.643</ele>
        <time>2015-03-22T10:35:55.948Z</time>
      </trkpt>
      <trkpt lat="48.3883" lon="2.65751">
        <ele>83.583</ele>
        <time>2015-03-22T10:36:00.464Z</time>
      </trkpt>
      <trkpt lat="48.3884" lon="2.65744">
        <ele>84.728</ele>
        <time>2015-03-22T10:36:06.316Z</time>
      </trkpt>
      <trkpt lat="48.38849" lon="2.6574">
        <ele>90.963</ele>
        <time>2015-03-22T10:36:12.149Z</time>
      </trkpt>
      <trkpt lat="48.3886" lon="2.65737">
        <ele>91.58</ele>
        <time>2015-03-22T10:36:18.444Z</time>
      </trkpt>
      <trkpt lat="48.38869" lon="2.65737">
        <ele>90.711</ele>
        <time>2015-03-22T10:36:23.892Z</time>
      </trkpt>
      <trkpt lat="48.38878" lon="2.65737">
        <ele>89.737</ele>
        <time>2015-03-22T10:36:29.674Z</time>
      </trkpt>
      <trkpt lat="48.38888" lon="2.65737">
        <ele>89.311</ele>
        <time>2015-03-22T10:36:36.487Z</time>
      </trkpt>
      <trkpt lat="48.38888" lon="2.65737">
        <ele>89.296</ele>
        <time>2015-03-22T10:36:49.497Z</time>
      </trkpt>
      <trkpt lat="48.38888" lon="2.65737">
        <ele>89.375</ele>
        <time>2015-03-22T10:36:49.597Z</time>
      </trkpt>
      <trkpt lat="48.38902" lon="2.65732">
        <ele>89.354</ele>
        <time>2015-03-22T10:36:50.707Z</time>
      </trkpt>
      <trkpt lat="48.38902" lon="2.65732">
        <ele>89.277</ele>
        <time>2015-03-22T10:36:51.481Z</time>
      </trkpt>
      <trkpt lat="48.38902" lon="2.65732">
        <ele>89.235</ele>
        <time>2015-03-22T10:36:53.812Z</time>
      </trkpt>
      <trkpt lat="48.38917" lon="2.65715">
        <ele>89.232</ele>
        <time>2015-03-22T10:37:09.529Z</time>
      </trkpt>
      <trkpt lat="48.38928" lon="2.65709">
        <ele>91.106</ele>
        <time>2015-03-22T10:37:12.194Z</time>
      </trkpt>
      <trkpt lat="48.3894" lon="2.65702">
        <ele>95.97</ele>
        <time>2015-03-22T10:37:14.415Z</time>
      </trkpt>
      <trkpt lat="48.38952" lon="2.65688">
        <ele>100.409</ele>
        <time>2015-03-22T10:37:17.016Z</time>
      </trkpt>
      <trkpt lat="48.38966" lon="2.6567">
        <ele>101.065</ele>
        <time>2015-03-22T10:37:20.048Z</time>
      </trkpt>
      <trkpt lat="48.38978" lon="2.65674">
        <ele>99.084</ele>
        <time>2015-03-22T10:37:22.119Z</time>
      </trkpt>
      <trkpt lat="48.38996" lon="2.65678">
        <ele>96.723</ele>
        <time>2015-03-22T10:37:24.729Z</time>
      </trkpt>
      <trkpt lat="48.39021" lon="2.65683">
        <ele>94.929</ele>
        <time>2015-03-22T10:37:27.766Z</time>
      </trkpt>
      <trkpt lat="48.39046" lon="2.65689">
        <ele>93.77</ele>
        <time>2015-03-22T10:37:30.616Z</time>
      </trkpt>
      <trkpt lat="48.39068" lon="2.65692">
        <ele>93.22</ele>
        <time>2015-03-22T10:37:33.481Z</time>
      </trkpt>
      <trkpt lat="48.39079" lon="2.65692">
        <ele>93.06</ele>
        <time>2015-03-22T10:37:35.483Z</time>
      </trkpt>
      <trkpt lat="48.39079" lon="2.65692">
        <ele>92.954</ele>
        <time>2015-03-22T10:37:40.475Z</time>
      </trkpt>
      <trkpt lat="48.39079" lon="2.65692">
        <ele>92.85</ele>
        <time>2015-03-22T10:37:40.575Z</time>
      </trkpt>
      <trkpt lat="48.39098" lon="2.65684">
        <ele>92.813</ele>
        <time>2015-03-22T10:38:09.727Z</time>
      </trkpt>
      <trkpt lat="48.39097" lon="2.65671">
        <ele>91.346</ele>
        <time>2015-03-22T10:38:15.844Z</time>
      </trkpt>
      <trkpt lat="48.39099" lon="2.65657">
        <ele>87.403</ele>
        <time>2015-03-22T10:38:22.532Z</time>
      </trkpt>
      <trkpt lat="48.391" lon="2.65643">
        <ele>83.096</ele>
        <time>2015-03-22T10:38:28.762Z</time>
      </trkpt>
      <trkpt lat="48.39102" lon="2.65629">
        <ele>80.772</ele>
        <time>2015-03-22T10:38:34.382Z</time>
      </trkpt>
      <trkpt lat="48.3911" lon="2.65612">
        <ele>80.246</ele>
        <time>2015-03-22T10:38:41.292Z</time>
      </trkpt>
      <trkpt lat="48.39115" lon="2.65599">
        <ele>80.87</ele>
        <time>2015-03-22T10:38:45.428Z</time>
      </trkpt>
      <trkpt lat="48.39121" lon="2.65583">
        <ele>83.789</ele>
        <time>2015-03-22T10:38:49.379Z</time>
      </trkpt>
      <trkpt lat="48.39125" lon="2.65567">
        <ele>85.811</ele>
        <time>2015-03-22T10:38:53.092Z</time>
      </trkpt>
      <trkpt lat="48.39127" lon="2.65551">
        <ele>87.338</ele>
        <time>2015-03-22T10:38:56.516Z</time>
      </trkpt>
      <trkpt lat="48.39131" lon="2.65534">
        <ele>87.834</ele>
        <time>2015-03-22T10:39:00.182Z</time>
      </trkpt>
      <trkpt lat="48.39134" lon="2.65516">
        <ele>87.4</ele>
        <time>2015-03-22T10:39:03.824Z</time>
      </trkpt>
      <trkpt lat="48.39136" lon="2.65497">
        <ele>85.912</ele>
        <time>2015-03-22T10:39:07.879Z</time>
      </trkpt>
      <trkpt lat="48.39133" lon="2.65484">
        <ele>83.932</ele>
        <time>2015-03-22T10:39:10.741Z</time>
      </trkpt>
      <trkpt lat="48.39126" lon="2.6547">
        <ele>82.613</ele>
        <time>2015-03-22T10:39:14.533Z</time>
      </trkpt>
      <trkpt lat="48.39126" lon="2.65456">
        <ele>82.933</ele>
        <time>2015-03-22T10:39:17.744Z</time>
      </trkpt>
      <trkpt lat="48.39127" lon="2.65437">
        <ele>85.327</ele>
        <time>2015-03-22T10:39:22.144Z</time>
      </trkpt>
      <trkpt lat="48.39128" lon="2.65421">
        <ele>89.018</ele>
        <time>2015-03-22T10:39:25.607Z</time>
      </trkpt>
      <trkpt lat="48.39128" lon="2.65406">
        <ele>93.005</ele>
        <time>2015-03-22T10:39:28.608Z</time>
      </trkpt>
      <trkpt lat="48.39127" lon="2.6539">
        <ele>92.588</ele>
        <time>2015-03-22T10:39:31.876Z</time>
      </trkpt>
      <trkpt lat="48.39127" lon="2.65375">
        <ele>91.449</ele>
        <time>2015-03-22T10:39:35.074Z</time>
      </trkpt>
      <trkpt lat="48.39129" lon="2.65358">
        <ele>89.842</ele>
        <time>2015-03-22T10:39:39.032Z</time>
      </trkpt>
      <trkpt lat="48.3913" lon="2.65342">
        <ele>87.997</ele>
        <time>2015-03-22T10:39:42.787Z</time>
      </trkpt>
      <trkpt lat="48.39132" lon="2.65325">
        <ele>86.255</ele>
        <time>2015-03-22T10:39:46.633Z</time>
      </trkpt>
      <trkpt lat="48.39134" lon="2.65311">
        <ele>84.981</ele>
        <time>2015-03-22T10:39:49.871Z</time>
      </trkpt>
      <trkpt lat="48.39137" lon="2.65297">
        <ele>84.175</ele>
        <time>2015-03-22T10:39:53.508Z</time>
      </trkpt>
      <trkpt lat="48.39137" lon="2.65297">
        <ele>83.813</ele>
        <time>2015-03-22T10:39:57.505Z</time>
      </trkpt>
      <trkpt lat="48.39137" lon="2.65297">
        <ele>83.737</ele>
        <time>2015-03-22T10:39:57.605Z</time>
      </trkpt>
      <trkpt lat="48.39139" lon="2.65278">
        <ele>83.755</ele>
        <time>2015-03-22T10:40:08.414Z</time>
      </trkpt>
      <trkpt lat="48.39141" lon="2.65263">
        <ele>83.625</ele>
        <time>2015-03-22T10:40:13.783Z</time>
      </trkpt>
      <trkpt lat="48.39143" lon="2.6525">
        <ele>83.311</ele>
        <time>2015-03-22T10:40:18.037Z</time>
      </trkpt>
      <trkpt lat="48.39144" lon="2.65236">
        <ele>82.997</ele>
        <time>2015-03-22T10:40:22.258Z</time>
      </trkpt>
      <trkpt lat="48.39147" lon="2.65223">
        <ele>82.752</ele>
        <time>2015-03-22T10:40:26.784Z</time>
      </trkpt>
      <trkpt lat="48.3915" lon="2.65208">
        <ele>82.474</ele>
        <time>2015-03-22T10:40:31.827Z</time>
      </trkpt>
      <trkpt lat="48.39151" lon="2.65192">
        <ele>82.251</ele>
        <time>2015-03-22T10:40:36.919Z</time>
      </trkpt>
      <trkpt lat="48.39153" lon="2.65175">
        <ele>82.204</ele>
        <time>2015-03-22T10:40:41.298Z</time>
      </trkpt>
      <trkpt lat="48.39154" lon="2.6516">
        <ele>82.274</ele>
        <time>2015-03-22T10:40:45.127Z</time>
      </trkpt>
      <trkpt lat="48.39156" lon="2.65145">
        <ele>82.572</ele>
        <time>2015-03-22T10:40:48.578Z</time>
      </trkpt>
      <trkpt lat="48.39156" lon="2.6513">
        <ele>83.18</ele>
        <time>2015-03-22T10:40:51.992Z</time>
      </trkpt>
      <trkpt lat="48.39157" lon="2.65117">
        <ele>83.769</ele>
        <time>2015-03-22T10:40:55.040Z</time>
      </trkpt>
      <trkpt lat="48.39158" lon="2.65102">
        <ele>84.453</ele>
        <time>2015-03-22T10:40:58.438Z</time>
      </trkpt>
      <trkpt lat="48.39159" lon="2.65089">
        <ele>84.887</ele>
        <time>2015-03-22T10:41:02.012Z</time>
      </trkpt>
      <trkpt lat="48.39163" lon="2.65073">
        <ele>84.107</ele>
        <time>2015-03-22T10:41:06.616Z</time>
      </trkpt>
      <trkpt lat="48.39165" lon="2.65058">
        <ele>82.304</ele>
        <time>2015-03-22T10:41:11.100Z</time>
      </trkpt>
      <trkpt lat="48.39167" lon="2.65041">
        <ele>80.569</ele>
        <time>2015-03-22T10:41:15.340Z</time>
      </trkpt>
      <trkpt lat="48.39169" lon="2.65026">
        <ele>79.491</ele>
        <time>2015-03-22T10:41:19.153Z</time>
      </trkpt>
      <trkpt lat="48.39171" lon="2.65012">
        <ele>78.866</ele>
        <time>2015-03-22T10:41:23.124Z</time>
      </trkpt>
      <trkpt lat="48.39172" lon="2.64997">
        <ele>78.13</ele>
        <time>2015-03-22T10:41:27.787Z</time>
      </trkpt>
      <trkpt lat="48.39174" lon="2.6498">
        <ele>78.267</ele>
        <time>2015-03-22T10:41:33.490Z</time>
      </trkpt>
      <trkpt lat="48.39174" lon="2.6498">
        <ele>80.101</ele>
        <time>2015-03-22T10:41:34.496Z</time>
      </trkpt>
      <trkpt lat="48.39174" lon="2.6498">
        <ele>81.823</ele>
        <time>2015-03-22T10:41:34.596Z</time>
      </trkpt>
      <trkpt lat="48.39178" lon="2.64954">
        <ele>81.785</ele>
        <time>2015-03-22T10:41:42.309Z</time>
      </trkpt>
      <trkpt lat="48.3918" lon="2.64935">
        <ele>80.827</ele>
        <time>2015-03-22T10:41:45.857Z</time>
      </trkpt>
      <trkpt lat="48.39181" lon="2.64921">
        <ele>80.475</ele>
        <time>2015-03-22T10:41:48.385Z</time>
      </trkpt>
      <trkpt lat="48.39182" lon="2.64905">
        <ele>81.039</ele>
        <time>2015-03-22T10:41:51.267Z</time>
      </trkpt>
      <trkpt lat="48.39184" lon="2.64889">
        <ele>81.878</ele>
        <time>2015-03-22T10:41:53.970Z</time>
      </trkpt>
      <trkpt lat="48.39186" lon="2.64874">
        <ele>82.373</ele>
        <time>2015-03-22T10:41:56.631Z</time>
      </trkpt>
      <trkpt lat="48.39189" lon="2.64859">
        <ele>82.514</ele>
        <time>2015-03-22T10:41:59.207Z</time>
      </trkpt>
      <trkpt lat="48.39191" lon="2.64845">
        <ele>82.433</ele>
        <time>2015-03-22T10:42:01.489Z</time>
      </trkpt>
      <trkpt lat="48.39191" lon="2.64845">
        <ele>82.276</ele>
        <time>2015-03-22T10:42:09.494Z</time>
      </trkpt>
      <trkpt lat="48.39191" lon="2.64845">
        <ele>82.161</ele>
        <time>2015-03-22T10:44:49.226Z</time>
      </trkpt>
      <trkpt lat="48.39197" lon="2.64804">
        <ele>82.16</ele>
        <time>2015-03-22T10:45:17.982Z</time>
      </trkpt>
      <trkpt lat="48.392" lon="2.64791">
        <ele>81.613</ele>
        <time>2015-03-22T10:45:22.344Z</time>
      </trkpt>
      <trkpt lat="48.39201" lon="2.64776">
        <ele>80.123</ele>
        <time>2015-03-22T10:45:26.646Z</time>
      </trkpt>
      <trkpt lat="48.39201" lon="2.64761">
        <ele>78.562</ele>
        <time>2015-03-22T10:45:30.307Z</time>
      </trkpt>
      <trkpt lat="48.39201" lon="2.64744">
        <ele>78.285</ele>
        <time>2015-03-22T10:45:34.004Z</time>
      </trkpt>
      <trkpt lat="48.39201" lon="2.64729">
        <ele>79.412</ele>
        <time>2015-03-22T10:45:37.129Z</time>
      </trkpt>
      <trkpt lat="48.39205" lon="2.64713">
        <ele>81.182</ele>
        <time>2015-03-22T10:45:40.806Z</time>
      </trkpt>
      <trkpt lat="48.3921" lon="2.64697">
        <ele>83.369</ele>
        <time>2015-03-22T10:45:44.515Z</time>
      </trkpt>
      <trkpt lat="48.39211" lon="2.64682">
        <ele>85.805</ele>
        <time>2015-03-22T10:45:47.747Z</time>
      </trkpt>
      <trkpt lat="48.39213" lon="2.64666">
        <ele>87.465</ele>
        <time>2015-03-22T10:45:51.458Z</time>
      </trkpt>
      <trkpt lat="48.39214" lon="2.64652">
        <ele>87.893</ele>
        <time>2015-03-22T10:45:54.502Z</time>
      </trkpt>
      <trkpt lat="48.39216" lon="2.64638">
        <ele>87.865</ele>
        <time>2015-03-22T10:45:57.661Z</time>
      </trkpt>
      <trkpt lat="48.39217" lon="2.64625">
        <ele>88.335</ele>
        <time>2015-03-22T10:46:00.652Z</time>
      </trkpt>
      <trkpt lat="48.3922" lon="2.64607">
        <ele>89.397</ele>
        <time>2015-03-22T10:46:04.591Z</time>
      </trkpt>
      <trkpt lat="48.39222" lon="2.64591">
        <ele>90.383</ele>
        <time>2015-03-22T10:46:07.839Z</time>
      </trkpt>
      <trkpt lat="48.39224" lon="2.64577">
        <ele>90.597</ele>
        <time>2015-03-22T10:46:10.830Z</time>
      </trkpt>
      <trkpt lat="48.39226" lon="2.64564">
        <ele>89.844</ele>
        <time>2015-03-22T10:46:13.888Z</time>
      </trkpt>
      <trkpt lat="48.39228" lon="2.64548">
        <ele>88.668</ele>
        <time>2015-03-22T10:46:17.358Z</time>
      </trkpt>
      <trkpt lat="48.39229" lon="2.64533">
        <ele>87.841</ele>
        <time>2015-03-22T10:46:20.928Z</time>
      </trkpt>
      <trkpt lat="48.39231" lon="2.64519">
        <ele>87.491</ele>
        <time>2015-03-22T10:46:24.357Z</time>
      </trkpt>
      <trkpt lat="48.39234" lon="2.64503">
        <ele>87.204</ele>
        <time>2015-03-22T10:46:27.998Z</time>
      </trkpt>
      <trkpt lat="48.39236" lon="2.64486">
        <ele>86.6</ele>
        <time>2015-03-22T10:46:31.857Z</time>
      </trkpt>
      <trkpt lat="48.39237" lon="2.64472">
        <ele>85.788</ele>
        <time>2015-03-22T10:46:34.930Z</time>
      </trkpt>
      <trkpt lat="48.3924" lon="2.64456">
        <ele>85.84</ele>
        <time>2015-03-22T10:46:38.464Z</time>
      </trkpt>
      <trkpt lat="48.39242" lon="2.6444">
        <ele>87.315</ele>
        <time>2015-03-22T10:46:42.002Z</time>
      </trkpt>
      <trkpt lat="48.39244" lon="2.64427">
        <ele>88.963</ele>
        <time>2015-03-22T10:46:44.875Z</time>
      </trkpt>
      <trkpt lat="48.39246" lon="2.64409">
        <ele>89.597</ele>
        <time>2015-03-22T10:46:48.639Z</time>
      </trkpt>
      <trkpt lat="48.39247" lon="2.64395">
        <ele>89.507</ele>
        <time>2015-03-22T10:46:51.867Z</time>
      </trkpt>
      <trkpt lat="48.39249" lon="2.64382">
        <ele>89.293</ele>
        <time>2015-03-22T10:46:55.108Z</time>
      </trkpt>
      <trkpt lat="48.39251" lon="2.64367">
        <ele>89.225</ele>
        <time>2015-03-22T10:46:58.888Z</time>
      </trkpt>
      <trkpt lat="48.39252" lon="2.64353">
        <ele>89.603</ele>
        <time>2015-03-22T10:47:02.280Z</time>
      </trkpt>
      <trkpt lat="48.39254" lon="2.64336">
        <ele>90.559</ele>
        <time>2015-03-22T10:47:06.166Z</time>
      </trkpt>
      <trkpt lat="48.39257" lon="2.6432">
        <ele>91.638</ele>
        <time>2015-03-22T10:47:09.799Z</time>
      </trkpt>
      <trkpt lat="48.3926" lon="2.64305">
        <ele>92.837</ele>
        <time>2015-03-22T10:47:13.690Z</time>
      </trkpt>
      <trkpt lat="48.3926" lon="2.64305">
        <ele>94.424</ele>
        <time>2015-03-22T10:47:16.695Z</time>
      </trkpt>
      <trkpt lat="48.3926" lon="2.64305">
        <ele>95.527</ele>
        <time>2015-03-22T10:48:51.541Z</time>
      </trkpt>
      <trkpt lat="48.39263" lon="2.64268">
        <ele>95.444</ele>
        <time>2015-03-22T10:49:27.826Z</time>
      </trkpt>
      <trkpt lat="48.39267" lon="2.64253">
        <ele>94.819</ele>
        <time>2015-03-22T10:49:33.302Z</time>
      </trkpt>
      <trkpt lat="48.39271" lon="2.64239">
        <ele>94.109</ele>
        <time>2015-03-22T10:49:37.606Z</time>
      </trkpt>
      <trkpt lat="48.39273" lon="2.64223">
        <ele>93.013</ele>
        <time>2015-03-22T10:49:41.309Z</time>
      </trkpt>
      <trkpt lat="48.39271" lon="2.64207">
        <ele>91.582</ele>
        <time>2015-03-22T10:49:45.147Z</time>
      </trkpt>
      <trkpt lat="48.39269" lon="2.64194">
        <ele>90.494</ele>
        <time>2015-03-22T10:49:48.478Z</time>
      </trkpt>
      <trkpt lat="48.39269" lon="2.64194">
        <ele>90.119</ele>
        <time>2015-03-22T10:49:50.477Z</time>
      </trkpt>
      <trkpt lat="48.39269" lon="2.64194">
        <ele>90.18</ele>
        <time>2015-03-22T10:49:50.577Z</time>
      </trkpt>
      <trkpt lat="48.39268" lon="2.64169">
        <ele>90.309</ele>
        <time>2015-03-22T10:50:03.874Z</time>
      </trkpt>
      <trkpt lat="48.39266" lon="2.64154">
        <ele>91.732</ele>
        <time>2015-03-22T10:50:08.675Z</time>
      </trkpt>
      <trkpt lat="48.39266" lon="2.64139">
        <ele>95.253</ele>
        <time>2015-03-22T10:50:13.138Z</time>
      </trkpt>
      <trkpt lat="48.39268" lon="2.64125">
        <ele>98.67</ele>
        <time>2015-03-22T10:50:17.325Z</time>
      </trkpt>
      <trkpt lat="48.3927" lon="2.64109">
        <ele>99.64</ele>
        <time>2015-03-22T10:50:22.464Z</time>
      </trkpt>
      <trkpt lat="48.39271" lon="2.64094">
        <ele>98.705</ele>
        <time>2015-03-22T10:50:27.059Z</time>
      </trkpt>
      <trkpt lat="48.39271" lon="2.64079">
        <ele>97.975</ele>
        <time>2015-03-22T10:50:31.464Z</time>
      </trkpt>
      <trkpt lat="48.3927" lon="2.64066">
        <ele>98.679</ele>
        <time>2015-03-22T10:50:35.813Z</time>
      </trkpt>
      <trkpt lat="48.39269" lon="2.64052">
        <ele>99.688</ele>
        <time>2015-03-22T10:50:40.014Z</time>
      </trkpt>
      <trkpt lat="48.3927" lon="2.64037">
        <ele>99.7</ele>
        <time>2015-03-22T10:50:44.065Z</time>
      </trkpt>
      <trkpt lat="48.39272" lon="2.64023">
        <ele>99.044</ele>
        <time>2015-03-22T10:50:48.010Z</time>
      </trkpt>
      <trkpt lat="48.39273" lon="2.64006">
        <ele>98.485</ele>
        <time>2015-03-22T10:50:52.365Z</time>
      </trkpt>
      <trkpt lat="48.39273" lon="2.63993">
        <ele>98.16</ele>
        <time>2015-03-22T10:50:56.125Z</time>
      </trkpt>
      <trkpt lat="48.39273" lon="2.63979">
        <ele>97.906</ele>
        <time>2015-03-22T10:50:59.967Z</time>
      </trkpt>
      <trkpt lat="48.39272" lon="2.63964">
        <ele>97.954</ele>
        <time>2015-03-22T10:51:03.988Z</time>
      </trkpt>
      <trkpt lat="48.39271" lon="2.6395">
        <ele>98.663</ele>
        <time>2015-03-22T10:51:07.873Z</time>
      </trkpt>
      <trkpt lat="48.39271" lon="2.63936">
        <ele>99.722</ele>
        <time>2015-03-22T10:51:11.798Z</time>
      </trkpt>
      <trkpt lat="48.39272" lon="2.6392">
        <ele>101.135</ele>
        <time>2015-03-22T10:51:16.710Z</time>
      </trkpt>
      <trkpt lat="48.39273" lon="2.63906">
        <ele>103.11</ele>
        <time>2015-03-22T10:51:21.477Z</time>
      </trkpt>
      <trkpt lat="48.39273" lon="2.63906">
        <ele>104.527</ele>
        <time>2015-03-22T10:51:30.491Z</time>
      </trkpt>
      <trkpt lat="48.39273" lon="2.63906">
        <ele>104.434</ele>
        <time>2015-03-22T10:54:39.311Z</time>
      </trkpt>
      <trkpt lat="48.39268" lon="2.63869">
        <ele>103.834</ele>
        <time>2015-03-22T10:55:10.737Z</time>
      </trkpt>
      <trkpt lat="48.39267" lon="2.63855">
        <ele>104.111</ele>
        <time>2015-03-22T10:55:15.761Z</time>
      </trkpt>
      <trkpt lat="48.39265" lon="2.6384">
        <ele>105.314</ele>
        <time>2015-03-22T10:55:20.637Z</time>
      </trkpt>
      <trkpt lat="48.39265" lon="2.63825">
        <ele>106.478</ele>
        <time>2015-03-22T10:55:25.359Z</time>
      </trkpt>
      <trkpt lat="48.39264" lon="2.63812">
        <ele>107.507</ele>
        <time>2015-03-22T10:55:30.701Z</time>
      </trkpt>
      <trkpt lat="48.39267" lon="2.63798">
        <ele>109.078</ele>
        <time>2015-03-22T10:55:36.836Z</time>
      </trkpt>
      <trkpt lat="48.3927" lon="2.63781">
        <ele>111.007</ele>
        <time>2015-03-22T10:55:43.539Z</time>
      </trkpt>
      <trkpt lat="48.39274" lon="2.63768">
        <ele>112.504</ele>
        <time>2015-03-22T10:55:49.109Z</time>
      </trkpt>
      <trkpt lat="48.39281" lon="2.63755">
        <ele>113.159</ele>
        <time>2015-03-22T10:55:55.887Z</time>
      </trkpt>
      <trkpt lat="48.39287" lon="2.63744">
        <ele>113.018</ele>
        <time>2015-03-22T10:56:01.486Z</time>
      </trkpt>
      <trkpt lat="48.39287" lon="2.63744">
        <ele>112.52</ele>
        <time>2015-03-22T10:56:04.479Z</time>
      </trkpt>
      <trkpt lat="48.39287" lon="2.63744">
        <ele>112.165</ele>
        <time>2015-03-22T10:56:04.579Z</time>
      </trkpt>
      <trkpt lat="48.39306" lon="2.63726">
        <ele>112.133</ele>
        <time>2015-03-22T10:56:25.470Z</time>
      </trkpt>
      <trkpt lat="48.39312" lon="2.63716">
        <ele>112.262</ele>
        <time>2015-03-22T10:56:30.861Z</time>
      </trkpt>
      <trkpt lat="48.39315" lon="2.63702">
        <ele>112.026</ele>
        <time>2015-03-22T10:56:36.665Z</time>
      </trkpt>
      <trkpt lat="48.39316" lon="2.63688">
        <ele>111.18</ele>
        <time>2015-03-22T10:56:41.910Z</time>
      </trkpt>
      <trkpt lat="48.39315" lon="2.63673">
        <ele>109.937</ele>
        <time>2015-03-22T10:56:47.661Z</time>
      </trkpt>
      <trkpt lat="48.39313" lon="2.63659">
        <ele>108.625</ele>
        <time>2015-03-22T10:56:53.428Z</time>
      </trkpt>
      <trkpt lat="48.39311" lon="2.63644">
        <ele>108.318</ele>
        <time>2015-03-22T10:56:59.368Z</time>
      </trkpt>
      <trkpt lat="48.39308" lon="2.6363">
        <ele>110.273</ele>
        <time>2015-03-22T10:57:05.484Z</time>
      </trkpt>
      <trkpt lat="48.39308" lon="2.6363">
        <ele>112.993</ele>
        <time>2015-03-22T10:57:05.484Z</time>
      </trkpt>
      <trkpt lat="48.39308" lon="2.6363">
        <ele>114.058</ele>
        <time>2015-03-22T10:57:05.584Z</time>
      </trkpt>
      <trkpt lat="48.39305" lon="2.63612">
        <ele>113.644</ele>
        <time>2015-03-22T10:57:18.364Z</time>
      </trkpt>
      <trkpt lat="48.39303" lon="2.63597">
        <ele>113.109</ele>
        <time>2015-03-22T10:57:24.746Z</time>
      </trkpt>
      <trkpt lat="48.39301" lon="2.63583">
        <ele>113.074</ele>
        <time>2015-03-22T10:57:30.862Z</time>
      </trkpt>
      <trkpt lat="48.39298" lon="2.6357">
        <ele>113.667</ele>
        <time>2015-03-22T10:57:37.083Z</time>
      </trkpt>
      <trkpt lat="48.39296" lon="2.63555">
        <ele>115.116</ele>
        <time>2015-03-22T10:57:43.846Z</time>
      </trkpt>
      <trkpt lat="48.39296" lon="2.63541">
        <ele>117.421</ele>
        <time>2015-03-22T10:57:50.481Z</time>
      </trkpt>
      <trkpt lat="48.39296" lon="2.63541">
        <ele>119.513</ele>
        <time>2015-03-22T10:57:52.477Z</time>
      </trkpt>
      <trkpt lat="48.39296" lon="2.63541">
        <ele>120.342</ele>
        <time>2015-03-22T10:58:36.829Z</time>
      </trkpt>
      <trkpt lat="48.39303" lon="2.63513">
        <ele>119.881</ele>
        <time>2015-03-22T10:59:10.519Z</time>
      </trkpt>
      <trkpt lat="48.39306" lon="2.63499">
        <ele>118.945</ele>
        <time>2015-03-22T10:59:16.301Z</time>
      </trkpt>
      <trkpt lat="48.39311" lon="2.63484">
        <ele>118.391</ele>
        <time>2015-03-22T10:59:22.054Z</time>
      </trkpt>
      <trkpt lat="48.39312" lon="2.6347">
        <ele>118.777</ele>
        <time>2015-03-22T10:59:26.824Z</time>
      </trkpt>
      <trkpt lat="48.39314" lon="2.63456">
        <ele>120.357</ele>
        <time>2015-03-22T10:59:31.842Z</time>
      </trkpt>
      <trkpt lat="48.39316" lon="2.63441">
        <ele>122.334</ele>
        <time>2015-03-22T10:59:37.456Z</time>
      </trkpt>
      <trkpt lat="48.39317" lon="2.63427">
        <ele>123.427</ele>
        <time>2015-03-22T10:59:43.238Z</time>
      </trkpt>
      <trkpt lat="48.3932" lon="2.63413">
        <ele>123.447</ele>
        <time>2015-03-22T10:59:49.390Z</time>
      </trkpt>
      <trkpt lat="48.3932" lon="2.634">
        <ele>122.88</ele>
        <time>2015-03-22T10:59:55.188Z</time>
      </trkpt>
      <trkpt lat="48.39321" lon="2.63385">
        <ele>122.341</ele>
        <time>2015-03-22T11:00:00.542Z</time>
      </trkpt>
      <trkpt lat="48.39322" lon="2.6337">
        <ele>122.388</ele>
        <time>2015-03-22T11:00:05.546Z</time>
      </trkpt>
      <trkpt lat="48.39323" lon="2.63355">
        <ele>123.368</ele>
        <time>2015-03-22T11:00:10.065Z</time>
      </trkpt>
      <trkpt lat="48.39324" lon="2.63339">
        <ele>124.711</ele>
        <time>2015-03-22T11:00:15.270Z</time>
      </trkpt>
      <trkpt lat="48.39324" lon="2.63325">
        <ele>125.429</ele>
        <time>2015-03-22T11:00:20.273Z</time>
      </trkpt>
      <trkpt lat="48.39327" lon="2.63311">
        <ele>125.339</ele>
        <time>2015-03-22T11:00:26.327Z</time>
      </trkpt>
      <trkpt lat="48.39328" lon="2.63297">
        <ele>124.885</ele>
        <time>2015-03-22T11:00:31.955Z</time>
      </trkpt>
      <trkpt lat="48.39326" lon="2.63281">
        <ele>125.269</ele>
        <time>2015-03-22T11:00:38.044Z</time>
      </trkpt>
      <trkpt lat="48.39328" lon="2.63267">
        <ele>127.164</ele>
        <time>2015-03-22T11:00:43.253Z</time>
      </trkpt>
      <trkpt lat="48.39331" lon="2.63252">
        <ele>129.252</ele>
        <time>2015-03-22T11:00:48.696Z</time>
      </trkpt>
      <trkpt lat="48.39331" lon="2.63237">
        <ele>130.237</ele>
        <time>2015-03-22T11:00:53.996Z</time>
      </trkpt>
      <trkpt lat="48.39334" lon="2.63222">
        <ele>130.201</ele>
        <time>2015-03-22T11:01:00.155Z</time>
      </trkpt>
      <trkpt lat="48.39336" lon="2.63207">
        <ele>129.903</ele>
        <time>2015-03-22T11:01:05.485Z</time>
      </trkpt>
      <trkpt lat="48.39337" lon="2.63192">
        <ele>130.099</ele>
        <time>2015-03-22T11:01:10.922Z</time>
      </trkpt>
      <trkpt lat="48.39338" lon="2.63177">
        <ele>130.649</ele>
        <time>2015-03-22T11:01:16.251Z</time>
      </trkpt>
      <trkpt lat="48.3934" lon="2.63164">
        <ele>131.225</ele>
        <time>2015-03-22T11:01:21.491Z</time>
      </trkpt>
      <trkpt lat="48.39347" lon="2.63154">
        <ele>131.805</ele>
        <time>2015-03-22T11:01:26.529Z</time>
      </trkpt>
      <trkpt lat="48.39355" lon="2.63145">
        <ele>132.214</ele>
        <time>2015-03-22T11:01:31.752Z</time>
      </trkpt>
      <trkpt lat="48.39365" lon="2.63139">
        <ele>132.679</ele>
        <time>2015-03-22T11:01:37.146Z</time>
      </trkpt>
      <trkpt lat="48.39374" lon="2.63134">
        <ele>133.479</ele>
        <time>2015-03-22T11:01:41.484Z</time>
      </trkpt>
      <trkpt lat="48.39374" lon="2.63134">
        <ele>134.234</ele>
        <time>2015-03-22T11:01:48.485Z</time>
      </trkpt>
      <trkpt lat="48.39374" lon="2.63134">
        <ele>134.534</ele>
        <time>2015-03-22T11:02:40.402Z</time>
      </trkpt>
      <trkpt lat="48.39397" lon="2.63132">
        <ele>134.331</ele>
        <time>2015-03-22T11:03:12.808Z</time>
      </trkpt>
      <trkpt lat="48.39408" lon="2.63133">
        <ele>133.752</ele>
        <time>2015-03-22T11:03:17.951Z</time>
      </trkpt>
      <trkpt lat="48.39418" lon="2.63132">
        <ele>133.103</ele>
        <time>2015-03-22T11:03:21.534Z</time>
      </trkpt>
      <trkpt lat="48.39427" lon="2.63135">
        <ele>133.544</ele>
        <time>2015-03-22T11:03:24.677Z</time>
      </trkpt>
      <trkpt lat="48.39436" lon="2.63143">
        <ele>135.641</ele>
        <time>2015-03-22T11:03:27.968Z</time>
      </trkpt>
      <trkpt lat="48.39441" lon="2.63158">
        <ele>137.655</ele>
        <time>2015-03-22T11:03:31.481Z</time>
      </trkpt>
      <trkpt lat="48.39441" lon="2.63158">
        <ele>138.035</ele>
        <time>2015-03-22T11:03:35.487Z</time>
      </trkpt>
      <trkpt lat="48.39441" lon="2.63158">
        <ele>137.561</ele>
        <time>2015-03-22T11:03:35.587Z</time>
      </trkpt>
      <trkpt lat="48.3945" lon="2.63194">
        <ele>137.34</ele>
        <time>2015-03-22T11:03:52.962Z</time>
      </trkpt>
      <trkpt lat="48.39455" lon="2.63208">
        <ele>137.554</ele>
        <time>2015-03-22T11:03:57.434Z</time>
      </trkpt>
      <trkpt lat="48.39458" lon="2.63224">
        <ele>138.195</ele>
        <time>2015-03-22T11:04:02.573Z</time>
      </trkpt>
      <trkpt lat="48.39461" lon="2.63239">
        <ele>139.384</ele>
        <time>2015-03-22T11:04:07.178Z</time>
      </trkpt>
      <trkpt lat="48.39464" lon="2.63252">
        <ele>140.745</ele>
        <time>2015-03-22T11:04:11.121Z</time>
      </trkpt>
      <trkpt lat="48.39466" lon="2.63267">
        <ele>141.118</ele>
        <time>2015-03-22T11:04:15.407Z</time>
      </trkpt>
      <trkpt lat="48.39469" lon="2.63281">
        <ele>140.069</ele>
        <time>2015-03-22T11:04:19.070Z</time>
      </trkpt>
      <trkpt lat="48.39472" lon="2.63295">
        <ele>138.855</ele>
        <time>2015-03-22T11:04:22.493Z</time>
      </trkpt>
      <trkpt lat="48.39472" lon="2.63295">
        <ele>138.591</ele>
        <time>2015-03-22T11:04:26.487Z</time>
      </trkpt>
      <trkpt lat="48.39472" lon="2.63295">
        <ele>138.835</ele>
        <time>2015-03-22T11:04:26.587Z</time>
      </trkpt>
      <trkpt lat="48.3948" lon="2.63327">
        <ele>138.922</ele>
        <time>2015-03-22T11:04:44.093Z</time>
      </trkpt>
      <trkpt lat="48.39483" lon="2.63343">
        <ele>139.861</ele>
        <time>2015-03-22T11:04:49.859Z</time>
      </trkpt>
      <trkpt lat="48.39485" lon="2.63358">
        <ele>142.458</ele>
        <time>2015-03-22T11:04:54.972Z</time>
      </trkpt>
      <trkpt lat="48.39489" lon="2.63372">
        <ele>145.163</ele>
        <time>2015-03-22T11:05:00.265Z</time>
      </trkpt>
      <trkpt lat="48.39493" lon="2.63387">
        <ele>146.426</ele>
        <time>2015-03-22T11:05:05.368Z</time>
      </trkpt>
      <trkpt lat="48.39499" lon="2.63403">
        <ele>146.507</ele>
        <time>2015-03-22T11:05:10.477Z</time>
      </trkpt>
      <trkpt lat="48.39502" lon="2.63417">
        <ele>145.847</ele>
        <time>2015-03-22T11:05:14.855Z</time>
      </trkpt>
      <trkpt lat="48.39505" lon="2.63431">
        <ele>144.847</ele>
        <time>2015-03-22T11:05:19.205Z</time>
      </trkpt>
      <trkpt lat="48.39506" lon="2.63446">
        <ele>144.024</ele>
        <time>2015-03-22T11:05:23.423Z</time>
      </trkpt>
      <trkpt lat="48.39508" lon="2.63461">
        <ele>143.652</ele>
        <time>2015-03-22T11:05:27.063Z</time>
      </trkpt>
      <trkpt lat="48.39511" lon="2.63475">
        <ele>144.597</ele>
        <time>2015-03-22T11:05:29.797Z</time>
      </trkpt>
      <trkpt lat="48.39515" lon="2.63491">
        <ele>147.229</ele>
        <time>2015-03-22T11:05:32.571Z</time>
      </trkpt>
      <trkpt lat="48.39523" lon="2.63503">
        <ele>149.364</ele>
        <time>2015-03-22T11:05:35.188Z</time>
      </trkpt>
      <trkpt lat="48.39532" lon="2.63513">
        <ele>148.567</ele>
        <time>2015-03-22T11:05:37.705Z</time>
      </trkpt>
      <trkpt lat="48.39541" lon="2.6352">
        <ele>145.389</ele>
        <time>2015-03-22T11:05:40.241Z</time>
      </trkpt>
      <trkpt lat="48.39552" lon="2.63525">
        <ele>141.477</ele>
        <time>2015-03-22T11:05:43.349Z</time>
      </trkpt>
      <trkpt lat="48.39562" lon="2.63523">
        <ele>137.781</ele>
        <time>2015-03-22T11:05:46.056Z</time>
      </trkpt>
      <trkpt lat="48.39574" lon="2.63524">
        <ele>135.037</ele>
        <time>2015-03-22T11:05:49.572Z</time>
      </trkpt>
      <trkpt lat="48.39582" lon="2.6352">
        <ele>133.788</ele>
        <time>2015-03-22T11:05:52.420Z</time>
      </trkpt>
      <trkpt lat="48.39593" lon="2.63518">
        <ele>134.155</ele>
        <time>2015-03-22T11:05:55.845Z</time>
      </trkpt>
      <trkpt lat="48.39604" lon="2.6352">
        <ele>135.711</ele>
        <time>2015-03-22T11:05:59.138Z</time>
      </trkpt>
      <trkpt lat="48.39615" lon="2.63523">
        <ele>137.068</ele>
        <time>2015-03-22T11:06:02.337Z</time>
      </trkpt>
      <trkpt lat="48.39626" lon="2.63524">
        <ele>136.224</ele>
        <time>2015-03-22T11:06:05.150Z</time>
      </trkpt>
      <trkpt lat="48.39637" lon="2.63525">
        <ele>132.965</ele>
        <time>2015-03-22T11:06:07.694Z</time>
      </trkpt>
      <trkpt lat="48.39646" lon="2.63527">
        <ele>129.604</ele>
        <time>2015-03-22T11:06:09.822Z</time>
      </trkpt>
      <trkpt lat="48.39655" lon="2.6353">
        <ele>127.457</ele>
        <time>2015-03-22T11:06:12.065Z</time>
      </trkpt>
      <trkpt lat="48.39665" lon="2.63531">
        <ele>125.768</ele>
        <time>2015-03-22T11:06:14.446Z</time>
      </trkpt>
      <trkpt lat="48.39675" lon="2.63531">
        <ele>124.544</ele>
        <time>2015-03-22T11:06:16.748Z</time>
      </trkpt>
      <trkpt lat="48.39681" lon="2.63541">
        <ele>124.477</ele>
        <time>2015-03-22T11:06:19.113Z</time>
      </trkpt>
      <trkpt lat="48.39686" lon="2.63565">
        <ele>125.537</ele>
        <time>2015-03-22T11:06:23.533Z</time>
      </trkpt>
      <trkpt lat="48.39691" lon="2.63585">
        <ele>127.673</ele>
        <time>2015-03-22T11:06:26.323Z</time>
      </trkpt>
      <trkpt lat="48.39697" lon="2.63612">
        <ele>130.578</ele>
        <time>2015-03-22T11:06:29.567Z</time>
      </trkpt>
      <trkpt lat="48.39703" lon="2.63629">
        <ele>132.079</ele>
        <time>2015-03-22T11:06:31.543Z</time>
      </trkpt>
      <trkpt lat="48.39718" lon="2.63644">
        <ele>130.68</ele>
        <time>2015-03-22T11:06:34.408Z</time>
      </trkpt>
      <trkpt lat="48.39737" lon="2.63635">
        <ele>127.36</ele>
        <time>2015-03-22T11:06:37.577Z</time>
      </trkpt>
      <trkpt lat="48.39748" lon="2.63629">
        <ele>123.672</ele>
        <time>2015-03-22T11:06:39.400Z</time>
      </trkpt>
      <trkpt lat="48.39764" lon="2.6364">
        <ele>120.894</ele>
        <time>2015-03-22T11:06:41.870Z</time>
      </trkpt>
      <trkpt lat="48.39775" lon="2.63659">
        <ele>119.43</ele>
        <time>2015-03-22T11:06:43.981Z</time>
      </trkpt>
      <trkpt lat="48.39792" lon="2.63692">
        <ele>118.359</ele>
        <time>2015-03-22T11:06:47.049Z</time>
      </trkpt>
      <trkpt lat="48.39803" lon="2.63712">
        <ele>117.12</ele>
        <time>2015-03-22T11:06:48.910Z</time>
      </trkpt>
      <trkpt lat="48.39817" lon="2.6374">
        <ele>115.928</ele>
        <time>2015-03-22T11:06:51.503Z</time>
      </trkpt>
      <trkpt lat="48.39826" lon="2.63764">
        <ele>114.776</ele>
        <time>2015-03-22T11:06:53.713Z</time>
      </trkpt>
      <trkpt lat="48.39831" lon="2.63788">
        <ele>112.585</ele>
        <time>2015-03-22T11:06:55.933Z</time>
      </trkpt>
      <trkpt lat="48.39829" lon="2.63817">
        <ele>108.75</ele>
        <time>2015-03-22T11:06:58.896Z</time>
      </trkpt>
      <trkpt lat="48.39829" lon="2.63847">
        <ele>104.387</ele>
        <time>2015-03-22T11:07:02.058Z</time>
      </trkpt>
      <trkpt lat="48.39828" lon="2.63865">
        <ele>100.924</ele>
        <time>2015-03-22T11:07:03.971Z</time>
      </trkpt>
      <trkpt lat="48.39827" lon="2.63894">
        <ele>98.85</ele>
        <time>2015-03-22T11:07:07.188Z</time>
      </trkpt>
      <trkpt lat="48.39825" lon="2.63918">
        <ele>97.878</ele>
        <time>2015-03-22T11:07:10.110Z</time>
      </trkpt>
      <trkpt lat="48.39823" lon="2.63934">
        <ele>97.419</ele>
        <time>2015-03-22T11:07:12.036Z</time>
      </trkpt>
      <trkpt lat="48.3982" lon="2.63955">
        <ele>97.158</ele>
        <time>2015-03-22T11:07:14.876Z</time>
      </trkpt>
      <trkpt lat="48.39818" lon="2.63975">
        <ele>96.98</ele>
        <time>2015-03-22T11:07:17.773Z</time>
      </trkpt>
      <trkpt lat="48.39816" lon="2.63995">
        <ele>96.288</ele>
        <time>2015-03-22T11:07:21.094Z</time>
      </trkpt>
      <trkpt lat="48.39815" lon="2.64012">
        <ele>94.86</ele>
        <time>2015-03-22T11:07:23.948Z</time>
      </trkpt>
      <trkpt lat="48.39814" lon="2.64028">
        <ele>93.664</ele>
        <time>2015-03-22T11:07:26.654Z</time>
      </trkpt>
      <trkpt lat="48.39813" lon="2.64043">
        <ele>94.028</ele>
        <time>2015-03-22T11:07:29.179Z</time>
      </trkpt>
      <trkpt lat="48.3981" lon="2.6406">
        <ele>96.027</ele>
        <time>2015-03-22T11:07:31.909Z</time>
      </trkpt>
      <trkpt lat="48.39807" lon="2.64077">
        <ele>98.306</ele>
        <time>2015-03-22T11:07:34.881Z</time>
      </trkpt>
      <trkpt lat="48.39805" lon="2.6409">
        <ele>99.398</ele>
        <time>2015-03-22T11:07:37.630Z</time>
      </trkpt>
      <trkpt lat="48.39802" lon="2.64108">
        <ele>98.987</ele>
        <time>2015-03-22T11:07:41.451Z</time>
      </trkpt>
      <trkpt lat="48.39801" lon="2.64122">
        <ele>97.774</ele>
        <time>2015-03-22T11:07:44.449Z</time>
      </trkpt>
      <trkpt lat="48.39799" lon="2.64136">
        <ele>96.726</ele>
        <time>2015-03-22T11:07:47.335Z</time>
      </trkpt>
      <trkpt lat="48.39796" lon="2.64151">
        <ele>96.12</ele>
        <time>2015-03-22T11:07:50.425Z</time>
      </trkpt>
      <trkpt lat="48.39796" lon="2.64167">
        <ele>95.05</ele>
        <time>2015-03-22T11:07:53.305Z</time>
      </trkpt>
      <trkpt lat="48.39795" lon="2.64182">
        <ele>92.324</ele>
        <time>2015-03-22T11:07:56.094Z</time>
      </trkpt>
      <trkpt lat="48.39793" lon="2.64196">
        <ele>88.584</ele>
        <time>2015-03-22T11:07:58.508Z</time>
      </trkpt>
      <trkpt lat="48.39789" lon="2.64213">
        <ele>86.125</ele>
        <time>2015-03-22T11:08:01.501Z</time>
      </trkpt>
      <trkpt lat="48.39789" lon="2.64213">
        <ele>85.875</ele>
        <time>2015-03-22T11:08:06.497Z</time>
      </trkpt>
      <trkpt lat="48.39789" lon="2.64213">
        <ele>86.471</ele>
        <time>2015-03-22T11:10:32.474Z</time>
      </trkpt>
      <trkpt lat="48.39785" lon="2.64246">
        <ele>86.609</ele>
        <time>2015-03-22T11:10:47.518Z</time>
      </trkpt>
      <trkpt lat="48.39778" lon="2.64275">
        <ele>87.941</ele>
        <time>2015-03-22T11:10:54.034Z</time>
      </trkpt>
      <trkpt lat="48.39773" lon="2.64309">
        <ele>91.875</ele>
        <time>2015-03-22T11:10:59.730Z</time>
      </trkpt>
      <trkpt lat="48.39774" lon="2.64326">
        <ele>96.058</ele>
        <time>2015-03-22T11:11:02.519Z</time>
      </trkpt>
      <trkpt lat="48.39777" lon="2.64352">
        <ele>98.728</ele>
        <time>2015-03-22T11:11:08.197Z</time>
      </trkpt>
      <trkpt lat="48.39778" lon="2.64367">
        <ele>100.844</ele>
        <time>2015-03-22T11:11:12.085Z</time>
      </trkpt>
      <trkpt lat="48.39778" lon="2.64386">
        <ele>102.651</ele>
        <time>2015-03-22T11:11:17.135Z</time>
      </trkpt>
      <trkpt lat="48.39777" lon="2.64411">
        <ele>103.771</ele>
        <time>2015-03-22T11:11:22.545Z</time>
      </trkpt>
      <trkpt lat="48.39777" lon="2.64433">
        <ele>103.83</ele>
        <time>2015-03-22T11:11:25.697Z</time>
      </trkpt>
      <trkpt lat="48.39777" lon="2.64448">
        <ele>102.536</ele>
        <time>2015-03-22T11:11:27.722Z</time>
      </trkpt>
      <trkpt lat="48.39777" lon="2.64477">
        <ele>100.652</ele>
        <time>2015-03-22T11:11:31.593Z</time>
      </trkpt>
      <trkpt lat="48.39776" lon="2.64492">
        <ele>99.465</ele>
        <time>2015-03-22T11:11:33.790Z</time>
      </trkpt>
      <trkpt lat="48.39777" lon="2.64513">
        <ele>99.34</ele>
        <time>2015-03-22T11:11:36.926Z</time>
      </trkpt>
      <trkpt lat="48.39777" lon="2.64531">
        <ele>99.61</ele>
        <time>2015-03-22T11:11:40.024Z</time>
      </trkpt>
      <trkpt lat="48.39779" lon="2.64556">
        <ele>99.452</ele>
        <time>2015-03-22T11:11:44.529Z</time>
      </trkpt>
      <trkpt lat="48.3978" lon="2.64573">
        <ele>98.492</ele>
        <time>2015-03-22T11:11:47.450Z</time>
      </trkpt>
      <trkpt lat="48.39778" lon="2.64591">
        <ele>97.158</ele>
        <time>2015-03-22T11:11:50.225Z</time>
      </trkpt>
      <trkpt lat="48.39778" lon="2.64619">
        <ele>96.208</ele>
        <time>2015-03-22T11:11:54.580Z</time>
      </trkpt>
      <trkpt lat="48.39778" lon="2.64645">
        <ele>95.881</ele>
        <time>2015-03-22T11:11:58.371Z</time>
      </trkpt>
      <trkpt lat="48.3978" lon="2.64665">
        <ele>96.007</ele>
        <time>2015-03-22T11:12:01.578Z</time>
      </trkpt>
      <trkpt lat="48.39787" lon="2.64681">
        <ele>97.129</ele>
        <time>2015-03-22T11:12:04.855Z</time>
      </trkpt>
      <trkpt lat="48.39792" lon="2.64694">
        <ele>99.929</ele>
        <time>2015-03-22T11:12:07.481Z</time>
      </trkpt>
      <trkpt lat="48.39796" lon="2.64709">
        <ele>103.414</ele>
        <time>2015-03-22T11:12:10.878Z</time>
      </trkpt>
      <trkpt lat="48.39796" lon="2.64725">
        <ele>105.733</ele>
        <time>2015-03-22T11:12:14.431Z</time>
      </trkpt>
      <trkpt lat="48.39797" lon="2.64742">
        <ele>106.382</ele>
        <time>2015-03-22T11:12:18.437Z</time>
      </trkpt>
      <trkpt lat="48.39797" lon="2.64756">
        <ele>106.39</ele>
        <time>2015-03-22T11:12:22.177Z</time>
      </trkpt>
      <trkpt lat="48.39796" lon="2.6477">
        <ele>106.839</ele>
        <time>2015-03-22T11:12:26.053Z</time>
      </trkpt>
      <trkpt lat="48.39796" lon="2.64785">
        <ele>107.629</ele>
        <time>2015-03-22T11:12:30.623Z</time>
      </trkpt>
      <trkpt lat="48.39797" lon="2.64808">
        <ele>108.061</ele>
        <time>2015-03-22T11:12:36.432Z</time>
      </trkpt>
      <trkpt lat="48.39795" lon="2.64827">
        <ele>107.392</ele>
        <time>2015-03-22T11:12:40.510Z</time>
      </trkpt>
      <trkpt lat="48.39792" lon="2.64851">
        <ele>105.537</ele>
        <time>2015-03-22T11:12:44.877Z</time>
      </trkpt>
      <trkpt lat="48.39789" lon="2.64873">
        <ele>103.651</ele>
        <time>2015-03-22T11:12:48.686Z</time>
      </trkpt>
      <trkpt lat="48.39787" lon="2.64887">
        <ele>101.839</ele>
        <time>2015-03-22T11:12:51.059Z</time>
      </trkpt>
      <trkpt lat="48.39783" lon="2.64908">
        <ele>99.371</ele>
        <time>2015-03-22T11:12:54.798Z</time>
      </trkpt>
      <trkpt lat="48.3978" lon="2.64928">
        <ele>97.058</ele>
        <time>2015-03-22T11:12:58.172Z</time>
      </trkpt>
      <trkpt lat="48.39777" lon="2.64948">
        <ele>95.931</ele>
        <time>2015-03-22T11:13:01.618Z</time>
      </trkpt>
      <trkpt lat="48.39778" lon="2.64962">
        <ele>95.949</ele>
        <time>2015-03-22T11:13:04.184Z</time>
      </trkpt>
      <trkpt lat="48.39778" lon="2.64977">
        <ele>96.942</ele>
        <time>2015-03-22T11:13:06.871Z</time>
      </trkpt>
      <trkpt lat="48.39777" lon="2.64994">
        <ele>98.402</ele>
        <time>2015-03-22T11:13:10.131Z</time>
      </trkpt>
      <trkpt lat="48.39774" lon="2.6502">
        <ele>99.456</ele>
        <time>2015-03-22T11:13:14.675Z</time>
      </trkpt>
      <trkpt lat="48.39773" lon="2.65037">
        <ele>99.565</ele>
        <time>2015-03-22T11:13:17.748Z</time>
      </trkpt>
      <trkpt lat="48.3977" lon="2.65053">
        <ele>98.289</ele>
        <time>2015-03-22T11:13:20.605Z</time>
      </trkpt>
      <trkpt lat="48.39768" lon="2.65067">
        <ele>95.889</ele>
        <time>2015-03-22T11:13:23.139Z</time>
      </trkpt>
      <trkpt lat="48.39767" lon="2.65081">
        <ele>94.12</ele>
        <time>2015-03-22T11:13:25.695Z</time>
      </trkpt>
      <trkpt lat="48.39764" lon="2.65111">
        <ele>94.488</ele>
        <time>2015-03-22T11:13:31.487Z</time>
      </trkpt>
      <trkpt lat="48.39764" lon="2.65111">
        <ele>96.35</ele>
        <time>2015-03-22T11:13:31.487Z</time>
      </trkpt>
      <trkpt lat="48.39764" lon="2.65111">
        <ele>97.732</ele>
        <time>2015-03-22T11:13:31.587Z</time>
      </trkpt>
      <trkpt lat="48.39761" lon="2.65129">
        <ele>97.475</ele>
        <time>2015-03-22T11:13:36.640Z</time>
      </trkpt>
      <trkpt lat="48.3976" lon="2.65149">
        <ele>96.248</ele>
        <time>2015-03-22T11:13:40.204Z</time>
      </trkpt>
      <trkpt lat="48.3976" lon="2.65165">
        <ele>95.179</ele>
        <time>2015-03-22T11:13:42.748Z</time>
      </trkpt>
      <trkpt lat="48.39756" lon="2.65193">
        <ele>94.36</ele>
        <time>2015-03-22T11:13:47.244Z</time>
      </trkpt>
      <trkpt lat="48.39754" lon="2.65207">
        <ele>93.332</ele>
        <time>2015-03-22T11:13:49.300Z</time>
      </trkpt>
      <trkpt lat="48.3975" lon="2.65225">
        <ele>92.238</ele>
        <time>2015-03-22T11:13:52.187Z</time>
      </trkpt>
      <trkpt lat="48.39745" lon="2.65248">
        <ele>91.664</ele>
        <time>2015-03-22T11:13:55.790Z</time>
      </trkpt>
      <trkpt lat="48.39745" lon="2.65266">
        <ele>91.936</ele>
        <time>2015-03-22T11:13:58.583Z</time>
      </trkpt>
      <trkpt lat="48.39744" lon="2.65283">
        <ele>92.933</ele>
        <time>2015-03-22T11:14:01.395Z</time>
      </trkpt>
      <trkpt lat="48.39742" lon="2.65302">
        <ele>93.986</ele>
        <time>2015-03-22T11:14:04.676Z</time>
      </trkpt>
      <trkpt lat="48.39741" lon="2.65322">
        <ele>94.462</ele>
        <time>2015-03-22T11:14:08.008Z</time>
      </trkpt>
      <trkpt lat="48.39739" lon="2.65342">
        <ele>94.138</ele>
        <time>2015-03-22T11:14:11.528Z</time>
      </trkpt>
      <trkpt lat="48.39738" lon="2.65358">
        <ele>93.233</ele>
        <time>2015-03-22T11:14:14.438Z</time>
      </trkpt>
      <trkpt lat="48.39736" lon="2.65381">
        <ele>92.541</ele>
        <time>2015-03-22T11:14:18.722Z</time>
      </trkpt>
      <trkpt lat="48.39733" lon="2.65401">
        <ele>92.614</ele>
        <time>2015-03-22T11:14:22.812Z</time>
      </trkpt>
      <trkpt lat="48.3973" lon="2.65434">
        <ele>93.046</ele>
        <time>2015-03-22T11:14:29.284Z</time>
      </trkpt>
      <trkpt lat="48.39729" lon="2.65448">
        <ele>93.56</ele>
        <time>2015-03-22T11:14:32.579Z</time>
      </trkpt>
      <trkpt lat="48.39728" lon="2.65466">
        <ele>94.211</ele>
        <time>2015-03-22T11:14:36.534Z</time>
      </trkpt>
      <trkpt lat="48.39724" lon="2.6548">
        <ele>94.491</ele>
        <time>2015-03-22T11:14:39.967Z</time>
      </trkpt>
      <trkpt lat="48.39719" lon="2.65497">
        <ele>94.013</ele>
        <time>2015-03-22T11:14:43.961Z</time>
      </trkpt>
      <trkpt lat="48.39716" lon="2.65515">
        <ele>93.233</ele>
        <time>2015-03-22T11:14:47.571Z</time>
      </trkpt>
      <trkpt lat="48.39714" lon="2.65535">
        <ele>92.689</ele>
        <time>2015-03-22T11:14:51.231Z</time>
      </trkpt>
      <trkpt lat="48.39711" lon="2.65554">
        <ele>92.31</ele>
        <time>2015-03-22T11:14:54.759Z</time>
      </trkpt>
      <trkpt lat="48.39708" lon="2.65569">
        <ele>91.547</ele>
        <time>2015-03-22T11:14:57.563Z</time>
      </trkpt>
      <trkpt lat="48.39706" lon="2.65587">
        <ele>89.958</ele>
        <time>2015-03-22T11:15:01.163Z</time>
      </trkpt>
      <trkpt lat="48.39703" lon="2.65603">
        <ele>88.029</ele>
        <time>2015-03-22T11:15:04.368Z</time>
      </trkpt>
      <trkpt lat="48.39701" lon="2.65618">
        <ele>86.755</ele>
        <time>2015-03-22T11:15:07.419Z</time>
      </trkpt>
      <trkpt lat="48.39698" lon="2.65635">
        <ele>86.625</ele>
        <time>2015-03-22T11:15:11.160Z</time>
      </trkpt>
      <trkpt lat="48.39698" lon="2.6565">
        <ele>87.592</ele>
        <time>2015-03-22T11:15:14.240Z</time>
      </trkpt>
      <trkpt lat="48.39696" lon="2.65666">
        <ele>89.15</ele>
        <time>2015-03-22T11:15:17.607Z</time>
      </trkpt>
      <trkpt lat="48.39693" lon="2.65684">
        <ele>90.275</ele>
        <time>2015-03-22T11:15:21.520Z</time>
      </trkpt>
      <trkpt lat="48.3969" lon="2.65698">
        <ele>90.412</ele>
        <time>2015-03-22T11:15:24.972Z</time>
      </trkpt>
      <trkpt lat="48.39687" lon="2.65714">
        <ele>89.977</ele>
        <time>2015-03-22T11:15:28.766Z</time>
      </trkpt>
      <trkpt lat="48.39684" lon="2.6573">
        <ele>89.565</ele>
        <time>2015-03-22T11:15:32.919Z</time>
      </trkpt>
      <trkpt lat="48.3968" lon="2.65745">
        <ele>89.578</ele>
        <time>2015-03-22T11:15:37.300Z</time>
      </trkpt>
      <trkpt lat="48.39676" lon="2.65759">
        <ele>90.191</ele>
        <time>2015-03-22T11:15:41.731Z</time>
      </trkpt>
      <trkpt lat="48.39673" lon="2.65776">
        <ele>91.093</ele>
        <time>2015-03-22T11:15:46.833Z</time>
      </trkpt>
      <trkpt lat="48.39671" lon="2.65791">
        <ele>91.74</ele>
        <time>2015-03-22T11:15:50.876Z</time>
      </trkpt>
      <trkpt lat="48.39667" lon="2.65804">
        <ele>91.886</ele>
        <time>2015-03-22T11:15:54.951Z</time>
      </trkpt>
      <trkpt lat="48.39665" lon="2.6582">
        <ele>91.604</ele>
        <time>2015-03-22T11:15:59.665Z</time>
      </trkpt>
      <trkpt lat="48.39663" lon="2.65835">
        <ele>91.224</ele>
        <time>2015-03-22T11:16:04.488Z</time>
      </trkpt>
      <trkpt lat="48.3966" lon="2.6585">
        <ele>91.057</ele>
        <time>2015-03-22T11:16:09.025Z</time>
      </trkpt>
      <trkpt lat="48.39658" lon="2.65864">
        <ele>91.203</ele>
        <time>2015-03-22T11:16:13.804Z</time>
      </trkpt>
      <trkpt lat="48.39652" lon="2.65873">
        <ele>91.585</ele>
        <time>2015-03-22T11:16:18.487Z</time>
      </trkpt>
      <trkpt lat="48.39652" lon="2.65873">
        <ele>91.962</ele>
        <time>2015-03-22T11:16:48.548Z</time>
      </trkpt>
      <trkpt lat="48.39652" lon="2.65873">
        <ele>92.109</ele>
        <time>2015-03-22T11:16:48.648Z</time>
      </trkpt>
      <trkpt lat="48.39655" lon="2.65887">
        <ele>91.93</ele>
        <time>2015-03-22T11:17:54.364Z</time>
      </trkpt>
      <trkpt lat="48.3965" lon="2.65902">
        <ele>91.857</ele>
        <time>2015-03-22T11:19:08.652Z</time>
      </trkpt>
      <trkpt lat="48.39645" lon="2.65915">
        <ele>91.633</ele>
        <time>2015-03-22T11:20:14.249Z</time>
      </trkpt>
      <trkpt lat="48.3964" lon="2.65929">
        <ele>91.319</ele>
        <time>2015-03-22T11:21:23.478Z</time>
      </trkpt>
      <trkpt lat="48.39641" lon="2.65943">
        <ele>91.329</ele>
        <time>2015-03-22T11:22:24.908Z</time>
      </trkpt>
      <trkpt lat="48.39647" lon="2.65958">
        <ele>91.633</ele>
        <time>2015-03-22T11:23:43.244Z</time>
      </trkpt>
      <trkpt lat="48.39652" lon="2.65972">
        <ele>92.268</ele>
        <time>2015-03-22T11:24:46.123Z</time>
      </trkpt>
      <trkpt lat="48.39655" lon="2.65988">
        <ele>93.416</ele>
        <time>2015-03-22T11:24:56.226Z</time>
      </trkpt>
      <trkpt lat="48.39659" lon="2.66002">
        <ele>94.507</ele>
        <time>2015-03-22T11:25:06.047Z</time>
      </trkpt>
      <trkpt lat="48.39662" lon="2.66017">
        <ele>95.396</ele>
        <time>2015-03-22T11:25:15.870Z</time>
      </trkpt>
      <trkpt lat="48.39668" lon="2.66035">
        <ele>95.958</ele>
        <time>2015-03-22T11:25:25.505Z</time>
      </trkpt>
      <trkpt lat="48.39668" lon="2.66035">
        <ele>95.815</ele>
        <time>2015-03-22T11:25:27.516Z</time>
      </trkpt>
      <trkpt lat="48.39668" lon="2.66035">
        <ele>95.501</ele>
        <time>2015-03-22T11:25:27.616Z</time>
      </trkpt>
      <trkpt lat="48.3968" lon="2.66066">
        <ele>95.54</ele>
        <time>2015-03-22T11:25:45.415Z</time>
      </trkpt>
      <trkpt lat="48.39682" lon="2.66081">
        <ele>95.639</ele>
        <time>2015-03-22T11:25:51.649Z</time>
      </trkpt>
      <trkpt lat="48.39688" lon="2.66092">
        <ele>96.127</ele>
        <time>2015-03-22T11:25:57.814Z</time>
      </trkpt>
      <trkpt lat="48.39698" lon="2.66098">
        <ele>97.296</ele>
        <time>2015-03-22T11:26:05.017Z</time>
      </trkpt>
      <trkpt lat="48.39722" lon="2.66123">
        <ele>98.766</ele>
        <time>2015-03-22T11:26:25.608Z</time>
      </trkpt>
      <trkpt lat="48.39731" lon="2.66127">
        <ele>100.363</ele>
        <time>2015-03-22T11:26:32.558Z</time>
      </trkpt>
      <trkpt lat="48.3974" lon="2.66132">
        <ele>102.353</ele>
        <time>2015-03-22T11:26:39.428Z</time>
      </trkpt>
      <trkpt lat="48.39749" lon="2.6614">
        <ele>104.327</ele>
        <time>2015-03-22T11:26:44.352Z</time>
      </trkpt>
      <trkpt lat="48.39759" lon="2.66142">
        <ele>105.553</ele>
        <time>2015-03-22T11:26:50.161Z</time>
      </trkpt>
      <trkpt lat="48.39768" lon="2.66144">
        <ele>105.497</ele>
        <time>2015-03-22T11:26:55.362Z</time>
      </trkpt>
      <trkpt lat="48.39778" lon="2.66147">
        <ele>104.788</ele>
        <time>2015-03-22T11:27:04.471Z</time>
      </trkpt>
      <trkpt lat="48.39787" lon="2.66146">
        <ele>105.072</ele>
        <time>2015-03-22T11:27:11.534Z</time>
      </trkpt>
      <trkpt lat="48.39797" lon="2.66148">
        <ele>107.102</ele>
        <time>2015-03-22T11:27:17.646Z</time>
      </trkpt>
      <trkpt lat="48.39806" lon="2.66149">
        <ele>109.488</ele>
        <time>2015-03-22T11:27:23.274Z</time>
      </trkpt>
      <trkpt lat="48.39816" lon="2.66151">
        <ele>111.083</ele>
        <time>2015-03-22T11:27:29.402Z</time>
      </trkpt>
      <trkpt lat="48.39825" lon="2.66153">
        <ele>112.212</ele>
        <time>2015-03-22T11:27:35.099Z</time>
      </trkpt>
      <trkpt lat="48.39835" lon="2.66155">
        <ele>113.147</ele>
        <time>2015-03-22T11:27:41.196Z</time>
      </trkpt>
      <trkpt lat="48.39844" lon="2.66152">
        <ele>113.566</ele>
        <time>2015-03-22T11:27:47.130Z</time>
      </trkpt>
      <trkpt lat="48.39854" lon="2.66152">
        <ele>113.72</ele>
        <time>2015-03-22T11:27:53.501Z</time>
      </trkpt>
      <trkpt lat="48.39854" lon="2.66152">
        <ele>113.913</ele>
        <time>2015-03-22T11:27:59.494Z</time>
      </trkpt>
      <trkpt lat="48.39854" lon="2.66152">
        <ele>114.062</ele>
        <time>2015-03-22T11:29:33.462Z</time>
      </trkpt>
      <trkpt lat="48.39874" lon="2.66157">
        <ele>114.012</ele>
        <time>2015-03-22T11:30:15.672Z</time>
      </trkpt>
      <trkpt lat="48.39887" lon="2.66164">
        <ele>114.147</ele>
        <time>2015-03-22T11:30:19.592Z</time>
      </trkpt>
      <trkpt lat="48.39905" lon="2.66167">
        <ele>114.989</ele>
        <time>2015-03-22T11:30:23.301Z</time>
      </trkpt>
      <trkpt lat="48.39923" lon="2.6616">
        <ele>116.274</ele>
        <time>2015-03-22T11:30:26.373Z</time>
      </trkpt>
      <trkpt lat="48.39934" lon="2.66151">
        <ele>116.601</ele>
        <time>2015-03-22T11:30:28.129Z</time>
      </trkpt>
      <trkpt lat="48.39954" lon="2.66146">
        <ele>114.96</ele>
        <time>2015-03-22T11:30:30.658Z</time>
      </trkpt>
      <trkpt lat="48.39979" lon="2.66153">
        <ele>111.212</ele>
        <time>2015-03-22T11:30:33.308Z</time>
      </trkpt>
      <trkpt lat="48.39998" lon="2.66159">
        <ele>106.142</ele>
        <time>2015-03-22T11:30:35.218Z</time>
      </trkpt>
      <trkpt lat="48.40024" lon="2.6617">
        <ele>101.579</ele>
        <time>2015-03-22T11:30:38.262Z</time>
      </trkpt>
      <trkpt lat="48.40041" lon="2.66177">
        <ele>98.46</ele>
        <time>2015-03-22T11:30:40.671Z</time>
      </trkpt>
      <trkpt lat="48.40057" lon="2.66198">
        <ele>96.275</ele>
        <time>2015-03-22T11:30:43.602Z</time>
      </trkpt>
      <trkpt lat="48.4006" lon="2.6623">
        <ele>95.006</ele>
        <time>2015-03-22T11:30:47.092Z</time>
      </trkpt>
      <trkpt lat="48.40058" lon="2.6625">
        <ele>93.975</ele>
        <time>2015-03-22T11:30:49.536Z</time>
      </trkpt>
      <trkpt lat="48.40056" lon="2.66273">
        <ele>91.806</ele>
        <time>2015-03-22T11:30:52.881Z</time>
      </trkpt>
      <trkpt lat="48.40056" lon="2.66288">
        <ele>88.698</ele>
        <time>2015-03-22T11:30:55.743Z</time>
      </trkpt>
      <trkpt lat="48.40056" lon="2.66303">
        <ele>85.77</ele>
        <time>2015-03-22T11:30:58.597Z</time>
      </trkpt>
      <trkpt lat="48.40055" lon="2.66319">
        <ele>83.597</ele>
        <time>2015-03-22T11:31:02.103Z</time>
      </trkpt>
      <trkpt lat="48.40052" lon="2.66333">
        <ele>82.364</ele>
        <time>2015-03-22T11:31:05.872Z</time>
      </trkpt>
      <trkpt lat="48.40051" lon="2.66348">
        <ele>81.898</ele>
        <time>2015-03-22T11:31:10.106Z</time>
      </trkpt>
      <trkpt lat="48.40051" lon="2.66367">
        <ele>81.824</ele>
        <time>2015-03-22T11:31:16.764Z</time>
      </trkpt>
      <trkpt lat="48.40051" lon="2.66385">
        <ele>81.917</ele>
        <time>2015-03-22T11:31:22.382Z</time>
      </trkpt>
      <trkpt lat="48.40052" lon="2.664">
        <ele>82.018</ele>
        <time>2015-03-22T11:31:26.087Z</time>
      </trkpt>
      <trkpt lat="48.40051" lon="2.66413">
        <ele>81.944</ele>
        <time>2015-03-22T11:31:29.123Z</time>
      </trkpt>
      <trkpt lat="48.40052" lon="2.66429">
        <ele>81.511</ele>
        <time>2015-03-22T11:31:32.217Z</time>
      </trkpt>
      <trkpt lat="48.40051" lon="2.66445">
        <ele>80.449</ele>
        <time>2015-03-22T11:31:35.117Z</time>
      </trkpt>
      <trkpt lat="48.40051" lon="2.66462">
        <ele>78.895</ele>
        <time>2015-03-22T11:31:37.934Z</time>
      </trkpt>
      <trkpt lat="48.4005" lon="2.66478">
        <ele>77.961</ele>
        <time>2015-03-22T11:31:40.468Z</time>
      </trkpt>
      <trkpt lat="48.40051" lon="2.66492">
        <ele>78.337</ele>
        <time>2015-03-22T11:31:42.961Z</time>
      </trkpt>
      <trkpt lat="48.40051" lon="2.6651">
        <ele>79.19</ele>
        <time>2015-03-22T11:31:46.136Z</time>
      </trkpt>
      <trkpt lat="48.40048" lon="2.66525">
        <ele>79.652</ele>
        <time>2015-03-22T11:31:48.870Z</time>
      </trkpt>
      <trkpt lat="48.40049" lon="2.66544">
        <ele>79.717</ele>
        <time>2015-03-22T11:31:52.302Z</time>
      </trkpt>
      <trkpt lat="48.40049" lon="2.66557">
        <ele>79.676</ele>
        <time>2015-03-22T11:31:55.219Z</time>
      </trkpt>
      <trkpt lat="48.40047" lon="2.66571">
        <ele>79.703</ele>
        <time>2015-03-22T11:31:58.223Z</time>
      </trkpt>
      <trkpt lat="48.40045" lon="2.66586">
        <ele>79.637</ele>
        <time>2015-03-22T11:32:02.501Z</time>
      </trkpt>
      <trkpt lat="48.40045" lon="2.66586">
        <ele>79.321</ele>
        <time>2015-03-22T11:32:03.501Z</time>
      </trkpt>
      <trkpt lat="48.40045" lon="2.66586">
        <ele>79.019</ele>
        <time>2015-03-22T11:32:03.601Z</time>
      </trkpt>
      <trkpt lat="48.40043" lon="2.66619">
        <ele>79.032</ele>
        <time>2015-03-22T11:32:18.858Z</time>
      </trkpt>
      <trkpt lat="48.40042" lon="2.66634">
        <ele>79.476</ele>
        <time>2015-03-22T11:32:22.116Z</time>
      </trkpt>
      <trkpt lat="48.40041" lon="2.6665">
        <ele>80.48</ele>
        <time>2015-03-22T11:32:25.359Z</time>
      </trkpt>
      <trkpt lat="48.4004" lon="2.66667">
        <ele>82.023</ele>
        <time>2015-03-22T11:32:28.728Z</time>
      </trkpt>
      <trkpt lat="48.4004" lon="2.66683">
        <ele>83.626</ele>
        <time>2015-03-22T11:32:31.975Z</time>
      </trkpt>
      <trkpt lat="48.40038" lon="2.66697">
        <ele>84.872</ele>
        <time>2015-03-22T11:32:34.945Z</time>
      </trkpt>
      <trkpt lat="48.4004" lon="2.66713">
        <ele>85.494</ele>
        <time>2015-03-22T11:32:38.039Z</time>
      </trkpt>
      <trkpt lat="48.40043" lon="2.66728">
        <ele>85.339</ele>
        <time>2015-03-22T11:32:40.890Z</time>
      </trkpt>
      <trkpt lat="48.40048" lon="2.6674">
        <ele>84.087</ele>
        <time>2015-03-22T11:32:43.501Z</time>
      </trkpt>
      <trkpt lat="48.40048" lon="2.6674">
        <ele>81.897</ele>
        <time>2015-03-22T11:32:51.511Z</time>
      </trkpt>
      <trkpt lat="48.40048" lon="2.6674">
        <ele>80.25</ele>
        <time>2015-03-22T11:32:51.611Z</time>
      </trkpt>
      <trkpt lat="48.40048" lon="2.6674">
        <ele>81.09</ele>
        <time>2015-03-22T11:32:53.584Z</time>
      </trkpt>
      <trkpt lat="48.40048" lon="2.6674">
        <ele>81.593</ele>
        <time>2015-03-22T11:34:01.316Z</time>
      </trkpt>
      <trkpt lat="48.40061" lon="2.6676">
        <ele>81.53</ele>
        <time>2015-03-22T11:34:12.377Z</time>
      </trkpt>
      <trkpt lat="48.40073" lon="2.66788">
        <ele>81.777</ele>
        <time>2015-03-22T11:34:18.020Z</time>
      </trkpt>
      <trkpt lat="48.40086" lon="2.6681">
        <ele>83.645</ele>
        <time>2015-03-22T11:34:21.798Z</time>
      </trkpt>
      <trkpt lat="48.40092" lon="2.6682">
        <ele>86.987</ele>
        <time>2015-03-22T11:34:23.675Z</time>
      </trkpt>
      <trkpt lat="48.40098" lon="2.66832">
        <ele>90.097</ele>
        <time>2015-03-22T11:34:25.686Z</time>
      </trkpt>
      <trkpt lat="48.40107" lon="2.66848">
        <ele>91.501</ele>
        <time>2015-03-22T11:34:29.050Z</time>
      </trkpt>
      <trkpt lat="48.40115" lon="2.66862">
        <ele>91.145</ele>
        <time>2015-03-22T11:34:32.210Z</time>
      </trkpt>
      <trkpt lat="48.4012" lon="2.66875">
        <ele>89.962</ele>
        <time>2015-03-22T11:34:34.674Z</time>
      </trkpt>
      <trkpt lat="48.40128" lon="2.66889">
        <ele>88.535</ele>
        <time>2015-03-22T11:34:37.698Z</time>
      </trkpt>
      <trkpt lat="48.40138" lon="2.66906">
        <ele>86.52</ele>
        <time>2015-03-22T11:34:41.419Z</time>
      </trkpt>
      <trkpt lat="48.40144" lon="2.66918">
        <ele>84.06</ele>
        <time>2015-03-22T11:34:43.982Z</time>
      </trkpt>
      <trkpt lat="48.40149" lon="2.66931">
        <ele>82.211</ele>
        <time>2015-03-22T11:34:47.035Z</time>
      </trkpt>
      <trkpt lat="48.40155" lon="2.66946">
        <ele>81.567</ele>
        <time>2015-03-22T11:34:50.282Z</time>
      </trkpt>
      <trkpt lat="48.40163" lon="2.66959">
        <ele>81.641</ele>
        <time>2015-03-22T11:34:53.785Z</time>
      </trkpt>
      <trkpt lat="48.40171" lon="2.66971">
        <ele>81.886</ele>
        <time>2015-03-22T11:34:56.748Z</time>
      </trkpt>
      <trkpt lat="48.40178" lon="2.66985">
        <ele>82.261</ele>
        <time>2015-03-22T11:35:00.252Z</time>
      </trkpt>
      <trkpt lat="48.40184" lon="2.66996">
        <ele>82.784</ele>
        <time>2015-03-22T11:35:03.339Z</time>
      </trkpt>
      <trkpt lat="48.4019" lon="2.67008">
        <ele>83.045</ele>
        <time>2015-03-22T11:35:06.329Z</time>
      </trkpt>
      <trkpt lat="48.40197" lon="2.6702">
        <ele>82.668</ele>
        <time>2015-03-22T11:35:09.171Z</time>
      </trkpt>
      <trkpt lat="48.40205" lon="2.67037">
        <ele>81.931</ele>
        <time>2015-03-22T11:35:12.591Z</time>
      </trkpt>
      <trkpt lat="48.40211" lon="2.67049">
        <ele>81.454</ele>
        <time>2015-03-22T11:35:14.806Z</time>
      </trkpt>
      <trkpt lat="48.40219" lon="2.67065">
        <ele>81.46</ele>
        <time>2015-03-22T11:35:17.828Z</time>
      </trkpt>
      <trkpt lat="48.40227" lon="2.67081">
        <ele>81.743</ele>
        <time>2015-03-22T11:35:20.926Z</time>
      </trkpt>
      <trkpt lat="48.40234" lon="2.67095">
        <ele>81.515</ele>
        <time>2015-03-22T11:35:23.743Z</time>
      </trkpt>
      <trkpt lat="48.40243" lon="2.67111">
        <ele>80.308</ele>
        <time>2015-03-22T11:35:26.925Z</time>
      </trkpt>
      <trkpt lat="48.40249" lon="2.67122">
        <ele>79.381</ele>
        <time>2015-03-22T11:35:29.325Z</time>
      </trkpt>
      <trkpt lat="48.40258" lon="2.67136">
        <ele>79.987</ele>
        <time>2015-03-22T11:35:32.826Z</time>
      </trkpt>
      <trkpt lat="48.40265" lon="2.6715">
        <ele>81.706</ele>
        <time>2015-03-22T11:35:36.070Z</time>
      </trkpt>
      <trkpt lat="48.40274" lon="2.67164">
        <ele>83.802</ele>
        <time>2015-03-22T11:35:39.115Z</time>
      </trkpt>
      <trkpt lat="48.40283" lon="2.67183">
        <ele>85.852</ele>
        <time>2015-03-22T11:35:42.515Z</time>
      </trkpt>
      <trkpt lat="48.40292" lon="2.67198">
        <ele>87.306</ele>
        <time>2015-03-22T11:35:45.246Z</time>
      </trkpt>
      <trkpt lat="48.40303" lon="2.67217">
        <ele>87.554</ele>
        <time>2015-03-22T11:35:49.013Z</time>
      </trkpt>
      <trkpt lat="48.40312" lon="2.67235">
        <ele>86.65</ele>
        <time>2015-03-22T11:35:52.335Z</time>
      </trkpt>
      <trkpt lat="48.40321" lon="2.67248">
        <ele>85.616</ele>
        <time>2015-03-22T11:35:55.068Z</time>
      </trkpt>
      <trkpt lat="48.40331" lon="2.67263">
        <ele>85.962</ele>
        <time>2015-03-22T11:35:58.370Z</time>
      </trkpt>
      <trkpt lat="48.40337" lon="2.67277">
        <ele>87.92</ele>
        <time>2015-03-22T11:36:01.087Z</time>
      </trkpt>
      <trkpt lat="48.40344" lon="2.67291">
        <ele>89.385</ele>
        <time>2015-03-22T11:36:04.014Z</time>
      </trkpt>
      <trkpt lat="48.40351" lon="2.67304">
        <ele>88.772</ele>
        <time>2015-03-22T11:36:06.746Z</time>
      </trkpt>
      <trkpt lat="48.40357" lon="2.67317">
        <ele>87.074</ele>
        <time>2015-03-22T11:36:09.565Z</time>
      </trkpt>
      <trkpt lat="48.40364" lon="2.67329">
        <ele>85.617</ele>
        <time>2015-03-22T11:36:12.485Z</time>
      </trkpt>
      <trkpt lat="48.40371" lon="2.67343">
        <ele>84.814</ele>
        <time>2015-03-22T11:36:15.833Z</time>
      </trkpt>
      <trkpt lat="48.40376" lon="2.67355">
        <ele>84.471</ele>
        <time>2015-03-22T11:36:18.784Z</time>
      </trkpt>
      <trkpt lat="48.40383" lon="2.67367">
        <ele>84.43</ele>
        <time>2015-03-22T11:36:21.931Z</time>
      </trkpt>
      <trkpt lat="48.4039" lon="2.67378">
        <ele>84.838</ele>
        <time>2015-03-22T11:36:25.023Z</time>
      </trkpt>
      <trkpt lat="48.40398" lon="2.67391">
        <ele>85.408</ele>
        <time>2015-03-22T11:36:28.539Z</time>
      </trkpt>
      <trkpt lat="48.40404" lon="2.67405">
        <ele>85.477</ele>
        <time>2015-03-22T11:36:32.047Z</time>
      </trkpt>
      <trkpt lat="48.4041" lon="2.67418">
        <ele>84.668</ele>
        <time>2015-03-22T11:36:35.192Z</time>
      </trkpt>
      <trkpt lat="48.40416" lon="2.67431">
        <ele>83.142</ele>
        <time>2015-03-22T11:36:38.522Z</time>
      </trkpt>
      <trkpt lat="48.40422" lon="2.67443">
        <ele>81.657</ele>
        <time>2015-03-22T11:36:41.569Z</time>
      </trkpt>
      <trkpt lat="48.40428" lon="2.67455">
        <ele>80.93</ele>
        <time>2015-03-22T11:36:44.811Z</time>
      </trkpt>
      <trkpt lat="48.40435" lon="2.67467">
        <ele>81.01</ele>
        <time>2015-03-22T11:36:47.943Z</time>
      </trkpt>
      <trkpt lat="48.40442" lon="2.6748">
        <ele>81.322</ele>
        <time>2015-03-22T11:36:51.149Z</time>
      </trkpt>
      <trkpt lat="48.40449" lon="2.67494">
        <ele>81.41</ele>
        <time>2015-03-22T11:36:54.523Z</time>
      </trkpt>
      <trkpt lat="48.40455" lon="2.67506">
        <ele>81.171</ele>
        <time>2015-03-22T11:36:57.441Z</time>
      </trkpt>
      <trkpt lat="48.40462" lon="2.67519">
        <ele>80.696</ele>
        <time>2015-03-22T11:37:00.274Z</time>
      </trkpt>
      <trkpt lat="48.40469" lon="2.67531">
        <ele>80.746</ele>
        <time>2015-03-22T11:37:03.331Z</time>
      </trkpt>
      <trkpt lat="48.40475" lon="2.67543">
        <ele>81.816</ele>
        <time>2015-03-22T11:37:06.165Z</time>
      </trkpt>
      <trkpt lat="48.40483" lon="2.67557">
        <ele>82.917</ele>
        <time>2015-03-22T11:37:09.340Z</time>
      </trkpt>
      <trkpt lat="48.40489" lon="2.67571">
        <ele>83.028</ele>
        <time>2015-03-22T11:37:12.274Z</time>
      </trkpt>
      <trkpt lat="48.40496" lon="2.67586">
        <ele>82.453</ele>
        <time>2015-03-22T11:37:15.405Z</time>
      </trkpt>
      <trkpt lat="48.40504" lon="2.676">
        <ele>81.899</ele>
        <time>2015-03-22T11:37:18.418Z</time>
      </trkpt>
      <trkpt lat="48.40511" lon="2.67613">
        <ele>81.972</ele>
        <time>2015-03-22T11:37:21.178Z</time>
      </trkpt>
      <trkpt lat="48.40518" lon="2.67626">
        <ele>82.784</ele>
        <time>2015-03-22T11:37:23.876Z</time>
      </trkpt>
      <trkpt lat="48.40525" lon="2.67637">
        <ele>83.71</ele>
        <time>2015-03-22T11:37:26.512Z</time>
      </trkpt>
      <trkpt lat="48.40525" lon="2.67637">
        <ele>84.186</ele>
        <time>2015-03-22T11:37:26.512Z</time>
      </trkpt>
      <trkpt lat="48.40525" lon="2.67637">
        <ele>84.277</ele>
        <time>2015-03-22T11:37:26.836Z</time>
      </trkpt>
      <trkpt lat="48.40536" lon="2.67655">
        <ele>84.205</ele>
        <time>2015-03-22T11:37:32.868Z</time>
      </trkpt>
      <trkpt lat="48.4054" lon="2.6767">
        <ele>84.316</ele>
        <time>2015-03-22T11:37:35.500Z</time>
      </trkpt>
      <trkpt lat="48.4054" lon="2.6767">
        <ele>84.778</ele>
        <time>2015-03-22T11:37:38.502Z</time>
      </trkpt>
      <trkpt lat="48.4054" lon="2.6767">
        <ele>85.176</ele>
        <time>2015-03-22T11:37:38.602Z</time>
      </trkpt>
      <trkpt lat="48.40547" lon="2.67705">
        <ele>85.137</ele>
        <time>2015-03-22T11:37:59.816Z</time>
      </trkpt>
      <trkpt lat="48.40543" lon="2.67718">
        <ele>84.943</ele>
        <time>2015-03-22T11:38:05.347Z</time>
      </trkpt>
      <trkpt lat="48.40541" lon="2.67731">
        <ele>85.077</ele>
        <time>2015-03-22T11:38:10.387Z</time>
      </trkpt>
      <trkpt lat="48.40538" lon="2.67745">
        <ele>85.583</ele>
        <time>2015-03-22T11:38:15.525Z</time>
      </trkpt>
      <trkpt lat="48.40538" lon="2.67745">
        <ele>86.075</ele>
        <time>2015-03-22T11:38:33.549Z</time>
      </trkpt>
      <trkpt lat="48.40538" lon="2.67745">
        <ele>86.257</ele>
        <time>2015-03-22T11:38:45.854Z</time>
      </trkpt>
      <trkpt lat="48.40532" lon="2.6778">
        <ele>86.19</ele>
        <time>2015-03-22T11:39:19.027Z</time>
      </trkpt>
      <trkpt lat="48.4053" lon="2.67794">
        <ele>86.342</ele>
        <time>2015-03-22T11:39:25.300Z</time>
      </trkpt>
      <trkpt lat="48.40529" lon="2.67809">
        <ele>87.004</ele>
        <time>2015-03-22T11:39:29.714Z</time>
      </trkpt>
      <trkpt lat="48.40527" lon="2.67826">
        <ele>87.403</ele>
        <time>2015-03-22T11:39:34.286Z</time>
      </trkpt>
      <trkpt lat="48.40524" lon="2.67843">
        <ele>86.551</ele>
        <time>2015-03-22T11:39:38.558Z</time>
      </trkpt>
      <trkpt lat="48.40522" lon="2.67857">
        <ele>84.785</ele>
        <time>2015-03-22T11:39:41.898Z</time>
      </trkpt>
      <trkpt lat="48.40521" lon="2.67874">
        <ele>83.233</ele>
        <time>2015-03-22T11:39:45.246Z</time>
      </trkpt>
      <trkpt lat="48.40519" lon="2.67893">
        <ele>82.458</ele>
        <time>2015-03-22T11:39:48.352Z</time>
      </trkpt>
      <trkpt lat="48.40516" lon="2.67912">
        <ele>82.251</ele>
        <time>2015-03-22T11:39:51.317Z</time>
      </trkpt>
      <trkpt lat="48.40514" lon="2.67926">
        <ele>82.243</ele>
        <time>2015-03-22T11:39:53.191Z</time>
      </trkpt>
      <trkpt lat="48.40511" lon="2.67946">
        <ele>82.245</ele>
        <time>2015-03-22T11:39:55.961Z</time>
      </trkpt>
      <trkpt lat="48.40509" lon="2.67965">
        <ele>82.213</ele>
        <time>2015-03-22T11:39:58.508Z</time>
      </trkpt>
      <trkpt lat="48.40506" lon="2.67985">
        <ele>82.074</ele>
        <time>2015-03-22T11:40:01.154Z</time>
      </trkpt>
      <trkpt lat="48.40503" lon="2.68006">
        <ele>81.798</ele>
        <time>2015-03-22T11:40:03.815Z</time>
      </trkpt>
      <trkpt lat="48.405" lon="2.6802">
        <ele>81.491</ele>
        <time>2015-03-22T11:40:05.654Z</time>
      </trkpt>
      <trkpt lat="48.40497" lon="2.68042">
        <ele>81.192</ele>
        <time>2015-03-22T11:40:08.387Z</time>
      </trkpt>
      <trkpt lat="48.40494" lon="2.68064">
        <ele>81.066</ele>
        <time>2015-03-22T11:40:11.082Z</time>
      </trkpt>
      <trkpt lat="48.40492" lon="2.68078">
        <ele>80.922</ele>
        <time>2015-03-22T11:40:12.804Z</time>
      </trkpt>
      <trkpt lat="48.40489" lon="2.68097">
        <ele>80.907</ele>
        <time>2015-03-22T11:40:15.286Z</time>
      </trkpt>
      <trkpt lat="48.40486" lon="2.68118">
        <ele>81.283</ele>
        <time>2015-03-22T11:40:17.932Z</time>
      </trkpt>
      <trkpt lat="48.40482" lon="2.68137">
        <ele>81.44</ele>
        <time>2015-03-22T11:40:20.405Z</time>
      </trkpt>
      <trkpt lat="48.4048" lon="2.68155">
        <ele>81.691</ele>
        <time>2015-03-22T11:40:22.835Z</time>
      </trkpt>
      <trkpt lat="48.40477" lon="2.68175">
        <ele>82.31</ele>
        <time>2015-03-22T11:40:25.472Z</time>
      </trkpt>
      <trkpt lat="48.40474" lon="2.6819">
        <ele>83.16</ele>
        <time>2015-03-22T11:40:27.485Z</time>
      </trkpt>
      <trkpt lat="48.4047" lon="2.68209">
        <ele>83.686</ele>
        <time>2015-03-22T11:40:30.087Z</time>
      </trkpt>
      <trkpt lat="48.40469" lon="2.68227">
        <ele>83.595</ele>
        <time>2015-03-22T11:40:32.505Z</time>
      </trkpt>
      <trkpt lat="48.40469" lon="2.68227">
        <ele>83.144</ele>
        <time>2015-03-22T11:40:33.547Z</time>
      </trkpt>
      <trkpt lat="48.40469" lon="2.68227">
        <ele>82.81</ele>
        <time>2015-03-22T11:40:33.647Z</time>
      </trkpt>
      <trkpt lat="48.40465" lon="2.68257">
        <ele>82.85</ele>
        <time>2015-03-22T11:40:40.351Z</time>
      </trkpt>
      <trkpt lat="48.40463" lon="2.68276">
        <ele>83.124</ele>
        <time>2015-03-22T11:40:43.502Z</time>
      </trkpt>
      <trkpt lat="48.40459" lon="2.68292">
        <ele>83.343</ele>
        <time>2015-03-22T11:40:46.687Z</time>
      </trkpt>
      <trkpt lat="48.40449" lon="2.68292">
        <ele>83.408</ele>
        <time>2015-03-22T11:40:49.920Z</time>
      </trkpt>
      <trkpt lat="48.4044" lon="2.68296">
        <ele>83.47</ele>
        <time>2015-03-22T11:40:52.956Z</time>
      </trkpt>
      <trkpt lat="48.40432" lon="2.68305">
        <ele>83.635</ele>
        <time>2015-03-22T11:40:56.500Z</time>
      </trkpt>
      <trkpt lat="48.40423" lon="2.68306">
        <ele>83.175</ele>
        <time>2015-03-22T11:41:00.291Z</time>
      </trkpt>
      <trkpt lat="48.40413" lon="2.68303">
        <ele>81.594</ele>
        <time>2015-03-22T11:41:04.507Z</time>
      </trkpt>
      <trkpt lat="48.40413" lon="2.68303">
        <ele>80.206</ele>
        <time>2015-03-22T11:41:13.522Z</time>
      </trkpt>
      <trkpt lat="48.40413" lon="2.68303">
        <ele>80.189</ele>
        <time>2015-03-22T11:41:13.622Z</time>
      </trkpt>
      <trkpt lat="48.40406" lon="2.68294">
        <ele>80.718</ele>
        <time>2015-03-22T11:41:59.524Z</time>
      </trkpt>
      <trkpt lat="48.40406" lon="2.68294">
        <ele>80.404</ele>
        <time>2015-03-22T11:42:08.513Z</time>
      </trkpt>
      <trkpt lat="48.40406" lon="2.68294">
        <ele>80.187</ele>
        <time>2015-03-22T11:42:09.663Z</time>
      </trkpt>
      <trkpt lat="48.40411" lon="2.68267">
        <ele>80.164</ele>
        <time>2015-03-22T11:43:33.530Z</time>
      </trkpt>
      <trkpt lat="48.40411" lon="2.68267">
        <ele>80.203</ele>
        <time>2015-03-22T11:43:36.524Z</time>
      </trkpt>
      <trkpt lat="48.40411" lon="2.68267">
        <ele>80.177</ele>
        <time>2015-03-22T11:43:36.624Z</time>
      </trkpt>
      <trkpt lat="48.40411" lon="2.68267">
        <ele>80.093</ele>
        <time>2015-03-22T11:43:55.527Z</time>
      </trkpt>
      <trkpt lat="48.40411" lon="2.68267">
        <ele>80.083</ele>
        <time>2015-03-22T11:43:55.627Z</time>
      </trkpt>
      <trkpt lat="48.40408" lon="2.68285">
        <ele>80.06</ele>
        <time>2015-03-22T11:45:13.523Z</time>
      </trkpt>
      <trkpt lat="48.40408" lon="2.68285">
        <ele>80.029</ele>
        <time>2015-03-22T11:45:21.524Z</time>
      </trkpt>
      <trkpt lat="48.40408" lon="2.68285">
        <ele>80.002</ele>
        <time>2015-03-22T11:45:21.624Z</time>
      </trkpt>
      <trkpt lat="48.40408" lon="2.68285">
        <ele>79.952</ele>
        <time>2015-03-22T11:45:40.508Z</time>
      </trkpt>
      <trkpt lat="48.40409" lon="2.68298">
        <ele>79.93</ele>
        <time>2015-03-22T11:46:10.536Z</time>
      </trkpt>
    </trkseg>
  </trk>
</gpx>